<?xml version="1.0" encoding="UTF-8" standalone="no" ?>
<gpx xmlns="http://www.topografix.com/GPX/1/1" xmlns:xsi="http://www.w3.org/2001/XMLSchema-instance" xsi:schemaLocation="http://www.topografix.com/GPX/1/1 http://www.topografix.com/GPX/1/1/gpx.xsd" version="1.1" creator="VisuGPX - https://www.visugpx.com">
  <metadata>
    <name>Balcons du Verdon</name>
    <desc><![CDATA[Uniquement la première partie : de castellane à Rougon
Traversée sympa malgré une petite partie de la descente sur piste. sinon de belles descentes roulantes et des pistes bien difficiles en montée !]]></desc>
  </metadata>
  <trk>
    <name><![CDATA[2016-10-26-01]]></name>
    <trkseg>
      <trkpt lat="43.84528" lon="6.51438">
        <ele>728.4</ele>
        <time>2016-10-26T07:49:42Z</time>
      </trkpt>
      <trkpt lat="43.84528" lon="6.51438">
        <ele>728.5</ele>
        <time>2016-10-26T07:49:43Z</time>
      </trkpt>
      <trkpt lat="43.84537" lon="6.51445">
        <ele>729</ele>
        <time>2016-10-26T07:50:03Z</time>
      </trkpt>
      <trkpt lat="43.84547" lon="6.51447">
        <ele>729</ele>
        <time>2016-10-26T07:50:08Z</time>
      </trkpt>
      <trkpt lat="43.84556" lon="6.5144">
        <ele>729</ele>
        <time>2016-10-26T07:50:11Z</time>
      </trkpt>
      <trkpt lat="43.84566" lon="6.51431">
        <ele>729</ele>
        <time>2016-10-26T07:50:14Z</time>
      </trkpt>
      <trkpt lat="43.84574" lon="6.51425">
        <ele>728.9</ele>
        <time>2016-10-26T07:50:17Z</time>
      </trkpt>
      <trkpt lat="43.84581" lon="6.51415">
        <ele>729.4</ele>
        <time>2016-10-26T07:50:29Z</time>
      </trkpt>
      <trkpt lat="43.84583" lon="6.514">
        <ele>729.2</ele>
        <time>2016-10-26T07:50:33Z</time>
      </trkpt>
      <trkpt lat="43.84578" lon="6.51387">
        <ele>729</ele>
        <time>2016-10-26T07:50:37Z</time>
      </trkpt>
      <trkpt lat="43.84573" lon="6.51375">
        <ele>728.8</ele>
        <time>2016-10-26T07:50:43Z</time>
      </trkpt>
      <trkpt lat="43.84569" lon="6.51361">
        <ele>728.2</ele>
        <time>2016-10-26T07:50:48Z</time>
      </trkpt>
      <trkpt lat="43.84565" lon="6.5135">
        <ele>728.3</ele>
        <time>2016-10-26T07:50:53Z</time>
      </trkpt>
      <trkpt lat="43.84564" lon="6.51337">
        <ele>728.2</ele>
        <time>2016-10-26T07:50:58Z</time>
      </trkpt>
      <trkpt lat="43.84573" lon="6.51335">
        <ele>728.3</ele>
        <time>2016-10-26T07:51:04Z</time>
      </trkpt>
      <trkpt lat="43.84583" lon="6.51335">
        <ele>728.3</ele>
        <time>2016-10-26T07:51:12Z</time>
      </trkpt>
      <trkpt lat="43.8459" lon="6.51327">
        <ele>728.1</ele>
        <time>2016-10-26T07:51:15Z</time>
      </trkpt>
      <trkpt lat="43.84594" lon="6.51315">
        <ele>727.9</ele>
        <time>2016-10-26T07:51:18Z</time>
      </trkpt>
      <trkpt lat="43.84599" lon="6.51302">
        <ele>727.6</ele>
        <time>2016-10-26T07:51:22Z</time>
      </trkpt>
      <trkpt lat="43.84603" lon="6.51286">
        <ele>727.4</ele>
        <time>2016-10-26T07:51:26Z</time>
      </trkpt>
      <trkpt lat="43.84607" lon="6.51275">
        <ele>727.3</ele>
        <time>2016-10-26T07:51:29Z</time>
      </trkpt>
      <trkpt lat="43.84615" lon="6.51266">
        <ele>727.2</ele>
        <time>2016-10-26T07:51:32Z</time>
      </trkpt>
      <trkpt lat="43.8462" lon="6.51254">
        <ele>727.1</ele>
        <time>2016-10-26T07:51:35Z</time>
      </trkpt>
      <trkpt lat="43.84616" lon="6.51239">
        <ele>727</ele>
        <time>2016-10-26T07:51:38Z</time>
      </trkpt>
      <trkpt lat="43.84615" lon="6.51223">
        <ele>727</ele>
        <time>2016-10-26T07:51:41Z</time>
      </trkpt>
      <trkpt lat="43.84616" lon="6.51207">
        <ele>726.9</ele>
        <time>2016-10-26T07:51:44Z</time>
      </trkpt>
      <trkpt lat="43.84617" lon="6.51189">
        <ele>726.9</ele>
        <time>2016-10-26T07:51:47Z</time>
      </trkpt>
      <trkpt lat="43.84618" lon="6.51172">
        <ele>726.8</ele>
        <time>2016-10-26T07:51:50Z</time>
      </trkpt>
      <trkpt lat="43.84618" lon="6.51153">
        <ele>726.8</ele>
        <time>2016-10-26T07:51:53Z</time>
      </trkpt>
      <trkpt lat="43.84618" lon="6.51141">
        <ele>726.9</ele>
        <time>2016-10-26T07:51:55Z</time>
      </trkpt>
      <trkpt lat="43.84618" lon="6.51127">
        <ele>726.8</ele>
        <time>2016-10-26T07:51:57Z</time>
      </trkpt>
      <trkpt lat="43.84619" lon="6.51109">
        <ele>726.8</ele>
        <time>2016-10-26T07:52:00Z</time>
      </trkpt>
      <trkpt lat="43.84619" lon="6.51095">
        <ele>726.7</ele>
        <time>2016-10-26T07:52:02Z</time>
      </trkpt>
      <trkpt lat="43.84619" lon="6.51081">
        <ele>726.7</ele>
        <time>2016-10-26T07:52:04Z</time>
      </trkpt>
      <trkpt lat="43.8462" lon="6.51068">
        <ele>726.6</ele>
        <time>2016-10-26T07:52:06Z</time>
      </trkpt>
      <trkpt lat="43.84621" lon="6.51055">
        <ele>726.5</ele>
        <time>2016-10-26T07:52:08Z</time>
      </trkpt>
      <trkpt lat="43.84622" lon="6.51041">
        <ele>726.5</ele>
        <time>2016-10-26T07:52:10Z</time>
      </trkpt>
      <trkpt lat="43.84624" lon="6.51028">
        <ele>726.4</ele>
        <time>2016-10-26T07:52:12Z</time>
      </trkpt>
      <trkpt lat="43.84625" lon="6.5101">
        <ele>726.3</ele>
        <time>2016-10-26T07:52:15Z</time>
      </trkpt>
      <trkpt lat="43.84627" lon="6.50992">
        <ele>726.3</ele>
        <time>2016-10-26T07:52:18Z</time>
      </trkpt>
      <trkpt lat="43.84628" lon="6.50976">
        <ele>726.2</ele>
        <time>2016-10-26T07:52:20Z</time>
      </trkpt>
      <trkpt lat="43.84628" lon="6.50959">
        <ele>726.2</ele>
        <time>2016-10-26T07:52:22Z</time>
      </trkpt>
      <trkpt lat="43.84628" lon="6.50945">
        <ele>726.2</ele>
        <time>2016-10-26T07:52:24Z</time>
      </trkpt>
      <trkpt lat="43.84628" lon="6.5093">
        <ele>726.2</ele>
        <time>2016-10-26T07:52:26Z</time>
      </trkpt>
      <trkpt lat="43.84629" lon="6.50916">
        <ele>726.1</ele>
        <time>2016-10-26T07:52:28Z</time>
      </trkpt>
      <trkpt lat="43.84629" lon="6.50902">
        <ele>726.1</ele>
        <time>2016-10-26T07:52:30Z</time>
      </trkpt>
      <trkpt lat="43.84629" lon="6.50887">
        <ele>726.1</ele>
        <time>2016-10-26T07:52:32Z</time>
      </trkpt>
      <trkpt lat="43.84628" lon="6.50873">
        <ele>726.1</ele>
        <time>2016-10-26T07:52:34Z</time>
      </trkpt>
      <trkpt lat="43.84625" lon="6.50857">
        <ele>726.1</ele>
        <time>2016-10-26T07:52:36Z</time>
      </trkpt>
      <trkpt lat="43.84623" lon="6.50843">
        <ele>723.9</ele>
        <time>2016-10-26T07:52:38Z</time>
      </trkpt>
      <trkpt lat="43.8462" lon="6.50829">
        <ele>724</ele>
        <time>2016-10-26T07:52:40Z</time>
      </trkpt>
      <trkpt lat="43.84617" lon="6.50815">
        <ele>724.1</ele>
        <time>2016-10-26T07:52:42Z</time>
      </trkpt>
      <trkpt lat="43.84614" lon="6.50801">
        <ele>724.2</ele>
        <time>2016-10-26T07:52:44Z</time>
      </trkpt>
      <trkpt lat="43.84611" lon="6.50788">
        <ele>724.2</ele>
        <time>2016-10-26T07:52:46Z</time>
      </trkpt>
      <trkpt lat="43.84608" lon="6.50774">
        <ele>724.3</ele>
        <time>2016-10-26T07:52:48Z</time>
      </trkpt>
      <trkpt lat="43.84604" lon="6.5076">
        <ele>724.3</ele>
        <time>2016-10-26T07:52:50Z</time>
      </trkpt>
      <trkpt lat="43.84601" lon="6.50747">
        <ele>724.4</ele>
        <time>2016-10-26T07:52:52Z</time>
      </trkpt>
      <trkpt lat="43.84597" lon="6.50733">
        <ele>724.4</ele>
        <time>2016-10-26T07:52:54Z</time>
      </trkpt>
      <trkpt lat="43.84594" lon="6.50721">
        <ele>724.4</ele>
        <time>2016-10-26T07:52:56Z</time>
      </trkpt>
      <trkpt lat="43.8459" lon="6.50709">
        <ele>724.5</ele>
        <time>2016-10-26T07:52:58Z</time>
      </trkpt>
      <trkpt lat="43.84587" lon="6.50696">
        <ele>724.5</ele>
        <time>2016-10-26T07:53:00Z</time>
      </trkpt>
      <trkpt lat="43.84584" lon="6.50684">
        <ele>724.5</ele>
        <time>2016-10-26T07:53:02Z</time>
      </trkpt>
      <trkpt lat="43.84582" lon="6.50671">
        <ele>724.6</ele>
        <time>2016-10-26T07:53:04Z</time>
      </trkpt>
      <trkpt lat="43.84579" lon="6.50658">
        <ele>724.7</ele>
        <time>2016-10-26T07:53:06Z</time>
      </trkpt>
      <trkpt lat="43.84577" lon="6.50645">
        <ele>724.8</ele>
        <time>2016-10-26T07:53:08Z</time>
      </trkpt>
      <trkpt lat="43.84574" lon="6.50632">
        <ele>724.9</ele>
        <time>2016-10-26T07:53:10Z</time>
      </trkpt>
      <trkpt lat="43.84571" lon="6.50619">
        <ele>725</ele>
        <time>2016-10-26T07:53:12Z</time>
      </trkpt>
      <trkpt lat="43.84568" lon="6.50607">
        <ele>725</ele>
        <time>2016-10-26T07:53:14Z</time>
      </trkpt>
      <trkpt lat="43.84565" lon="6.50594">
        <ele>725.1</ele>
        <time>2016-10-26T07:53:16Z</time>
      </trkpt>
      <trkpt lat="43.84562" lon="6.50582">
        <ele>725.1</ele>
        <time>2016-10-26T07:53:18Z</time>
      </trkpt>
      <trkpt lat="43.84558" lon="6.50571">
        <ele>725.2</ele>
        <time>2016-10-26T07:53:20Z</time>
      </trkpt>
      <trkpt lat="43.84555" lon="6.50559">
        <ele>725.3</ele>
        <time>2016-10-26T07:53:22Z</time>
      </trkpt>
      <trkpt lat="43.8455" lon="6.50542">
        <ele>725.6</ele>
        <time>2016-10-26T07:53:25Z</time>
      </trkpt>
      <trkpt lat="43.84544" lon="6.50526">
        <ele>725.9</ele>
        <time>2016-10-26T07:53:28Z</time>
      </trkpt>
      <trkpt lat="43.84538" lon="6.50512">
        <ele>726</ele>
        <time>2016-10-26T07:53:31Z</time>
      </trkpt>
      <trkpt lat="43.84536" lon="6.50499">
        <ele>726.2</ele>
        <time>2016-10-26T07:53:34Z</time>
      </trkpt>
      <trkpt lat="43.84544" lon="6.50488">
        <ele>726.3</ele>
        <time>2016-10-26T07:53:37Z</time>
      </trkpt>
      <trkpt lat="43.84554" lon="6.50478">
        <ele>726.4</ele>
        <time>2016-10-26T07:53:40Z</time>
      </trkpt>
      <trkpt lat="43.84561" lon="6.5047">
        <ele>726.4</ele>
        <time>2016-10-26T07:53:42Z</time>
      </trkpt>
      <trkpt lat="43.84569" lon="6.50462">
        <ele>726.4</ele>
        <time>2016-10-26T07:53:44Z</time>
      </trkpt>
      <trkpt lat="43.84576" lon="6.50454">
        <ele>726.4</ele>
        <time>2016-10-26T07:53:46Z</time>
      </trkpt>
      <trkpt lat="43.84586" lon="6.50443">
        <ele>726.4</ele>
        <time>2016-10-26T07:53:49Z</time>
      </trkpt>
      <trkpt lat="43.84596" lon="6.50432">
        <ele>726.5</ele>
        <time>2016-10-26T07:53:52Z</time>
      </trkpt>
      <trkpt lat="43.84606" lon="6.50421">
        <ele>726.5</ele>
        <time>2016-10-26T07:53:55Z</time>
      </trkpt>
      <trkpt lat="43.84616" lon="6.50411">
        <ele>726.5</ele>
        <time>2016-10-26T07:53:58Z</time>
      </trkpt>
      <trkpt lat="43.84626" lon="6.50401">
        <ele>726.6</ele>
        <time>2016-10-26T07:54:01Z</time>
      </trkpt>
      <trkpt lat="43.84636" lon="6.50392">
        <ele>727.3</ele>
        <time>2016-10-26T07:54:04Z</time>
      </trkpt>
      <trkpt lat="43.84648" lon="6.50387">
        <ele>727.7</ele>
        <time>2016-10-26T07:54:07Z</time>
      </trkpt>
      <trkpt lat="43.8466" lon="6.5039">
        <ele>728</ele>
        <time>2016-10-26T07:54:10Z</time>
      </trkpt>
      <trkpt lat="43.84671" lon="6.50398">
        <ele>728.2</ele>
        <time>2016-10-26T07:54:13Z</time>
      </trkpt>
      <trkpt lat="43.8468" lon="6.50404">
        <ele>728.4</ele>
        <time>2016-10-26T07:54:17Z</time>
      </trkpt>
      <trkpt lat="43.84692" lon="6.50401">
        <ele>728.5</ele>
        <time>2016-10-26T07:54:20Z</time>
      </trkpt>
      <trkpt lat="43.84705" lon="6.50398">
        <ele>728.6</ele>
        <time>2016-10-26T07:54:23Z</time>
      </trkpt>
      <trkpt lat="43.84717" lon="6.50395">
        <ele>728.6</ele>
        <time>2016-10-26T07:54:26Z</time>
      </trkpt>
      <trkpt lat="43.8473" lon="6.50391">
        <ele>728.8</ele>
        <time>2016-10-26T07:54:29Z</time>
      </trkpt>
      <trkpt lat="43.84742" lon="6.50388">
        <ele>729.3</ele>
        <time>2016-10-26T07:54:32Z</time>
      </trkpt>
      <trkpt lat="43.84754" lon="6.50386">
        <ele>729.6</ele>
        <time>2016-10-26T07:54:35Z</time>
      </trkpt>
      <trkpt lat="43.84766" lon="6.50384">
        <ele>729.8</ele>
        <time>2016-10-26T07:54:38Z</time>
      </trkpt>
      <trkpt lat="43.84777" lon="6.5038">
        <ele>730</ele>
        <time>2016-10-26T07:54:41Z</time>
      </trkpt>
      <trkpt lat="43.84783" lon="6.50368">
        <ele>730.2</ele>
        <time>2016-10-26T07:54:45Z</time>
      </trkpt>
      <trkpt lat="43.84779" lon="6.50357">
        <ele>730.4</ele>
        <time>2016-10-26T07:54:48Z</time>
      </trkpt>
      <trkpt lat="43.84774" lon="6.50343">
        <ele>730.5</ele>
        <time>2016-10-26T07:54:51Z</time>
      </trkpt>
      <trkpt lat="43.84771" lon="6.50326">
        <ele>730.6</ele>
        <time>2016-10-26T07:54:54Z</time>
      </trkpt>
      <trkpt lat="43.84769" lon="6.5031">
        <ele>730.8</ele>
        <time>2016-10-26T07:54:57Z</time>
      </trkpt>
      <trkpt lat="43.84768" lon="6.50295">
        <ele>731.2</ele>
        <time>2016-10-26T07:55:01Z</time>
      </trkpt>
      <trkpt lat="43.84768" lon="6.50281">
        <ele>731.8</ele>
        <time>2016-10-26T07:55:07Z</time>
      </trkpt>
      <trkpt lat="43.84766" lon="6.50267">
        <ele>732.1</ele>
        <time>2016-10-26T07:55:11Z</time>
      </trkpt>
      <trkpt lat="43.84764" lon="6.50253">
        <ele>732.3</ele>
        <time>2016-10-26T07:55:14Z</time>
      </trkpt>
      <trkpt lat="43.84762" lon="6.50239">
        <ele>732.5</ele>
        <time>2016-10-26T07:55:17Z</time>
      </trkpt>
      <trkpt lat="43.8476" lon="6.50226">
        <ele>732.7</ele>
        <time>2016-10-26T07:55:20Z</time>
      </trkpt>
      <trkpt lat="43.84757" lon="6.50213">
        <ele>733</ele>
        <time>2016-10-26T07:55:23Z</time>
      </trkpt>
      <trkpt lat="43.84754" lon="6.502">
        <ele>733.1</ele>
        <time>2016-10-26T07:55:26Z</time>
      </trkpt>
      <trkpt lat="43.84751" lon="6.50184">
        <ele>733.4</ele>
        <time>2016-10-26T07:55:29Z</time>
      </trkpt>
      <trkpt lat="43.84749" lon="6.50171">
        <ele>733.5</ele>
        <time>2016-10-26T07:55:32Z</time>
      </trkpt>
      <trkpt lat="43.84748" lon="6.50155">
        <ele>733.9</ele>
        <time>2016-10-26T07:55:36Z</time>
      </trkpt>
      <trkpt lat="43.84749" lon="6.50142">
        <ele>734.2</ele>
        <time>2016-10-26T07:55:39Z</time>
      </trkpt>
      <trkpt lat="43.84749" lon="6.50128">
        <ele>734.5</ele>
        <time>2016-10-26T07:55:42Z</time>
      </trkpt>
      <trkpt lat="43.84751" lon="6.50114">
        <ele>734.8</ele>
        <time>2016-10-26T07:55:45Z</time>
      </trkpt>
      <trkpt lat="43.84753" lon="6.50099">
        <ele>735.3</ele>
        <time>2016-10-26T07:55:49Z</time>
      </trkpt>
      <trkpt lat="43.84752" lon="6.50082">
        <ele>735.9</ele>
        <time>2016-10-26T07:55:53Z</time>
      </trkpt>
      <trkpt lat="43.84752" lon="6.50069">
        <ele>736.3</ele>
        <time>2016-10-26T07:55:56Z</time>
      </trkpt>
      <trkpt lat="43.84751" lon="6.50056">
        <ele>736.8</ele>
        <time>2016-10-26T07:55:59Z</time>
      </trkpt>
      <trkpt lat="43.8475" lon="6.50041">
        <ele>737.4</ele>
        <time>2016-10-26T07:56:03Z</time>
      </trkpt>
      <trkpt lat="43.8475" lon="6.50026">
        <ele>738</ele>
        <time>2016-10-26T07:56:07Z</time>
      </trkpt>
      <trkpt lat="43.84754" lon="6.50013">
        <ele>738.7</ele>
        <time>2016-10-26T07:56:11Z</time>
      </trkpt>
      <trkpt lat="43.84763" lon="6.50007">
        <ele>739.2</ele>
        <time>2016-10-26T07:56:15Z</time>
      </trkpt>
      <trkpt lat="43.84772" lon="6.50003">
        <ele>740</ele>
        <time>2016-10-26T07:56:19Z</time>
      </trkpt>
      <trkpt lat="43.84776" lon="6.49991">
        <ele>744.2</ele>
        <time>2016-10-26T07:56:36Z</time>
      </trkpt>
      <trkpt lat="43.84773" lon="6.49978">
        <ele>745.7</ele>
        <time>2016-10-26T07:56:45Z</time>
      </trkpt>
      <trkpt lat="43.84771" lon="6.49965">
        <ele>746.8</ele>
        <time>2016-10-26T07:56:53Z</time>
      </trkpt>
      <trkpt lat="43.8477" lon="6.49952">
        <ele>749.3</ele>
        <time>2016-10-26T07:57:08Z</time>
      </trkpt>
      <trkpt lat="43.84763" lon="6.49945">
        <ele>752.4</ele>
        <time>2016-10-26T07:57:58Z</time>
      </trkpt>
      <trkpt lat="43.84763" lon="6.49931">
        <ele>753.2</ele>
        <time>2016-10-26T07:58:10Z</time>
      </trkpt>
      <trkpt lat="43.84765" lon="6.49916">
        <ele>753.5</ele>
        <time>2016-10-26T07:58:16Z</time>
      </trkpt>
      <trkpt lat="43.84761" lon="6.49904">
        <ele>753.7</ele>
        <time>2016-10-26T07:58:21Z</time>
      </trkpt>
      <trkpt lat="43.84752" lon="6.49895">
        <ele>754.2</ele>
        <time>2016-10-26T07:58:27Z</time>
      </trkpt>
      <trkpt lat="43.84748" lon="6.49881">
        <ele>754.9</ele>
        <time>2016-10-26T07:58:32Z</time>
      </trkpt>
      <trkpt lat="43.84745" lon="6.49869">
        <ele>756.5</ele>
        <time>2016-10-26T07:58:44Z</time>
      </trkpt>
      <trkpt lat="43.84744" lon="6.49855">
        <ele>758.7</ele>
        <time>2016-10-26T07:58:57Z</time>
      </trkpt>
      <trkpt lat="43.84745" lon="6.4984">
        <ele>761.8</ele>
        <time>2016-10-26T07:59:16Z</time>
      </trkpt>
      <trkpt lat="43.84743" lon="6.49827">
        <ele>762.4</ele>
        <time>2016-10-26T07:59:26Z</time>
      </trkpt>
      <trkpt lat="43.84738" lon="6.49816">
        <ele>762.8</ele>
        <time>2016-10-26T07:59:39Z</time>
      </trkpt>
      <trkpt lat="43.8473" lon="6.49821">
        <ele>766.8</ele>
        <time>2016-10-26T08:00:13Z</time>
      </trkpt>
      <trkpt lat="43.84723" lon="6.49813">
        <ele>769.6</ele>
        <time>2016-10-26T08:00:32Z</time>
      </trkpt>
      <trkpt lat="43.84721" lon="6.498">
        <ele>771.4</ele>
        <time>2016-10-26T08:00:43Z</time>
      </trkpt>
      <trkpt lat="43.84717" lon="6.49788">
        <ele>774.1</ele>
        <time>2016-10-26T08:00:57Z</time>
      </trkpt>
      <trkpt lat="43.84713" lon="6.49776">
        <ele>776.8</ele>
        <time>2016-10-26T08:01:18Z</time>
      </trkpt>
      <trkpt lat="43.84712" lon="6.49762">
        <ele>777.8</ele>
        <time>2016-10-26T08:01:25Z</time>
      </trkpt>
      <trkpt lat="43.84711" lon="6.49749">
        <ele>779.2</ele>
        <time>2016-10-26T08:01:32Z</time>
      </trkpt>
      <trkpt lat="43.84704" lon="6.49739">
        <ele>781</ele>
        <time>2016-10-26T08:01:41Z</time>
      </trkpt>
      <trkpt lat="43.84701" lon="6.49727">
        <ele>782.6</ele>
        <time>2016-10-26T08:01:51Z</time>
      </trkpt>
      <trkpt lat="43.84694" lon="6.49718">
        <ele>784.7</ele>
        <time>2016-10-26T08:02:04Z</time>
      </trkpt>
      <trkpt lat="43.84689" lon="6.49707">
        <ele>787.9</ele>
        <time>2016-10-26T08:02:24Z</time>
      </trkpt>
      <trkpt lat="43.84682" lon="6.497">
        <ele>790.3</ele>
        <time>2016-10-26T08:02:38Z</time>
      </trkpt>
      <trkpt lat="43.84678" lon="6.49688">
        <ele>792.7</ele>
        <time>2016-10-26T08:02:53Z</time>
      </trkpt>
      <trkpt lat="43.8467" lon="6.4968">
        <ele>794.6</ele>
        <time>2016-10-26T08:03:04Z</time>
      </trkpt>
      <trkpt lat="43.84666" lon="6.49669">
        <ele>796.6</ele>
        <time>2016-10-26T08:03:15Z</time>
      </trkpt>
      <trkpt lat="43.84661" lon="6.49658">
        <ele>798.9</ele>
        <time>2016-10-26T08:03:27Z</time>
      </trkpt>
      <trkpt lat="43.84656" lon="6.49647">
        <ele>801.7</ele>
        <time>2016-10-26T08:03:41Z</time>
      </trkpt>
      <trkpt lat="43.84649" lon="6.49638">
        <ele>804.4</ele>
        <time>2016-10-26T08:03:55Z</time>
      </trkpt>
      <trkpt lat="43.84639" lon="6.4963">
        <ele>807.3</ele>
        <time>2016-10-26T08:04:11Z</time>
      </trkpt>
      <trkpt lat="43.8463" lon="6.49624">
        <ele>810.3</ele>
        <time>2016-10-26T08:04:27Z</time>
      </trkpt>
      <trkpt lat="43.84626" lon="6.49613">
        <ele>812.6</ele>
        <time>2016-10-26T08:04:41Z</time>
      </trkpt>
      <trkpt lat="43.84628" lon="6.496">
        <ele>815.3</ele>
        <time>2016-10-26T08:04:57Z</time>
      </trkpt>
      <trkpt lat="43.84628" lon="6.49586">
        <ele>817.6</ele>
        <time>2016-10-26T08:05:14Z</time>
      </trkpt>
      <trkpt lat="43.84622" lon="6.49575">
        <ele>818.6</ele>
        <time>2016-10-26T08:05:24Z</time>
      </trkpt>
      <trkpt lat="43.84613" lon="6.49566">
        <ele>819.4</ele>
        <time>2016-10-26T08:05:32Z</time>
      </trkpt>
      <trkpt lat="43.84607" lon="6.49557">
        <ele>820</ele>
        <time>2016-10-26T08:05:38Z</time>
      </trkpt>
      <trkpt lat="43.846" lon="6.49548">
        <ele>820.6</ele>
        <time>2016-10-26T08:05:45Z</time>
      </trkpt>
      <trkpt lat="43.84594" lon="6.49536">
        <ele>821</ele>
        <time>2016-10-26T08:05:52Z</time>
      </trkpt>
      <trkpt lat="43.8459" lon="6.49525">
        <ele>821.5</ele>
        <time>2016-10-26T08:05:58Z</time>
      </trkpt>
      <trkpt lat="43.84584" lon="6.49514">
        <ele>822.9</ele>
        <time>2016-10-26T08:06:07Z</time>
      </trkpt>
      <trkpt lat="43.84579" lon="6.49502">
        <ele>824.2</ele>
        <time>2016-10-26T08:06:16Z</time>
      </trkpt>
      <trkpt lat="43.84574" lon="6.4949">
        <ele>825.4</ele>
        <time>2016-10-26T08:06:23Z</time>
      </trkpt>
      <trkpt lat="43.84572" lon="6.49478">
        <ele>827.4</ele>
        <time>2016-10-26T08:06:36Z</time>
      </trkpt>
      <trkpt lat="43.84571" lon="6.49466">
        <ele>829.6</ele>
        <time>2016-10-26T08:06:48Z</time>
      </trkpt>
      <trkpt lat="43.8457" lon="6.49453">
        <ele>831.5</ele>
        <time>2016-10-26T08:06:59Z</time>
      </trkpt>
      <trkpt lat="43.8457" lon="6.49439">
        <ele>833</ele>
        <time>2016-10-26T08:07:08Z</time>
      </trkpt>
      <trkpt lat="43.8457" lon="6.49426">
        <ele>834.1</ele>
        <time>2016-10-26T08:07:16Z</time>
      </trkpt>
      <trkpt lat="43.84571" lon="6.49413">
        <ele>836</ele>
        <time>2016-10-26T08:07:28Z</time>
      </trkpt>
      <trkpt lat="43.84571" lon="6.494">
        <ele>837.6</ele>
        <time>2016-10-26T08:07:39Z</time>
      </trkpt>
      <trkpt lat="43.84575" lon="6.49389">
        <ele>840.9</ele>
        <time>2016-10-26T08:09:05Z</time>
      </trkpt>
      <trkpt lat="43.84576" lon="6.49376">
        <ele>841.1</ele>
        <time>2016-10-26T08:09:10Z</time>
      </trkpt>
      <trkpt lat="43.84575" lon="6.49363">
        <ele>841.4</ele>
        <time>2016-10-26T08:09:15Z</time>
      </trkpt>
      <trkpt lat="43.84577" lon="6.49349">
        <ele>842.4</ele>
        <time>2016-10-26T08:09:22Z</time>
      </trkpt>
      <trkpt lat="43.84581" lon="6.49337">
        <ele>843.2</ele>
        <time>2016-10-26T08:09:28Z</time>
      </trkpt>
      <trkpt lat="43.84581" lon="6.49324">
        <ele>844.1</ele>
        <time>2016-10-26T08:09:33Z</time>
      </trkpt>
      <trkpt lat="43.84579" lon="6.49311">
        <ele>845.4</ele>
        <time>2016-10-26T08:09:39Z</time>
      </trkpt>
      <trkpt lat="43.84574" lon="6.49298">
        <ele>846.8</ele>
        <time>2016-10-26T08:09:46Z</time>
      </trkpt>
      <trkpt lat="43.84567" lon="6.4929">
        <ele>848.1</ele>
        <time>2016-10-26T08:09:53Z</time>
      </trkpt>
      <trkpt lat="43.84559" lon="6.49283">
        <ele>849.3</ele>
        <time>2016-10-26T08:10:00Z</time>
      </trkpt>
      <trkpt lat="43.84555" lon="6.49271">
        <ele>850.4</ele>
        <time>2016-10-26T08:10:06Z</time>
      </trkpt>
      <trkpt lat="43.84558" lon="6.49258">
        <ele>851.1</ele>
        <time>2016-10-26T08:10:12Z</time>
      </trkpt>
      <trkpt lat="43.84559" lon="6.49244">
        <ele>851.5</ele>
        <time>2016-10-26T08:10:17Z</time>
      </trkpt>
      <trkpt lat="43.84556" lon="6.49229">
        <ele>851.9</ele>
        <time>2016-10-26T08:10:22Z</time>
      </trkpt>
      <trkpt lat="43.84553" lon="6.49218">
        <ele>852.3</ele>
        <time>2016-10-26T08:10:27Z</time>
      </trkpt>
      <trkpt lat="43.84549" lon="6.49205">
        <ele>853.2</ele>
        <time>2016-10-26T08:10:34Z</time>
      </trkpt>
      <trkpt lat="43.84545" lon="6.49191">
        <ele>854.2</ele>
        <time>2016-10-26T08:10:41Z</time>
      </trkpt>
      <trkpt lat="43.84543" lon="6.49177">
        <ele>855</ele>
        <time>2016-10-26T08:10:46Z</time>
      </trkpt>
      <trkpt lat="43.84539" lon="6.49166">
        <ele>856.3</ele>
        <time>2016-10-26T08:10:54Z</time>
      </trkpt>
      <trkpt lat="43.84536" lon="6.49153">
        <ele>858.7</ele>
        <time>2016-10-26T08:11:06Z</time>
      </trkpt>
      <trkpt lat="43.84535" lon="6.49139">
        <ele>860.1</ele>
        <time>2016-10-26T08:11:16Z</time>
      </trkpt>
      <trkpt lat="43.84538" lon="6.49128">
        <ele>863.5</ele>
        <time>2016-10-26T08:11:49Z</time>
      </trkpt>
      <trkpt lat="43.84547" lon="6.49123">
        <ele>865.5</ele>
        <time>2016-10-26T08:12:08Z</time>
      </trkpt>
      <trkpt lat="43.84556" lon="6.4912">
        <ele>868</ele>
        <time>2016-10-26T08:12:25Z</time>
      </trkpt>
      <trkpt lat="43.84564" lon="6.49128">
        <ele>869.8</ele>
        <time>2016-10-26T08:12:38Z</time>
      </trkpt>
      <trkpt lat="43.84572" lon="6.49136">
        <ele>870.9</ele>
        <time>2016-10-26T08:12:47Z</time>
      </trkpt>
      <trkpt lat="43.84579" lon="6.49145">
        <ele>871.7</ele>
        <time>2016-10-26T08:12:54Z</time>
      </trkpt>
      <trkpt lat="43.84585" lon="6.49154">
        <ele>873.1</ele>
        <time>2016-10-26T08:13:06Z</time>
      </trkpt>
      <trkpt lat="43.84594" lon="6.49158">
        <ele>874.9</ele>
        <time>2016-10-26T08:13:19Z</time>
      </trkpt>
      <trkpt lat="43.84602" lon="6.49165">
        <ele>876.1</ele>
        <time>2016-10-26T08:13:26Z</time>
      </trkpt>
      <trkpt lat="43.84611" lon="6.49169">
        <ele>878</ele>
        <time>2016-10-26T08:13:36Z</time>
      </trkpt>
      <trkpt lat="43.84619" lon="6.49174">
        <ele>880.3</ele>
        <time>2016-10-26T08:13:49Z</time>
      </trkpt>
      <trkpt lat="43.84626" lon="6.49183">
        <ele>881.6</ele>
        <time>2016-10-26T08:13:57Z</time>
      </trkpt>
      <trkpt lat="43.84633" lon="6.49192">
        <ele>883.2</ele>
        <time>2016-10-26T08:14:13Z</time>
      </trkpt>
      <trkpt lat="43.84642" lon="6.49198">
        <ele>884.3</ele>
        <time>2016-10-26T08:14:22Z</time>
      </trkpt>
      <trkpt lat="43.84652" lon="6.49202">
        <ele>885.5</ele>
        <time>2016-10-26T08:14:33Z</time>
      </trkpt>
      <trkpt lat="43.84662" lon="6.49203">
        <ele>886</ele>
        <time>2016-10-26T08:14:41Z</time>
      </trkpt>
      <trkpt lat="43.84671" lon="6.49204">
        <ele>885.6</ele>
        <time>2016-10-26T08:14:49Z</time>
      </trkpt>
      <trkpt lat="43.8468" lon="6.49196">
        <ele>886.5</ele>
        <time>2016-10-26T08:15:01Z</time>
      </trkpt>
      <trkpt lat="43.84688" lon="6.49189">
        <ele>885.8</ele>
        <time>2016-10-26T08:15:08Z</time>
      </trkpt>
      <trkpt lat="43.84693" lon="6.4918">
        <ele>885.3</ele>
        <time>2016-10-26T08:15:12Z</time>
      </trkpt>
      <trkpt lat="43.84697" lon="6.49167">
        <ele>884.8</ele>
        <time>2016-10-26T08:15:18Z</time>
      </trkpt>
      <trkpt lat="43.84701" lon="6.49155">
        <ele>884.6</ele>
        <time>2016-10-26T08:15:22Z</time>
      </trkpt>
      <trkpt lat="43.84704" lon="6.49142">
        <ele>884.6</ele>
        <time>2016-10-26T08:15:27Z</time>
      </trkpt>
      <trkpt lat="43.84708" lon="6.49129">
        <ele>884.9</ele>
        <time>2016-10-26T08:15:33Z</time>
      </trkpt>
      <trkpt lat="43.84713" lon="6.49118">
        <ele>885.1</ele>
        <time>2016-10-26T08:15:38Z</time>
      </trkpt>
      <trkpt lat="43.84719" lon="6.49104">
        <ele>885.2</ele>
        <time>2016-10-26T08:15:42Z</time>
      </trkpt>
      <trkpt lat="43.84727" lon="6.49098">
        <ele>885.3</ele>
        <time>2016-10-26T08:15:47Z</time>
      </trkpt>
      <trkpt lat="43.84737" lon="6.491">
        <ele>885.5</ele>
        <time>2016-10-26T08:15:52Z</time>
      </trkpt>
      <trkpt lat="43.84746" lon="6.49101">
        <ele>885.8</ele>
        <time>2016-10-26T08:15:56Z</time>
      </trkpt>
      <trkpt lat="43.84755" lon="6.49097">
        <ele>886.6</ele>
        <time>2016-10-26T08:16:02Z</time>
      </trkpt>
      <trkpt lat="43.84764" lon="6.49091">
        <ele>887.5</ele>
        <time>2016-10-26T08:16:07Z</time>
      </trkpt>
      <trkpt lat="43.84773" lon="6.49085">
        <ele>888.7</ele>
        <time>2016-10-26T08:16:13Z</time>
      </trkpt>
      <trkpt lat="43.84779" lon="6.49072">
        <ele>889.8</ele>
        <time>2016-10-26T08:16:17Z</time>
      </trkpt>
      <trkpt lat="43.84787" lon="6.49065">
        <ele>891.2</ele>
        <time>2016-10-26T08:16:23Z</time>
      </trkpt>
      <trkpt lat="43.84795" lon="6.49057">
        <ele>892.7</ele>
        <time>2016-10-26T08:16:29Z</time>
      </trkpt>
      <trkpt lat="43.84804" lon="6.49054">
        <ele>894.3</ele>
        <time>2016-10-26T08:16:35Z</time>
      </trkpt>
      <trkpt lat="43.84814" lon="6.49053">
        <ele>895.5</ele>
        <time>2016-10-26T08:16:41Z</time>
      </trkpt>
      <trkpt lat="43.84823" lon="6.49049">
        <ele>896.3</ele>
        <time>2016-10-26T08:16:46Z</time>
      </trkpt>
      <trkpt lat="43.84832" lon="6.49043">
        <ele>896.8</ele>
        <time>2016-10-26T08:16:49Z</time>
      </trkpt>
      <trkpt lat="43.84843" lon="6.49041">
        <ele>898</ele>
        <time>2016-10-26T08:16:55Z</time>
      </trkpt>
      <trkpt lat="43.84854" lon="6.49044">
        <ele>898.7</ele>
        <time>2016-10-26T08:17:00Z</time>
      </trkpt>
      <trkpt lat="43.84865" lon="6.49048">
        <ele>899.1</ele>
        <time>2016-10-26T08:17:04Z</time>
      </trkpt>
      <trkpt lat="43.84876" lon="6.49047">
        <ele>899.2</ele>
        <time>2016-10-26T08:17:07Z</time>
      </trkpt>
      <trkpt lat="43.84886" lon="6.49044">
        <ele>899.3</ele>
        <time>2016-10-26T08:17:10Z</time>
      </trkpt>
      <trkpt lat="43.84897" lon="6.49043">
        <ele>899.3</ele>
        <time>2016-10-26T08:17:13Z</time>
      </trkpt>
      <trkpt lat="43.84908" lon="6.49043">
        <ele>899.4</ele>
        <time>2016-10-26T08:17:16Z</time>
      </trkpt>
      <trkpt lat="43.84918" lon="6.49042">
        <ele>899.5</ele>
        <time>2016-10-26T08:17:20Z</time>
      </trkpt>
      <trkpt lat="43.84925" lon="6.49034">
        <ele>899.8</ele>
        <time>2016-10-26T08:17:24Z</time>
      </trkpt>
      <trkpt lat="43.84933" lon="6.49025">
        <ele>900.3</ele>
        <time>2016-10-26T08:17:29Z</time>
      </trkpt>
      <trkpt lat="43.84941" lon="6.49015">
        <ele>900.8</ele>
        <time>2016-10-26T08:17:34Z</time>
      </trkpt>
      <trkpt lat="43.8495" lon="6.4901">
        <ele>901.1</ele>
        <time>2016-10-26T08:17:38Z</time>
      </trkpt>
      <trkpt lat="43.84955" lon="6.48999">
        <ele>901.6</ele>
        <time>2016-10-26T08:17:44Z</time>
      </trkpt>
      <trkpt lat="43.84957" lon="6.48985">
        <ele>904.5</ele>
        <time>2016-10-26T08:18:15Z</time>
      </trkpt>
      <trkpt lat="43.84953" lon="6.48972">
        <ele>904.8</ele>
        <time>2016-10-26T08:18:18Z</time>
      </trkpt>
      <trkpt lat="43.84948" lon="6.48959">
        <ele>905.3</ele>
        <time>2016-10-26T08:18:23Z</time>
      </trkpt>
      <trkpt lat="43.8495" lon="6.48945">
        <ele>905.9</ele>
        <time>2016-10-26T08:18:29Z</time>
      </trkpt>
      <trkpt lat="43.8495" lon="6.48932">
        <ele>906.5</ele>
        <time>2016-10-26T08:18:34Z</time>
      </trkpt>
      <trkpt lat="43.8495" lon="6.48919">
        <ele>907.3</ele>
        <time>2016-10-26T08:18:39Z</time>
      </trkpt>
      <trkpt lat="43.84954" lon="6.48907">
        <ele>908.2</ele>
        <time>2016-10-26T08:18:45Z</time>
      </trkpt>
      <trkpt lat="43.84955" lon="6.48894">
        <ele>909</ele>
        <time>2016-10-26T08:18:50Z</time>
      </trkpt>
      <trkpt lat="43.84953" lon="6.4888">
        <ele>909.9</ele>
        <time>2016-10-26T08:18:56Z</time>
      </trkpt>
      <trkpt lat="43.84945" lon="6.48866">
        <ele>911</ele>
        <time>2016-10-26T08:19:03Z</time>
      </trkpt>
      <trkpt lat="43.84944" lon="6.48854">
        <ele>911.7</ele>
        <time>2016-10-26T08:19:08Z</time>
      </trkpt>
      <trkpt lat="43.84946" lon="6.48841">
        <ele>912.4</ele>
        <time>2016-10-26T08:19:13Z</time>
      </trkpt>
      <trkpt lat="43.84945" lon="6.48825">
        <ele>913.3</ele>
        <time>2016-10-26T08:19:20Z</time>
      </trkpt>
      <trkpt lat="43.84946" lon="6.4881">
        <ele>913.9</ele>
        <time>2016-10-26T08:19:25Z</time>
      </trkpt>
      <trkpt lat="43.84948" lon="6.48797">
        <ele>914.5</ele>
        <time>2016-10-26T08:19:29Z</time>
      </trkpt>
      <trkpt lat="43.84953" lon="6.48784">
        <ele>915.2</ele>
        <time>2016-10-26T08:19:34Z</time>
      </trkpt>
      <trkpt lat="43.84957" lon="6.48772">
        <ele>915.9</ele>
        <time>2016-10-26T08:19:39Z</time>
      </trkpt>
      <trkpt lat="43.8496" lon="6.48758">
        <ele>916.8</ele>
        <time>2016-10-26T08:19:45Z</time>
      </trkpt>
      <trkpt lat="43.84958" lon="6.48744">
        <ele>917.6</ele>
        <time>2016-10-26T08:19:50Z</time>
      </trkpt>
      <trkpt lat="43.84957" lon="6.48729">
        <ele>918.9</ele>
        <time>2016-10-26T08:19:58Z</time>
      </trkpt>
      <trkpt lat="43.84951" lon="6.48719">
        <ele>920.1</ele>
        <time>2016-10-26T08:20:05Z</time>
      </trkpt>
      <trkpt lat="43.84943" lon="6.48711">
        <ele>921.6</ele>
        <time>2016-10-26T08:20:14Z</time>
      </trkpt>
      <trkpt lat="43.8494" lon="6.48696">
        <ele>923.1</ele>
        <time>2016-10-26T08:20:22Z</time>
      </trkpt>
      <trkpt lat="43.84942" lon="6.48683">
        <ele>923.7</ele>
        <time>2016-10-26T08:20:26Z</time>
      </trkpt>
      <trkpt lat="43.8494" lon="6.48668">
        <ele>924.7</ele>
        <time>2016-10-26T08:20:32Z</time>
      </trkpt>
      <trkpt lat="43.84933" lon="6.48659">
        <ele>926.1</ele>
        <time>2016-10-26T08:20:39Z</time>
      </trkpt>
      <trkpt lat="43.84924" lon="6.48653">
        <ele>927</ele>
        <time>2016-10-26T08:20:45Z</time>
      </trkpt>
      <trkpt lat="43.84919" lon="6.48643">
        <ele>928.2</ele>
        <time>2016-10-26T08:20:53Z</time>
      </trkpt>
      <trkpt lat="43.84914" lon="6.48631">
        <ele>929.2</ele>
        <time>2016-10-26T08:20:59Z</time>
      </trkpt>
      <trkpt lat="43.84914" lon="6.48619">
        <ele>931.1</ele>
        <time>2016-10-26T08:21:13Z</time>
      </trkpt>
      <trkpt lat="43.84914" lon="6.48606">
        <ele>932.1</ele>
        <time>2016-10-26T08:21:24Z</time>
      </trkpt>
      <trkpt lat="43.84915" lon="6.48594">
        <ele>933</ele>
        <time>2016-10-26T08:21:34Z</time>
      </trkpt>
      <trkpt lat="43.84917" lon="6.4858">
        <ele>934.1</ele>
        <time>2016-10-26T08:21:45Z</time>
      </trkpt>
      <trkpt lat="43.84918" lon="6.48567">
        <ele>935.1</ele>
        <time>2016-10-26T08:21:55Z</time>
      </trkpt>
      <trkpt lat="43.84913" lon="6.48556">
        <ele>936.3</ele>
        <time>2016-10-26T08:22:08Z</time>
      </trkpt>
      <trkpt lat="43.8491" lon="6.48543">
        <ele>937.7</ele>
        <time>2016-10-26T08:22:20Z</time>
      </trkpt>
      <trkpt lat="43.84907" lon="6.4853">
        <ele>939.1</ele>
        <time>2016-10-26T08:22:34Z</time>
      </trkpt>
      <trkpt lat="43.84899" lon="6.48522">
        <ele>939.9</ele>
        <time>2016-10-26T08:22:53Z</time>
      </trkpt>
      <trkpt lat="43.84894" lon="6.4851">
        <ele>940.5</ele>
        <time>2016-10-26T08:23:08Z</time>
      </trkpt>
      <trkpt lat="43.84889" lon="6.485">
        <ele>941.6</ele>
        <time>2016-10-26T08:23:20Z</time>
      </trkpt>
      <trkpt lat="43.84884" lon="6.48489">
        <ele>942.9</ele>
        <time>2016-10-26T08:23:33Z</time>
      </trkpt>
      <trkpt lat="43.84891" lon="6.4848">
        <ele>943.2</ele>
        <time>2016-10-26T08:23:40Z</time>
      </trkpt>
      <trkpt lat="43.849" lon="6.48476">
        <ele>943.4</ele>
        <time>2016-10-26T08:23:46Z</time>
      </trkpt>
      <trkpt lat="43.84905" lon="6.48465">
        <ele>943.8</ele>
        <time>2016-10-26T08:23:52Z</time>
      </trkpt>
      <trkpt lat="43.84909" lon="6.48453">
        <ele>944.5</ele>
        <time>2016-10-26T08:23:57Z</time>
      </trkpt>
      <trkpt lat="43.84914" lon="6.4844">
        <ele>945.3</ele>
        <time>2016-10-26T08:24:03Z</time>
      </trkpt>
      <trkpt lat="43.8492" lon="6.48431">
        <ele>946.1</ele>
        <time>2016-10-26T08:24:09Z</time>
      </trkpt>
      <trkpt lat="43.84925" lon="6.4842">
        <ele>946.9</ele>
        <time>2016-10-26T08:24:15Z</time>
      </trkpt>
      <trkpt lat="43.84934" lon="6.48413">
        <ele>948</ele>
        <time>2016-10-26T08:24:22Z</time>
      </trkpt>
      <trkpt lat="43.84944" lon="6.48413">
        <ele>949.5</ele>
        <time>2016-10-26T08:24:31Z</time>
      </trkpt>
      <trkpt lat="43.84952" lon="6.48409">
        <ele>950.6</ele>
        <time>2016-10-26T08:24:38Z</time>
      </trkpt>
      <trkpt lat="43.8496" lon="6.48419">
        <ele>951.4</ele>
        <time>2016-10-26T08:24:43Z</time>
      </trkpt>
      <trkpt lat="43.84965" lon="6.48429">
        <ele>952.3</ele>
        <time>2016-10-26T08:24:49Z</time>
      </trkpt>
      <trkpt lat="43.84973" lon="6.48436">
        <ele>954.3</ele>
        <time>2016-10-26T08:25:03Z</time>
      </trkpt>
      <trkpt lat="43.84983" lon="6.48431">
        <ele>955.5</ele>
        <time>2016-10-26T08:25:16Z</time>
      </trkpt>
      <trkpt lat="43.84985" lon="6.48417">
        <ele>956</ele>
        <time>2016-10-26T08:25:22Z</time>
      </trkpt>
      <trkpt lat="43.84989" lon="6.48404">
        <ele>956.8</ele>
        <time>2016-10-26T08:25:29Z</time>
      </trkpt>
      <trkpt lat="43.84992" lon="6.48392">
        <ele>957.6</ele>
        <time>2016-10-26T08:25:37Z</time>
      </trkpt>
      <trkpt lat="43.84995" lon="6.48378">
        <ele>958.8</ele>
        <time>2016-10-26T08:25:51Z</time>
      </trkpt>
      <trkpt lat="43.85" lon="6.48367">
        <ele>959.6</ele>
        <time>2016-10-26T08:25:58Z</time>
      </trkpt>
      <trkpt lat="43.85003" lon="6.48355">
        <ele>960.3</ele>
        <time>2016-10-26T08:26:04Z</time>
      </trkpt>
      <trkpt lat="43.85005" lon="6.48342">
        <ele>961.5</ele>
        <time>2016-10-26T08:26:14Z</time>
      </trkpt>
      <trkpt lat="43.85006" lon="6.48329">
        <ele>962.3</ele>
        <time>2016-10-26T08:26:21Z</time>
      </trkpt>
      <trkpt lat="43.85008" lon="6.48316">
        <ele>963.4</ele>
        <time>2016-10-26T08:26:27Z</time>
      </trkpt>
      <trkpt lat="43.8501" lon="6.48302">
        <ele>964.3</ele>
        <time>2016-10-26T08:26:32Z</time>
      </trkpt>
      <trkpt lat="43.85013" lon="6.48288">
        <ele>965.3</ele>
        <time>2016-10-26T08:26:38Z</time>
      </trkpt>
      <trkpt lat="43.85018" lon="6.48276">
        <ele>966.4</ele>
        <time>2016-10-26T08:26:44Z</time>
      </trkpt>
      <trkpt lat="43.85022" lon="6.48264">
        <ele>967.6</ele>
        <time>2016-10-26T08:26:51Z</time>
      </trkpt>
      <trkpt lat="43.85024" lon="6.48251">
        <ele>969</ele>
        <time>2016-10-26T08:26:58Z</time>
      </trkpt>
      <trkpt lat="43.85026" lon="6.48236">
        <ele>970.1</ele>
        <time>2016-10-26T08:27:04Z</time>
      </trkpt>
      <trkpt lat="43.85032" lon="6.48225">
        <ele>971.2</ele>
        <time>2016-10-26T08:27:11Z</time>
      </trkpt>
      <trkpt lat="43.85034" lon="6.48213">
        <ele>972.5</ele>
        <time>2016-10-26T08:27:18Z</time>
      </trkpt>
      <trkpt lat="43.85037" lon="6.482">
        <ele>974.2</ele>
        <time>2016-10-26T08:27:30Z</time>
      </trkpt>
      <trkpt lat="43.85042" lon="6.4819">
        <ele>975.8</ele>
        <time>2016-10-26T08:27:44Z</time>
      </trkpt>
      <trkpt lat="43.8505" lon="6.48197">
        <ele>977.2</ele>
        <time>2016-10-26T08:27:57Z</time>
      </trkpt>
      <trkpt lat="43.85059" lon="6.48197">
        <ele>978.9</ele>
        <time>2016-10-26T08:28:25Z</time>
      </trkpt>
      <trkpt lat="43.85068" lon="6.48206">
        <ele>980.3</ele>
        <time>2016-10-26T08:28:44Z</time>
      </trkpt>
      <trkpt lat="43.85077" lon="6.48201">
        <ele>980.8</ele>
        <time>2016-10-26T08:28:55Z</time>
      </trkpt>
      <trkpt lat="43.85082" lon="6.48191">
        <ele>981.7</ele>
        <time>2016-10-26T08:29:02Z</time>
      </trkpt>
      <trkpt lat="43.85087" lon="6.4818">
        <ele>983.1</ele>
        <time>2016-10-26T08:29:16Z</time>
      </trkpt>
      <trkpt lat="43.85096" lon="6.48176">
        <ele>984.8</ele>
        <time>2016-10-26T08:29:36Z</time>
      </trkpt>
      <trkpt lat="43.85097" lon="6.48163">
        <ele>985.9</ele>
        <time>2016-10-26T08:29:58Z</time>
      </trkpt>
      <trkpt lat="43.85088" lon="6.48162">
        <ele>987.8</ele>
        <time>2016-10-26T08:30:17Z</time>
      </trkpt>
      <trkpt lat="43.85078" lon="6.48159">
        <ele>988.9</ele>
        <time>2016-10-26T08:30:31Z</time>
      </trkpt>
      <trkpt lat="43.8507" lon="6.48154">
        <ele>989.4</ele>
        <time>2016-10-26T08:30:37Z</time>
      </trkpt>
      <trkpt lat="43.8506" lon="6.48152">
        <ele>990.3</ele>
        <time>2016-10-26T08:30:44Z</time>
      </trkpt>
      <trkpt lat="43.85052" lon="6.48145">
        <ele>991.5</ele>
        <time>2016-10-26T08:30:54Z</time>
      </trkpt>
      <trkpt lat="43.85043" lon="6.4814">
        <ele>993</ele>
        <time>2016-10-26T08:31:10Z</time>
      </trkpt>
      <trkpt lat="43.85036" lon="6.48131">
        <ele>993.9</ele>
        <time>2016-10-26T08:31:19Z</time>
      </trkpt>
      <trkpt lat="43.8503" lon="6.4812">
        <ele>995</ele>
        <time>2016-10-26T08:31:26Z</time>
      </trkpt>
      <trkpt lat="43.85021" lon="6.48113">
        <ele>996.6</ele>
        <time>2016-10-26T08:31:34Z</time>
      </trkpt>
      <trkpt lat="43.85012" lon="6.48118">
        <ele>997.9</ele>
        <time>2016-10-26T08:31:41Z</time>
      </trkpt>
      <trkpt lat="43.85007" lon="6.4813">
        <ele>999.1</ele>
        <time>2016-10-26T08:31:47Z</time>
      </trkpt>
      <trkpt lat="43.85002" lon="6.48143">
        <ele>1000.6</ele>
        <time>2016-10-26T08:31:54Z</time>
      </trkpt>
      <trkpt lat="43.84995" lon="6.48153">
        <ele>1001.9</ele>
        <time>2016-10-26T08:32:00Z</time>
      </trkpt>
      <trkpt lat="43.84986" lon="6.48157">
        <ele>1003</ele>
        <time>2016-10-26T08:32:05Z</time>
      </trkpt>
      <trkpt lat="43.84977" lon="6.48166">
        <ele>1004.2</ele>
        <time>2016-10-26T08:32:11Z</time>
      </trkpt>
      <trkpt lat="43.84974" lon="6.48179">
        <ele>1005.4</ele>
        <time>2016-10-26T08:32:17Z</time>
      </trkpt>
      <trkpt lat="43.84965" lon="6.48185">
        <ele>1006.8</ele>
        <time>2016-10-26T08:32:24Z</time>
      </trkpt>
      <trkpt lat="43.84961" lon="6.48171">
        <ele>1007.6</ele>
        <time>2016-10-26T08:32:30Z</time>
      </trkpt>
      <trkpt lat="43.84958" lon="6.48158">
        <ele>1008.2</ele>
        <time>2016-10-26T08:32:35Z</time>
      </trkpt>
      <trkpt lat="43.84955" lon="6.48144">
        <ele>1008.8</ele>
        <time>2016-10-26T08:32:40Z</time>
      </trkpt>
      <trkpt lat="43.84952" lon="6.48129">
        <ele>1009.5</ele>
        <time>2016-10-26T08:32:46Z</time>
      </trkpt>
      <trkpt lat="43.84948" lon="6.48116">
        <ele>1010.3</ele>
        <time>2016-10-26T08:32:52Z</time>
      </trkpt>
      <trkpt lat="43.84944" lon="6.48103">
        <ele>1010.9</ele>
        <time>2016-10-26T08:32:57Z</time>
      </trkpt>
      <trkpt lat="43.84937" lon="6.48092">
        <ele>1011.3</ele>
        <time>2016-10-26T08:33:02Z</time>
      </trkpt>
      <trkpt lat="43.84933" lon="6.48079">
        <ele>1011.6</ele>
        <time>2016-10-26T08:33:07Z</time>
      </trkpt>
      <trkpt lat="43.84928" lon="6.48069">
        <ele>1011.7</ele>
        <time>2016-10-26T08:33:11Z</time>
      </trkpt>
      <trkpt lat="43.84924" lon="6.48058">
        <ele>1011.9</ele>
        <time>2016-10-26T08:33:15Z</time>
      </trkpt>
      <trkpt lat="43.84919" lon="6.48047">
        <ele>1011.3</ele>
        <time>2016-10-26T08:33:20Z</time>
      </trkpt>
      <trkpt lat="43.84916" lon="6.48035">
        <ele>1010.9</ele>
        <time>2016-10-26T08:33:26Z</time>
      </trkpt>
      <trkpt lat="43.8491" lon="6.48025">
        <ele>1010.3</ele>
        <time>2016-10-26T08:33:31Z</time>
      </trkpt>
      <trkpt lat="43.84902" lon="6.48017">
        <ele>1009.3</ele>
        <time>2016-10-26T08:33:38Z</time>
      </trkpt>
      <trkpt lat="43.84895" lon="6.48005">
        <ele>1008.5</ele>
        <time>2016-10-26T08:33:43Z</time>
      </trkpt>
      <trkpt lat="43.84896" lon="6.47992">
        <ele>1007.5</ele>
        <time>2016-10-26T08:33:48Z</time>
      </trkpt>
      <trkpt lat="43.84901" lon="6.4798">
        <ele>1006.6</ele>
        <time>2016-10-26T08:33:55Z</time>
      </trkpt>
      <trkpt lat="43.84901" lon="6.47967">
        <ele>1006.3</ele>
        <time>2016-10-26T08:33:59Z</time>
      </trkpt>
      <trkpt lat="43.84897" lon="6.47954">
        <ele>1006</ele>
        <time>2016-10-26T08:34:03Z</time>
      </trkpt>
      <trkpt lat="43.84895" lon="6.47939">
        <ele>1005.8</ele>
        <time>2016-10-26T08:34:08Z</time>
      </trkpt>
      <trkpt lat="43.84894" lon="6.47926">
        <ele>1005.6</ele>
        <time>2016-10-26T08:34:12Z</time>
      </trkpt>
      <trkpt lat="43.84894" lon="6.47912">
        <ele>1005.5</ele>
        <time>2016-10-26T08:34:17Z</time>
      </trkpt>
      <trkpt lat="43.84891" lon="6.479">
        <ele>1005.5</ele>
        <time>2016-10-26T08:34:26Z</time>
      </trkpt>
      <trkpt lat="43.84884" lon="6.47892">
        <ele>1005.9</ele>
        <time>2016-10-26T08:34:45Z</time>
      </trkpt>
      <trkpt lat="43.8488" lon="6.4788">
        <ele>1006</ele>
        <time>2016-10-26T08:34:53Z</time>
      </trkpt>
      <trkpt lat="43.84877" lon="6.47868">
        <ele>1006.7</ele>
        <time>2016-10-26T08:35:04Z</time>
      </trkpt>
      <trkpt lat="43.84872" lon="6.47856">
        <ele>1007.6</ele>
        <time>2016-10-26T08:35:21Z</time>
      </trkpt>
      <trkpt lat="43.84871" lon="6.47843">
        <ele>1007.9</ele>
        <time>2016-10-26T08:35:27Z</time>
      </trkpt>
      <trkpt lat="43.84871" lon="6.4783">
        <ele>1008.4</ele>
        <time>2016-10-26T08:35:34Z</time>
      </trkpt>
      <trkpt lat="43.8487" lon="6.47817">
        <ele>1010.6</ele>
        <time>2016-10-26T08:36:06Z</time>
      </trkpt>
      <trkpt lat="43.84869" lon="6.47804">
        <ele>1010.9</ele>
        <time>2016-10-26T08:36:21Z</time>
      </trkpt>
      <trkpt lat="43.84868" lon="6.47791">
        <ele>1011.3</ele>
        <time>2016-10-26T08:36:28Z</time>
      </trkpt>
      <trkpt lat="43.84867" lon="6.47778">
        <ele>1012</ele>
        <time>2016-10-26T08:36:34Z</time>
      </trkpt>
      <trkpt lat="43.84865" lon="6.47763">
        <ele>1012.4</ele>
        <time>2016-10-26T08:36:38Z</time>
      </trkpt>
      <trkpt lat="43.84866" lon="6.47747">
        <ele>1013.3</ele>
        <time>2016-10-26T08:36:44Z</time>
      </trkpt>
      <trkpt lat="43.84868" lon="6.47735">
        <ele>1014</ele>
        <time>2016-10-26T08:36:48Z</time>
      </trkpt>
      <trkpt lat="43.84867" lon="6.47722">
        <ele>1015.2</ele>
        <time>2016-10-26T08:36:55Z</time>
      </trkpt>
      <trkpt lat="43.84858" lon="6.47718">
        <ele>1016.8</ele>
        <time>2016-10-26T08:37:06Z</time>
      </trkpt>
      <trkpt lat="43.84848" lon="6.47716">
        <ele>1017.7</ele>
        <time>2016-10-26T08:37:12Z</time>
      </trkpt>
      <trkpt lat="43.84849" lon="6.47702">
        <ele>1020.5</ele>
        <time>2016-10-26T08:37:30Z</time>
      </trkpt>
      <trkpt lat="43.84855" lon="6.47692">
        <ele>1021.9</ele>
        <time>2016-10-26T08:37:40Z</time>
      </trkpt>
      <trkpt lat="43.84851" lon="6.4768">
        <ele>1026</ele>
        <time>2016-10-26T08:38:09Z</time>
      </trkpt>
      <trkpt lat="43.84856" lon="6.47668">
        <ele>1026.3</ele>
        <time>2016-10-26T08:38:18Z</time>
      </trkpt>
      <trkpt lat="43.84862" lon="6.47658">
        <ele>1027.1</ele>
        <time>2016-10-26T08:38:31Z</time>
      </trkpt>
      <trkpt lat="43.84868" lon="6.47647">
        <ele>1028.3</ele>
        <time>2016-10-26T08:38:41Z</time>
      </trkpt>
      <trkpt lat="43.84872" lon="6.47635">
        <ele>1029.8</ele>
        <time>2016-10-26T08:38:50Z</time>
      </trkpt>
      <trkpt lat="43.84874" lon="6.47623">
        <ele>1031.2</ele>
        <time>2016-10-26T08:39:00Z</time>
      </trkpt>
      <trkpt lat="43.84879" lon="6.47612">
        <ele>1032.8</ele>
        <time>2016-10-26T08:39:15Z</time>
      </trkpt>
      <trkpt lat="43.84885" lon="6.47602">
        <ele>1033.6</ele>
        <time>2016-10-26T08:39:24Z</time>
      </trkpt>
      <trkpt lat="43.84886" lon="6.47589">
        <ele>1035.8</ele>
        <time>2016-10-26T08:39:43Z</time>
      </trkpt>
      <trkpt lat="43.84892" lon="6.47579">
        <ele>1037.3</ele>
        <time>2016-10-26T08:39:59Z</time>
      </trkpt>
      <trkpt lat="43.84896" lon="6.47567">
        <ele>1038.2</ele>
        <time>2016-10-26T08:40:08Z</time>
      </trkpt>
      <trkpt lat="43.84897" lon="6.47554">
        <ele>1039</ele>
        <time>2016-10-26T08:40:17Z</time>
      </trkpt>
      <trkpt lat="43.849" lon="6.47541">
        <ele>1040.7</ele>
        <time>2016-10-26T08:40:31Z</time>
      </trkpt>
      <trkpt lat="43.84904" lon="6.4753">
        <ele>1043</ele>
        <time>2016-10-26T08:40:44Z</time>
      </trkpt>
      <trkpt lat="43.84905" lon="6.47516">
        <ele>1044.6</ele>
        <time>2016-10-26T08:40:57Z</time>
      </trkpt>
      <trkpt lat="43.8491" lon="6.47506">
        <ele>1045.4</ele>
        <time>2016-10-26T08:41:05Z</time>
      </trkpt>
      <trkpt lat="43.8491" lon="6.47492">
        <ele>1046.8</ele>
        <time>2016-10-26T08:41:17Z</time>
      </trkpt>
      <trkpt lat="43.8491" lon="6.47479">
        <ele>1048.3</ele>
        <time>2016-10-26T08:41:29Z</time>
      </trkpt>
      <trkpt lat="43.84912" lon="6.47467">
        <ele>1050.4</ele>
        <time>2016-10-26T08:41:44Z</time>
      </trkpt>
      <trkpt lat="43.84915" lon="6.47455">
        <ele>1051.9</ele>
        <time>2016-10-26T08:41:55Z</time>
      </trkpt>
      <trkpt lat="43.84916" lon="6.47441">
        <ele>1053.4</ele>
        <time>2016-10-26T08:42:06Z</time>
      </trkpt>
      <trkpt lat="43.84916" lon="6.47428">
        <ele>1055</ele>
        <time>2016-10-26T08:42:18Z</time>
      </trkpt>
      <trkpt lat="43.84919" lon="6.47416">
        <ele>1056.2</ele>
        <time>2016-10-26T08:42:28Z</time>
      </trkpt>
      <trkpt lat="43.84924" lon="6.47406">
        <ele>1058.2</ele>
        <time>2016-10-26T08:42:43Z</time>
      </trkpt>
      <trkpt lat="43.84928" lon="6.47392">
        <ele>1060.6</ele>
        <time>2016-10-26T08:43:02Z</time>
      </trkpt>
      <trkpt lat="43.84931" lon="6.4738">
        <ele>1062.3</ele>
        <time>2016-10-26T08:43:17Z</time>
      </trkpt>
      <trkpt lat="43.84935" lon="6.47367">
        <ele>1065.3</ele>
        <time>2016-10-26T08:43:39Z</time>
      </trkpt>
      <trkpt lat="43.84944" lon="6.47361">
        <ele>1067</ele>
        <time>2016-10-26T08:43:52Z</time>
      </trkpt>
      <trkpt lat="43.84951" lon="6.47352">
        <ele>1067.9</ele>
        <time>2016-10-26T08:44:03Z</time>
      </trkpt>
      <trkpt lat="43.8496" lon="6.47353">
        <ele>1069.9</ele>
        <time>2016-10-26T08:44:41Z</time>
      </trkpt>
      <trkpt lat="43.8497" lon="6.47354">
        <ele>1070.3</ele>
        <time>2016-10-26T08:44:47Z</time>
      </trkpt>
      <trkpt lat="43.8498" lon="6.47349">
        <ele>1071.5</ele>
        <time>2016-10-26T08:44:57Z</time>
      </trkpt>
      <trkpt lat="43.84981" lon="6.47337">
        <ele>1073</ele>
        <time>2016-10-26T08:48:02Z</time>
      </trkpt>
      <trkpt lat="43.84978" lon="6.47324">
        <ele>1073</ele>
        <time>2016-10-26T08:48:10Z</time>
      </trkpt>
      <trkpt lat="43.84974" lon="6.47313">
        <ele>1073.3</ele>
        <time>2016-10-26T08:48:17Z</time>
      </trkpt>
      <trkpt lat="43.84968" lon="6.47303">
        <ele>1073.9</ele>
        <time>2016-10-26T08:48:26Z</time>
      </trkpt>
      <trkpt lat="43.8496" lon="6.47297">
        <ele>1074.5</ele>
        <time>2016-10-26T08:48:33Z</time>
      </trkpt>
      <trkpt lat="43.84951" lon="6.47287">
        <ele>1075.1</ele>
        <time>2016-10-26T08:48:38Z</time>
      </trkpt>
      <trkpt lat="43.84944" lon="6.47281">
        <ele>1076.1</ele>
        <time>2016-10-26T08:48:44Z</time>
      </trkpt>
      <trkpt lat="43.84936" lon="6.47273">
        <ele>1076.6</ele>
        <time>2016-10-26T08:48:50Z</time>
      </trkpt>
      <trkpt lat="43.8493" lon="6.47263">
        <ele>1077.2</ele>
        <time>2016-10-26T08:48:57Z</time>
      </trkpt>
      <trkpt lat="43.84921" lon="6.47258">
        <ele>1077.9</ele>
        <time>2016-10-26T08:49:04Z</time>
      </trkpt>
      <trkpt lat="43.84913" lon="6.47251">
        <ele>1078.5</ele>
        <time>2016-10-26T08:49:10Z</time>
      </trkpt>
      <trkpt lat="43.84904" lon="6.47248">
        <ele>1079.2</ele>
        <time>2016-10-26T08:49:17Z</time>
      </trkpt>
      <trkpt lat="43.84895" lon="6.47252">
        <ele>1080.1</ele>
        <time>2016-10-26T08:49:25Z</time>
      </trkpt>
      <trkpt lat="43.84885" lon="6.47256">
        <ele>1081</ele>
        <time>2016-10-26T08:49:32Z</time>
      </trkpt>
      <trkpt lat="43.84877" lon="6.47263">
        <ele>1081.7</ele>
        <time>2016-10-26T08:49:38Z</time>
      </trkpt>
      <trkpt lat="43.84869" lon="6.47271">
        <ele>1082.5</ele>
        <time>2016-10-26T08:49:44Z</time>
      </trkpt>
      <trkpt lat="43.84862" lon="6.47279">
        <ele>1083.3</ele>
        <time>2016-10-26T08:49:49Z</time>
      </trkpt>
      <trkpt lat="43.84853" lon="6.47284">
        <ele>1084</ele>
        <time>2016-10-26T08:49:54Z</time>
      </trkpt>
      <trkpt lat="43.84844" lon="6.47291">
        <ele>1084.7</ele>
        <time>2016-10-26T08:50:00Z</time>
      </trkpt>
      <trkpt lat="43.84836" lon="6.47298">
        <ele>1085.4</ele>
        <time>2016-10-26T08:50:05Z</time>
      </trkpt>
      <trkpt lat="43.84829" lon="6.47306">
        <ele>1086.1</ele>
        <time>2016-10-26T08:50:10Z</time>
      </trkpt>
      <trkpt lat="43.84821" lon="6.47313">
        <ele>1086.8</ele>
        <time>2016-10-26T08:50:15Z</time>
      </trkpt>
      <trkpt lat="43.84813" lon="6.47321">
        <ele>1087.6</ele>
        <time>2016-10-26T08:50:22Z</time>
      </trkpt>
      <trkpt lat="43.84804" lon="6.47326">
        <ele>1088.3</ele>
        <time>2016-10-26T08:50:27Z</time>
      </trkpt>
      <trkpt lat="43.84796" lon="6.47333">
        <ele>1089.1</ele>
        <time>2016-10-26T08:50:33Z</time>
      </trkpt>
      <trkpt lat="43.84786" lon="6.4734">
        <ele>1089.8</ele>
        <time>2016-10-26T08:50:39Z</time>
      </trkpt>
      <trkpt lat="43.84778" lon="6.47347">
        <ele>1090.7</ele>
        <time>2016-10-26T08:50:44Z</time>
      </trkpt>
      <trkpt lat="43.84769" lon="6.47355">
        <ele>1091.7</ele>
        <time>2016-10-26T08:50:50Z</time>
      </trkpt>
      <trkpt lat="43.84761" lon="6.47362">
        <ele>1092.4</ele>
        <time>2016-10-26T08:50:55Z</time>
      </trkpt>
      <trkpt lat="43.84753" lon="6.47368">
        <ele>1093.3</ele>
        <time>2016-10-26T08:51:00Z</time>
      </trkpt>
      <trkpt lat="43.84744" lon="6.47372">
        <ele>1094</ele>
        <time>2016-10-26T08:51:05Z</time>
      </trkpt>
      <trkpt lat="43.84736" lon="6.47379">
        <ele>1094.8</ele>
        <time>2016-10-26T08:51:10Z</time>
      </trkpt>
      <trkpt lat="43.84725" lon="6.47382">
        <ele>1095.5</ele>
        <time>2016-10-26T08:51:16Z</time>
      </trkpt>
      <trkpt lat="43.84717" lon="6.4739">
        <ele>1096.1</ele>
        <time>2016-10-26T08:51:21Z</time>
      </trkpt>
      <trkpt lat="43.84709" lon="6.47398">
        <ele>1097</ele>
        <time>2016-10-26T08:51:27Z</time>
      </trkpt>
      <trkpt lat="43.84702" lon="6.47408">
        <ele>1097.8</ele>
        <time>2016-10-26T08:51:32Z</time>
      </trkpt>
      <trkpt lat="43.84696" lon="6.47419">
        <ele>1098.5</ele>
        <time>2016-10-26T08:51:37Z</time>
      </trkpt>
      <trkpt lat="43.84689" lon="6.47429">
        <ele>1099.7</ele>
        <time>2016-10-26T08:51:44Z</time>
      </trkpt>
      <trkpt lat="43.84682" lon="6.47439">
        <ele>1100.5</ele>
        <time>2016-10-26T08:51:50Z</time>
      </trkpt>
      <trkpt lat="43.84674" lon="6.47449">
        <ele>1101.3</ele>
        <time>2016-10-26T08:51:55Z</time>
      </trkpt>
      <trkpt lat="43.84667" lon="6.47457">
        <ele>1102</ele>
        <time>2016-10-26T08:51:59Z</time>
      </trkpt>
      <trkpt lat="43.8466" lon="6.47466">
        <ele>1102.7</ele>
        <time>2016-10-26T08:52:03Z</time>
      </trkpt>
      <trkpt lat="43.84653" lon="6.47474">
        <ele>1103.2</ele>
        <time>2016-10-26T08:52:07Z</time>
      </trkpt>
      <trkpt lat="43.84644" lon="6.47482">
        <ele>1103.8</ele>
        <time>2016-10-26T08:52:12Z</time>
      </trkpt>
      <trkpt lat="43.84635" lon="6.47492">
        <ele>1104.5</ele>
        <time>2016-10-26T08:52:17Z</time>
      </trkpt>
      <trkpt lat="43.84627" lon="6.47499">
        <ele>1105.4</ele>
        <time>2016-10-26T08:52:22Z</time>
      </trkpt>
      <trkpt lat="43.84618" lon="6.47505">
        <ele>1106.3</ele>
        <time>2016-10-26T08:52:28Z</time>
      </trkpt>
      <trkpt lat="43.84609" lon="6.47509">
        <ele>1107.1</ele>
        <time>2016-10-26T08:52:34Z</time>
      </trkpt>
      <trkpt lat="43.846" lon="6.47509">
        <ele>1107.7</ele>
        <time>2016-10-26T08:52:39Z</time>
      </trkpt>
      <trkpt lat="43.84591" lon="6.47504">
        <ele>1108.5</ele>
        <time>2016-10-26T08:52:44Z</time>
      </trkpt>
      <trkpt lat="43.84584" lon="6.47494">
        <ele>1109</ele>
        <time>2016-10-26T08:52:48Z</time>
      </trkpt>
      <trkpt lat="43.84574" lon="6.47493">
        <ele>1109.4</ele>
        <time>2016-10-26T08:52:53Z</time>
      </trkpt>
      <trkpt lat="43.84564" lon="6.47496">
        <ele>1110.3</ele>
        <time>2016-10-26T08:53:00Z</time>
      </trkpt>
      <trkpt lat="43.84557" lon="6.47504">
        <ele>1110.8</ele>
        <time>2016-10-26T08:53:04Z</time>
      </trkpt>
      <trkpt lat="43.8455" lon="6.47515">
        <ele>1111.5</ele>
        <time>2016-10-26T08:53:09Z</time>
      </trkpt>
      <trkpt lat="43.84546" lon="6.47527">
        <ele>1112</ele>
        <time>2016-10-26T08:53:13Z</time>
      </trkpt>
      <trkpt lat="43.84541" lon="6.47538">
        <ele>1112.6</ele>
        <time>2016-10-26T08:53:18Z</time>
      </trkpt>
      <trkpt lat="43.84535" lon="6.47549">
        <ele>1113</ele>
        <time>2016-10-26T08:53:22Z</time>
      </trkpt>
      <trkpt lat="43.84527" lon="6.47558">
        <ele>1113.8</ele>
        <time>2016-10-26T08:53:27Z</time>
      </trkpt>
      <trkpt lat="43.84519" lon="6.47565">
        <ele>1114.6</ele>
        <time>2016-10-26T08:53:31Z</time>
      </trkpt>
      <trkpt lat="43.84511" lon="6.47571">
        <ele>1115.2</ele>
        <time>2016-10-26T08:53:35Z</time>
      </trkpt>
      <trkpt lat="43.84501" lon="6.47577">
        <ele>1116.1</ele>
        <time>2016-10-26T08:53:40Z</time>
      </trkpt>
      <trkpt lat="43.8449" lon="6.47583">
        <ele>1116.8</ele>
        <time>2016-10-26T08:53:45Z</time>
      </trkpt>
      <trkpt lat="43.84481" lon="6.47586">
        <ele>1117.5</ele>
        <time>2016-10-26T08:53:50Z</time>
      </trkpt>
      <trkpt lat="43.84474" lon="6.47597">
        <ele>1118.3</ele>
        <time>2016-10-26T08:53:55Z</time>
      </trkpt>
      <trkpt lat="43.84468" lon="6.47608">
        <ele>1120</ele>
        <time>2016-10-26T08:54:00Z</time>
      </trkpt>
      <trkpt lat="43.84459" lon="6.4761">
        <ele>1121.1</ele>
        <time>2016-10-26T08:54:06Z</time>
      </trkpt>
      <trkpt lat="43.84461" lon="6.47597">
        <ele>1121.8</ele>
        <time>2016-10-26T08:54:12Z</time>
      </trkpt>
      <trkpt lat="43.84468" lon="6.47585">
        <ele>1122.5</ele>
        <time>2016-10-26T08:54:18Z</time>
      </trkpt>
      <trkpt lat="43.84476" lon="6.47578">
        <ele>1122.9</ele>
        <time>2016-10-26T08:54:23Z</time>
      </trkpt>
      <trkpt lat="43.84483" lon="6.47568">
        <ele>1123.7</ele>
        <time>2016-10-26T08:54:30Z</time>
      </trkpt>
      <trkpt lat="43.84491" lon="6.4756">
        <ele>1124.7</ele>
        <time>2016-10-26T08:54:36Z</time>
      </trkpt>
      <trkpt lat="43.84499" lon="6.47551">
        <ele>1125.6</ele>
        <time>2016-10-26T08:54:42Z</time>
      </trkpt>
      <trkpt lat="43.84505" lon="6.47543">
        <ele>1126.4</ele>
        <time>2016-10-26T08:54:47Z</time>
      </trkpt>
      <trkpt lat="43.84513" lon="6.47533">
        <ele>1127.2</ele>
        <time>2016-10-26T08:54:52Z</time>
      </trkpt>
      <trkpt lat="43.84519" lon="6.47522">
        <ele>1128.1</ele>
        <time>2016-10-26T08:54:57Z</time>
      </trkpt>
      <trkpt lat="43.84522" lon="6.4751">
        <ele>1128.7</ele>
        <time>2016-10-26T08:55:02Z</time>
      </trkpt>
      <trkpt lat="43.84526" lon="6.47498">
        <ele>1129.5</ele>
        <time>2016-10-26T08:55:07Z</time>
      </trkpt>
      <trkpt lat="43.84529" lon="6.47485">
        <ele>1130.3</ele>
        <time>2016-10-26T08:55:12Z</time>
      </trkpt>
      <trkpt lat="43.84533" lon="6.47472">
        <ele>1131.2</ele>
        <time>2016-10-26T08:55:18Z</time>
      </trkpt>
      <trkpt lat="43.84534" lon="6.47458">
        <ele>1132</ele>
        <time>2016-10-26T08:55:24Z</time>
      </trkpt>
      <trkpt lat="43.8454" lon="6.47446">
        <ele>1132.6</ele>
        <time>2016-10-26T08:55:30Z</time>
      </trkpt>
      <trkpt lat="43.84548" lon="6.4744">
        <ele>1133.3</ele>
        <time>2016-10-26T08:55:36Z</time>
      </trkpt>
      <trkpt lat="43.84557" lon="6.47437">
        <ele>1134</ele>
        <time>2016-10-26T08:55:42Z</time>
      </trkpt>
      <trkpt lat="43.84567" lon="6.47436">
        <ele>1134.6</ele>
        <time>2016-10-26T08:55:48Z</time>
      </trkpt>
      <trkpt lat="43.84577" lon="6.47435">
        <ele>1135.4</ele>
        <time>2016-10-26T08:55:53Z</time>
      </trkpt>
      <trkpt lat="43.84587" lon="6.47437">
        <ele>1136.3</ele>
        <time>2016-10-26T08:56:00Z</time>
      </trkpt>
      <trkpt lat="43.84594" lon="6.47427">
        <ele>1137.3</ele>
        <time>2016-10-26T08:56:06Z</time>
      </trkpt>
      <trkpt lat="43.846" lon="6.47417">
        <ele>1138</ele>
        <time>2016-10-26T08:56:11Z</time>
      </trkpt>
      <trkpt lat="43.84607" lon="6.47407">
        <ele>1138.5</ele>
        <time>2016-10-26T08:56:16Z</time>
      </trkpt>
      <trkpt lat="43.84614" lon="6.47396">
        <ele>1139.1</ele>
        <time>2016-10-26T08:56:22Z</time>
      </trkpt>
      <trkpt lat="43.84617" lon="6.47384">
        <ele>1139.7</ele>
        <time>2016-10-26T08:56:27Z</time>
      </trkpt>
      <trkpt lat="43.84621" lon="6.47372">
        <ele>1140.3</ele>
        <time>2016-10-26T08:56:32Z</time>
      </trkpt>
      <trkpt lat="43.84623" lon="6.47358">
        <ele>1141.1</ele>
        <time>2016-10-26T08:56:38Z</time>
      </trkpt>
      <trkpt lat="43.84624" lon="6.47346">
        <ele>1141.7</ele>
        <time>2016-10-26T08:56:43Z</time>
      </trkpt>
      <trkpt lat="43.84626" lon="6.47332">
        <ele>1142.5</ele>
        <time>2016-10-26T08:56:49Z</time>
      </trkpt>
      <trkpt lat="43.84629" lon="6.47318">
        <ele>1143.2</ele>
        <time>2016-10-26T08:56:56Z</time>
      </trkpt>
      <trkpt lat="43.84635" lon="6.47308">
        <ele>1144.6</ele>
        <time>2016-10-26T08:57:02Z</time>
      </trkpt>
      <trkpt lat="43.8464" lon="6.47295">
        <ele>1145.4</ele>
        <time>2016-10-26T08:57:08Z</time>
      </trkpt>
      <trkpt lat="43.84645" lon="6.47285">
        <ele>1145.8</ele>
        <time>2016-10-26T08:57:13Z</time>
      </trkpt>
      <trkpt lat="43.8465" lon="6.47273">
        <ele>1146.4</ele>
        <time>2016-10-26T08:57:19Z</time>
      </trkpt>
      <trkpt lat="43.84656" lon="6.47262">
        <ele>1146.9</ele>
        <time>2016-10-26T08:57:24Z</time>
      </trkpt>
      <trkpt lat="43.84662" lon="6.47252">
        <ele>1148</ele>
        <time>2016-10-26T08:57:32Z</time>
      </trkpt>
      <trkpt lat="43.84671" lon="6.47247">
        <ele>1148.7</ele>
        <time>2016-10-26T08:57:37Z</time>
      </trkpt>
      <trkpt lat="43.84678" lon="6.47237">
        <ele>1149.9</ele>
        <time>2016-10-26T08:57:43Z</time>
      </trkpt>
      <trkpt lat="43.84686" lon="6.47228">
        <ele>1150.9</ele>
        <time>2016-10-26T08:57:49Z</time>
      </trkpt>
      <trkpt lat="43.84694" lon="6.4722">
        <ele>1151.7</ele>
        <time>2016-10-26T08:57:54Z</time>
      </trkpt>
      <trkpt lat="43.84698" lon="6.47208">
        <ele>1152.3</ele>
        <time>2016-10-26T08:57:59Z</time>
      </trkpt>
      <trkpt lat="43.84702" lon="6.47197">
        <ele>1152.9</ele>
        <time>2016-10-26T08:58:04Z</time>
      </trkpt>
      <trkpt lat="43.84707" lon="6.47184">
        <ele>1153.6</ele>
        <time>2016-10-26T08:58:10Z</time>
      </trkpt>
      <trkpt lat="43.84712" lon="6.47171">
        <ele>1154.5</ele>
        <time>2016-10-26T08:58:16Z</time>
      </trkpt>
      <trkpt lat="43.84716" lon="6.47158">
        <ele>1155.2</ele>
        <time>2016-10-26T08:58:21Z</time>
      </trkpt>
      <trkpt lat="43.84721" lon="6.47147">
        <ele>1156</ele>
        <time>2016-10-26T08:58:26Z</time>
      </trkpt>
      <trkpt lat="43.84725" lon="6.47134">
        <ele>1156.8</ele>
        <time>2016-10-26T08:58:31Z</time>
      </trkpt>
      <trkpt lat="43.84731" lon="6.47123">
        <ele>1157.5</ele>
        <time>2016-10-26T08:58:36Z</time>
      </trkpt>
      <trkpt lat="43.84738" lon="6.47114">
        <ele>1157</ele>
        <time>2016-10-26T08:58:40Z</time>
      </trkpt>
      <trkpt lat="43.84741" lon="6.471">
        <ele>1158.7</ele>
        <time>2016-10-26T08:58:46Z</time>
      </trkpt>
      <trkpt lat="43.84739" lon="6.47087">
        <ele>1159.2</ele>
        <time>2016-10-26T08:58:50Z</time>
      </trkpt>
      <trkpt lat="43.84742" lon="6.47073">
        <ele>1159.8</ele>
        <time>2016-10-26T08:58:56Z</time>
      </trkpt>
      <trkpt lat="43.84747" lon="6.47061">
        <ele>1160.8</ele>
        <time>2016-10-26T08:59:02Z</time>
      </trkpt>
      <trkpt lat="43.84751" lon="6.47047">
        <ele>1161.7</ele>
        <time>2016-10-26T08:59:08Z</time>
      </trkpt>
      <trkpt lat="43.84756" lon="6.47033">
        <ele>1162.5</ele>
        <time>2016-10-26T08:59:14Z</time>
      </trkpt>
      <trkpt lat="43.84758" lon="6.47019">
        <ele>1163.2</ele>
        <time>2016-10-26T08:59:20Z</time>
      </trkpt>
      <trkpt lat="43.84761" lon="6.47005">
        <ele>1164.1</ele>
        <time>2016-10-26T08:59:26Z</time>
      </trkpt>
      <trkpt lat="43.84764" lon="6.46992">
        <ele>1164.9</ele>
        <time>2016-10-26T08:59:32Z</time>
      </trkpt>
      <trkpt lat="43.84769" lon="6.46979">
        <ele>1165.9</ele>
        <time>2016-10-26T08:59:38Z</time>
      </trkpt>
      <trkpt lat="43.8477" lon="6.46966">
        <ele>1166.7</ele>
        <time>2016-10-26T08:59:43Z</time>
      </trkpt>
      <trkpt lat="43.84767" lon="6.46951">
        <ele>1167.4</ele>
        <time>2016-10-26T08:59:48Z</time>
      </trkpt>
      <trkpt lat="43.84771" lon="6.46936">
        <ele>1168.2</ele>
        <time>2016-10-26T08:59:53Z</time>
      </trkpt>
      <trkpt lat="43.84773" lon="6.46921">
        <ele>1169</ele>
        <time>2016-10-26T08:59:58Z</time>
      </trkpt>
      <trkpt lat="43.84774" lon="6.46908">
        <ele>1170.6</ele>
        <time>2016-10-26T09:00:02Z</time>
      </trkpt>
      <trkpt lat="43.84774" lon="6.46895">
        <ele>1171.4</ele>
        <time>2016-10-26T09:00:06Z</time>
      </trkpt>
      <trkpt lat="43.84777" lon="6.46881">
        <ele>1172.1</ele>
        <time>2016-10-26T09:00:11Z</time>
      </trkpt>
      <trkpt lat="43.84776" lon="6.46865">
        <ele>1172.8</ele>
        <time>2016-10-26T09:00:16Z</time>
      </trkpt>
      <trkpt lat="43.84775" lon="6.46852">
        <ele>1173.5</ele>
        <time>2016-10-26T09:00:20Z</time>
      </trkpt>
      <trkpt lat="43.84776" lon="6.4684">
        <ele>1174.2</ele>
        <time>2016-10-26T09:00:24Z</time>
      </trkpt>
      <trkpt lat="43.84778" lon="6.46827">
        <ele>1175</ele>
        <time>2016-10-26T09:00:29Z</time>
      </trkpt>
      <trkpt lat="43.84784" lon="6.46816">
        <ele>1175.6</ele>
        <time>2016-10-26T09:00:33Z</time>
      </trkpt>
      <trkpt lat="43.84789" lon="6.46803">
        <ele>1176.6</ele>
        <time>2016-10-26T09:00:39Z</time>
      </trkpt>
      <trkpt lat="43.84794" lon="6.46792">
        <ele>1177.6</ele>
        <time>2016-10-26T09:00:45Z</time>
      </trkpt>
      <trkpt lat="43.84799" lon="6.46779">
        <ele>1178.8</ele>
        <time>2016-10-26T09:00:51Z</time>
      </trkpt>
      <trkpt lat="43.84804" lon="6.46768">
        <ele>1179.6</ele>
        <time>2016-10-26T09:00:56Z</time>
      </trkpt>
      <trkpt lat="43.8481" lon="6.46758">
        <ele>1180.1</ele>
        <time>2016-10-26T09:01:01Z</time>
      </trkpt>
      <trkpt lat="43.84815" lon="6.46747">
        <ele>1180.8</ele>
        <time>2016-10-26T09:01:06Z</time>
      </trkpt>
      <trkpt lat="43.8482" lon="6.46736">
        <ele>1181.5</ele>
        <time>2016-10-26T09:01:11Z</time>
      </trkpt>
      <trkpt lat="43.84825" lon="6.46724">
        <ele>1182.4</ele>
        <time>2016-10-26T09:01:17Z</time>
      </trkpt>
      <trkpt lat="43.84832" lon="6.46715">
        <ele>1183.2</ele>
        <time>2016-10-26T09:01:22Z</time>
      </trkpt>
      <trkpt lat="43.84835" lon="6.46703">
        <ele>1184.1</ele>
        <time>2016-10-26T09:01:28Z</time>
      </trkpt>
      <trkpt lat="43.84844" lon="6.46694">
        <ele>1185.1</ele>
        <time>2016-10-26T09:01:34Z</time>
      </trkpt>
      <trkpt lat="43.84853" lon="6.46689">
        <ele>1185.9</ele>
        <time>2016-10-26T09:01:40Z</time>
      </trkpt>
      <trkpt lat="43.84864" lon="6.46689">
        <ele>1186.7</ele>
        <time>2016-10-26T09:01:46Z</time>
      </trkpt>
      <trkpt lat="43.84873" lon="6.46691">
        <ele>1187.5</ele>
        <time>2016-10-26T09:01:51Z</time>
      </trkpt>
      <trkpt lat="43.84883" lon="6.46692">
        <ele>1188.2</ele>
        <time>2016-10-26T09:01:57Z</time>
      </trkpt>
      <trkpt lat="43.84894" lon="6.46692">
        <ele>1188.9</ele>
        <time>2016-10-26T09:02:02Z</time>
      </trkpt>
      <trkpt lat="43.84904" lon="6.46695">
        <ele>1189.6</ele>
        <time>2016-10-26T09:02:07Z</time>
      </trkpt>
      <trkpt lat="43.84914" lon="6.46697">
        <ele>1190.3</ele>
        <time>2016-10-26T09:02:12Z</time>
      </trkpt>
      <trkpt lat="43.84924" lon="6.46699">
        <ele>1191</ele>
        <time>2016-10-26T09:02:17Z</time>
      </trkpt>
      <trkpt lat="43.84933" lon="6.46702">
        <ele>1191.7</ele>
        <time>2016-10-26T09:02:22Z</time>
      </trkpt>
      <trkpt lat="43.84944" lon="6.46704">
        <ele>1192.7</ele>
        <time>2016-10-26T09:02:28Z</time>
      </trkpt>
      <trkpt lat="43.84954" lon="6.46705">
        <ele>1193.4</ele>
        <time>2016-10-26T09:02:32Z</time>
      </trkpt>
      <trkpt lat="43.84964" lon="6.46705">
        <ele>1194.2</ele>
        <time>2016-10-26T09:02:36Z</time>
      </trkpt>
      <trkpt lat="43.84974" lon="6.46708">
        <ele>1195.1</ele>
        <time>2016-10-26T09:02:41Z</time>
      </trkpt>
      <trkpt lat="43.84985" lon="6.4671">
        <ele>1195.9</ele>
        <time>2016-10-26T09:02:46Z</time>
      </trkpt>
      <trkpt lat="43.84994" lon="6.46711">
        <ele>1196.6</ele>
        <time>2016-10-26T09:02:50Z</time>
      </trkpt>
      <trkpt lat="43.85004" lon="6.46711">
        <ele>1198.3</ele>
        <time>2016-10-26T09:02:55Z</time>
      </trkpt>
      <trkpt lat="43.85014" lon="6.46711">
        <ele>1199.1</ele>
        <time>2016-10-26T09:03:00Z</time>
      </trkpt>
      <trkpt lat="43.85023" lon="6.46709">
        <ele>1199.7</ele>
        <time>2016-10-26T09:03:04Z</time>
      </trkpt>
      <trkpt lat="43.85033" lon="6.46708">
        <ele>1200.3</ele>
        <time>2016-10-26T09:03:08Z</time>
      </trkpt>
      <trkpt lat="43.85044" lon="6.46705">
        <ele>1200.9</ele>
        <time>2016-10-26T09:03:12Z</time>
      </trkpt>
      <trkpt lat="43.85054" lon="6.467">
        <ele>1201.9</ele>
        <time>2016-10-26T09:03:17Z</time>
      </trkpt>
      <trkpt lat="43.85065" lon="6.46698">
        <ele>1202.6</ele>
        <time>2016-10-26T09:03:21Z</time>
      </trkpt>
      <trkpt lat="43.85075" lon="6.46697">
        <ele>1203.5</ele>
        <time>2016-10-26T09:03:25Z</time>
      </trkpt>
      <trkpt lat="43.85085" lon="6.46695">
        <ele>1204.4</ele>
        <time>2016-10-26T09:03:29Z</time>
      </trkpt>
      <trkpt lat="43.85095" lon="6.46692">
        <ele>1205.2</ele>
        <time>2016-10-26T09:03:33Z</time>
      </trkpt>
      <trkpt lat="43.85104" lon="6.46688">
        <ele>1205.8</ele>
        <time>2016-10-26T09:03:36Z</time>
      </trkpt>
      <trkpt lat="43.85113" lon="6.46688">
        <ele>1206.5</ele>
        <time>2016-10-26T09:03:39Z</time>
      </trkpt>
      <trkpt lat="43.85123" lon="6.46686">
        <ele>1207.3</ele>
        <time>2016-10-26T09:03:43Z</time>
      </trkpt>
      <trkpt lat="43.85133" lon="6.46685">
        <ele>1208.1</ele>
        <time>2016-10-26T09:03:47Z</time>
      </trkpt>
      <trkpt lat="43.85142" lon="6.46684">
        <ele>1208.8</ele>
        <time>2016-10-26T09:03:51Z</time>
      </trkpt>
      <trkpt lat="43.85151" lon="6.46683">
        <ele>1209.5</ele>
        <time>2016-10-26T09:03:55Z</time>
      </trkpt>
      <trkpt lat="43.85161" lon="6.46682">
        <ele>1210</ele>
        <time>2016-10-26T09:03:59Z</time>
      </trkpt>
      <trkpt lat="43.8517" lon="6.46681">
        <ele>1210.6</ele>
        <time>2016-10-26T09:04:03Z</time>
      </trkpt>
      <trkpt lat="43.85181" lon="6.4668">
        <ele>1211.4</ele>
        <time>2016-10-26T09:04:08Z</time>
      </trkpt>
      <trkpt lat="43.85192" lon="6.46681">
        <ele>1212.2</ele>
        <time>2016-10-26T09:04:13Z</time>
      </trkpt>
      <trkpt lat="43.85202" lon="6.46679">
        <ele>1213.1</ele>
        <time>2016-10-26T09:04:18Z</time>
      </trkpt>
      <trkpt lat="43.85213" lon="6.46677">
        <ele>1213.8</ele>
        <time>2016-10-26T09:04:23Z</time>
      </trkpt>
      <trkpt lat="43.85222" lon="6.46676">
        <ele>1214.6</ele>
        <time>2016-10-26T09:04:27Z</time>
      </trkpt>
      <trkpt lat="43.85231" lon="6.46674">
        <ele>1215.5</ele>
        <time>2016-10-26T09:04:32Z</time>
      </trkpt>
      <trkpt lat="43.85241" lon="6.46672">
        <ele>1216.6</ele>
        <time>2016-10-26T09:04:37Z</time>
      </trkpt>
      <trkpt lat="43.85251" lon="6.4667">
        <ele>1217.6</ele>
        <time>2016-10-26T09:04:42Z</time>
      </trkpt>
      <trkpt lat="43.85262" lon="6.46668">
        <ele>1218.4</ele>
        <time>2016-10-26T09:04:47Z</time>
      </trkpt>
      <trkpt lat="43.85272" lon="6.46664">
        <ele>1219.2</ele>
        <time>2016-10-26T09:04:52Z</time>
      </trkpt>
      <trkpt lat="43.85281" lon="6.46664">
        <ele>1220.1</ele>
        <time>2016-10-26T09:04:58Z</time>
      </trkpt>
      <trkpt lat="43.85274" lon="6.46655">
        <ele>1221.7</ele>
        <time>2016-10-26T09:05:11Z</time>
      </trkpt>
      <trkpt lat="43.85264" lon="6.46655">
        <ele>1222.5</ele>
        <time>2016-10-26T09:05:17Z</time>
      </trkpt>
      <trkpt lat="43.85254" lon="6.46654">
        <ele>1223.4</ele>
        <time>2016-10-26T09:05:23Z</time>
      </trkpt>
      <trkpt lat="43.85244" lon="6.46651">
        <ele>1224.2</ele>
        <time>2016-10-26T09:05:29Z</time>
      </trkpt>
      <trkpt lat="43.85235" lon="6.46648">
        <ele>1225.1</ele>
        <time>2016-10-26T09:05:35Z</time>
      </trkpt>
      <trkpt lat="43.85227" lon="6.46644">
        <ele>1226.2</ele>
        <time>2016-10-26T09:05:41Z</time>
      </trkpt>
      <trkpt lat="43.85217" lon="6.46639">
        <ele>1227.2</ele>
        <time>2016-10-26T09:05:47Z</time>
      </trkpt>
      <trkpt lat="43.85208" lon="6.46636">
        <ele>1228.2</ele>
        <time>2016-10-26T09:05:53Z</time>
      </trkpt>
      <trkpt lat="43.85199" lon="6.46632">
        <ele>1229.1</ele>
        <time>2016-10-26T09:05:59Z</time>
      </trkpt>
      <trkpt lat="43.85189" lon="6.4663">
        <ele>1230</ele>
        <time>2016-10-26T09:06:05Z</time>
      </trkpt>
      <trkpt lat="43.8518" lon="6.46626">
        <ele>1231.2</ele>
        <time>2016-10-26T09:06:12Z</time>
      </trkpt>
      <trkpt lat="43.85171" lon="6.46618">
        <ele>1232.4</ele>
        <time>2016-10-26T09:06:19Z</time>
      </trkpt>
      <trkpt lat="43.85164" lon="6.4661">
        <ele>1233.8</ele>
        <time>2016-10-26T09:06:26Z</time>
      </trkpt>
      <trkpt lat="43.85155" lon="6.46604">
        <ele>1235.7</ele>
        <time>2016-10-26T09:06:35Z</time>
      </trkpt>
      <trkpt lat="43.85146" lon="6.46599">
        <ele>1237.2</ele>
        <time>2016-10-26T09:06:42Z</time>
      </trkpt>
      <trkpt lat="43.85138" lon="6.46594">
        <ele>1239.3</ele>
        <time>2016-10-26T09:06:52Z</time>
      </trkpt>
      <trkpt lat="43.85129" lon="6.4659">
        <ele>1241.1</ele>
        <time>2016-10-26T09:07:00Z</time>
      </trkpt>
      <trkpt lat="43.8512" lon="6.46586">
        <ele>1243.1</ele>
        <time>2016-10-26T09:07:09Z</time>
      </trkpt>
      <trkpt lat="43.8511" lon="6.46582">
        <ele>1244.6</ele>
        <time>2016-10-26T09:07:18Z</time>
      </trkpt>
      <trkpt lat="43.85101" lon="6.46579">
        <ele>1245.7</ele>
        <time>2016-10-26T09:07:26Z</time>
      </trkpt>
      <trkpt lat="43.85093" lon="6.46573">
        <ele>1246.9</ele>
        <time>2016-10-26T09:07:34Z</time>
      </trkpt>
      <trkpt lat="43.85084" lon="6.46567">
        <ele>1248.2</ele>
        <time>2016-10-26T09:07:42Z</time>
      </trkpt>
      <trkpt lat="43.85076" lon="6.46561">
        <ele>1249.3</ele>
        <time>2016-10-26T09:07:49Z</time>
      </trkpt>
      <trkpt lat="43.85067" lon="6.46555">
        <ele>1250.4</ele>
        <time>2016-10-26T09:07:56Z</time>
      </trkpt>
      <trkpt lat="43.85058" lon="6.46551">
        <ele>1251.7</ele>
        <time>2016-10-26T09:08:04Z</time>
      </trkpt>
      <trkpt lat="43.85049" lon="6.46545">
        <ele>1252.8</ele>
        <time>2016-10-26T09:08:12Z</time>
      </trkpt>
      <trkpt lat="43.8504" lon="6.46541">
        <ele>1251.4</ele>
        <time>2016-10-26T09:08:19Z</time>
      </trkpt>
      <trkpt lat="43.85031" lon="6.46535">
        <ele>1253.5</ele>
        <time>2016-10-26T09:08:26Z</time>
      </trkpt>
      <trkpt lat="43.85038" lon="6.46527">
        <ele>1255.5</ele>
        <time>2016-10-26T09:08:34Z</time>
      </trkpt>
      <trkpt lat="43.85049" lon="6.46528">
        <ele>1256.9</ele>
        <time>2016-10-26T09:08:40Z</time>
      </trkpt>
      <trkpt lat="43.85058" lon="6.46527">
        <ele>1258</ele>
        <time>2016-10-26T09:08:45Z</time>
      </trkpt>
      <trkpt lat="43.85068" lon="6.46525">
        <ele>1259</ele>
        <time>2016-10-26T09:08:50Z</time>
      </trkpt>
      <trkpt lat="43.85076" lon="6.46522">
        <ele>1260</ele>
        <time>2016-10-26T09:08:55Z</time>
      </trkpt>
      <trkpt lat="43.85086" lon="6.46522">
        <ele>1261.2</ele>
        <time>2016-10-26T09:09:01Z</time>
      </trkpt>
      <trkpt lat="43.85096" lon="6.46525">
        <ele>1262.5</ele>
        <time>2016-10-26T09:09:07Z</time>
      </trkpt>
      <trkpt lat="43.85106" lon="6.46525">
        <ele>1263.8</ele>
        <time>2016-10-26T09:09:13Z</time>
      </trkpt>
      <trkpt lat="43.85116" lon="6.46526">
        <ele>1264.9</ele>
        <time>2016-10-26T09:09:19Z</time>
      </trkpt>
      <trkpt lat="43.85126" lon="6.46526">
        <ele>1266</ele>
        <time>2016-10-26T09:09:25Z</time>
      </trkpt>
      <trkpt lat="43.85136" lon="6.46527">
        <ele>1267.2</ele>
        <time>2016-10-26T09:09:31Z</time>
      </trkpt>
      <trkpt lat="43.85145" lon="6.46527">
        <ele>1268.3</ele>
        <time>2016-10-26T09:09:37Z</time>
      </trkpt>
      <trkpt lat="43.85156" lon="6.46526">
        <ele>1269.3</ele>
        <time>2016-10-26T09:09:43Z</time>
      </trkpt>
      <trkpt lat="43.85166" lon="6.46524">
        <ele>1270.4</ele>
        <time>2016-10-26T09:09:49Z</time>
      </trkpt>
      <trkpt lat="43.85176" lon="6.46524">
        <ele>1271.2</ele>
        <time>2016-10-26T09:09:54Z</time>
      </trkpt>
      <trkpt lat="43.85185" lon="6.46522">
        <ele>1272.2</ele>
        <time>2016-10-26T09:10:00Z</time>
      </trkpt>
      <trkpt lat="43.85194" lon="6.46519">
        <ele>1273.2</ele>
        <time>2016-10-26T09:10:05Z</time>
      </trkpt>
      <trkpt lat="43.85203" lon="6.46514">
        <ele>1274.5</ele>
        <time>2016-10-26T09:10:11Z</time>
      </trkpt>
      <trkpt lat="43.85212" lon="6.4651">
        <ele>1275.4</ele>
        <time>2016-10-26T09:10:16Z</time>
      </trkpt>
      <trkpt lat="43.85222" lon="6.46507">
        <ele>1276.3</ele>
        <time>2016-10-26T09:10:21Z</time>
      </trkpt>
      <trkpt lat="43.85231" lon="6.46504">
        <ele>1277.2</ele>
        <time>2016-10-26T09:10:26Z</time>
      </trkpt>
      <trkpt lat="43.8524" lon="6.46499">
        <ele>1278.2</ele>
        <time>2016-10-26T09:10:31Z</time>
      </trkpt>
      <trkpt lat="43.85248" lon="6.46495">
        <ele>1279.2</ele>
        <time>2016-10-26T09:10:36Z</time>
      </trkpt>
      <trkpt lat="43.85258" lon="6.4649">
        <ele>1280.1</ele>
        <time>2016-10-26T09:10:41Z</time>
      </trkpt>
      <trkpt lat="43.85267" lon="6.46487">
        <ele>1281.2</ele>
        <time>2016-10-26T09:10:46Z</time>
      </trkpt>
      <trkpt lat="43.85268" lon="6.46473">
        <ele>1282.2</ele>
        <time>2016-10-26T09:10:52Z</time>
      </trkpt>
      <trkpt lat="43.85258" lon="6.46473">
        <ele>1283.4</ele>
        <time>2016-10-26T09:11:00Z</time>
      </trkpt>
      <trkpt lat="43.8525" lon="6.46478">
        <ele>1284.3</ele>
        <time>2016-10-26T09:11:06Z</time>
      </trkpt>
      <trkpt lat="43.85241" lon="6.46478">
        <ele>1285.5</ele>
        <time>2016-10-26T09:11:12Z</time>
      </trkpt>
      <trkpt lat="43.85231" lon="6.46477">
        <ele>1286.8</ele>
        <time>2016-10-26T09:11:19Z</time>
      </trkpt>
      <trkpt lat="43.85222" lon="6.46476">
        <ele>1287.9</ele>
        <time>2016-10-26T09:11:25Z</time>
      </trkpt>
      <trkpt lat="43.85213" lon="6.46474">
        <ele>1289.3</ele>
        <time>2016-10-26T09:11:32Z</time>
      </trkpt>
      <trkpt lat="43.85203" lon="6.46473">
        <ele>1290.6</ele>
        <time>2016-10-26T09:11:39Z</time>
      </trkpt>
      <trkpt lat="43.85194" lon="6.4647">
        <ele>1291.7</ele>
        <time>2016-10-26T09:11:45Z</time>
      </trkpt>
      <trkpt lat="43.85185" lon="6.46466">
        <ele>1292.9</ele>
        <time>2016-10-26T09:11:52Z</time>
      </trkpt>
      <trkpt lat="43.85176" lon="6.46461">
        <ele>1294.1</ele>
        <time>2016-10-26T09:11:59Z</time>
      </trkpt>
      <trkpt lat="43.85167" lon="6.46456">
        <ele>1295.2</ele>
        <time>2016-10-26T09:12:05Z</time>
      </trkpt>
      <trkpt lat="43.85158" lon="6.46451">
        <ele>1296.4</ele>
        <time>2016-10-26T09:12:11Z</time>
      </trkpt>
      <trkpt lat="43.85149" lon="6.46446">
        <ele>1297.7</ele>
        <time>2016-10-26T09:12:17Z</time>
      </trkpt>
      <trkpt lat="43.8514" lon="6.46443">
        <ele>1298.9</ele>
        <time>2016-10-26T09:12:23Z</time>
      </trkpt>
      <trkpt lat="43.8513" lon="6.46439">
        <ele>1300</ele>
        <time>2016-10-26T09:12:29Z</time>
      </trkpt>
      <trkpt lat="43.85122" lon="6.46434">
        <ele>1301</ele>
        <time>2016-10-26T09:12:35Z</time>
      </trkpt>
      <trkpt lat="43.85113" lon="6.4643">
        <ele>1302.4</ele>
        <time>2016-10-26T09:12:42Z</time>
      </trkpt>
      <trkpt lat="43.85104" lon="6.46426">
        <ele>1303.4</ele>
        <time>2016-10-26T09:12:48Z</time>
      </trkpt>
      <trkpt lat="43.85095" lon="6.4642">
        <ele>1304.5</ele>
        <time>2016-10-26T09:12:54Z</time>
      </trkpt>
      <trkpt lat="43.85086" lon="6.46416">
        <ele>1305.6</ele>
        <time>2016-10-26T09:13:00Z</time>
      </trkpt>
      <trkpt lat="43.85077" lon="6.46413">
        <ele>1306.6</ele>
        <time>2016-10-26T09:13:06Z</time>
      </trkpt>
      <trkpt lat="43.85068" lon="6.46409">
        <ele>1307.5</ele>
        <time>2016-10-26T09:13:12Z</time>
      </trkpt>
      <trkpt lat="43.85059" lon="6.46407">
        <ele>1308.3</ele>
        <time>2016-10-26T09:13:17Z</time>
      </trkpt>
      <trkpt lat="43.8505" lon="6.46406">
        <ele>1309.4</ele>
        <time>2016-10-26T09:13:22Z</time>
      </trkpt>
      <trkpt lat="43.85039" lon="6.46404">
        <ele>1310.6</ele>
        <time>2016-10-26T09:13:28Z</time>
      </trkpt>
      <trkpt lat="43.85029" lon="6.46401">
        <ele>1311.7</ele>
        <time>2016-10-26T09:13:34Z</time>
      </trkpt>
      <trkpt lat="43.8502" lon="6.46397">
        <ele>1312.9</ele>
        <time>2016-10-26T09:13:40Z</time>
      </trkpt>
      <trkpt lat="43.85012" lon="6.4639">
        <ele>1313.9</ele>
        <time>2016-10-26T09:13:46Z</time>
      </trkpt>
      <trkpt lat="43.85004" lon="6.46383">
        <ele>1314.9</ele>
        <time>2016-10-26T09:13:52Z</time>
      </trkpt>
      <trkpt lat="43.84996" lon="6.46376">
        <ele>1315.8</ele>
        <time>2016-10-26T09:13:57Z</time>
      </trkpt>
      <trkpt lat="43.84988" lon="6.46369">
        <ele>1316.7</ele>
        <time>2016-10-26T09:14:02Z</time>
      </trkpt>
      <trkpt lat="43.8498" lon="6.46362">
        <ele>1318</ele>
        <time>2016-10-26T09:14:08Z</time>
      </trkpt>
      <trkpt lat="43.84972" lon="6.46355">
        <ele>1318.9</ele>
        <time>2016-10-26T09:14:14Z</time>
      </trkpt>
      <trkpt lat="43.84964" lon="6.46349">
        <ele>1319.9</ele>
        <time>2016-10-26T09:14:20Z</time>
      </trkpt>
      <trkpt lat="43.84956" lon="6.46342">
        <ele>1321</ele>
        <time>2016-10-26T09:14:26Z</time>
      </trkpt>
      <trkpt lat="43.84949" lon="6.46334">
        <ele>1322</ele>
        <time>2016-10-26T09:14:32Z</time>
      </trkpt>
      <trkpt lat="43.84941" lon="6.46326">
        <ele>1323.1</ele>
        <time>2016-10-26T09:14:38Z</time>
      </trkpt>
      <trkpt lat="43.84932" lon="6.46321">
        <ele>1324.3</ele>
        <time>2016-10-26T09:14:44Z</time>
      </trkpt>
      <trkpt lat="43.84923" lon="6.46313">
        <ele>1325.5</ele>
        <time>2016-10-26T09:14:51Z</time>
      </trkpt>
      <trkpt lat="43.84914" lon="6.46306">
        <ele>1326.5</ele>
        <time>2016-10-26T09:14:57Z</time>
      </trkpt>
      <trkpt lat="43.84906" lon="6.46301">
        <ele>1327.4</ele>
        <time>2016-10-26T09:15:02Z</time>
      </trkpt>
      <trkpt lat="43.84898" lon="6.46293">
        <ele>1328.5</ele>
        <time>2016-10-26T09:15:08Z</time>
      </trkpt>
      <trkpt lat="43.84888" lon="6.46287">
        <ele>1329.3</ele>
        <time>2016-10-26T09:15:13Z</time>
      </trkpt>
      <trkpt lat="43.8488" lon="6.46281">
        <ele>1330</ele>
        <time>2016-10-26T09:15:18Z</time>
      </trkpt>
      <trkpt lat="43.84872" lon="6.46274">
        <ele>1330.8</ele>
        <time>2016-10-26T09:15:23Z</time>
      </trkpt>
      <trkpt lat="43.84864" lon="6.46268">
        <ele>1331.6</ele>
        <time>2016-10-26T09:15:28Z</time>
      </trkpt>
      <trkpt lat="43.84855" lon="6.46261">
        <ele>1332.5</ele>
        <time>2016-10-26T09:15:34Z</time>
      </trkpt>
      <trkpt lat="43.84845" lon="6.46257">
        <ele>1333.6</ele>
        <time>2016-10-26T09:15:41Z</time>
      </trkpt>
      <trkpt lat="43.84836" lon="6.46255">
        <ele>1334.7</ele>
        <time>2016-10-26T09:15:47Z</time>
      </trkpt>
      <trkpt lat="43.84826" lon="6.46253">
        <ele>1335.7</ele>
        <time>2016-10-26T09:15:54Z</time>
      </trkpt>
      <trkpt lat="43.84817" lon="6.46255">
        <ele>1336.9</ele>
        <time>2016-10-26T09:16:01Z</time>
      </trkpt>
      <trkpt lat="43.84808" lon="6.46259">
        <ele>1337.8</ele>
        <time>2016-10-26T09:16:07Z</time>
      </trkpt>
      <trkpt lat="43.848" lon="6.46266">
        <ele>1338.6</ele>
        <time>2016-10-26T09:16:13Z</time>
      </trkpt>
      <trkpt lat="43.84793" lon="6.46274">
        <ele>1339.4</ele>
        <time>2016-10-26T09:16:19Z</time>
      </trkpt>
      <trkpt lat="43.84784" lon="6.46283">
        <ele>1340.2</ele>
        <time>2016-10-26T09:16:25Z</time>
      </trkpt>
      <trkpt lat="43.84777" lon="6.46291">
        <ele>1340.9</ele>
        <time>2016-10-26T09:16:30Z</time>
      </trkpt>
      <trkpt lat="43.8477" lon="6.46302">
        <ele>1341.5</ele>
        <time>2016-10-26T09:16:35Z</time>
      </trkpt>
      <trkpt lat="43.84764" lon="6.46312">
        <ele>1342.1</ele>
        <time>2016-10-26T09:16:40Z</time>
      </trkpt>
      <trkpt lat="43.84756" lon="6.46323">
        <ele>1342.8</ele>
        <time>2016-10-26T09:16:45Z</time>
      </trkpt>
      <trkpt lat="43.84748" lon="6.46333">
        <ele>1343.4</ele>
        <time>2016-10-26T09:16:49Z</time>
      </trkpt>
      <trkpt lat="43.84742" lon="6.46342">
        <ele>1344.1</ele>
        <time>2016-10-26T09:16:53Z</time>
      </trkpt>
      <trkpt lat="43.84734" lon="6.46353">
        <ele>1345</ele>
        <time>2016-10-26T09:16:58Z</time>
      </trkpt>
      <trkpt lat="43.84727" lon="6.46362">
        <ele>1345.9</ele>
        <time>2016-10-26T09:17:03Z</time>
      </trkpt>
      <trkpt lat="43.84721" lon="6.4637">
        <ele>1346.8</ele>
        <time>2016-10-26T09:17:08Z</time>
      </trkpt>
      <trkpt lat="43.84714" lon="6.46379">
        <ele>1347.7</ele>
        <time>2016-10-26T09:17:13Z</time>
      </trkpt>
      <trkpt lat="43.84707" lon="6.46389">
        <ele>1348.7</ele>
        <time>2016-10-26T09:17:18Z</time>
      </trkpt>
      <trkpt lat="43.84702" lon="6.46399">
        <ele>1349.8</ele>
        <time>2016-10-26T09:17:23Z</time>
      </trkpt>
      <trkpt lat="43.84696" lon="6.46409">
        <ele>1350.9</ele>
        <time>2016-10-26T09:17:29Z</time>
      </trkpt>
      <trkpt lat="43.84689" lon="6.46419">
        <ele>1352.1</ele>
        <time>2016-10-26T09:17:35Z</time>
      </trkpt>
      <trkpt lat="43.84679" lon="6.46418">
        <ele>1353.3</ele>
        <time>2016-10-26T09:17:41Z</time>
      </trkpt>
      <trkpt lat="43.84672" lon="6.46406">
        <ele>1354.7</ele>
        <time>2016-10-26T09:17:48Z</time>
      </trkpt>
      <trkpt lat="43.84672" lon="6.46394">
        <ele>1356.1</ele>
        <time>2016-10-26T09:17:55Z</time>
      </trkpt>
      <trkpt lat="43.84668" lon="6.46383">
        <ele>1358.6</ele>
        <time>2016-10-26T09:18:06Z</time>
      </trkpt>
      <trkpt lat="43.84662" lon="6.46397">
        <ele>1361</ele>
        <time>2016-10-26T09:18:25Z</time>
      </trkpt>
      <trkpt lat="43.84657" lon="6.46409">
        <ele>1360.7</ele>
        <time>2016-10-26T09:18:29Z</time>
      </trkpt>
      <trkpt lat="43.84649" lon="6.46403">
        <ele>1358.6</ele>
        <time>2016-10-26T09:27:27Z</time>
      </trkpt>
      <trkpt lat="43.84645" lon="6.4639">
        <ele>1357.7</ele>
        <time>2016-10-26T09:27:32Z</time>
      </trkpt>
      <trkpt lat="43.84644" lon="6.46373">
        <ele>1356.7</ele>
        <time>2016-10-26T09:27:36Z</time>
      </trkpt>
      <trkpt lat="43.84643" lon="6.4636">
        <ele>1355.6</ele>
        <time>2016-10-26T09:27:39Z</time>
      </trkpt>
      <trkpt lat="43.84638" lon="6.46344">
        <ele>1354.3</ele>
        <time>2016-10-26T09:27:42Z</time>
      </trkpt>
      <trkpt lat="43.84635" lon="6.4633">
        <ele>1352.7</ele>
        <time>2016-10-26T09:27:45Z</time>
      </trkpt>
      <trkpt lat="43.8463" lon="6.46315">
        <ele>1350.8</ele>
        <time>2016-10-26T09:27:48Z</time>
      </trkpt>
      <trkpt lat="43.84628" lon="6.46301">
        <ele>1349</ele>
        <time>2016-10-26T09:27:51Z</time>
      </trkpt>
      <trkpt lat="43.84625" lon="6.46289">
        <ele>1347.1</ele>
        <time>2016-10-26T09:27:54Z</time>
      </trkpt>
      <trkpt lat="43.84622" lon="6.46276">
        <ele>1344</ele>
        <time>2016-10-26T09:27:58Z</time>
      </trkpt>
      <trkpt lat="43.84619" lon="6.4626">
        <ele>1342.1</ele>
        <time>2016-10-26T09:28:01Z</time>
      </trkpt>
      <trkpt lat="43.84616" lon="6.46247">
        <ele>1339.8</ele>
        <time>2016-10-26T09:28:04Z</time>
      </trkpt>
      <trkpt lat="43.84614" lon="6.4623">
        <ele>1337.6</ele>
        <time>2016-10-26T09:28:07Z</time>
      </trkpt>
      <trkpt lat="43.84611" lon="6.46217">
        <ele>1336</ele>
        <time>2016-10-26T09:28:09Z</time>
      </trkpt>
      <trkpt lat="43.84608" lon="6.46205">
        <ele>1334.5</ele>
        <time>2016-10-26T09:28:11Z</time>
      </trkpt>
      <trkpt lat="43.84603" lon="6.46187">
        <ele>1332</ele>
        <time>2016-10-26T09:28:14Z</time>
      </trkpt>
      <trkpt lat="43.846" lon="6.46174">
        <ele>1330.2</ele>
        <time>2016-10-26T09:28:16Z</time>
      </trkpt>
      <trkpt lat="43.84596" lon="6.4616">
        <ele>1327.5</ele>
        <time>2016-10-26T09:28:19Z</time>
      </trkpt>
      <trkpt lat="43.84593" lon="6.46144">
        <ele>1324.9</ele>
        <time>2016-10-26T09:28:22Z</time>
      </trkpt>
      <trkpt lat="43.8459" lon="6.4613">
        <ele>1323.1</ele>
        <time>2016-10-26T09:28:24Z</time>
      </trkpt>
      <trkpt lat="43.84586" lon="6.46119">
        <ele>1321.3</ele>
        <time>2016-10-26T09:28:26Z</time>
      </trkpt>
      <trkpt lat="43.84582" lon="6.46107">
        <ele>1319.2</ele>
        <time>2016-10-26T09:28:28Z</time>
      </trkpt>
      <trkpt lat="43.84575" lon="6.46097">
        <ele>1316.2</ele>
        <time>2016-10-26T09:28:31Z</time>
      </trkpt>
      <trkpt lat="43.84568" lon="6.46087">
        <ele>1313.4</ele>
        <time>2016-10-26T09:28:34Z</time>
      </trkpt>
      <trkpt lat="43.84561" lon="6.46076">
        <ele>1310.3</ele>
        <time>2016-10-26T09:28:38Z</time>
      </trkpt>
      <trkpt lat="43.84553" lon="6.46082">
        <ele>1303.5</ele>
        <time>2016-10-26T09:28:51Z</time>
      </trkpt>
      <trkpt lat="43.84552" lon="6.46098">
        <ele>1300.5</ele>
        <time>2016-10-26T09:28:57Z</time>
      </trkpt>
      <trkpt lat="43.84548" lon="6.46111">
        <ele>1298.3</ele>
        <time>2016-10-26T09:29:01Z</time>
      </trkpt>
      <trkpt lat="43.84539" lon="6.46112">
        <ele>1295.5</ele>
        <time>2016-10-26T09:29:06Z</time>
      </trkpt>
      <trkpt lat="43.84529" lon="6.46113">
        <ele>1292.6</ele>
        <time>2016-10-26T09:29:11Z</time>
      </trkpt>
      <trkpt lat="43.84519" lon="6.46119">
        <ele>1289.2</ele>
        <time>2016-10-26T09:29:17Z</time>
      </trkpt>
      <trkpt lat="43.84508" lon="6.46121">
        <ele>1286.3</ele>
        <time>2016-10-26T09:29:22Z</time>
      </trkpt>
      <trkpt lat="43.84497" lon="6.46122">
        <ele>1283.8</ele>
        <time>2016-10-26T09:29:26Z</time>
      </trkpt>
      <trkpt lat="43.84487" lon="6.46123">
        <ele>1282</ele>
        <time>2016-10-26T09:29:29Z</time>
      </trkpt>
      <trkpt lat="43.84477" lon="6.46127">
        <ele>1279.7</ele>
        <time>2016-10-26T09:29:33Z</time>
      </trkpt>
      <trkpt lat="43.84469" lon="6.46133">
        <ele>1277.9</ele>
        <time>2016-10-26T09:29:36Z</time>
      </trkpt>
      <trkpt lat="43.84464" lon="6.46147">
        <ele>1275.8</ele>
        <time>2016-10-26T09:29:40Z</time>
      </trkpt>
      <trkpt lat="43.84461" lon="6.46163">
        <ele>1274.1</ele>
        <time>2016-10-26T09:29:43Z</time>
      </trkpt>
      <trkpt lat="43.84457" lon="6.46178">
        <ele>1272.5</ele>
        <time>2016-10-26T09:29:46Z</time>
      </trkpt>
      <trkpt lat="43.84456" lon="6.46195">
        <ele>1270.5</ele>
        <time>2016-10-26T09:29:49Z</time>
      </trkpt>
      <trkpt lat="43.84456" lon="6.46212">
        <ele>1268.7</ele>
        <time>2016-10-26T09:29:52Z</time>
      </trkpt>
      <trkpt lat="43.84448" lon="6.46222">
        <ele>1266.6</ele>
        <time>2016-10-26T09:29:55Z</time>
      </trkpt>
      <trkpt lat="43.84445" lon="6.46235">
        <ele>1263.9</ele>
        <time>2016-10-26T09:29:59Z</time>
      </trkpt>
      <trkpt lat="43.84443" lon="6.46251">
        <ele>1261.9</ele>
        <time>2016-10-26T09:30:02Z</time>
      </trkpt>
      <trkpt lat="43.8444" lon="6.46263">
        <ele>1260.5</ele>
        <time>2016-10-26T09:30:04Z</time>
      </trkpt>
      <trkpt lat="43.84435" lon="6.46275">
        <ele>1259.2</ele>
        <time>2016-10-26T09:30:06Z</time>
      </trkpt>
      <trkpt lat="43.84432" lon="6.46286">
        <ele>1257.2</ele>
        <time>2016-10-26T09:30:09Z</time>
      </trkpt>
      <trkpt lat="43.84423" lon="6.46282">
        <ele>1252.3</ele>
        <time>2016-10-26T09:30:17Z</time>
      </trkpt>
      <trkpt lat="43.84419" lon="6.46267">
        <ele>1249.7</ele>
        <time>2016-10-26T09:30:21Z</time>
      </trkpt>
      <trkpt lat="43.84416" lon="6.46254">
        <ele>1247.5</ele>
        <time>2016-10-26T09:30:24Z</time>
      </trkpt>
      <trkpt lat="43.84412" lon="6.46239">
        <ele>1245.2</ele>
        <time>2016-10-26T09:30:27Z</time>
      </trkpt>
      <trkpt lat="43.84408" lon="6.46227">
        <ele>1243.1</ele>
        <time>2016-10-26T09:30:30Z</time>
      </trkpt>
      <trkpt lat="43.84404" lon="6.46211">
        <ele>1241.1</ele>
        <time>2016-10-26T09:30:33Z</time>
      </trkpt>
      <trkpt lat="43.84396" lon="6.46199">
        <ele>1239</ele>
        <time>2016-10-26T09:30:36Z</time>
      </trkpt>
      <trkpt lat="43.84387" lon="6.46193">
        <ele>1237.1</ele>
        <time>2016-10-26T09:30:39Z</time>
      </trkpt>
      <trkpt lat="43.84377" lon="6.46183">
        <ele>1234</ele>
        <time>2016-10-26T09:30:43Z</time>
      </trkpt>
      <trkpt lat="43.84368" lon="6.46176">
        <ele>1231.8</ele>
        <time>2016-10-26T09:30:46Z</time>
      </trkpt>
      <trkpt lat="43.84358" lon="6.46171">
        <ele>1229.6</ele>
        <time>2016-10-26T09:30:49Z</time>
      </trkpt>
      <trkpt lat="43.84347" lon="6.46166">
        <ele>1227.2</ele>
        <time>2016-10-26T09:30:52Z</time>
      </trkpt>
      <trkpt lat="43.84335" lon="6.4616">
        <ele>1224.6</ele>
        <time>2016-10-26T09:30:55Z</time>
      </trkpt>
      <trkpt lat="43.84327" lon="6.46157">
        <ele>1221.5</ele>
        <time>2016-10-26T09:30:59Z</time>
      </trkpt>
      <trkpt lat="43.84316" lon="6.46151">
        <ele>1217.9</ele>
        <time>2016-10-26T09:31:04Z</time>
      </trkpt>
      <trkpt lat="43.84307" lon="6.46148">
        <ele>1215.1</ele>
        <time>2016-10-26T09:31:08Z</time>
      </trkpt>
      <trkpt lat="43.84298" lon="6.46145">
        <ele>1212.3</ele>
        <time>2016-10-26T09:31:12Z</time>
      </trkpt>
      <trkpt lat="43.84295" lon="6.46157">
        <ele>1208.8</ele>
        <time>2016-10-26T09:31:17Z</time>
      </trkpt>
      <trkpt lat="43.84295" lon="6.46171">
        <ele>1206.1</ele>
        <time>2016-10-26T09:31:21Z</time>
      </trkpt>
      <trkpt lat="43.84289" lon="6.4618">
        <ele>1202.8</ele>
        <time>2016-10-26T09:31:26Z</time>
      </trkpt>
      <trkpt lat="43.84278" lon="6.46182">
        <ele>1199.5</ele>
        <time>2016-10-26T09:31:31Z</time>
      </trkpt>
      <trkpt lat="43.84268" lon="6.46189">
        <ele>1196</ele>
        <time>2016-10-26T09:31:36Z</time>
      </trkpt>
      <trkpt lat="43.84267" lon="6.46203">
        <ele>1193.9</ele>
        <time>2016-10-26T09:31:39Z</time>
      </trkpt>
      <trkpt lat="43.84265" lon="6.46217">
        <ele>1191.7</ele>
        <time>2016-10-26T09:31:42Z</time>
      </trkpt>
      <trkpt lat="43.84265" lon="6.46231">
        <ele>1187.1</ele>
        <time>2016-10-26T09:31:49Z</time>
      </trkpt>
      <trkpt lat="43.84262" lon="6.46243">
        <ele>1174.3</ele>
        <time>2016-10-26T09:32:21Z</time>
      </trkpt>
      <trkpt lat="43.84252" lon="6.46249">
        <ele>1166.9</ele>
        <time>2016-10-26T09:32:44Z</time>
      </trkpt>
      <trkpt lat="43.84243" lon="6.46251">
        <ele>1167.2</ele>
        <time>2016-10-26T09:32:49Z</time>
      </trkpt>
      <trkpt lat="43.84234" lon="6.46258">
        <ele>1166.7</ele>
        <time>2016-10-26T09:32:53Z</time>
      </trkpt>
      <trkpt lat="43.84224" lon="6.46258">
        <ele>1165.6</ele>
        <time>2016-10-26T09:32:57Z</time>
      </trkpt>
      <trkpt lat="43.84213" lon="6.46261">
        <ele>1164.1</ele>
        <time>2016-10-26T09:33:01Z</time>
      </trkpt>
      <trkpt lat="43.84203" lon="6.46262">
        <ele>1162.7</ele>
        <time>2016-10-26T09:33:04Z</time>
      </trkpt>
      <trkpt lat="43.84194" lon="6.46258">
        <ele>1160.3</ele>
        <time>2016-10-26T09:33:09Z</time>
      </trkpt>
      <trkpt lat="43.84184" lon="6.46254">
        <ele>1158.7</ele>
        <time>2016-10-26T09:33:13Z</time>
      </trkpt>
      <trkpt lat="43.84175" lon="6.46251">
        <ele>1157.2</ele>
        <time>2016-10-26T09:33:16Z</time>
      </trkpt>
      <trkpt lat="43.84165" lon="6.46246">
        <ele>1155.7</ele>
        <time>2016-10-26T09:33:19Z</time>
      </trkpt>
      <trkpt lat="43.84155" lon="6.46245">
        <ele>1153.3</ele>
        <time>2016-10-26T09:33:23Z</time>
      </trkpt>
      <trkpt lat="43.84144" lon="6.46243">
        <ele>1150.7</ele>
        <time>2016-10-26T09:33:27Z</time>
      </trkpt>
      <trkpt lat="43.84133" lon="6.46238">
        <ele>1148.9</ele>
        <time>2016-10-26T09:33:30Z</time>
      </trkpt>
      <trkpt lat="43.84122" lon="6.46228">
        <ele>1146.9</ele>
        <time>2016-10-26T09:33:33Z</time>
      </trkpt>
      <trkpt lat="43.84112" lon="6.4622">
        <ele>1144.9</ele>
        <time>2016-10-26T09:33:36Z</time>
      </trkpt>
      <trkpt lat="43.84103" lon="6.46214">
        <ele>1143.4</ele>
        <time>2016-10-26T09:33:38Z</time>
      </trkpt>
      <trkpt lat="43.84094" lon="6.4621">
        <ele>1141.9</ele>
        <time>2016-10-26T09:33:40Z</time>
      </trkpt>
      <trkpt lat="43.84085" lon="6.46207">
        <ele>1140.7</ele>
        <time>2016-10-26T09:33:42Z</time>
      </trkpt>
      <trkpt lat="43.84075" lon="6.46206">
        <ele>1139.2</ele>
        <time>2016-10-26T09:33:45Z</time>
      </trkpt>
      <trkpt lat="43.84063" lon="6.462">
        <ele>1137.4</ele>
        <time>2016-10-26T09:33:48Z</time>
      </trkpt>
      <trkpt lat="43.84054" lon="6.46191">
        <ele>1135.4</ele>
        <time>2016-10-26T09:33:51Z</time>
      </trkpt>
      <trkpt lat="43.84045" lon="6.46183">
        <ele>1133.1</ele>
        <time>2016-10-26T09:33:54Z</time>
      </trkpt>
      <trkpt lat="43.84035" lon="6.46176">
        <ele>1131</ele>
        <time>2016-10-26T09:33:57Z</time>
      </trkpt>
      <trkpt lat="43.84026" lon="6.4617">
        <ele>1128.6</ele>
        <time>2016-10-26T09:34:00Z</time>
      </trkpt>
      <trkpt lat="43.84017" lon="6.46162">
        <ele>1126.3</ele>
        <time>2016-10-26T09:34:03Z</time>
      </trkpt>
      <trkpt lat="43.84006" lon="6.46161">
        <ele>1124</ele>
        <time>2016-10-26T09:34:06Z</time>
      </trkpt>
      <trkpt lat="43.83996" lon="6.46155">
        <ele>1121.4</ele>
        <time>2016-10-26T09:34:09Z</time>
      </trkpt>
      <trkpt lat="43.83987" lon="6.46148">
        <ele>1119</ele>
        <time>2016-10-26T09:34:12Z</time>
      </trkpt>
      <trkpt lat="43.83979" lon="6.46142">
        <ele>1115.9</ele>
        <time>2016-10-26T09:34:16Z</time>
      </trkpt>
      <trkpt lat="43.8397" lon="6.46138">
        <ele>1112.7</ele>
        <time>2016-10-26T09:34:20Z</time>
      </trkpt>
      <trkpt lat="43.83962" lon="6.4613">
        <ele>1110.2</ele>
        <time>2016-10-26T09:34:23Z</time>
      </trkpt>
      <trkpt lat="43.83952" lon="6.4612">
        <ele>1106.8</ele>
        <time>2016-10-26T09:34:27Z</time>
      </trkpt>
      <trkpt lat="43.83944" lon="6.46115">
        <ele>1105.1</ele>
        <time>2016-10-26T09:34:29Z</time>
      </trkpt>
      <trkpt lat="43.83936" lon="6.46109">
        <ele>1103.6</ele>
        <time>2016-10-26T09:34:31Z</time>
      </trkpt>
      <trkpt lat="43.83926" lon="6.46109">
        <ele>1101.5</ele>
        <time>2016-10-26T09:34:34Z</time>
      </trkpt>
      <trkpt lat="43.83917" lon="6.4611">
        <ele>1098.2</ele>
        <time>2016-10-26T09:34:37Z</time>
      </trkpt>
      <trkpt lat="43.8391" lon="6.46118">
        <ele>1096.5</ele>
        <time>2016-10-26T09:34:42Z</time>
      </trkpt>
      <trkpt lat="43.83905" lon="6.46129">
        <ele>1095.6</ele>
        <time>2016-10-26T09:34:45Z</time>
      </trkpt>
      <trkpt lat="43.83897" lon="6.46145">
        <ele>1094.2</ele>
        <time>2016-10-26T09:34:48Z</time>
      </trkpt>
      <trkpt lat="43.83889" lon="6.46157">
        <ele>1093.1</ele>
        <time>2016-10-26T09:34:50Z</time>
      </trkpt>
      <trkpt lat="43.83884" lon="6.46167">
        <ele>1091.9</ele>
        <time>2016-10-26T09:34:52Z</time>
      </trkpt>
      <trkpt lat="43.83875" lon="6.46179">
        <ele>1090.2</ele>
        <time>2016-10-26T09:34:55Z</time>
      </trkpt>
      <trkpt lat="43.83865" lon="6.46188">
        <ele>1088.6</ele>
        <time>2016-10-26T09:34:58Z</time>
      </trkpt>
      <trkpt lat="43.83858" lon="6.46198">
        <ele>1085.4</ele>
        <time>2016-10-26T09:35:04Z</time>
      </trkpt>
      <trkpt lat="43.8385" lon="6.46202">
        <ele>1084.3</ele>
        <time>2016-10-26T09:35:06Z</time>
      </trkpt>
      <trkpt lat="43.8384" lon="6.46213">
        <ele>1082.5</ele>
        <time>2016-10-26T09:35:09Z</time>
      </trkpt>
      <trkpt lat="43.83833" lon="6.46225">
        <ele>1080.1</ele>
        <time>2016-10-26T09:35:12Z</time>
      </trkpt>
      <trkpt lat="43.83833" lon="6.46239">
        <ele>1077.9</ele>
        <time>2016-10-26T09:35:15Z</time>
      </trkpt>
      <trkpt lat="43.83838" lon="6.46252">
        <ele>1075.6</ele>
        <time>2016-10-26T09:35:18Z</time>
      </trkpt>
      <trkpt lat="43.83845" lon="6.46264">
        <ele>1073.3</ele>
        <time>2016-10-26T09:35:21Z</time>
      </trkpt>
      <trkpt lat="43.8385" lon="6.46277">
        <ele>1069.7</ele>
        <time>2016-10-26T09:35:26Z</time>
      </trkpt>
      <trkpt lat="43.83853" lon="6.46289">
        <ele>1067</ele>
        <time>2016-10-26T09:35:30Z</time>
      </trkpt>
      <trkpt lat="43.83855" lon="6.46304">
        <ele>1064.5</ele>
        <time>2016-10-26T09:35:34Z</time>
      </trkpt>
      <trkpt lat="43.83856" lon="6.46317">
        <ele>1062.5</ele>
        <time>2016-10-26T09:35:37Z</time>
      </trkpt>
      <trkpt lat="43.83854" lon="6.46329">
        <ele>1059.8</ele>
        <time>2016-10-26T09:35:41Z</time>
      </trkpt>
      <trkpt lat="43.83855" lon="6.46342">
        <ele>1056.9</ele>
        <time>2016-10-26T09:35:45Z</time>
      </trkpt>
      <trkpt lat="43.83856" lon="6.46355">
        <ele>1054.4</ele>
        <time>2016-10-26T09:35:49Z</time>
      </trkpt>
      <trkpt lat="43.83858" lon="6.46368">
        <ele>1052.5</ele>
        <time>2016-10-26T09:35:52Z</time>
      </trkpt>
      <trkpt lat="43.83857" lon="6.46382">
        <ele>1050.7</ele>
        <time>2016-10-26T09:35:55Z</time>
      </trkpt>
      <trkpt lat="43.83849" lon="6.46395">
        <ele>1048</ele>
        <time>2016-10-26T09:35:59Z</time>
      </trkpt>
      <trkpt lat="43.83843" lon="6.46408">
        <ele>1045.2</ele>
        <time>2016-10-26T09:36:03Z</time>
      </trkpt>
      <trkpt lat="43.83837" lon="6.4642">
        <ele>1042.7</ele>
        <time>2016-10-26T09:36:07Z</time>
      </trkpt>
      <trkpt lat="43.83829" lon="6.46429">
        <ele>1038.5</ele>
        <time>2016-10-26T09:36:15Z</time>
      </trkpt>
      <trkpt lat="43.8382" lon="6.46437">
        <ele>1036.3</ele>
        <time>2016-10-26T09:36:19Z</time>
      </trkpt>
      <trkpt lat="43.83811" lon="6.46442">
        <ele>1033.8</ele>
        <time>2016-10-26T09:36:23Z</time>
      </trkpt>
      <trkpt lat="43.83802" lon="6.4645">
        <ele>1031</ele>
        <time>2016-10-26T09:36:28Z</time>
      </trkpt>
      <trkpt lat="43.83792" lon="6.46447">
        <ele>1027.1</ele>
        <time>2016-10-26T09:36:36Z</time>
      </trkpt>
      <trkpt lat="43.83786" lon="6.46437">
        <ele>1024.6</ele>
        <time>2016-10-26T09:36:45Z</time>
      </trkpt>
      <trkpt lat="43.83793" lon="6.46446">
        <ele>1021.5</ele>
        <time>2016-10-26T09:37:09Z</time>
      </trkpt>
      <trkpt lat="43.83795" lon="6.46458">
        <ele>1021.1</ele>
        <time>2016-10-26T09:37:17Z</time>
      </trkpt>
      <trkpt lat="43.83791" lon="6.46446">
        <ele>1020.6</ele>
        <time>2016-10-26T09:38:35Z</time>
      </trkpt>
      <trkpt lat="43.83784" lon="6.46437">
        <ele>1021.1</ele>
        <time>2016-10-26T09:38:55Z</time>
      </trkpt>
      <trkpt lat="43.83778" lon="6.46427">
        <ele>1021.6</ele>
        <time>2016-10-26T09:39:06Z</time>
      </trkpt>
      <trkpt lat="43.83771" lon="6.46418">
        <ele>1022</ele>
        <time>2016-10-26T09:39:15Z</time>
      </trkpt>
      <trkpt lat="43.83765" lon="6.46409">
        <ele>1018.2</ele>
        <time>2016-10-26T09:39:24Z</time>
      </trkpt>
      <trkpt lat="43.83763" lon="6.46396">
        <ele>1022.6</ele>
        <time>2016-10-26T09:39:38Z</time>
      </trkpt>
      <trkpt lat="43.83766" lon="6.46383">
        <ele>1025.7</ele>
        <time>2016-10-26T09:39:52Z</time>
      </trkpt>
      <trkpt lat="43.83771" lon="6.46372">
        <ele>1029</ele>
        <time>2016-10-26T09:40:06Z</time>
      </trkpt>
      <trkpt lat="43.83776" lon="6.4636">
        <ele>1032.8</ele>
        <time>2016-10-26T09:40:22Z</time>
      </trkpt>
      <trkpt lat="43.83774" lon="6.46347">
        <ele>1035.9</ele>
        <time>2016-10-26T09:40:35Z</time>
      </trkpt>
      <trkpt lat="43.83766" lon="6.46339">
        <ele>1038.4</ele>
        <time>2016-10-26T09:40:47Z</time>
      </trkpt>
      <trkpt lat="43.83757" lon="6.46336">
        <ele>1039.9</ele>
        <time>2016-10-26T09:40:56Z</time>
      </trkpt>
      <trkpt lat="43.83747" lon="6.46332">
        <ele>1040.7</ele>
        <time>2016-10-26T09:41:04Z</time>
      </trkpt>
      <trkpt lat="43.83738" lon="6.46329">
        <ele>1041.6</ele>
        <time>2016-10-26T09:41:12Z</time>
      </trkpt>
      <trkpt lat="43.8373" lon="6.46323">
        <ele>1042.2</ele>
        <time>2016-10-26T09:41:21Z</time>
      </trkpt>
      <trkpt lat="43.83723" lon="6.46315">
        <ele>1042.7</ele>
        <time>2016-10-26T09:41:29Z</time>
      </trkpt>
      <trkpt lat="43.83715" lon="6.46307">
        <ele>1043.1</ele>
        <time>2016-10-26T09:41:37Z</time>
      </trkpt>
      <trkpt lat="43.83708" lon="6.46295">
        <ele>1043.6</ele>
        <time>2016-10-26T09:41:45Z</time>
      </trkpt>
      <trkpt lat="43.83703" lon="6.46285">
        <ele>1049</ele>
        <time>2016-10-26T09:44:59Z</time>
      </trkpt>
      <trkpt lat="43.83699" lon="6.46274">
        <ele>1049.3</ele>
        <time>2016-10-26T09:45:13Z</time>
      </trkpt>
      <trkpt lat="43.83696" lon="6.46261">
        <ele>1048.3</ele>
        <time>2016-10-26T09:45:21Z</time>
      </trkpt>
      <trkpt lat="43.83694" lon="6.46249">
        <ele>1049.1</ele>
        <time>2016-10-26T09:45:28Z</time>
      </trkpt>
      <trkpt lat="43.83691" lon="6.46236">
        <ele>1050.7</ele>
        <time>2016-10-26T09:45:35Z</time>
      </trkpt>
      <trkpt lat="43.83689" lon="6.46224">
        <ele>1051.8</ele>
        <time>2016-10-26T09:45:42Z</time>
      </trkpt>
      <trkpt lat="43.83686" lon="6.46212">
        <ele>1052.7</ele>
        <time>2016-10-26T09:45:49Z</time>
      </trkpt>
      <trkpt lat="43.83685" lon="6.462">
        <ele>1053.9</ele>
        <time>2016-10-26T09:45:57Z</time>
      </trkpt>
      <trkpt lat="43.83683" lon="6.46187">
        <ele>1056.2</ele>
        <time>2016-10-26T09:46:11Z</time>
      </trkpt>
      <trkpt lat="43.83683" lon="6.46174">
        <ele>1058</ele>
        <time>2016-10-26T09:46:21Z</time>
      </trkpt>
      <trkpt lat="43.83685" lon="6.46161">
        <ele>1060.7</ele>
        <time>2016-10-26T09:46:34Z</time>
      </trkpt>
      <trkpt lat="43.83689" lon="6.46149">
        <ele>1064.7</ele>
        <time>2016-10-26T09:46:55Z</time>
      </trkpt>
      <trkpt lat="43.83695" lon="6.46138">
        <ele>1066</ele>
        <time>2016-10-26T09:47:04Z</time>
      </trkpt>
      <trkpt lat="43.83702" lon="6.4613">
        <ele>1068.6</ele>
        <time>2016-10-26T09:47:21Z</time>
      </trkpt>
      <trkpt lat="43.8371" lon="6.46124">
        <ele>1068.7</ele>
        <time>2016-10-26T09:47:26Z</time>
      </trkpt>
      <trkpt lat="43.83718" lon="6.46115">
        <ele>1068.6</ele>
        <time>2016-10-26T09:47:29Z</time>
      </trkpt>
      <trkpt lat="43.83725" lon="6.46102">
        <ele>1068</ele>
        <time>2016-10-26T09:47:32Z</time>
      </trkpt>
      <trkpt lat="43.83729" lon="6.4609">
        <ele>1067.5</ele>
        <time>2016-10-26T09:47:34Z</time>
      </trkpt>
      <trkpt lat="43.83735" lon="6.46079">
        <ele>1067</ele>
        <time>2016-10-26T09:47:36Z</time>
      </trkpt>
      <trkpt lat="43.83744" lon="6.46067">
        <ele>1066.4</ele>
        <time>2016-10-26T09:47:38Z</time>
      </trkpt>
      <trkpt lat="43.83754" lon="6.46054">
        <ele>1065.6</ele>
        <time>2016-10-26T09:47:40Z</time>
      </trkpt>
      <trkpt lat="43.83766" lon="6.4604">
        <ele>1064.8</ele>
        <time>2016-10-26T09:47:42Z</time>
      </trkpt>
      <trkpt lat="43.83774" lon="6.46027">
        <ele>1063.9</ele>
        <time>2016-10-26T09:47:44Z</time>
      </trkpt>
      <trkpt lat="43.83781" lon="6.46015">
        <ele>1063.2</ele>
        <time>2016-10-26T09:47:46Z</time>
      </trkpt>
      <trkpt lat="43.83786" lon="6.46003">
        <ele>1062.7</ele>
        <time>2016-10-26T09:47:48Z</time>
      </trkpt>
      <trkpt lat="43.83791" lon="6.4599">
        <ele>1062</ele>
        <time>2016-10-26T09:47:51Z</time>
      </trkpt>
      <trkpt lat="43.83794" lon="6.45975">
        <ele>1061.3</ele>
        <time>2016-10-26T09:47:56Z</time>
      </trkpt>
      <trkpt lat="43.83795" lon="6.45961">
        <ele>1061</ele>
        <time>2016-10-26T09:48:00Z</time>
      </trkpt>
      <trkpt lat="43.83794" lon="6.45947">
        <ele>1061</ele>
        <time>2016-10-26T09:48:04Z</time>
      </trkpt>
      <trkpt lat="43.83793" lon="6.45934">
        <ele>1061.2</ele>
        <time>2016-10-26T09:48:09Z</time>
      </trkpt>
      <trkpt lat="43.83793" lon="6.45921">
        <ele>1061.9</ele>
        <time>2016-10-26T09:48:14Z</time>
      </trkpt>
      <trkpt lat="43.83792" lon="6.45907">
        <ele>1062.9</ele>
        <time>2016-10-26T09:48:19Z</time>
      </trkpt>
      <trkpt lat="43.83791" lon="6.45893">
        <ele>1064.1</ele>
        <time>2016-10-26T09:48:24Z</time>
      </trkpt>
      <trkpt lat="43.8379" lon="6.45878">
        <ele>1065.1</ele>
        <time>2016-10-26T09:48:29Z</time>
      </trkpt>
      <trkpt lat="43.83788" lon="6.45866">
        <ele>1065.8</ele>
        <time>2016-10-26T09:48:33Z</time>
      </trkpt>
      <trkpt lat="43.83785" lon="6.45852">
        <ele>1066.6</ele>
        <time>2016-10-26T09:48:38Z</time>
      </trkpt>
      <trkpt lat="43.83783" lon="6.45837">
        <ele>1067.1</ele>
        <time>2016-10-26T09:48:42Z</time>
      </trkpt>
      <trkpt lat="43.83784" lon="6.45822">
        <ele>1067.5</ele>
        <time>2016-10-26T09:48:46Z</time>
      </trkpt>
      <trkpt lat="43.83785" lon="6.45809">
        <ele>1067.6</ele>
        <time>2016-10-26T09:48:50Z</time>
      </trkpt>
      <trkpt lat="43.83787" lon="6.45795">
        <ele>1067.9</ele>
        <time>2016-10-26T09:48:54Z</time>
      </trkpt>
      <trkpt lat="43.83789" lon="6.45779">
        <ele>1068</ele>
        <time>2016-10-26T09:48:58Z</time>
      </trkpt>
      <trkpt lat="43.83793" lon="6.45765">
        <ele>1067.8</ele>
        <time>2016-10-26T09:49:01Z</time>
      </trkpt>
      <trkpt lat="43.83798" lon="6.45753">
        <ele>1067.4</ele>
        <time>2016-10-26T09:49:04Z</time>
      </trkpt>
      <trkpt lat="43.83805" lon="6.45742">
        <ele>1066.9</ele>
        <time>2016-10-26T09:49:06Z</time>
      </trkpt>
      <trkpt lat="43.83812" lon="6.45732">
        <ele>1066.4</ele>
        <time>2016-10-26T09:49:08Z</time>
      </trkpt>
      <trkpt lat="43.8382" lon="6.45721">
        <ele>1065.9</ele>
        <time>2016-10-26T09:49:10Z</time>
      </trkpt>
      <trkpt lat="43.83826" lon="6.45709">
        <ele>1065.3</ele>
        <time>2016-10-26T09:49:12Z</time>
      </trkpt>
      <trkpt lat="43.83831" lon="6.45697">
        <ele>1064.6</ele>
        <time>2016-10-26T09:49:14Z</time>
      </trkpt>
      <trkpt lat="43.83836" lon="6.45684">
        <ele>1063.9</ele>
        <time>2016-10-26T09:49:16Z</time>
      </trkpt>
      <trkpt lat="43.83843" lon="6.45669">
        <ele>1062.7</ele>
        <time>2016-10-26T09:49:19Z</time>
      </trkpt>
      <trkpt lat="43.8385" lon="6.45658">
        <ele>1061.9</ele>
        <time>2016-10-26T09:49:21Z</time>
      </trkpt>
      <trkpt lat="43.83856" lon="6.45647">
        <ele>1061.1</ele>
        <time>2016-10-26T09:49:23Z</time>
      </trkpt>
      <trkpt lat="43.83861" lon="6.45635">
        <ele>1060.2</ele>
        <time>2016-10-26T09:49:25Z</time>
      </trkpt>
      <trkpt lat="43.83864" lon="6.45618">
        <ele>1058.7</ele>
        <time>2016-10-26T09:49:28Z</time>
      </trkpt>
      <trkpt lat="43.83868" lon="6.45602">
        <ele>1057.4</ele>
        <time>2016-10-26T09:49:31Z</time>
      </trkpt>
      <trkpt lat="43.83874" lon="6.4559">
        <ele>1055.4</ele>
        <time>2016-10-26T09:49:36Z</time>
      </trkpt>
      <trkpt lat="43.83878" lon="6.45576">
        <ele>1050.8</ele>
        <time>2016-10-26T09:51:07Z</time>
      </trkpt>
      <trkpt lat="43.83879" lon="6.45559">
        <ele>1050.8</ele>
        <time>2016-10-26T09:51:12Z</time>
      </trkpt>
      <trkpt lat="43.8388" lon="6.45544">
        <ele>1050.5</ele>
        <time>2016-10-26T09:51:15Z</time>
      </trkpt>
      <trkpt lat="43.83882" lon="6.45527">
        <ele>1050.1</ele>
        <time>2016-10-26T09:51:18Z</time>
      </trkpt>
      <trkpt lat="43.83886" lon="6.45514">
        <ele>1049.6</ele>
        <time>2016-10-26T09:51:21Z</time>
      </trkpt>
      <trkpt lat="43.83887" lon="6.455">
        <ele>1048.3</ele>
        <time>2016-10-26T09:51:28Z</time>
      </trkpt>
      <trkpt lat="43.83891" lon="6.45486">
        <ele>1046.1</ele>
        <time>2016-10-26T09:51:40Z</time>
      </trkpt>
      <trkpt lat="43.83892" lon="6.45473">
        <ele>1045.1</ele>
        <time>2016-10-26T09:51:45Z</time>
      </trkpt>
      <trkpt lat="43.8389" lon="6.4546">
        <ele>1043.5</ele>
        <time>2016-10-26T09:51:54Z</time>
      </trkpt>
      <trkpt lat="43.83884" lon="6.45446">
        <ele>1042.7</ele>
        <time>2016-10-26T09:51:57Z</time>
      </trkpt>
      <trkpt lat="43.83878" lon="6.45434">
        <ele>1041.8</ele>
        <time>2016-10-26T09:52:00Z</time>
      </trkpt>
      <trkpt lat="43.83873" lon="6.45423">
        <ele>1040.8</ele>
        <time>2016-10-26T09:52:04Z</time>
      </trkpt>
      <trkpt lat="43.83867" lon="6.4541">
        <ele>1040.1</ele>
        <time>2016-10-26T09:52:08Z</time>
      </trkpt>
      <trkpt lat="43.83863" lon="6.45396">
        <ele>1039.6</ele>
        <time>2016-10-26T09:52:12Z</time>
      </trkpt>
      <trkpt lat="43.83859" lon="6.45383">
        <ele>1039.1</ele>
        <time>2016-10-26T09:52:16Z</time>
      </trkpt>
      <trkpt lat="43.83853" lon="6.45372">
        <ele>1038.9</ele>
        <time>2016-10-26T09:52:20Z</time>
      </trkpt>
      <trkpt lat="43.83847" lon="6.45361">
        <ele>1038.9</ele>
        <time>2016-10-26T09:52:24Z</time>
      </trkpt>
      <trkpt lat="43.83841" lon="6.45352">
        <ele>1038.9</ele>
        <time>2016-10-26T09:52:28Z</time>
      </trkpt>
      <trkpt lat="43.83835" lon="6.45342">
        <ele>1039.2</ele>
        <time>2016-10-26T09:52:32Z</time>
      </trkpt>
      <trkpt lat="43.8383" lon="6.45332">
        <ele>1039.5</ele>
        <time>2016-10-26T09:52:36Z</time>
      </trkpt>
      <trkpt lat="43.83826" lon="6.45317">
        <ele>1039.8</ele>
        <time>2016-10-26T09:52:40Z</time>
      </trkpt>
      <trkpt lat="43.83828" lon="6.45303">
        <ele>1040</ele>
        <time>2016-10-26T09:52:43Z</time>
      </trkpt>
      <trkpt lat="43.83829" lon="6.45289">
        <ele>1040.2</ele>
        <time>2016-10-26T09:52:46Z</time>
      </trkpt>
      <trkpt lat="43.83828" lon="6.45275">
        <ele>1040.4</ele>
        <time>2016-10-26T09:52:49Z</time>
      </trkpt>
      <trkpt lat="43.83828" lon="6.45259">
        <ele>1040.8</ele>
        <time>2016-10-26T09:52:53Z</time>
      </trkpt>
      <trkpt lat="43.83828" lon="6.45243">
        <ele>1041.2</ele>
        <time>2016-10-26T09:52:57Z</time>
      </trkpt>
      <trkpt lat="43.83831" lon="6.45232">
        <ele>1043.4</ele>
        <time>2016-10-26T09:53:16Z</time>
      </trkpt>
      <trkpt lat="43.83838" lon="6.45223">
        <ele>1044.5</ele>
        <time>2016-10-26T09:53:29Z</time>
      </trkpt>
      <trkpt lat="43.83844" lon="6.45213">
        <ele>1048</ele>
        <time>2016-10-26T09:53:53Z</time>
      </trkpt>
      <trkpt lat="43.83847" lon="6.45201">
        <ele>1049.6</ele>
        <time>2016-10-26T09:54:11Z</time>
      </trkpt>
      <trkpt lat="43.83852" lon="6.45189">
        <ele>1049.6</ele>
        <time>2016-10-26T09:54:15Z</time>
      </trkpt>
      <trkpt lat="43.8386" lon="6.45181">
        <ele>1049.4</ele>
        <time>2016-10-26T09:54:19Z</time>
      </trkpt>
      <trkpt lat="43.83869" lon="6.45175">
        <ele>1049.2</ele>
        <time>2016-10-26T09:54:26Z</time>
      </trkpt>
      <trkpt lat="43.83879" lon="6.4517">
        <ele>1049.2</ele>
        <time>2016-10-26T09:54:31Z</time>
      </trkpt>
      <trkpt lat="43.83888" lon="6.45167">
        <ele>1049.2</ele>
        <time>2016-10-26T09:54:36Z</time>
      </trkpt>
      <trkpt lat="43.83897" lon="6.45164">
        <ele>1049.3</ele>
        <time>2016-10-26T09:54:40Z</time>
      </trkpt>
      <trkpt lat="43.83907" lon="6.45161">
        <ele>1049.2</ele>
        <time>2016-10-26T09:54:45Z</time>
      </trkpt>
      <trkpt lat="43.83917" lon="6.45158">
        <ele>1049.2</ele>
        <time>2016-10-26T09:54:49Z</time>
      </trkpt>
      <trkpt lat="43.83927" lon="6.45156">
        <ele>1049.4</ele>
        <time>2016-10-26T09:54:58Z</time>
      </trkpt>
      <trkpt lat="43.83937" lon="6.45153">
        <ele>1049.3</ele>
        <time>2016-10-26T09:55:10Z</time>
      </trkpt>
      <trkpt lat="43.83946" lon="6.4515">
        <ele>1049.2</ele>
        <time>2016-10-26T09:55:21Z</time>
      </trkpt>
      <trkpt lat="43.83955" lon="6.45145">
        <ele>1048.9</ele>
        <time>2016-10-26T09:55:29Z</time>
      </trkpt>
      <trkpt lat="43.83964" lon="6.45141">
        <ele>1048.7</ele>
        <time>2016-10-26T09:55:33Z</time>
      </trkpt>
      <trkpt lat="43.83974" lon="6.4514">
        <ele>1048.4</ele>
        <time>2016-10-26T09:55:40Z</time>
      </trkpt>
      <trkpt lat="43.83984" lon="6.45138">
        <ele>1048.7</ele>
        <time>2016-10-26T09:55:46Z</time>
      </trkpt>
      <trkpt lat="43.83994" lon="6.4513">
        <ele>1048.8</ele>
        <time>2016-10-26T09:55:51Z</time>
      </trkpt>
      <trkpt lat="43.84002" lon="6.45121">
        <ele>1049</ele>
        <time>2016-10-26T09:55:55Z</time>
      </trkpt>
      <trkpt lat="43.84009" lon="6.45114">
        <ele>1049.1</ele>
        <time>2016-10-26T09:55:59Z</time>
      </trkpt>
      <trkpt lat="43.84018" lon="6.45103">
        <ele>1049.3</ele>
        <time>2016-10-26T09:56:04Z</time>
      </trkpt>
      <trkpt lat="43.84022" lon="6.45091">
        <ele>1049.4</ele>
        <time>2016-10-26T09:56:08Z</time>
      </trkpt>
      <trkpt lat="43.84029" lon="6.45081">
        <ele>1049.8</ele>
        <time>2016-10-26T09:56:14Z</time>
      </trkpt>
      <trkpt lat="43.84032" lon="6.45068">
        <ele>1050.8</ele>
        <time>2016-10-26T09:56:22Z</time>
      </trkpt>
      <trkpt lat="43.84035" lon="6.45056">
        <ele>1052.2</ele>
        <time>2016-10-26T09:56:33Z</time>
      </trkpt>
      <trkpt lat="43.84044" lon="6.45047">
        <ele>1053.9</ele>
        <time>2016-10-26T09:56:44Z</time>
      </trkpt>
      <trkpt lat="43.84045" lon="6.45034">
        <ele>1055.1</ele>
        <time>2016-10-26T09:56:54Z</time>
      </trkpt>
      <trkpt lat="43.84045" lon="6.4502">
        <ele>1055.6</ele>
        <time>2016-10-26T09:57:00Z</time>
      </trkpt>
      <trkpt lat="43.84047" lon="6.45008">
        <ele>1055.5</ele>
        <time>2016-10-26T09:57:07Z</time>
      </trkpt>
      <trkpt lat="43.84043" lon="6.44995">
        <ele>1054</ele>
        <time>2016-10-26T09:57:14Z</time>
      </trkpt>
      <trkpt lat="43.84035" lon="6.44986">
        <ele>1051.5</ele>
        <time>2016-10-26T09:57:22Z</time>
      </trkpt>
      <trkpt lat="43.84025" lon="6.44985">
        <ele>1048.3</ele>
        <time>2016-10-26T09:57:30Z</time>
      </trkpt>
      <trkpt lat="43.84017" lon="6.44994">
        <ele>1045.7</ele>
        <time>2016-10-26T09:57:37Z</time>
      </trkpt>
      <trkpt lat="43.84009" lon="6.45002">
        <ele>1042.9</ele>
        <time>2016-10-26T09:57:45Z</time>
      </trkpt>
      <trkpt lat="43.84006" lon="6.4499">
        <ele>1039.9</ele>
        <time>2016-10-26T09:57:54Z</time>
      </trkpt>
      <trkpt lat="43.84005" lon="6.44977">
        <ele>1037.1</ele>
        <time>2016-10-26T09:58:01Z</time>
      </trkpt>
      <trkpt lat="43.84005" lon="6.44963">
        <ele>1034.7</ele>
        <time>2016-10-26T09:58:07Z</time>
      </trkpt>
      <trkpt lat="43.84004" lon="6.44949">
        <ele>1032.7</ele>
        <time>2016-10-26T09:58:12Z</time>
      </trkpt>
      <trkpt lat="43.83997" lon="6.44957">
        <ele>1029.7</ele>
        <time>2016-10-26T09:58:21Z</time>
      </trkpt>
      <trkpt lat="43.83988" lon="6.44959">
        <ele>1025.9</ele>
        <time>2016-10-26T09:58:33Z</time>
      </trkpt>
      <trkpt lat="43.83978" lon="6.44962">
        <ele>1023.7</ele>
        <time>2016-10-26T09:58:40Z</time>
      </trkpt>
      <trkpt lat="43.8397" lon="6.44956">
        <ele>1021.1</ele>
        <time>2016-10-26T09:58:47Z</time>
      </trkpt>
      <trkpt lat="43.83968" lon="6.44943">
        <ele>1019.1</ele>
        <time>2016-10-26T09:58:52Z</time>
      </trkpt>
      <trkpt lat="43.8396" lon="6.44936">
        <ele>1013.7</ele>
        <time>2016-10-26T09:59:07Z</time>
      </trkpt>
      <trkpt lat="43.83953" lon="6.44945">
        <ele>1011.6</ele>
        <time>2016-10-26T09:59:13Z</time>
      </trkpt>
      <trkpt lat="43.83947" lon="6.44956">
        <ele>1007.7</ele>
        <time>2016-10-26T09:59:25Z</time>
      </trkpt>
      <trkpt lat="43.83945" lon="6.44969">
        <ele>1006.5</ele>
        <time>2016-10-26T09:59:29Z</time>
      </trkpt>
      <trkpt lat="43.83939" lon="6.4498">
        <ele>1005</ele>
        <time>2016-10-26T09:59:33Z</time>
      </trkpt>
      <trkpt lat="43.83931" lon="6.44988">
        <ele>1003.3</ele>
        <time>2016-10-26T09:59:37Z</time>
      </trkpt>
      <trkpt lat="43.83928" lon="6.44976">
        <ele>998.2</ele>
        <time>2016-10-26T09:59:50Z</time>
      </trkpt>
      <trkpt lat="43.83928" lon="6.44962">
        <ele>996.7</ele>
        <time>2016-10-26T09:59:54Z</time>
      </trkpt>
      <trkpt lat="43.83919" lon="6.44958">
        <ele>992.6</ele>
        <time>2016-10-26T10:00:04Z</time>
      </trkpt>
      <trkpt lat="43.8391" lon="6.44965">
        <ele>990.3</ele>
        <time>2016-10-26T10:00:08Z</time>
      </trkpt>
      <trkpt lat="43.839" lon="6.44962">
        <ele>984.7</ele>
        <time>2016-10-26T10:00:20Z</time>
      </trkpt>
      <trkpt lat="43.83892" lon="6.44969">
        <ele>982</ele>
        <time>2016-10-26T10:00:26Z</time>
      </trkpt>
      <trkpt lat="43.83885" lon="6.44977">
        <ele>979.3</ele>
        <time>2016-10-26T10:00:32Z</time>
      </trkpt>
      <trkpt lat="43.83876" lon="6.4498">
        <ele>976.9</ele>
        <time>2016-10-26T10:00:38Z</time>
      </trkpt>
      <trkpt lat="43.83866" lon="6.44978">
        <ele>974.5</ele>
        <time>2016-10-26T10:00:44Z</time>
      </trkpt>
      <trkpt lat="43.83855" lon="6.44977">
        <ele>970.3</ele>
        <time>2016-10-26T10:00:58Z</time>
      </trkpt>
      <trkpt lat="43.83845" lon="6.44981">
        <ele>968.7</ele>
        <time>2016-10-26T10:01:04Z</time>
      </trkpt>
      <trkpt lat="43.83836" lon="6.44983">
        <ele>967.2</ele>
        <time>2016-10-26T10:01:08Z</time>
      </trkpt>
      <trkpt lat="43.83827" lon="6.44984">
        <ele>965.4</ele>
        <time>2016-10-26T10:01:14Z</time>
      </trkpt>
      <trkpt lat="43.83817" lon="6.44985">
        <ele>962.6</ele>
        <time>2016-10-26T10:01:22Z</time>
      </trkpt>
      <trkpt lat="43.83826" lon="6.44982">
        <ele>960.4</ele>
        <time>2016-10-26T10:01:30Z</time>
      </trkpt>
      <trkpt lat="43.83835" lon="6.44983">
        <ele>959.6</ele>
        <time>2016-10-26T10:01:34Z</time>
      </trkpt>
      <trkpt lat="43.83846" lon="6.44982">
        <ele>958.9</ele>
        <time>2016-10-26T10:01:39Z</time>
      </trkpt>
      <trkpt lat="43.83856" lon="6.44978">
        <ele>958.5</ele>
        <time>2016-10-26T10:01:45Z</time>
      </trkpt>
      <trkpt lat="43.83864" lon="6.44971">
        <ele>958.2</ele>
        <time>2016-10-26T10:01:50Z</time>
      </trkpt>
      <trkpt lat="43.83873" lon="6.44964">
        <ele>958</ele>
        <time>2016-10-26T10:01:55Z</time>
      </trkpt>
      <trkpt lat="43.83881" lon="6.44956">
        <ele>958.4</ele>
        <time>2016-10-26T10:02:01Z</time>
      </trkpt>
      <trkpt lat="43.83885" lon="6.44943">
        <ele>958.7</ele>
        <time>2016-10-26T10:02:06Z</time>
      </trkpt>
      <trkpt lat="43.83893" lon="6.44934">
        <ele>959.7</ele>
        <time>2016-10-26T10:02:12Z</time>
      </trkpt>
      <trkpt lat="43.83895" lon="6.44921">
        <ele>960.8</ele>
        <time>2016-10-26T10:02:18Z</time>
      </trkpt>
      <trkpt lat="43.83894" lon="6.44908">
        <ele>961.6</ele>
        <time>2016-10-26T10:02:24Z</time>
      </trkpt>
      <trkpt lat="43.83887" lon="6.44897">
        <ele>961.1</ele>
        <time>2016-10-26T10:02:30Z</time>
      </trkpt>
      <trkpt lat="43.83881" lon="6.44885">
        <ele>960.2</ele>
        <time>2016-10-26T10:02:35Z</time>
      </trkpt>
      <trkpt lat="43.83875" lon="6.44872">
        <ele>959.2</ele>
        <time>2016-10-26T10:02:39Z</time>
      </trkpt>
      <trkpt lat="43.83871" lon="6.44859">
        <ele>958.4</ele>
        <time>2016-10-26T10:02:43Z</time>
      </trkpt>
      <trkpt lat="43.8387" lon="6.44845">
        <ele>957.6</ele>
        <time>2016-10-26T10:02:47Z</time>
      </trkpt>
      <trkpt lat="43.83871" lon="6.4483">
        <ele>956.9</ele>
        <time>2016-10-26T10:02:52Z</time>
      </trkpt>
      <trkpt lat="43.83871" lon="6.44817">
        <ele>956.6</ele>
        <time>2016-10-26T10:02:57Z</time>
      </trkpt>
      <trkpt lat="43.83865" lon="6.44806">
        <ele>956.6</ele>
        <time>2016-10-26T10:03:04Z</time>
      </trkpt>
      <trkpt lat="43.83858" lon="6.44795">
        <ele>957.3</ele>
        <time>2016-10-26T10:03:11Z</time>
      </trkpt>
      <trkpt lat="43.83851" lon="6.44785">
        <ele>958</ele>
        <time>2016-10-26T10:03:16Z</time>
      </trkpt>
      <trkpt lat="43.83846" lon="6.44772">
        <ele>958.4</ele>
        <time>2016-10-26T10:03:21Z</time>
      </trkpt>
      <trkpt lat="43.83843" lon="6.4476">
        <ele>958.8</ele>
        <time>2016-10-26T10:03:25Z</time>
      </trkpt>
      <trkpt lat="43.83836" lon="6.44749">
        <ele>959.6</ele>
        <time>2016-10-26T10:03:30Z</time>
      </trkpt>
      <trkpt lat="43.8383" lon="6.44737">
        <ele>960.8</ele>
        <time>2016-10-26T10:03:36Z</time>
      </trkpt>
      <trkpt lat="43.83825" lon="6.44725">
        <ele>962.2</ele>
        <time>2016-10-26T10:03:42Z</time>
      </trkpt>
      <trkpt lat="43.83824" lon="6.4471">
        <ele>963.4</ele>
        <time>2016-10-26T10:03:48Z</time>
      </trkpt>
      <trkpt lat="43.8382" lon="6.44698">
        <ele>964.3</ele>
        <time>2016-10-26T10:03:53Z</time>
      </trkpt>
      <trkpt lat="43.83814" lon="6.44689">
        <ele>965.2</ele>
        <time>2016-10-26T10:03:58Z</time>
      </trkpt>
      <trkpt lat="43.83805" lon="6.44681">
        <ele>966.2</ele>
        <time>2016-10-26T10:04:04Z</time>
      </trkpt>
      <trkpt lat="43.83798" lon="6.44673">
        <ele>967</ele>
        <time>2016-10-26T10:04:10Z</time>
      </trkpt>
      <trkpt lat="43.83789" lon="6.44668">
        <ele>968</ele>
        <time>2016-10-26T10:04:16Z</time>
      </trkpt>
      <trkpt lat="43.8378" lon="6.44666">
        <ele>968.9</ele>
        <time>2016-10-26T10:04:22Z</time>
      </trkpt>
      <trkpt lat="43.83771" lon="6.44667">
        <ele>969.6</ele>
        <time>2016-10-26T10:04:27Z</time>
      </trkpt>
      <trkpt lat="43.83762" lon="6.44664">
        <ele>970.3</ele>
        <time>2016-10-26T10:04:32Z</time>
      </trkpt>
      <trkpt lat="43.83751" lon="6.44661">
        <ele>970.8</ele>
        <time>2016-10-26T10:04:37Z</time>
      </trkpt>
      <trkpt lat="43.8374" lon="6.44656">
        <ele>971.2</ele>
        <time>2016-10-26T10:04:41Z</time>
      </trkpt>
      <trkpt lat="43.8373" lon="6.4466">
        <ele>971.5</ele>
        <time>2016-10-26T10:04:44Z</time>
      </trkpt>
      <trkpt lat="43.8372" lon="6.44665">
        <ele>971.7</ele>
        <time>2016-10-26T10:04:47Z</time>
      </trkpt>
      <trkpt lat="43.83709" lon="6.44667">
        <ele>971.7</ele>
        <time>2016-10-26T10:04:50Z</time>
      </trkpt>
      <trkpt lat="43.83698" lon="6.44671">
        <ele>971.6</ele>
        <time>2016-10-26T10:04:53Z</time>
      </trkpt>
      <trkpt lat="43.83691" lon="6.4468">
        <ele>971.6</ele>
        <time>2016-10-26T10:04:56Z</time>
      </trkpt>
      <trkpt lat="43.83681" lon="6.44677">
        <ele>972</ele>
        <time>2016-10-26T10:05:02Z</time>
      </trkpt>
      <trkpt lat="43.83672" lon="6.44672">
        <ele>972.1</ele>
        <time>2016-10-26T10:05:05Z</time>
      </trkpt>
      <trkpt lat="43.83662" lon="6.44663">
        <ele>972.3</ele>
        <time>2016-10-26T10:05:09Z</time>
      </trkpt>
      <trkpt lat="43.83657" lon="6.44652">
        <ele>972.7</ele>
        <time>2016-10-26T10:05:13Z</time>
      </trkpt>
      <trkpt lat="43.8365" lon="6.44643">
        <ele>973.3</ele>
        <time>2016-10-26T10:05:18Z</time>
      </trkpt>
      <trkpt lat="43.83641" lon="6.44635">
        <ele>974.1</ele>
        <time>2016-10-26T10:05:23Z</time>
      </trkpt>
      <trkpt lat="43.83633" lon="6.44627">
        <ele>974.8</ele>
        <time>2016-10-26T10:05:28Z</time>
      </trkpt>
      <trkpt lat="43.83623" lon="6.44621">
        <ele>975.9</ele>
        <time>2016-10-26T10:05:33Z</time>
      </trkpt>
      <trkpt lat="43.83614" lon="6.44616">
        <ele>977</ele>
        <time>2016-10-26T10:05:38Z</time>
      </trkpt>
      <trkpt lat="43.83604" lon="6.44609">
        <ele>978.4</ele>
        <time>2016-10-26T10:05:43Z</time>
      </trkpt>
      <trkpt lat="43.83595" lon="6.44604">
        <ele>979.8</ele>
        <time>2016-10-26T10:05:48Z</time>
      </trkpt>
      <trkpt lat="43.83586" lon="6.446">
        <ele>981</ele>
        <time>2016-10-26T10:05:53Z</time>
      </trkpt>
      <trkpt lat="43.83577" lon="6.44592">
        <ele>982.4</ele>
        <time>2016-10-26T10:05:59Z</time>
      </trkpt>
      <trkpt lat="43.83569" lon="6.44584">
        <ele>983.6</ele>
        <time>2016-10-26T10:06:05Z</time>
      </trkpt>
      <trkpt lat="43.83561" lon="6.44575">
        <ele>985</ele>
        <time>2016-10-26T10:06:12Z</time>
      </trkpt>
      <trkpt lat="43.83553" lon="6.44567">
        <ele>986.5</ele>
        <time>2016-10-26T10:06:19Z</time>
      </trkpt>
      <trkpt lat="43.83551" lon="6.44553">
        <ele>992.2</ele>
        <time>2016-10-26T10:07:33Z</time>
      </trkpt>
      <trkpt lat="43.83551" lon="6.44537">
        <ele>992.1</ele>
        <time>2016-10-26T10:07:37Z</time>
      </trkpt>
      <trkpt lat="43.83553" lon="6.44521">
        <ele>991.6</ele>
        <time>2016-10-26T10:07:40Z</time>
      </trkpt>
      <trkpt lat="43.83555" lon="6.44506">
        <ele>990.9</ele>
        <time>2016-10-26T10:07:43Z</time>
      </trkpt>
      <trkpt lat="43.83556" lon="6.4449">
        <ele>990</ele>
        <time>2016-10-26T10:07:46Z</time>
      </trkpt>
      <trkpt lat="43.83558" lon="6.44477">
        <ele>989.4</ele>
        <time>2016-10-26T10:07:48Z</time>
      </trkpt>
      <trkpt lat="43.83563" lon="6.44463">
        <ele>988.8</ele>
        <time>2016-10-26T10:07:50Z</time>
      </trkpt>
      <trkpt lat="43.83568" lon="6.44448">
        <ele>988</ele>
        <time>2016-10-26T10:07:52Z</time>
      </trkpt>
      <trkpt lat="43.83574" lon="6.44433">
        <ele>987.4</ele>
        <time>2016-10-26T10:07:54Z</time>
      </trkpt>
      <trkpt lat="43.83579" lon="6.44417">
        <ele>986.7</ele>
        <time>2016-10-26T10:07:56Z</time>
      </trkpt>
      <trkpt lat="43.83583" lon="6.44401">
        <ele>985.9</ele>
        <time>2016-10-26T10:07:58Z</time>
      </trkpt>
      <trkpt lat="43.83586" lon="6.44384">
        <ele>985.3</ele>
        <time>2016-10-26T10:08:00Z</time>
      </trkpt>
      <trkpt lat="43.8359" lon="6.44369">
        <ele>984.8</ele>
        <time>2016-10-26T10:08:02Z</time>
      </trkpt>
      <trkpt lat="43.83593" lon="6.44354">
        <ele>984.2</ele>
        <time>2016-10-26T10:08:04Z</time>
      </trkpt>
      <trkpt lat="43.83595" lon="6.44337">
        <ele>983.4</ele>
        <time>2016-10-26T10:08:07Z</time>
      </trkpt>
      <trkpt lat="43.836" lon="6.4432">
        <ele>982.5</ele>
        <time>2016-10-26T10:08:10Z</time>
      </trkpt>
      <trkpt lat="43.83605" lon="6.44305">
        <ele>981.5</ele>
        <time>2016-10-26T10:08:13Z</time>
      </trkpt>
      <trkpt lat="43.83611" lon="6.44294">
        <ele>980.8</ele>
        <time>2016-10-26T10:08:15Z</time>
      </trkpt>
      <trkpt lat="43.83618" lon="6.44284">
        <ele>980.3</ele>
        <time>2016-10-26T10:08:17Z</time>
      </trkpt>
      <trkpt lat="43.83627" lon="6.44273">
        <ele>979.1</ele>
        <time>2016-10-26T10:08:20Z</time>
      </trkpt>
      <trkpt lat="43.83633" lon="6.44264">
        <ele>977.9</ele>
        <time>2016-10-26T10:08:23Z</time>
      </trkpt>
      <trkpt lat="43.8364" lon="6.4425">
        <ele>976.7</ele>
        <time>2016-10-26T10:08:26Z</time>
      </trkpt>
      <trkpt lat="43.83643" lon="6.44237">
        <ele>975.4</ele>
        <time>2016-10-26T10:08:29Z</time>
      </trkpt>
      <trkpt lat="43.83641" lon="6.4422">
        <ele>974.3</ele>
        <time>2016-10-26T10:08:32Z</time>
      </trkpt>
      <trkpt lat="43.83641" lon="6.44203">
        <ele>973.3</ele>
        <time>2016-10-26T10:08:35Z</time>
      </trkpt>
      <trkpt lat="43.83642" lon="6.44187">
        <ele>972.3</ele>
        <time>2016-10-26T10:08:38Z</time>
      </trkpt>
      <trkpt lat="43.83644" lon="6.44172">
        <ele>971.2</ele>
        <time>2016-10-26T10:08:41Z</time>
      </trkpt>
      <trkpt lat="43.83645" lon="6.44159">
        <ele>970.3</ele>
        <time>2016-10-26T10:08:44Z</time>
      </trkpt>
      <trkpt lat="43.83645" lon="6.44143">
        <ele>969.3</ele>
        <time>2016-10-26T10:08:48Z</time>
      </trkpt>
      <trkpt lat="43.83646" lon="6.4413">
        <ele>968.8</ele>
        <time>2016-10-26T10:08:51Z</time>
      </trkpt>
      <trkpt lat="43.83649" lon="6.44116">
        <ele>968.2</ele>
        <time>2016-10-26T10:08:55Z</time>
      </trkpt>
      <trkpt lat="43.83651" lon="6.44103">
        <ele>967.8</ele>
        <time>2016-10-26T10:08:58Z</time>
      </trkpt>
      <trkpt lat="43.83654" lon="6.44089">
        <ele>967.5</ele>
        <time>2016-10-26T10:09:01Z</time>
      </trkpt>
      <trkpt lat="43.83656" lon="6.44074">
        <ele>967.4</ele>
        <time>2016-10-26T10:09:04Z</time>
      </trkpt>
      <trkpt lat="43.83659" lon="6.44057">
        <ele>967.4</ele>
        <time>2016-10-26T10:09:07Z</time>
      </trkpt>
      <trkpt lat="43.83665" lon="6.44041">
        <ele>967.5</ele>
        <time>2016-10-26T10:09:10Z</time>
      </trkpt>
      <trkpt lat="43.83673" lon="6.44028">
        <ele>967.5</ele>
        <time>2016-10-26T10:09:13Z</time>
      </trkpt>
      <trkpt lat="43.83685" lon="6.4402">
        <ele>967.6</ele>
        <time>2016-10-26T10:09:16Z</time>
      </trkpt>
      <trkpt lat="43.83697" lon="6.44012">
        <ele>967.6</ele>
        <time>2016-10-26T10:09:19Z</time>
      </trkpt>
      <trkpt lat="43.83705" lon="6.44006">
        <ele>967.6</ele>
        <time>2016-10-26T10:09:21Z</time>
      </trkpt>
      <trkpt lat="43.83713" lon="6.44001">
        <ele>967.5</ele>
        <time>2016-10-26T10:09:23Z</time>
      </trkpt>
      <trkpt lat="43.83723" lon="6.43999">
        <ele>967.4</ele>
        <time>2016-10-26T10:09:25Z</time>
      </trkpt>
      <trkpt lat="43.83733" lon="6.43998">
        <ele>967.5</ele>
        <time>2016-10-26T10:09:27Z</time>
      </trkpt>
      <trkpt lat="43.83743" lon="6.43996">
        <ele>967.4</ele>
        <time>2016-10-26T10:09:29Z</time>
      </trkpt>
      <trkpt lat="43.83751" lon="6.43992">
        <ele>967.3</ele>
        <time>2016-10-26T10:09:31Z</time>
      </trkpt>
      <trkpt lat="43.83755" lon="6.43975">
        <ele>967.1</ele>
        <time>2016-10-26T10:09:34Z</time>
      </trkpt>
      <trkpt lat="43.83756" lon="6.4396">
        <ele>966.9</ele>
        <time>2016-10-26T10:09:37Z</time>
      </trkpt>
      <trkpt lat="43.83758" lon="6.43944">
        <ele>966.7</ele>
        <time>2016-10-26T10:09:41Z</time>
      </trkpt>
      <trkpt lat="43.83761" lon="6.43931">
        <ele>966.5</ele>
        <time>2016-10-26T10:09:45Z</time>
      </trkpt>
      <trkpt lat="43.83761" lon="6.43917">
        <ele>966.4</ele>
        <time>2016-10-26T10:09:49Z</time>
      </trkpt>
      <trkpt lat="43.8376" lon="6.43901">
        <ele>966.3</ele>
        <time>2016-10-26T10:09:52Z</time>
      </trkpt>
      <trkpt lat="43.83759" lon="6.43884">
        <ele>966.5</ele>
        <time>2016-10-26T10:09:55Z</time>
      </trkpt>
      <trkpt lat="43.83756" lon="6.43867">
        <ele>966.6</ele>
        <time>2016-10-26T10:09:58Z</time>
      </trkpt>
      <trkpt lat="43.83754" lon="6.43852">
        <ele>966.8</ele>
        <time>2016-10-26T10:10:01Z</time>
      </trkpt>
      <trkpt lat="43.83752" lon="6.43838">
        <ele>967.1</ele>
        <time>2016-10-26T10:10:04Z</time>
      </trkpt>
      <trkpt lat="43.8375" lon="6.43821">
        <ele>967.2</ele>
        <time>2016-10-26T10:10:07Z</time>
      </trkpt>
      <trkpt lat="43.8375" lon="6.43804">
        <ele>967.6</ele>
        <time>2016-10-26T10:10:10Z</time>
      </trkpt>
      <trkpt lat="43.83749" lon="6.43788">
        <ele>968</ele>
        <time>2016-10-26T10:10:13Z</time>
      </trkpt>
      <trkpt lat="43.83748" lon="6.43771">
        <ele>968.3</ele>
        <time>2016-10-26T10:10:16Z</time>
      </trkpt>
      <trkpt lat="43.83747" lon="6.43759">
        <ele>968.6</ele>
        <time>2016-10-26T10:10:19Z</time>
      </trkpt>
      <trkpt lat="43.83749" lon="6.43746">
        <ele>969.2</ele>
        <time>2016-10-26T10:10:24Z</time>
      </trkpt>
      <trkpt lat="43.83754" lon="6.43732">
        <ele>969.4</ele>
        <time>2016-10-26T10:10:28Z</time>
      </trkpt>
      <trkpt lat="43.83765" lon="6.43724">
        <ele>968.6</ele>
        <time>2016-10-26T10:10:31Z</time>
      </trkpt>
      <trkpt lat="43.83772" lon="6.43715">
        <ele>967.5</ele>
        <time>2016-10-26T10:10:34Z</time>
      </trkpt>
      <trkpt lat="43.83781" lon="6.43703">
        <ele>966.2</ele>
        <time>2016-10-26T10:10:37Z</time>
      </trkpt>
      <trkpt lat="43.83788" lon="6.43696">
        <ele>965.3</ele>
        <time>2016-10-26T10:10:39Z</time>
      </trkpt>
      <trkpt lat="43.838" lon="6.43686">
        <ele>964.1</ele>
        <time>2016-10-26T10:10:42Z</time>
      </trkpt>
      <trkpt lat="43.83811" lon="6.43677">
        <ele>962.3</ele>
        <time>2016-10-26T10:10:45Z</time>
      </trkpt>
      <trkpt lat="43.83822" lon="6.43666">
        <ele>960.7</ele>
        <time>2016-10-26T10:10:48Z</time>
      </trkpt>
      <trkpt lat="43.83829" lon="6.43658">
        <ele>959.6</ele>
        <time>2016-10-26T10:10:50Z</time>
      </trkpt>
      <trkpt lat="43.83843" lon="6.43653">
        <ele>957.8</ele>
        <time>2016-10-26T10:10:53Z</time>
      </trkpt>
      <trkpt lat="43.83853" lon="6.4365">
        <ele>956.5</ele>
        <time>2016-10-26T10:10:55Z</time>
      </trkpt>
      <trkpt lat="43.83865" lon="6.43645">
        <ele>955.4</ele>
        <time>2016-10-26T10:10:57Z</time>
      </trkpt>
      <trkpt lat="43.83874" lon="6.43639">
        <ele>954.2</ele>
        <time>2016-10-26T10:10:59Z</time>
      </trkpt>
      <trkpt lat="43.83883" lon="6.43632">
        <ele>952.9</ele>
        <time>2016-10-26T10:11:01Z</time>
      </trkpt>
      <trkpt lat="43.83891" lon="6.43624">
        <ele>951.8</ele>
        <time>2016-10-26T10:11:03Z</time>
      </trkpt>
      <trkpt lat="43.83899" lon="6.43616">
        <ele>950.7</ele>
        <time>2016-10-26T10:11:05Z</time>
      </trkpt>
      <trkpt lat="43.83908" lon="6.43608">
        <ele>949.4</ele>
        <time>2016-10-26T10:11:07Z</time>
      </trkpt>
      <trkpt lat="43.83916" lon="6.43603">
        <ele>948.1</ele>
        <time>2016-10-26T10:11:09Z</time>
      </trkpt>
      <trkpt lat="43.83925" lon="6.43597">
        <ele>946.8</ele>
        <time>2016-10-26T10:11:11Z</time>
      </trkpt>
      <trkpt lat="43.83934" lon="6.43588">
        <ele>945.6</ele>
        <time>2016-10-26T10:11:13Z</time>
      </trkpt>
      <trkpt lat="43.83943" lon="6.43577">
        <ele>944.6</ele>
        <time>2016-10-26T10:11:15Z</time>
      </trkpt>
      <trkpt lat="43.83951" lon="6.43568">
        <ele>943.6</ele>
        <time>2016-10-26T10:11:17Z</time>
      </trkpt>
      <trkpt lat="43.83959" lon="6.4356">
        <ele>942.3</ele>
        <time>2016-10-26T10:11:19Z</time>
      </trkpt>
      <trkpt lat="43.83967" lon="6.43552">
        <ele>941.1</ele>
        <time>2016-10-26T10:11:21Z</time>
      </trkpt>
      <trkpt lat="43.83974" lon="6.43544">
        <ele>940</ele>
        <time>2016-10-26T10:11:23Z</time>
      </trkpt>
      <trkpt lat="43.83983" lon="6.43535">
        <ele>938.2</ele>
        <time>2016-10-26T10:11:26Z</time>
      </trkpt>
      <trkpt lat="43.83992" lon="6.43525">
        <ele>935.8</ele>
        <time>2016-10-26T10:11:30Z</time>
      </trkpt>
      <trkpt lat="43.83999" lon="6.43516">
        <ele>934.2</ele>
        <time>2016-10-26T10:11:33Z</time>
      </trkpt>
      <trkpt lat="43.84002" lon="6.43502">
        <ele>932.6</ele>
        <time>2016-10-26T10:11:36Z</time>
      </trkpt>
      <trkpt lat="43.84001" lon="6.43486">
        <ele>930.7</ele>
        <time>2016-10-26T10:11:40Z</time>
      </trkpt>
      <trkpt lat="43.83999" lon="6.43473">
        <ele>929.5</ele>
        <time>2016-10-26T10:11:43Z</time>
      </trkpt>
      <trkpt lat="43.83994" lon="6.43459">
        <ele>927.6</ele>
        <time>2016-10-26T10:11:47Z</time>
      </trkpt>
      <trkpt lat="43.83989" lon="6.43448">
        <ele>926.3</ele>
        <time>2016-10-26T10:11:50Z</time>
      </trkpt>
      <trkpt lat="43.83983" lon="6.43434">
        <ele>925.1</ele>
        <time>2016-10-26T10:11:53Z</time>
      </trkpt>
      <trkpt lat="43.83979" lon="6.43424">
        <ele>923.7</ele>
        <time>2016-10-26T10:11:56Z</time>
      </trkpt>
      <trkpt lat="43.83973" lon="6.43411">
        <ele>922.4</ele>
        <time>2016-10-26T10:11:59Z</time>
      </trkpt>
      <trkpt lat="43.83969" lon="6.43397">
        <ele>920.8</ele>
        <time>2016-10-26T10:12:02Z</time>
      </trkpt>
      <trkpt lat="43.83961" lon="6.43403">
        <ele>917.8</ele>
        <time>2016-10-26T10:12:08Z</time>
      </trkpt>
      <trkpt lat="43.83958" lon="6.43418">
        <ele>915</ele>
        <time>2016-10-26T10:12:15Z</time>
      </trkpt>
      <trkpt lat="43.83952" lon="6.43432">
        <ele>913.6</ele>
        <time>2016-10-26T10:12:18Z</time>
      </trkpt>
      <trkpt lat="43.83947" lon="6.43447">
        <ele>912.1</ele>
        <time>2016-10-26T10:12:21Z</time>
      </trkpt>
      <trkpt lat="43.83942" lon="6.43464">
        <ele>910.6</ele>
        <time>2016-10-26T10:12:24Z</time>
      </trkpt>
      <trkpt lat="43.83937" lon="6.43475">
        <ele>909.6</ele>
        <time>2016-10-26T10:12:26Z</time>
      </trkpt>
      <trkpt lat="43.8393" lon="6.43484">
        <ele>908.3</ele>
        <time>2016-10-26T10:12:28Z</time>
      </trkpt>
      <trkpt lat="43.83921" lon="6.43488">
        <ele>907.2</ele>
        <time>2016-10-26T10:12:30Z</time>
      </trkpt>
      <trkpt lat="43.8391" lon="6.43493">
        <ele>905.8</ele>
        <time>2016-10-26T10:12:33Z</time>
      </trkpt>
      <trkpt lat="43.83909" lon="6.43478">
        <ele>903.8</ele>
        <time>2016-10-26T10:12:37Z</time>
      </trkpt>
      <trkpt lat="43.83912" lon="6.43463">
        <ele>902.4</ele>
        <time>2016-10-26T10:12:40Z</time>
      </trkpt>
      <trkpt lat="43.83911" lon="6.43449">
        <ele>900.9</ele>
        <time>2016-10-26T10:12:43Z</time>
      </trkpt>
      <trkpt lat="43.8391" lon="6.43432">
        <ele>899.3</ele>
        <time>2016-10-26T10:12:46Z</time>
      </trkpt>
      <trkpt lat="43.8391" lon="6.43419">
        <ele>898.3</ele>
        <time>2016-10-26T10:12:48Z</time>
      </trkpt>
      <trkpt lat="43.83905" lon="6.43406">
        <ele>896.4</ele>
        <time>2016-10-26T10:12:51Z</time>
      </trkpt>
      <trkpt lat="43.83896" lon="6.43402">
        <ele>894.2</ele>
        <time>2016-10-26T10:12:56Z</time>
      </trkpt>
      <trkpt lat="43.83886" lon="6.43399">
        <ele>891.8</ele>
        <time>2016-10-26T10:13:02Z</time>
      </trkpt>
      <trkpt lat="43.83877" lon="6.4339">
        <ele>889.8</ele>
        <time>2016-10-26T10:13:07Z</time>
      </trkpt>
      <trkpt lat="43.83872" lon="6.43379">
        <ele>888.9</ele>
        <time>2016-10-26T10:13:10Z</time>
      </trkpt>
      <trkpt lat="43.83866" lon="6.43367">
        <ele>888.2</ele>
        <time>2016-10-26T10:13:13Z</time>
      </trkpt>
      <trkpt lat="43.8386" lon="6.43357">
        <ele>887.5</ele>
        <time>2016-10-26T10:13:16Z</time>
      </trkpt>
      <trkpt lat="43.83853" lon="6.43346">
        <ele>886.9</ele>
        <time>2016-10-26T10:13:19Z</time>
      </trkpt>
      <trkpt lat="43.83844" lon="6.43335">
        <ele>886.4</ele>
        <time>2016-10-26T10:13:22Z</time>
      </trkpt>
      <trkpt lat="43.83836" lon="6.43322">
        <ele>886</ele>
        <time>2016-10-26T10:13:25Z</time>
      </trkpt>
      <trkpt lat="43.8383" lon="6.43311">
        <ele>885.6</ele>
        <time>2016-10-26T10:13:28Z</time>
      </trkpt>
      <trkpt lat="43.83823" lon="6.433">
        <ele>885.3</ele>
        <time>2016-10-26T10:13:32Z</time>
      </trkpt>
      <trkpt lat="43.83817" lon="6.4329">
        <ele>885.1</ele>
        <time>2016-10-26T10:13:36Z</time>
      </trkpt>
      <trkpt lat="43.83811" lon="6.43279">
        <ele>885.1</ele>
        <time>2016-10-26T10:13:39Z</time>
      </trkpt>
      <trkpt lat="43.83804" lon="6.43268">
        <ele>885.2</ele>
        <time>2016-10-26T10:13:42Z</time>
      </trkpt>
      <trkpt lat="43.83798" lon="6.43257">
        <ele>885.4</ele>
        <time>2016-10-26T10:13:45Z</time>
      </trkpt>
      <trkpt lat="43.83792" lon="6.43246">
        <ele>885.5</ele>
        <time>2016-10-26T10:13:48Z</time>
      </trkpt>
      <trkpt lat="43.83785" lon="6.43235">
        <ele>885.5</ele>
        <time>2016-10-26T10:13:51Z</time>
      </trkpt>
      <trkpt lat="43.83777" lon="6.43223">
        <ele>885.6</ele>
        <time>2016-10-26T10:13:54Z</time>
      </trkpt>
      <trkpt lat="43.83769" lon="6.43211">
        <ele>885.8</ele>
        <time>2016-10-26T10:13:57Z</time>
      </trkpt>
      <trkpt lat="43.83761" lon="6.432">
        <ele>885.9</ele>
        <time>2016-10-26T10:14:00Z</time>
      </trkpt>
      <trkpt lat="43.83754" lon="6.43186">
        <ele>886</ele>
        <time>2016-10-26T10:14:03Z</time>
      </trkpt>
      <trkpt lat="43.83747" lon="6.43172">
        <ele>886.1</ele>
        <time>2016-10-26T10:14:06Z</time>
      </trkpt>
      <trkpt lat="43.83739" lon="6.43157">
        <ele>886.3</ele>
        <time>2016-10-26T10:14:09Z</time>
      </trkpt>
      <trkpt lat="43.83733" lon="6.43142">
        <ele>886.4</ele>
        <time>2016-10-26T10:14:12Z</time>
      </trkpt>
      <trkpt lat="43.83724" lon="6.4313">
        <ele>886.7</ele>
        <time>2016-10-26T10:14:15Z</time>
      </trkpt>
      <trkpt lat="43.83715" lon="6.4312">
        <ele>887</ele>
        <time>2016-10-26T10:14:18Z</time>
      </trkpt>
      <trkpt lat="43.83707" lon="6.43109">
        <ele>887.5</ele>
        <time>2016-10-26T10:14:21Z</time>
      </trkpt>
      <trkpt lat="43.83703" lon="6.43096">
        <ele>887.9</ele>
        <time>2016-10-26T10:14:24Z</time>
      </trkpt>
      <trkpt lat="43.83703" lon="6.43081">
        <ele>888.3</ele>
        <time>2016-10-26T10:14:27Z</time>
      </trkpt>
      <trkpt lat="43.83705" lon="6.43068">
        <ele>888.8</ele>
        <time>2016-10-26T10:14:30Z</time>
      </trkpt>
      <trkpt lat="43.83706" lon="6.43056">
        <ele>889.3</ele>
        <time>2016-10-26T10:14:33Z</time>
      </trkpt>
      <trkpt lat="43.83706" lon="6.43042">
        <ele>889.9</ele>
        <time>2016-10-26T10:14:37Z</time>
      </trkpt>
      <trkpt lat="43.83706" lon="6.43025">
        <ele>890.4</ele>
        <time>2016-10-26T10:14:41Z</time>
      </trkpt>
      <trkpt lat="43.83706" lon="6.43011">
        <ele>890.7</ele>
        <time>2016-10-26T10:14:44Z</time>
      </trkpt>
      <trkpt lat="43.83707" lon="6.42996">
        <ele>891.1</ele>
        <time>2016-10-26T10:14:47Z</time>
      </trkpt>
      <trkpt lat="43.83707" lon="6.42978">
        <ele>891.4</ele>
        <time>2016-10-26T10:14:50Z</time>
      </trkpt>
      <trkpt lat="43.83707" lon="6.42965">
        <ele>891.6</ele>
        <time>2016-10-26T10:14:52Z</time>
      </trkpt>
      <trkpt lat="43.83708" lon="6.42951">
        <ele>891.8</ele>
        <time>2016-10-26T10:14:54Z</time>
      </trkpt>
      <trkpt lat="43.83709" lon="6.42937">
        <ele>891.9</ele>
        <time>2016-10-26T10:14:56Z</time>
      </trkpt>
      <trkpt lat="43.83709" lon="6.42922">
        <ele>891.9</ele>
        <time>2016-10-26T10:14:58Z</time>
      </trkpt>
      <trkpt lat="43.8371" lon="6.42907">
        <ele>891.9</ele>
        <time>2016-10-26T10:15:00Z</time>
      </trkpt>
      <trkpt lat="43.83712" lon="6.42894">
        <ele>891.9</ele>
        <time>2016-10-26T10:15:02Z</time>
      </trkpt>
      <trkpt lat="43.83712" lon="6.4288">
        <ele>891.8</ele>
        <time>2016-10-26T10:15:04Z</time>
      </trkpt>
      <trkpt lat="43.83711" lon="6.42866">
        <ele>891.8</ele>
        <time>2016-10-26T10:15:06Z</time>
      </trkpt>
      <trkpt lat="43.83711" lon="6.42851">
        <ele>891.7</ele>
        <time>2016-10-26T10:15:08Z</time>
      </trkpt>
      <trkpt lat="43.83711" lon="6.42836">
        <ele>891.6</ele>
        <time>2016-10-26T10:15:10Z</time>
      </trkpt>
      <trkpt lat="43.83713" lon="6.4282">
        <ele>891.4</ele>
        <time>2016-10-26T10:15:12Z</time>
      </trkpt>
      <trkpt lat="43.83718" lon="6.42807">
        <ele>891.4</ele>
        <time>2016-10-26T10:15:14Z</time>
      </trkpt>
      <trkpt lat="43.83726" lon="6.42797">
        <ele>891.4</ele>
        <time>2016-10-26T10:15:16Z</time>
      </trkpt>
      <trkpt lat="43.83735" lon="6.42791">
        <ele>891.4</ele>
        <time>2016-10-26T10:15:18Z</time>
      </trkpt>
      <trkpt lat="43.83744" lon="6.4278">
        <ele>891.3</ele>
        <time>2016-10-26T10:15:21Z</time>
      </trkpt>
      <trkpt lat="43.83751" lon="6.42766">
        <ele>891.3</ele>
        <time>2016-10-26T10:15:24Z</time>
      </trkpt>
      <trkpt lat="43.83758" lon="6.42752">
        <ele>891.3</ele>
        <time>2016-10-26T10:15:27Z</time>
      </trkpt>
      <trkpt lat="43.83765" lon="6.42744">
        <ele>891.3</ele>
        <time>2016-10-26T10:15:29Z</time>
      </trkpt>
      <trkpt lat="43.83778" lon="6.42737">
        <ele>891.3</ele>
        <time>2016-10-26T10:15:32Z</time>
      </trkpt>
      <trkpt lat="43.83789" lon="6.42734">
        <ele>891.2</ele>
        <time>2016-10-26T10:15:35Z</time>
      </trkpt>
      <trkpt lat="43.83801" lon="6.42727">
        <ele>891.3</ele>
        <time>2016-10-26T10:15:38Z</time>
      </trkpt>
      <trkpt lat="43.83811" lon="6.42723">
        <ele>891.3</ele>
        <time>2016-10-26T10:15:41Z</time>
      </trkpt>
      <trkpt lat="43.83822" lon="6.42717">
        <ele>891.5</ele>
        <time>2016-10-26T10:15:44Z</time>
      </trkpt>
      <trkpt lat="43.83832" lon="6.42708">
        <ele>891.7</ele>
        <time>2016-10-26T10:15:47Z</time>
      </trkpt>
      <trkpt lat="43.8384" lon="6.42699">
        <ele>891.9</ele>
        <time>2016-10-26T10:15:52Z</time>
      </trkpt>
      <trkpt lat="43.83844" lon="6.42687">
        <ele>891.9</ele>
        <time>2016-10-26T10:15:57Z</time>
      </trkpt>
      <trkpt lat="43.8384" lon="6.42674">
        <ele>890.6</ele>
        <time>2016-10-26T10:16:38Z</time>
      </trkpt>
      <trkpt lat="43.83835" lon="6.42661">
        <ele>890.6</ele>
        <time>2016-10-26T10:16:42Z</time>
      </trkpt>
      <trkpt lat="43.83833" lon="6.42646">
        <ele>890.6</ele>
        <time>2016-10-26T10:16:46Z</time>
      </trkpt>
      <trkpt lat="43.83834" lon="6.42633">
        <ele>890.6</ele>
        <time>2016-10-26T10:16:49Z</time>
      </trkpt>
      <trkpt lat="43.8383" lon="6.42619">
        <ele>890.4</ele>
        <time>2016-10-26T10:16:52Z</time>
      </trkpt>
      <trkpt lat="43.8383" lon="6.42604">
        <ele>890.3</ele>
        <time>2016-10-26T10:16:55Z</time>
      </trkpt>
      <trkpt lat="43.83835" lon="6.42593">
        <ele>889</ele>
        <time>2016-10-26T10:17:15Z</time>
      </trkpt>
      <trkpt lat="43.83844" lon="6.42589">
        <ele>888</ele>
        <time>2016-10-26T10:17:28Z</time>
      </trkpt>
      <trkpt lat="43.83854" lon="6.42589">
        <ele>887.7</ele>
        <time>2016-10-26T10:17:34Z</time>
      </trkpt>
      <trkpt lat="43.83864" lon="6.42591">
        <ele>887.6</ele>
        <time>2016-10-26T10:17:39Z</time>
      </trkpt>
      <trkpt lat="43.83875" lon="6.42591">
        <ele>887.7</ele>
        <time>2016-10-26T10:17:45Z</time>
      </trkpt>
      <trkpt lat="43.83885" lon="6.42591">
        <ele>887.9</ele>
        <time>2016-10-26T10:17:51Z</time>
      </trkpt>
      <trkpt lat="43.83894" lon="6.42592">
        <ele>888.3</ele>
        <time>2016-10-26T10:17:57Z</time>
      </trkpt>
      <trkpt lat="43.839" lon="6.4258">
        <ele>888.4</ele>
        <time>2016-10-26T10:18:01Z</time>
      </trkpt>
      <trkpt lat="43.83898" lon="6.42566">
        <ele>888.2</ele>
        <time>2016-10-26T10:18:04Z</time>
      </trkpt>
      <trkpt lat="43.83894" lon="6.42551">
        <ele>887.3</ele>
        <time>2016-10-26T10:18:08Z</time>
      </trkpt>
      <trkpt lat="43.83892" lon="6.42538">
        <ele>886.8</ele>
        <time>2016-10-26T10:18:11Z</time>
      </trkpt>
      <trkpt lat="43.8389" lon="6.42525">
        <ele>886</ele>
        <time>2016-10-26T10:18:14Z</time>
      </trkpt>
      <trkpt lat="43.83888" lon="6.42508">
        <ele>884.9</ele>
        <time>2016-10-26T10:18:18Z</time>
      </trkpt>
      <trkpt lat="43.83886" lon="6.42493">
        <ele>883.4</ele>
        <time>2016-10-26T10:18:22Z</time>
      </trkpt>
      <trkpt lat="43.8389" lon="6.42481">
        <ele>882.2</ele>
        <time>2016-10-26T10:18:25Z</time>
      </trkpt>
      <trkpt lat="43.83899" lon="6.42471">
        <ele>881</ele>
        <time>2016-10-26T10:18:28Z</time>
      </trkpt>
      <trkpt lat="43.83912" lon="6.42464">
        <ele>879.9</ele>
        <time>2016-10-26T10:18:31Z</time>
      </trkpt>
      <trkpt lat="43.83921" lon="6.42458">
        <ele>879.2</ele>
        <time>2016-10-26T10:18:33Z</time>
      </trkpt>
      <trkpt lat="43.83933" lon="6.42456">
        <ele>878.2</ele>
        <time>2016-10-26T10:18:36Z</time>
      </trkpt>
      <trkpt lat="43.83939" lon="6.42446">
        <ele>876</ele>
        <time>2016-10-26T10:18:46Z</time>
      </trkpt>
      <trkpt lat="43.83939" lon="6.42433">
        <ele>875.5</ele>
        <time>2016-10-26T10:18:49Z</time>
      </trkpt>
      <trkpt lat="43.83944" lon="6.4242">
        <ele>875.4</ele>
        <time>2016-10-26T10:18:52Z</time>
      </trkpt>
      <trkpt lat="43.83952" lon="6.42411">
        <ele>875</ele>
        <time>2016-10-26T10:18:55Z</time>
      </trkpt>
      <trkpt lat="43.83959" lon="6.42402">
        <ele>874.5</ele>
        <time>2016-10-26T10:18:59Z</time>
      </trkpt>
      <trkpt lat="43.83963" lon="6.42389">
        <ele>874.2</ele>
        <time>2016-10-26T10:19:03Z</time>
      </trkpt>
      <trkpt lat="43.8396" lon="6.42376">
        <ele>873.9</ele>
        <time>2016-10-26T10:19:08Z</time>
      </trkpt>
      <trkpt lat="43.83955" lon="6.42364">
        <ele>873.4</ele>
        <time>2016-10-26T10:19:47Z</time>
      </trkpt>
      <trkpt lat="43.83945" lon="6.42366">
        <ele>873.6</ele>
        <time>2016-10-26T10:19:52Z</time>
      </trkpt>
      <trkpt lat="43.83935" lon="6.42369">
        <ele>873.8</ele>
        <time>2016-10-26T10:19:56Z</time>
      </trkpt>
      <trkpt lat="43.83926" lon="6.42369">
        <ele>874.1</ele>
        <time>2016-10-26T10:20:00Z</time>
      </trkpt>
      <trkpt lat="43.83918" lon="6.4236">
        <ele>874.6</ele>
        <time>2016-10-26T10:20:05Z</time>
      </trkpt>
      <trkpt lat="43.83912" lon="6.42349">
        <ele>875.3</ele>
        <time>2016-10-26T10:20:10Z</time>
      </trkpt>
      <trkpt lat="43.83906" lon="6.42337">
        <ele>876.5</ele>
        <time>2016-10-26T10:20:16Z</time>
      </trkpt>
      <trkpt lat="43.83899" lon="6.42328">
        <ele>877.8</ele>
        <time>2016-10-26T10:20:22Z</time>
      </trkpt>
      <trkpt lat="43.83892" lon="6.42319">
        <ele>879.2</ele>
        <time>2016-10-26T10:20:28Z</time>
      </trkpt>
      <trkpt lat="43.83883" lon="6.42311">
        <ele>880.5</ele>
        <time>2016-10-26T10:20:34Z</time>
      </trkpt>
      <trkpt lat="43.83874" lon="6.42304">
        <ele>881.9</ele>
        <time>2016-10-26T10:20:40Z</time>
      </trkpt>
      <trkpt lat="43.83865" lon="6.42299">
        <ele>883.1</ele>
        <time>2016-10-26T10:20:46Z</time>
      </trkpt>
      <trkpt lat="43.83856" lon="6.42295">
        <ele>884.6</ele>
        <time>2016-10-26T10:20:53Z</time>
      </trkpt>
      <trkpt lat="43.83845" lon="6.42294">
        <ele>886</ele>
        <time>2016-10-26T10:21:00Z</time>
      </trkpt>
      <trkpt lat="43.83835" lon="6.42296">
        <ele>887.3</ele>
        <time>2016-10-26T10:21:07Z</time>
      </trkpt>
      <trkpt lat="43.83825" lon="6.42298">
        <ele>888.6</ele>
        <time>2016-10-26T10:21:14Z</time>
      </trkpt>
      <trkpt lat="43.83816" lon="6.423">
        <ele>889.9</ele>
        <time>2016-10-26T10:21:21Z</time>
      </trkpt>
      <trkpt lat="43.83807" lon="6.42299">
        <ele>891.3</ele>
        <time>2016-10-26T10:21:29Z</time>
      </trkpt>
      <trkpt lat="43.83811" lon="6.42288">
        <ele>894</ele>
        <time>2016-10-26T10:21:43Z</time>
      </trkpt>
      <trkpt lat="43.83817" lon="6.42278">
        <ele>895.8</ele>
        <time>2016-10-26T10:21:52Z</time>
      </trkpt>
      <trkpt lat="43.83809" lon="6.42271">
        <ele>897.8</ele>
        <time>2016-10-26T10:22:01Z</time>
      </trkpt>
      <trkpt lat="43.83801" lon="6.42265">
        <ele>898.9</ele>
        <time>2016-10-26T10:22:09Z</time>
      </trkpt>
      <trkpt lat="43.83793" lon="6.42259">
        <ele>899.9</ele>
        <time>2016-10-26T10:22:17Z</time>
      </trkpt>
      <trkpt lat="43.83783" lon="6.42254">
        <ele>900.9</ele>
        <time>2016-10-26T10:22:24Z</time>
      </trkpt>
      <trkpt lat="43.83775" lon="6.42247">
        <ele>901.9</ele>
        <time>2016-10-26T10:22:31Z</time>
      </trkpt>
      <trkpt lat="43.83768" lon="6.42239">
        <ele>903.1</ele>
        <time>2016-10-26T10:22:38Z</time>
      </trkpt>
      <trkpt lat="43.83759" lon="6.42232">
        <ele>903.8</ele>
        <time>2016-10-26T10:22:44Z</time>
      </trkpt>
      <trkpt lat="43.83752" lon="6.42223">
        <ele>904.4</ele>
        <time>2016-10-26T10:22:50Z</time>
      </trkpt>
      <trkpt lat="43.83746" lon="6.42211">
        <ele>904.9</ele>
        <time>2016-10-26T10:22:56Z</time>
      </trkpt>
      <trkpt lat="43.83738" lon="6.42204">
        <ele>905.4</ele>
        <time>2016-10-26T10:23:02Z</time>
      </trkpt>
      <trkpt lat="43.83727" lon="6.42203">
        <ele>905.6</ele>
        <time>2016-10-26T10:23:06Z</time>
      </trkpt>
      <trkpt lat="43.83717" lon="6.42212">
        <ele>905.7</ele>
        <time>2016-10-26T10:23:10Z</time>
      </trkpt>
      <trkpt lat="43.83708" lon="6.42218">
        <ele>905.4</ele>
        <time>2016-10-26T10:23:14Z</time>
      </trkpt>
      <trkpt lat="43.83698" lon="6.42214">
        <ele>905.4</ele>
        <time>2016-10-26T10:23:19Z</time>
      </trkpt>
      <trkpt lat="43.83691" lon="6.42206">
        <ele>905</ele>
        <time>2016-10-26T10:23:24Z</time>
      </trkpt>
      <trkpt lat="43.83685" lon="6.42194">
        <ele>904.6</ele>
        <time>2016-10-26T10:23:30Z</time>
      </trkpt>
      <trkpt lat="43.8368" lon="6.42183">
        <ele>904.6</ele>
        <time>2016-10-26T10:23:36Z</time>
      </trkpt>
      <trkpt lat="43.83674" lon="6.42172">
        <ele>904.8</ele>
        <time>2016-10-26T10:23:43Z</time>
      </trkpt>
      <trkpt lat="43.83669" lon="6.4216">
        <ele>905.2</ele>
        <time>2016-10-26T10:23:49Z</time>
      </trkpt>
      <trkpt lat="43.83667" lon="6.42147">
        <ele>905.9</ele>
        <time>2016-10-26T10:23:55Z</time>
      </trkpt>
      <trkpt lat="43.83664" lon="6.42135">
        <ele>907.1</ele>
        <time>2016-10-26T10:24:02Z</time>
      </trkpt>
      <trkpt lat="43.83666" lon="6.42121">
        <ele>908.4</ele>
        <time>2016-10-26T10:24:09Z</time>
      </trkpt>
      <trkpt lat="43.83667" lon="6.42108">
        <ele>909.7</ele>
        <time>2016-10-26T10:24:16Z</time>
      </trkpt>
      <trkpt lat="43.83669" lon="6.42094">
        <ele>911.2</ele>
        <time>2016-10-26T10:24:23Z</time>
      </trkpt>
      <trkpt lat="43.83668" lon="6.42081">
        <ele>913</ele>
        <time>2016-10-26T10:24:31Z</time>
      </trkpt>
      <trkpt lat="43.83668" lon="6.42067">
        <ele>915</ele>
        <time>2016-10-26T10:24:39Z</time>
      </trkpt>
      <trkpt lat="43.83671" lon="6.42054">
        <ele>916.5</ele>
        <time>2016-10-26T10:24:46Z</time>
      </trkpt>
      <trkpt lat="43.83669" lon="6.42041">
        <ele>917.4</ele>
        <time>2016-10-26T10:24:51Z</time>
      </trkpt>
      <trkpt lat="43.83661" lon="6.4203">
        <ele>918.1</ele>
        <time>2016-10-26T10:24:56Z</time>
      </trkpt>
      <trkpt lat="43.83653" lon="6.42022">
        <ele>918.8</ele>
        <time>2016-10-26T10:25:01Z</time>
      </trkpt>
      <trkpt lat="43.83644" lon="6.42016">
        <ele>919.4</ele>
        <time>2016-10-26T10:25:06Z</time>
      </trkpt>
      <trkpt lat="43.83636" lon="6.42012">
        <ele>919.9</ele>
        <time>2016-10-26T10:25:11Z</time>
      </trkpt>
      <trkpt lat="43.83626" lon="6.42008">
        <ele>920.7</ele>
        <time>2016-10-26T10:25:16Z</time>
      </trkpt>
      <trkpt lat="43.83615" lon="6.42006">
        <ele>921.6</ele>
        <time>2016-10-26T10:25:21Z</time>
      </trkpt>
      <trkpt lat="43.83604" lon="6.42003">
        <ele>922.4</ele>
        <time>2016-10-26T10:25:26Z</time>
      </trkpt>
      <trkpt lat="43.83593" lon="6.42002">
        <ele>923.4</ele>
        <time>2016-10-26T10:25:31Z</time>
      </trkpt>
      <trkpt lat="43.83582" lon="6.41999">
        <ele>924.2</ele>
        <time>2016-10-26T10:25:36Z</time>
      </trkpt>
      <trkpt lat="43.83572" lon="6.41996">
        <ele>925.1</ele>
        <time>2016-10-26T10:25:41Z</time>
      </trkpt>
      <trkpt lat="43.83563" lon="6.41988">
        <ele>925.6</ele>
        <time>2016-10-26T10:25:45Z</time>
      </trkpt>
      <trkpt lat="43.83556" lon="6.41978">
        <ele>926.4</ele>
        <time>2016-10-26T10:25:49Z</time>
      </trkpt>
      <trkpt lat="43.8355" lon="6.41967">
        <ele>927.2</ele>
        <time>2016-10-26T10:25:53Z</time>
      </trkpt>
      <trkpt lat="43.83548" lon="6.41953">
        <ele>928.2</ele>
        <time>2016-10-26T10:25:58Z</time>
      </trkpt>
      <trkpt lat="43.83547" lon="6.4194">
        <ele>929.2</ele>
        <time>2016-10-26T10:26:03Z</time>
      </trkpt>
      <trkpt lat="43.83546" lon="6.41927">
        <ele>930.5</ele>
        <time>2016-10-26T10:26:09Z</time>
      </trkpt>
      <trkpt lat="43.83543" lon="6.41913">
        <ele>931.7</ele>
        <time>2016-10-26T10:26:16Z</time>
      </trkpt>
      <trkpt lat="43.83539" lon="6.41901">
        <ele>932.8</ele>
        <time>2016-10-26T10:26:22Z</time>
      </trkpt>
      <trkpt lat="43.83533" lon="6.4189">
        <ele>933.6</ele>
        <time>2016-10-26T10:26:27Z</time>
      </trkpt>
      <trkpt lat="43.83526" lon="6.41882">
        <ele>934.2</ele>
        <time>2016-10-26T10:26:31Z</time>
      </trkpt>
      <trkpt lat="43.83518" lon="6.4187">
        <ele>934.7</ele>
        <time>2016-10-26T10:26:35Z</time>
      </trkpt>
      <trkpt lat="43.83512" lon="6.4186">
        <ele>935.2</ele>
        <time>2016-10-26T10:26:38Z</time>
      </trkpt>
      <trkpt lat="43.83505" lon="6.41849">
        <ele>935.7</ele>
        <time>2016-10-26T10:26:42Z</time>
      </trkpt>
      <trkpt lat="43.83498" lon="6.41838">
        <ele>936.1</ele>
        <time>2016-10-26T10:26:46Z</time>
      </trkpt>
      <trkpt lat="43.83492" lon="6.41828">
        <ele>936.7</ele>
        <time>2016-10-26T10:26:50Z</time>
      </trkpt>
      <trkpt lat="43.83486" lon="6.41817">
        <ele>937.4</ele>
        <time>2016-10-26T10:26:55Z</time>
      </trkpt>
      <trkpt lat="43.83481" lon="6.41804">
        <ele>938.4</ele>
        <time>2016-10-26T10:27:01Z</time>
      </trkpt>
      <trkpt lat="43.83477" lon="6.41791">
        <ele>939.4</ele>
        <time>2016-10-26T10:27:07Z</time>
      </trkpt>
      <trkpt lat="43.83473" lon="6.41778">
        <ele>940.5</ele>
        <time>2016-10-26T10:27:14Z</time>
      </trkpt>
      <trkpt lat="43.83468" lon="6.41766">
        <ele>941.8</ele>
        <time>2016-10-26T10:27:21Z</time>
      </trkpt>
      <trkpt lat="43.83463" lon="6.41754">
        <ele>942.7</ele>
        <time>2016-10-26T10:27:27Z</time>
      </trkpt>
      <trkpt lat="43.83459" lon="6.41742">
        <ele>943.7</ele>
        <time>2016-10-26T10:27:34Z</time>
      </trkpt>
      <trkpt lat="43.83455" lon="6.4173">
        <ele>944.7</ele>
        <time>2016-10-26T10:27:41Z</time>
      </trkpt>
      <trkpt lat="43.83449" lon="6.41719">
        <ele>945.7</ele>
        <time>2016-10-26T10:27:49Z</time>
      </trkpt>
      <trkpt lat="43.83442" lon="6.41709">
        <ele>946.7</ele>
        <time>2016-10-26T10:27:57Z</time>
      </trkpt>
      <trkpt lat="43.83433" lon="6.41704">
        <ele>947.8</ele>
        <time>2016-10-26T10:28:04Z</time>
      </trkpt>
      <trkpt lat="43.83424" lon="6.41699">
        <ele>949.1</ele>
        <time>2016-10-26T10:28:12Z</time>
      </trkpt>
      <trkpt lat="43.83419" lon="6.41687">
        <ele>950.5</ele>
        <time>2016-10-26T10:28:22Z</time>
      </trkpt>
      <trkpt lat="43.83414" lon="6.41676">
        <ele>951.9</ele>
        <time>2016-10-26T10:28:31Z</time>
      </trkpt>
      <trkpt lat="43.83408" lon="6.41665">
        <ele>953.4</ele>
        <time>2016-10-26T10:28:39Z</time>
      </trkpt>
      <trkpt lat="43.83404" lon="6.41653">
        <ele>954.6</ele>
        <time>2016-10-26T10:28:46Z</time>
      </trkpt>
      <trkpt lat="43.834" lon="6.41641">
        <ele>955.8</ele>
        <time>2016-10-26T10:28:54Z</time>
      </trkpt>
      <trkpt lat="43.83394" lon="6.41629">
        <ele>956.8</ele>
        <time>2016-10-26T10:29:02Z</time>
      </trkpt>
      <trkpt lat="43.83388" lon="6.41619">
        <ele>957.8</ele>
        <time>2016-10-26T10:29:09Z</time>
      </trkpt>
      <trkpt lat="43.83381" lon="6.41607">
        <ele>958.7</ele>
        <time>2016-10-26T10:29:15Z</time>
      </trkpt>
      <trkpt lat="43.83376" lon="6.41596">
        <ele>959.5</ele>
        <time>2016-10-26T10:29:21Z</time>
      </trkpt>
      <trkpt lat="43.83371" lon="6.41584">
        <ele>960.3</ele>
        <time>2016-10-26T10:29:27Z</time>
      </trkpt>
      <trkpt lat="43.83365" lon="6.41574">
        <ele>961.2</ele>
        <time>2016-10-26T10:29:33Z</time>
      </trkpt>
      <trkpt lat="43.83361" lon="6.41561">
        <ele>962.4</ele>
        <time>2016-10-26T10:29:40Z</time>
      </trkpt>
      <trkpt lat="43.83363" lon="6.41548">
        <ele>963.4</ele>
        <time>2016-10-26T10:29:46Z</time>
      </trkpt>
      <trkpt lat="43.83363" lon="6.41534">
        <ele>964.8</ele>
        <time>2016-10-26T10:29:53Z</time>
      </trkpt>
      <trkpt lat="43.83362" lon="6.41521">
        <ele>966</ele>
        <time>2016-10-26T10:29:59Z</time>
      </trkpt>
      <trkpt lat="43.83358" lon="6.41507">
        <ele>967.1</ele>
        <time>2016-10-26T10:30:06Z</time>
      </trkpt>
      <trkpt lat="43.83359" lon="6.41493">
        <ele>968.4</ele>
        <time>2016-10-26T10:30:12Z</time>
      </trkpt>
      <trkpt lat="43.8336" lon="6.41479">
        <ele>969.8</ele>
        <time>2016-10-26T10:30:19Z</time>
      </trkpt>
      <trkpt lat="43.83359" lon="6.41465">
        <ele>971.3</ele>
        <time>2016-10-26T10:30:26Z</time>
      </trkpt>
      <trkpt lat="43.83358" lon="6.41452">
        <ele>972.6</ele>
        <time>2016-10-26T10:30:32Z</time>
      </trkpt>
      <trkpt lat="43.83357" lon="6.41439">
        <ele>973.8</ele>
        <time>2016-10-26T10:30:38Z</time>
      </trkpt>
      <trkpt lat="43.83356" lon="6.41425">
        <ele>975.1</ele>
        <time>2016-10-26T10:30:44Z</time>
      </trkpt>
      <trkpt lat="43.83354" lon="6.41412">
        <ele>976.3</ele>
        <time>2016-10-26T10:30:50Z</time>
      </trkpt>
      <trkpt lat="43.83353" lon="6.41398">
        <ele>977.9</ele>
        <time>2016-10-26T10:30:57Z</time>
      </trkpt>
      <trkpt lat="43.8335" lon="6.41385">
        <ele>979.1</ele>
        <time>2016-10-26T10:31:03Z</time>
      </trkpt>
      <trkpt lat="43.83348" lon="6.41372">
        <ele>980.1</ele>
        <time>2016-10-26T10:31:09Z</time>
      </trkpt>
      <trkpt lat="43.83345" lon="6.4136">
        <ele>980.6</ele>
        <time>2016-10-26T10:31:13Z</time>
      </trkpt>
      <trkpt lat="43.83341" lon="6.41348">
        <ele>981</ele>
        <time>2016-10-26T10:31:16Z</time>
      </trkpt>
      <trkpt lat="43.83337" lon="6.41335">
        <ele>981.4</ele>
        <time>2016-10-26T10:31:19Z</time>
      </trkpt>
      <trkpt lat="43.83333" lon="6.4132">
        <ele>981.9</ele>
        <time>2016-10-26T10:31:23Z</time>
      </trkpt>
      <trkpt lat="43.83329" lon="6.41306">
        <ele>982.4</ele>
        <time>2016-10-26T10:31:28Z</time>
      </trkpt>
      <trkpt lat="43.83325" lon="6.41294">
        <ele>982.9</ele>
        <time>2016-10-26T10:31:32Z</time>
      </trkpt>
      <trkpt lat="43.83321" lon="6.41281">
        <ele>983.5</ele>
        <time>2016-10-26T10:31:37Z</time>
      </trkpt>
      <trkpt lat="43.83318" lon="6.41267">
        <ele>984</ele>
        <time>2016-10-26T10:31:42Z</time>
      </trkpt>
      <trkpt lat="43.83317" lon="6.41253">
        <ele>984.2</ele>
        <time>2016-10-26T10:31:45Z</time>
      </trkpt>
      <trkpt lat="43.83318" lon="6.41238">
        <ele>984.4</ele>
        <time>2016-10-26T10:31:48Z</time>
      </trkpt>
      <trkpt lat="43.83319" lon="6.41224">
        <ele>984.7</ele>
        <time>2016-10-26T10:31:51Z</time>
      </trkpt>
      <trkpt lat="43.83324" lon="6.41209">
        <ele>985</ele>
        <time>2016-10-26T10:31:55Z</time>
      </trkpt>
      <trkpt lat="43.8333" lon="6.41197">
        <ele>985.2</ele>
        <time>2016-10-26T10:31:59Z</time>
      </trkpt>
      <trkpt lat="43.83336" lon="6.41186">
        <ele>985.5</ele>
        <time>2016-10-26T10:32:03Z</time>
      </trkpt>
      <trkpt lat="43.83338" lon="6.41174">
        <ele>986</ele>
        <time>2016-10-26T10:32:07Z</time>
      </trkpt>
      <trkpt lat="43.83338" lon="6.41159">
        <ele>986.6</ele>
        <time>2016-10-26T10:32:12Z</time>
      </trkpt>
      <trkpt lat="43.83338" lon="6.41143">
        <ele>987.3</ele>
        <time>2016-10-26T10:32:17Z</time>
      </trkpt>
      <trkpt lat="43.83338" lon="6.4113">
        <ele>987.9</ele>
        <time>2016-10-26T10:32:21Z</time>
      </trkpt>
      <trkpt lat="43.83337" lon="6.41117">
        <ele>988.5</ele>
        <time>2016-10-26T10:32:25Z</time>
      </trkpt>
      <trkpt lat="43.83334" lon="6.41101">
        <ele>989</ele>
        <time>2016-10-26T10:32:29Z</time>
      </trkpt>
      <trkpt lat="43.83331" lon="6.41087">
        <ele>989.5</ele>
        <time>2016-10-26T10:32:33Z</time>
      </trkpt>
      <trkpt lat="43.83323" lon="6.41076">
        <ele>990.1</ele>
        <time>2016-10-26T10:32:37Z</time>
      </trkpt>
      <trkpt lat="43.83314" lon="6.41068">
        <ele>990.5</ele>
        <time>2016-10-26T10:32:41Z</time>
      </trkpt>
      <trkpt lat="43.83306" lon="6.41058">
        <ele>991.1</ele>
        <time>2016-10-26T10:32:45Z</time>
      </trkpt>
      <trkpt lat="43.83299" lon="6.41049">
        <ele>991.4</ele>
        <time>2016-10-26T10:32:48Z</time>
      </trkpt>
      <trkpt lat="43.83292" lon="6.41041">
        <ele>991.9</ele>
        <time>2016-10-26T10:32:51Z</time>
      </trkpt>
      <trkpt lat="43.83284" lon="6.41032">
        <ele>992.2</ele>
        <time>2016-10-26T10:32:54Z</time>
      </trkpt>
      <trkpt lat="43.83276" lon="6.41024">
        <ele>992.5</ele>
        <time>2016-10-26T10:32:58Z</time>
      </trkpt>
      <trkpt lat="43.83267" lon="6.41016">
        <ele>993</ele>
        <time>2016-10-26T10:33:03Z</time>
      </trkpt>
      <trkpt lat="43.83259" lon="6.41009">
        <ele>993.4</ele>
        <time>2016-10-26T10:33:07Z</time>
      </trkpt>
      <trkpt lat="43.8325" lon="6.41">
        <ele>993.9</ele>
        <time>2016-10-26T10:33:12Z</time>
      </trkpt>
      <trkpt lat="43.83243" lon="6.40993">
        <ele>994.3</ele>
        <time>2016-10-26T10:33:16Z</time>
      </trkpt>
      <trkpt lat="43.83234" lon="6.40986">
        <ele>994.6</ele>
        <time>2016-10-26T10:33:20Z</time>
      </trkpt>
      <trkpt lat="43.83226" lon="6.4098">
        <ele>995.1</ele>
        <time>2016-10-26T10:33:24Z</time>
      </trkpt>
      <trkpt lat="43.83218" lon="6.40971">
        <ele>996.1</ele>
        <time>2016-10-26T10:33:30Z</time>
      </trkpt>
      <trkpt lat="43.8321" lon="6.40964">
        <ele>997</ele>
        <time>2016-10-26T10:33:37Z</time>
      </trkpt>
      <trkpt lat="43.83203" lon="6.40954">
        <ele>997.9</ele>
        <time>2016-10-26T10:33:44Z</time>
      </trkpt>
      <trkpt lat="43.83196" lon="6.40944">
        <ele>998.7</ele>
        <time>2016-10-26T10:33:51Z</time>
      </trkpt>
      <trkpt lat="43.83193" lon="6.40932">
        <ele>999.8</ele>
        <time>2016-10-26T10:34:01Z</time>
      </trkpt>
      <trkpt lat="43.8319" lon="6.40919">
        <ele>1000.8</ele>
        <time>2016-10-26T10:34:09Z</time>
      </trkpt>
      <trkpt lat="43.83188" lon="6.40906">
        <ele>1001.7</ele>
        <time>2016-10-26T10:34:16Z</time>
      </trkpt>
      <trkpt lat="43.83186" lon="6.40892">
        <ele>1002.7</ele>
        <time>2016-10-26T10:34:23Z</time>
      </trkpt>
      <trkpt lat="43.83184" lon="6.40878">
        <ele>1003.8</ele>
        <time>2016-10-26T10:34:31Z</time>
      </trkpt>
      <trkpt lat="43.83181" lon="6.40864">
        <ele>1005</ele>
        <time>2016-10-26T10:34:39Z</time>
      </trkpt>
      <trkpt lat="43.8318" lon="6.4085">
        <ele>1006.1</ele>
        <time>2016-10-26T10:34:47Z</time>
      </trkpt>
      <trkpt lat="43.8318" lon="6.40837">
        <ele>1007.5</ele>
        <time>2016-10-26T10:34:55Z</time>
      </trkpt>
      <trkpt lat="43.83179" lon="6.40824">
        <ele>1008.6</ele>
        <time>2016-10-26T10:35:02Z</time>
      </trkpt>
      <trkpt lat="43.8318" lon="6.4081">
        <ele>1009.6</ele>
        <time>2016-10-26T10:35:09Z</time>
      </trkpt>
      <trkpt lat="43.83181" lon="6.40797">
        <ele>1010.5</ele>
        <time>2016-10-26T10:35:15Z</time>
      </trkpt>
      <trkpt lat="43.83182" lon="6.40784">
        <ele>1011.5</ele>
        <time>2016-10-26T10:35:21Z</time>
      </trkpt>
      <trkpt lat="43.83183" lon="6.40771">
        <ele>1012.3</ele>
        <time>2016-10-26T10:35:28Z</time>
      </trkpt>
      <trkpt lat="43.83183" lon="6.40758">
        <ele>1013.2</ele>
        <time>2016-10-26T10:35:34Z</time>
      </trkpt>
      <trkpt lat="43.83184" lon="6.40745">
        <ele>1014.4</ele>
        <time>2016-10-26T10:35:41Z</time>
      </trkpt>
      <trkpt lat="43.83183" lon="6.4073">
        <ele>1015.4</ele>
        <time>2016-10-26T10:35:48Z</time>
      </trkpt>
      <trkpt lat="43.83182" lon="6.40716">
        <ele>1016.4</ele>
        <time>2016-10-26T10:35:54Z</time>
      </trkpt>
      <trkpt lat="43.83179" lon="6.40702">
        <ele>1017.5</ele>
        <time>2016-10-26T10:36:01Z</time>
      </trkpt>
      <trkpt lat="43.83174" lon="6.40692">
        <ele>1018.7</ele>
        <time>2016-10-26T10:36:08Z</time>
      </trkpt>
      <trkpt lat="43.83167" lon="6.40681">
        <ele>1019.8</ele>
        <time>2016-10-26T10:36:15Z</time>
      </trkpt>
      <trkpt lat="43.83161" lon="6.40669">
        <ele>1020.5</ele>
        <time>2016-10-26T10:36:22Z</time>
      </trkpt>
      <trkpt lat="43.83157" lon="6.40657">
        <ele>1021.4</ele>
        <time>2016-10-26T10:36:28Z</time>
      </trkpt>
      <trkpt lat="43.83152" lon="6.40644">
        <ele>1022.2</ele>
        <time>2016-10-26T10:36:34Z</time>
      </trkpt>
      <trkpt lat="43.83148" lon="6.40632">
        <ele>1022.8</ele>
        <time>2016-10-26T10:36:39Z</time>
      </trkpt>
      <trkpt lat="43.83143" lon="6.4062">
        <ele>1023.8</ele>
        <time>2016-10-26T10:36:45Z</time>
      </trkpt>
      <trkpt lat="43.83138" lon="6.40609">
        <ele>1024.8</ele>
        <time>2016-10-26T10:36:51Z</time>
      </trkpt>
      <trkpt lat="43.8313" lon="6.406">
        <ele>1026.1</ele>
        <time>2016-10-26T10:36:58Z</time>
      </trkpt>
      <trkpt lat="43.83122" lon="6.40594">
        <ele>1027.1</ele>
        <time>2016-10-26T10:37:04Z</time>
      </trkpt>
      <trkpt lat="43.83112" lon="6.4059">
        <ele>1028.6</ele>
        <time>2016-10-26T10:37:11Z</time>
      </trkpt>
      <trkpt lat="43.83102" lon="6.4059">
        <ele>1029.7</ele>
        <time>2016-10-26T10:37:18Z</time>
      </trkpt>
      <trkpt lat="43.83092" lon="6.40593">
        <ele>1030.7</ele>
        <time>2016-10-26T10:37:24Z</time>
      </trkpt>
      <trkpt lat="43.83082" lon="6.40591">
        <ele>1032</ele>
        <time>2016-10-26T10:37:30Z</time>
      </trkpt>
      <trkpt lat="43.83073" lon="6.40593">
        <ele>1033.2</ele>
        <time>2016-10-26T10:37:37Z</time>
      </trkpt>
      <trkpt lat="43.83063" lon="6.40597">
        <ele>1034.6</ele>
        <time>2016-10-26T10:37:45Z</time>
      </trkpt>
      <trkpt lat="43.83054" lon="6.40598">
        <ele>1035.8</ele>
        <time>2016-10-26T10:37:53Z</time>
      </trkpt>
      <trkpt lat="43.83046" lon="6.40602">
        <ele>1037.1</ele>
        <time>2016-10-26T10:38:00Z</time>
      </trkpt>
      <trkpt lat="43.83037" lon="6.40607">
        <ele>1038.2</ele>
        <time>2016-10-26T10:38:08Z</time>
      </trkpt>
      <trkpt lat="43.83028" lon="6.40612">
        <ele>1039.4</ele>
        <time>2016-10-26T10:38:15Z</time>
      </trkpt>
      <trkpt lat="43.8302" lon="6.4062">
        <ele>1040.5</ele>
        <time>2016-10-26T10:38:22Z</time>
      </trkpt>
      <trkpt lat="43.83012" lon="6.40628">
        <ele>1041.4</ele>
        <time>2016-10-26T10:38:28Z</time>
      </trkpt>
      <trkpt lat="43.83005" lon="6.40636">
        <ele>1042.2</ele>
        <time>2016-10-26T10:38:33Z</time>
      </trkpt>
      <trkpt lat="43.82997" lon="6.40645">
        <ele>1043.3</ele>
        <time>2016-10-26T10:38:39Z</time>
      </trkpt>
      <trkpt lat="43.82988" lon="6.40653">
        <ele>1044.5</ele>
        <time>2016-10-26T10:38:45Z</time>
      </trkpt>
      <trkpt lat="43.8298" lon="6.40662">
        <ele>1045.4</ele>
        <time>2016-10-26T10:38:51Z</time>
      </trkpt>
      <trkpt lat="43.82973" lon="6.40671">
        <ele>1046.3</ele>
        <time>2016-10-26T10:38:57Z</time>
      </trkpt>
      <trkpt lat="43.82966" lon="6.4068">
        <ele>1047.2</ele>
        <time>2016-10-26T10:39:03Z</time>
      </trkpt>
      <trkpt lat="43.82957" lon="6.40687">
        <ele>1048</ele>
        <time>2016-10-26T10:39:09Z</time>
      </trkpt>
      <trkpt lat="43.82949" lon="6.40695">
        <ele>1048.7</ele>
        <time>2016-10-26T10:39:14Z</time>
      </trkpt>
      <trkpt lat="43.8294" lon="6.40702">
        <ele>1049.5</ele>
        <time>2016-10-26T10:39:19Z</time>
      </trkpt>
      <trkpt lat="43.82932" lon="6.40708">
        <ele>1050</ele>
        <time>2016-10-26T10:39:23Z</time>
      </trkpt>
      <trkpt lat="43.82925" lon="6.40717">
        <ele>1050.7</ele>
        <time>2016-10-26T10:39:27Z</time>
      </trkpt>
      <trkpt lat="43.82917" lon="6.40725">
        <ele>1051.6</ele>
        <time>2016-10-26T10:39:32Z</time>
      </trkpt>
      <trkpt lat="43.82909" lon="6.40731">
        <ele>1052.6</ele>
        <time>2016-10-26T10:39:37Z</time>
      </trkpt>
      <trkpt lat="43.82901" lon="6.40736">
        <ele>1053.8</ele>
        <time>2016-10-26T10:39:43Z</time>
      </trkpt>
      <trkpt lat="43.82892" lon="6.40738">
        <ele>1055.2</ele>
        <time>2016-10-26T10:39:49Z</time>
      </trkpt>
      <trkpt lat="43.82882" lon="6.40736">
        <ele>1058</ele>
        <time>2016-10-26T10:40:24Z</time>
      </trkpt>
      <trkpt lat="43.82872" lon="6.40738">
        <ele>1058.5</ele>
        <time>2016-10-26T10:40:31Z</time>
      </trkpt>
      <trkpt lat="43.82863" lon="6.40741">
        <ele>1059.1</ele>
        <time>2016-10-26T10:40:39Z</time>
      </trkpt>
      <trkpt lat="43.82853" lon="6.40743">
        <ele>1059.9</ele>
        <time>2016-10-26T10:40:47Z</time>
      </trkpt>
      <trkpt lat="43.82843" lon="6.40742">
        <ele>1060.7</ele>
        <time>2016-10-26T10:40:54Z</time>
      </trkpt>
      <trkpt lat="43.82835" lon="6.40736">
        <ele>1061.6</ele>
        <time>2016-10-26T10:41:02Z</time>
      </trkpt>
      <trkpt lat="43.82828" lon="6.40728">
        <ele>1062.7</ele>
        <time>2016-10-26T10:41:10Z</time>
      </trkpt>
      <trkpt lat="43.82821" lon="6.40718">
        <ele>1064</ele>
        <time>2016-10-26T10:41:19Z</time>
      </trkpt>
      <trkpt lat="43.82815" lon="6.40707">
        <ele>1065.3</ele>
        <time>2016-10-26T10:41:27Z</time>
      </trkpt>
      <trkpt lat="43.82809" lon="6.40697">
        <ele>1066.4</ele>
        <time>2016-10-26T10:41:36Z</time>
      </trkpt>
      <trkpt lat="43.828" lon="6.40693">
        <ele>1067.5</ele>
        <time>2016-10-26T10:41:52Z</time>
      </trkpt>
      <trkpt lat="43.8279" lon="6.40692">
        <ele>1068</ele>
        <time>2016-10-26T10:42:00Z</time>
      </trkpt>
      <trkpt lat="43.82781" lon="6.40697">
        <ele>1068.9</ele>
        <time>2016-10-26T10:42:09Z</time>
      </trkpt>
      <trkpt lat="43.82772" lon="6.40697">
        <ele>1069.5</ele>
        <time>2016-10-26T10:42:16Z</time>
      </trkpt>
      <trkpt lat="43.82762" lon="6.40701">
        <ele>1070.3</ele>
        <time>2016-10-26T10:42:23Z</time>
      </trkpt>
      <trkpt lat="43.82752" lon="6.407">
        <ele>1071.6</ele>
        <time>2016-10-26T10:42:31Z</time>
      </trkpt>
      <trkpt lat="43.82743" lon="6.40694">
        <ele>1073</ele>
        <time>2016-10-26T10:42:40Z</time>
      </trkpt>
      <trkpt lat="43.82737" lon="6.40684">
        <ele>1074.5</ele>
        <time>2016-10-26T10:42:49Z</time>
      </trkpt>
      <trkpt lat="43.82733" lon="6.40672">
        <ele>1075.8</ele>
        <time>2016-10-26T10:42:57Z</time>
      </trkpt>
      <trkpt lat="43.82729" lon="6.4066">
        <ele>1077.1</ele>
        <time>2016-10-26T10:43:05Z</time>
      </trkpt>
      <trkpt lat="43.82727" lon="6.40648">
        <ele>1078.4</ele>
        <time>2016-10-26T10:43:14Z</time>
      </trkpt>
      <trkpt lat="43.82736" lon="6.40645">
        <ele>1079.6</ele>
        <time>2016-10-26T10:43:23Z</time>
      </trkpt>
      <trkpt lat="43.82746" lon="6.40646">
        <ele>1080.7</ele>
        <time>2016-10-26T10:43:32Z</time>
      </trkpt>
      <trkpt lat="43.82756" lon="6.40642">
        <ele>1081.6</ele>
        <time>2016-10-26T10:43:39Z</time>
      </trkpt>
      <trkpt lat="43.82763" lon="6.40634">
        <ele>1082.5</ele>
        <time>2016-10-26T10:43:46Z</time>
      </trkpt>
      <trkpt lat="43.82759" lon="6.40623">
        <ele>1084.1</ele>
        <time>2016-10-26T10:44:01Z</time>
      </trkpt>
      <trkpt lat="43.8275" lon="6.40618">
        <ele>1085.5</ele>
        <time>2016-10-26T10:44:18Z</time>
      </trkpt>
      <trkpt lat="43.82742" lon="6.40612">
        <ele>1087</ele>
        <time>2016-10-26T10:44:43Z</time>
      </trkpt>
      <trkpt lat="43.82734" lon="6.40604">
        <ele>1087.5</ele>
        <time>2016-10-26T10:44:52Z</time>
      </trkpt>
      <trkpt lat="43.82727" lon="6.40597">
        <ele>1088.3</ele>
        <time>2016-10-26T10:45:00Z</time>
      </trkpt>
      <trkpt lat="43.82718" lon="6.40591">
        <ele>1089.1</ele>
        <time>2016-10-26T10:45:07Z</time>
      </trkpt>
      <trkpt lat="43.8271" lon="6.40587">
        <ele>1089.8</ele>
        <time>2016-10-26T10:45:13Z</time>
      </trkpt>
      <trkpt lat="43.82701" lon="6.40583">
        <ele>1090.6</ele>
        <time>2016-10-26T10:45:20Z</time>
      </trkpt>
      <trkpt lat="43.82691" lon="6.40585">
        <ele>1091.5</ele>
        <time>2016-10-26T10:45:28Z</time>
      </trkpt>
      <trkpt lat="43.82681" lon="6.40588">
        <ele>1092.4</ele>
        <time>2016-10-26T10:45:36Z</time>
      </trkpt>
      <trkpt lat="43.82671" lon="6.40591">
        <ele>1093</ele>
        <time>2016-10-26T10:45:42Z</time>
      </trkpt>
      <trkpt lat="43.82662" lon="6.40591">
        <ele>1094</ele>
        <time>2016-10-26T10:45:50Z</time>
      </trkpt>
      <trkpt lat="43.82652" lon="6.40591">
        <ele>1094.9</ele>
        <time>2016-10-26T10:45:57Z</time>
      </trkpt>
      <trkpt lat="43.82643" lon="6.40585">
        <ele>1095.6</ele>
        <time>2016-10-26T10:46:03Z</time>
      </trkpt>
      <trkpt lat="43.82635" lon="6.40577">
        <ele>1096.4</ele>
        <time>2016-10-26T10:46:10Z</time>
      </trkpt>
      <trkpt lat="43.82626" lon="6.40568">
        <ele>1097.3</ele>
        <time>2016-10-26T10:46:17Z</time>
      </trkpt>
      <trkpt lat="43.82618" lon="6.40559">
        <ele>1098.7</ele>
        <time>2016-10-26T10:46:24Z</time>
      </trkpt>
      <trkpt lat="43.82609" lon="6.40553">
        <ele>1100.1</ele>
        <time>2016-10-26T10:46:31Z</time>
      </trkpt>
      <trkpt lat="43.82599" lon="6.40551">
        <ele>1101.4</ele>
        <time>2016-10-26T10:46:38Z</time>
      </trkpt>
      <trkpt lat="43.82589" lon="6.40546">
        <ele>1102.4</ele>
        <time>2016-10-26T10:46:45Z</time>
      </trkpt>
      <trkpt lat="43.8258" lon="6.40541">
        <ele>1103.1</ele>
        <time>2016-10-26T10:46:50Z</time>
      </trkpt>
      <trkpt lat="43.82571" lon="6.40535">
        <ele>1104.1</ele>
        <time>2016-10-26T10:46:56Z</time>
      </trkpt>
      <trkpt lat="43.82563" lon="6.4053">
        <ele>1105.2</ele>
        <time>2016-10-26T10:47:02Z</time>
      </trkpt>
      <trkpt lat="43.82554" lon="6.40526">
        <ele>1106.6</ele>
        <time>2016-10-26T10:47:10Z</time>
      </trkpt>
      <trkpt lat="43.82545" lon="6.40521">
        <ele>1107.4</ele>
        <time>2016-10-26T10:47:16Z</time>
      </trkpt>
      <trkpt lat="43.82536" lon="6.40516">
        <ele>1108.4</ele>
        <time>2016-10-26T10:47:22Z</time>
      </trkpt>
      <trkpt lat="43.82528" lon="6.40508">
        <ele>1109.4</ele>
        <time>2016-10-26T10:47:28Z</time>
      </trkpt>
      <trkpt lat="43.82522" lon="6.40499">
        <ele>1110.3</ele>
        <time>2016-10-26T10:47:34Z</time>
      </trkpt>
      <trkpt lat="43.82518" lon="6.40487">
        <ele>1111.3</ele>
        <time>2016-10-26T10:47:41Z</time>
      </trkpt>
      <trkpt lat="43.82513" lon="6.40475">
        <ele>1112.4</ele>
        <time>2016-10-26T10:47:48Z</time>
      </trkpt>
      <trkpt lat="43.82503" lon="6.40474">
        <ele>1113.2</ele>
        <time>2016-10-26T10:47:54Z</time>
      </trkpt>
      <trkpt lat="43.82494" lon="6.40471">
        <ele>1114.5</ele>
        <time>2016-10-26T10:48:01Z</time>
      </trkpt>
      <trkpt lat="43.82486" lon="6.40465">
        <ele>1115.6</ele>
        <time>2016-10-26T10:48:07Z</time>
      </trkpt>
      <trkpt lat="43.82477" lon="6.40459">
        <ele>1116.8</ele>
        <time>2016-10-26T10:48:14Z</time>
      </trkpt>
      <trkpt lat="43.8247" lon="6.40451">
        <ele>1117.6</ele>
        <time>2016-10-26T10:48:20Z</time>
      </trkpt>
      <trkpt lat="43.82462" lon="6.40444">
        <ele>1118.5</ele>
        <time>2016-10-26T10:48:27Z</time>
      </trkpt>
      <trkpt lat="43.82453" lon="6.40438">
        <ele>1119.6</ele>
        <time>2016-10-26T10:48:34Z</time>
      </trkpt>
      <trkpt lat="43.82444" lon="6.40434">
        <ele>1120.3</ele>
        <time>2016-10-26T10:48:40Z</time>
      </trkpt>
      <trkpt lat="43.82434" lon="6.4043">
        <ele>1121.5</ele>
        <time>2016-10-26T10:48:47Z</time>
      </trkpt>
      <trkpt lat="43.82425" lon="6.40426">
        <ele>1122.5</ele>
        <time>2016-10-26T10:48:53Z</time>
      </trkpt>
      <trkpt lat="43.82417" lon="6.4042">
        <ele>1123.6</ele>
        <time>2016-10-26T10:49:00Z</time>
      </trkpt>
      <trkpt lat="43.82409" lon="6.40414">
        <ele>1125</ele>
        <time>2016-10-26T10:49:08Z</time>
      </trkpt>
      <trkpt lat="43.82401" lon="6.40407">
        <ele>1126.1</ele>
        <time>2016-10-26T10:49:14Z</time>
      </trkpt>
      <trkpt lat="43.82391" lon="6.404">
        <ele>1127</ele>
        <time>2016-10-26T10:49:20Z</time>
      </trkpt>
      <trkpt lat="43.82382" lon="6.40394">
        <ele>1128.2</ele>
        <time>2016-10-26T10:49:26Z</time>
      </trkpt>
      <trkpt lat="43.82373" lon="6.40389">
        <ele>1129.2</ele>
        <time>2016-10-26T10:49:33Z</time>
      </trkpt>
      <trkpt lat="43.82364" lon="6.40384">
        <ele>1129.9</ele>
        <time>2016-10-26T10:49:39Z</time>
      </trkpt>
      <trkpt lat="43.82356" lon="6.40379">
        <ele>1130.5</ele>
        <time>2016-10-26T10:49:44Z</time>
      </trkpt>
      <trkpt lat="43.82348" lon="6.40371">
        <ele>1131.3</ele>
        <time>2016-10-26T10:49:50Z</time>
      </trkpt>
      <trkpt lat="43.82341" lon="6.40361">
        <ele>1131.9</ele>
        <time>2016-10-26T10:49:56Z</time>
      </trkpt>
      <trkpt lat="43.82338" lon="6.40349">
        <ele>1132.9</ele>
        <time>2016-10-26T10:50:03Z</time>
      </trkpt>
      <trkpt lat="43.82334" lon="6.40336">
        <ele>1134.1</ele>
        <time>2016-10-26T10:50:11Z</time>
      </trkpt>
      <trkpt lat="43.82328" lon="6.40324">
        <ele>1135.3</ele>
        <time>2016-10-26T10:50:18Z</time>
      </trkpt>
      <trkpt lat="43.82325" lon="6.40312">
        <ele>1136.7</ele>
        <time>2016-10-26T10:50:26Z</time>
      </trkpt>
      <trkpt lat="43.82321" lon="6.403">
        <ele>1137.7</ele>
        <time>2016-10-26T10:50:34Z</time>
      </trkpt>
      <trkpt lat="43.82317" lon="6.40287">
        <ele>1138.9</ele>
        <time>2016-10-26T10:50:43Z</time>
      </trkpt>
      <trkpt lat="43.82314" lon="6.40275">
        <ele>1140.9</ele>
        <time>2016-10-26T10:50:53Z</time>
      </trkpt>
      <trkpt lat="43.82311" lon="6.40263">
        <ele>1142.1</ele>
        <time>2016-10-26T10:51:01Z</time>
      </trkpt>
      <trkpt lat="43.82308" lon="6.4025">
        <ele>1143.5</ele>
        <time>2016-10-26T10:51:10Z</time>
      </trkpt>
      <trkpt lat="43.82305" lon="6.40239">
        <ele>1144.8</ele>
        <time>2016-10-26T10:51:18Z</time>
      </trkpt>
      <trkpt lat="43.82313" lon="6.40235">
        <ele>1148.3</ele>
        <time>2016-10-26T10:51:36Z</time>
      </trkpt>
      <trkpt lat="43.82323" lon="6.40239">
        <ele>1149</ele>
        <time>2016-10-26T10:51:44Z</time>
      </trkpt>
      <trkpt lat="43.82332" lon="6.40245">
        <ele>1149.3</ele>
        <time>2016-10-26T10:51:51Z</time>
      </trkpt>
      <trkpt lat="43.8234" lon="6.4025">
        <ele>1150</ele>
        <time>2016-10-26T10:51:58Z</time>
      </trkpt>
      <trkpt lat="43.82349" lon="6.40255">
        <ele>1150.7</ele>
        <time>2016-10-26T10:52:06Z</time>
      </trkpt>
      <trkpt lat="43.82352" lon="6.40242">
        <ele>1154</ele>
        <time>2016-10-26T10:52:41Z</time>
      </trkpt>
      <trkpt lat="43.8235" lon="6.4023">
        <ele>1153.8</ele>
        <time>2016-10-26T10:53:04Z</time>
      </trkpt>
      <trkpt lat="43.82346" lon="6.40218">
        <ele>1154.2</ele>
        <time>2016-10-26T10:53:11Z</time>
      </trkpt>
      <trkpt lat="43.82343" lon="6.40205">
        <ele>1154.8</ele>
        <time>2016-10-26T10:53:19Z</time>
      </trkpt>
      <trkpt lat="43.82338" lon="6.40193">
        <ele>1155.9</ele>
        <time>2016-10-26T10:53:27Z</time>
      </trkpt>
      <trkpt lat="43.82334" lon="6.40181">
        <ele>1156.9</ele>
        <time>2016-10-26T10:53:34Z</time>
      </trkpt>
      <trkpt lat="43.8233" lon="6.40169">
        <ele>1157.9</ele>
        <time>2016-10-26T10:53:41Z</time>
      </trkpt>
      <trkpt lat="43.82326" lon="6.40157">
        <ele>1159</ele>
        <time>2016-10-26T10:53:49Z</time>
      </trkpt>
      <trkpt lat="43.82323" lon="6.40144">
        <ele>1160</ele>
        <time>2016-10-26T10:53:57Z</time>
      </trkpt>
      <trkpt lat="43.82321" lon="6.40132">
        <ele>1161.2</ele>
        <time>2016-10-26T10:54:04Z</time>
      </trkpt>
      <trkpt lat="43.82317" lon="6.4012">
        <ele>1162.2</ele>
        <time>2016-10-26T10:54:12Z</time>
      </trkpt>
      <trkpt lat="43.82316" lon="6.40107">
        <ele>1163.2</ele>
        <time>2016-10-26T10:54:20Z</time>
      </trkpt>
      <trkpt lat="43.82314" lon="6.40094">
        <ele>1164.2</ele>
        <time>2016-10-26T10:54:27Z</time>
      </trkpt>
      <trkpt lat="43.82312" lon="6.40081">
        <ele>1165.2</ele>
        <time>2016-10-26T10:54:35Z</time>
      </trkpt>
      <trkpt lat="43.82309" lon="6.40069">
        <ele>1166.3</ele>
        <time>2016-10-26T10:54:42Z</time>
      </trkpt>
      <trkpt lat="43.82307" lon="6.40056">
        <ele>1167.4</ele>
        <time>2016-10-26T10:54:49Z</time>
      </trkpt>
      <trkpt lat="43.82304" lon="6.40043">
        <ele>1168.3</ele>
        <time>2016-10-26T10:54:56Z</time>
      </trkpt>
      <trkpt lat="43.82301" lon="6.40031">
        <ele>1169.1</ele>
        <time>2016-10-26T10:55:02Z</time>
      </trkpt>
      <trkpt lat="43.82299" lon="6.40017">
        <ele>1170.1</ele>
        <time>2016-10-26T10:55:09Z</time>
      </trkpt>
      <trkpt lat="43.82295" lon="6.40004">
        <ele>1171.3</ele>
        <time>2016-10-26T10:55:16Z</time>
      </trkpt>
      <trkpt lat="43.82292" lon="6.39991">
        <ele>1172.3</ele>
        <time>2016-10-26T10:55:22Z</time>
      </trkpt>
      <trkpt lat="43.82289" lon="6.39979">
        <ele>1173.4</ele>
        <time>2016-10-26T10:55:28Z</time>
      </trkpt>
      <trkpt lat="43.82286" lon="6.39966">
        <ele>1174.9</ele>
        <time>2016-10-26T10:55:35Z</time>
      </trkpt>
      <trkpt lat="43.82282" lon="6.39954">
        <ele>1176.3</ele>
        <time>2016-10-26T10:55:42Z</time>
      </trkpt>
      <trkpt lat="43.82278" lon="6.39942">
        <ele>1177.8</ele>
        <time>2016-10-26T10:55:49Z</time>
      </trkpt>
      <trkpt lat="43.82275" lon="6.3993">
        <ele>1179.1</ele>
        <time>2016-10-26T10:55:56Z</time>
      </trkpt>
      <trkpt lat="43.8227" lon="6.39918">
        <ele>1180.6</ele>
        <time>2016-10-26T10:56:03Z</time>
      </trkpt>
      <trkpt lat="43.82263" lon="6.39908">
        <ele>1182.3</ele>
        <time>2016-10-26T10:56:11Z</time>
      </trkpt>
      <trkpt lat="43.82254" lon="6.39908">
        <ele>1183.8</ele>
        <time>2016-10-26T10:56:21Z</time>
      </trkpt>
      <trkpt lat="43.82246" lon="6.399">
        <ele>1184.7</ele>
        <time>2016-10-26T10:56:29Z</time>
      </trkpt>
      <trkpt lat="43.82245" lon="6.39887">
        <ele>1185.8</ele>
        <time>2016-10-26T10:56:38Z</time>
      </trkpt>
      <trkpt lat="43.82237" lon="6.39894">
        <ele>1187.4</ele>
        <time>2016-10-26T10:56:48Z</time>
      </trkpt>
      <trkpt lat="43.82232" lon="6.39905">
        <ele>1189.1</ele>
        <time>2016-10-26T10:56:56Z</time>
      </trkpt>
      <trkpt lat="43.82225" lon="6.39914">
        <ele>1190.2</ele>
        <time>2016-10-26T10:57:03Z</time>
      </trkpt>
      <trkpt lat="43.82217" lon="6.39922">
        <ele>1191.3</ele>
        <time>2016-10-26T10:57:10Z</time>
      </trkpt>
      <trkpt lat="43.82209" lon="6.39927">
        <ele>1192.8</ele>
        <time>2016-10-26T10:57:20Z</time>
      </trkpt>
      <trkpt lat="43.822" lon="6.3993">
        <ele>1193.9</ele>
        <time>2016-10-26T10:57:28Z</time>
      </trkpt>
      <trkpt lat="43.82191" lon="6.39931">
        <ele>1195.1</ele>
        <time>2016-10-26T10:57:36Z</time>
      </trkpt>
      <trkpt lat="43.82181" lon="6.39932">
        <ele>1196.7</ele>
        <time>2016-10-26T10:57:45Z</time>
      </trkpt>
      <trkpt lat="43.82171" lon="6.39929">
        <ele>1198</ele>
        <time>2016-10-26T10:57:53Z</time>
      </trkpt>
      <trkpt lat="43.82162" lon="6.39922">
        <ele>1199.4</ele>
        <time>2016-10-26T10:58:01Z</time>
      </trkpt>
      <trkpt lat="43.82155" lon="6.39915">
        <ele>1200.6</ele>
        <time>2016-10-26T10:58:08Z</time>
      </trkpt>
      <trkpt lat="43.82147" lon="6.39907">
        <ele>1201.6</ele>
        <time>2016-10-26T10:58:14Z</time>
      </trkpt>
      <trkpt lat="43.8214" lon="6.39899">
        <ele>1202.3</ele>
        <time>2016-10-26T10:58:19Z</time>
      </trkpt>
      <trkpt lat="43.8213" lon="6.39899">
        <ele>1203.2</ele>
        <time>2016-10-26T10:58:24Z</time>
      </trkpt>
      <trkpt lat="43.82121" lon="6.39904">
        <ele>1204.2</ele>
        <time>2016-10-26T10:58:30Z</time>
      </trkpt>
      <trkpt lat="43.82112" lon="6.39907">
        <ele>1205.3</ele>
        <time>2016-10-26T10:58:36Z</time>
      </trkpt>
      <trkpt lat="43.82103" lon="6.39909">
        <ele>1206.2</ele>
        <time>2016-10-26T10:58:42Z</time>
      </trkpt>
      <trkpt lat="43.82094" lon="6.3991">
        <ele>1207.1</ele>
        <time>2016-10-26T10:58:47Z</time>
      </trkpt>
      <trkpt lat="43.82084" lon="6.39909">
        <ele>1208.1</ele>
        <time>2016-10-26T10:58:53Z</time>
      </trkpt>
      <trkpt lat="43.82075" lon="6.39905">
        <ele>1208.7</ele>
        <time>2016-10-26T10:58:58Z</time>
      </trkpt>
      <trkpt lat="43.82067" lon="6.39897">
        <ele>1209.7</ele>
        <time>2016-10-26T10:59:04Z</time>
      </trkpt>
      <trkpt lat="43.82059" lon="6.39889">
        <ele>1211</ele>
        <time>2016-10-26T10:59:13Z</time>
      </trkpt>
      <trkpt lat="43.8205" lon="6.39882">
        <ele>1211.4</ele>
        <time>2016-10-26T10:59:18Z</time>
      </trkpt>
      <trkpt lat="43.82041" lon="6.39875">
        <ele>1211.8</ele>
        <time>2016-10-26T10:59:23Z</time>
      </trkpt>
      <trkpt lat="43.82032" lon="6.39868">
        <ele>1212.1</ele>
        <time>2016-10-26T10:59:28Z</time>
      </trkpt>
      <trkpt lat="43.82024" lon="6.39859">
        <ele>1212.5</ele>
        <time>2016-10-26T10:59:33Z</time>
      </trkpt>
      <trkpt lat="43.82018" lon="6.39849">
        <ele>1213</ele>
        <time>2016-10-26T10:59:39Z</time>
      </trkpt>
      <trkpt lat="43.8201" lon="6.3984">
        <ele>1214.1</ele>
        <time>2016-10-26T10:59:45Z</time>
      </trkpt>
      <trkpt lat="43.82003" lon="6.3983">
        <ele>1215</ele>
        <time>2016-10-26T10:59:51Z</time>
      </trkpt>
      <trkpt lat="43.81996" lon="6.39821">
        <ele>1216.3</ele>
        <time>2016-10-26T10:59:57Z</time>
      </trkpt>
      <trkpt lat="43.8199" lon="6.39811">
        <ele>1217.4</ele>
        <time>2016-10-26T11:00:02Z</time>
      </trkpt>
      <trkpt lat="43.81982" lon="6.39803">
        <ele>1218.6</ele>
        <time>2016-10-26T11:00:08Z</time>
      </trkpt>
      <trkpt lat="43.81975" lon="6.39793">
        <ele>1219.4</ele>
        <time>2016-10-26T11:00:13Z</time>
      </trkpt>
      <trkpt lat="43.81971" lon="6.39781">
        <ele>1220.1</ele>
        <time>2016-10-26T11:00:18Z</time>
      </trkpt>
      <trkpt lat="43.81967" lon="6.39768">
        <ele>1221.1</ele>
        <time>2016-10-26T11:00:23Z</time>
      </trkpt>
      <trkpt lat="43.81962" lon="6.39756">
        <ele>1221.8</ele>
        <time>2016-10-26T11:00:28Z</time>
      </trkpt>
      <trkpt lat="43.81955" lon="6.39746">
        <ele>1222.4</ele>
        <time>2016-10-26T11:00:33Z</time>
      </trkpt>
      <trkpt lat="43.81948" lon="6.39737">
        <ele>1223</ele>
        <time>2016-10-26T11:00:38Z</time>
      </trkpt>
      <trkpt lat="43.8194" lon="6.39728">
        <ele>1223.8</ele>
        <time>2016-10-26T11:00:44Z</time>
      </trkpt>
      <trkpt lat="43.8193" lon="6.39724">
        <ele>1225.1</ele>
        <time>2016-10-26T11:00:49Z</time>
      </trkpt>
      <trkpt lat="43.81919" lon="6.39723">
        <ele>1225.9</ele>
        <time>2016-10-26T11:00:54Z</time>
      </trkpt>
      <trkpt lat="43.81911" lon="6.39717">
        <ele>1226.3</ele>
        <time>2016-10-26T11:00:59Z</time>
      </trkpt>
      <trkpt lat="43.81906" lon="6.39707">
        <ele>1226.9</ele>
        <time>2016-10-26T11:01:04Z</time>
      </trkpt>
      <trkpt lat="43.81902" lon="6.39695">
        <ele>1228</ele>
        <time>2016-10-26T11:01:10Z</time>
      </trkpt>
      <trkpt lat="43.81897" lon="6.39682">
        <ele>1229</ele>
        <time>2016-10-26T11:01:17Z</time>
      </trkpt>
      <trkpt lat="43.81895" lon="6.39666">
        <ele>1229.7</ele>
        <time>2016-10-26T11:01:23Z</time>
      </trkpt>
      <trkpt lat="43.81894" lon="6.39654">
        <ele>1230.7</ele>
        <time>2016-10-26T11:01:28Z</time>
      </trkpt>
      <trkpt lat="43.81891" lon="6.3964">
        <ele>1231.4</ele>
        <time>2016-10-26T11:01:33Z</time>
      </trkpt>
      <trkpt lat="43.81889" lon="6.39628">
        <ele>1231.9</ele>
        <time>2016-10-26T11:01:37Z</time>
      </trkpt>
      <trkpt lat="43.81889" lon="6.39613">
        <ele>1232.2</ele>
        <time>2016-10-26T11:01:41Z</time>
      </trkpt>
      <trkpt lat="43.81889" lon="6.39599">
        <ele>1232.5</ele>
        <time>2016-10-26T11:01:45Z</time>
      </trkpt>
      <trkpt lat="43.81888" lon="6.39584">
        <ele>1232.8</ele>
        <time>2016-10-26T11:01:50Z</time>
      </trkpt>
      <trkpt lat="43.81888" lon="6.39568">
        <ele>1233.1</ele>
        <time>2016-10-26T11:01:55Z</time>
      </trkpt>
      <trkpt lat="43.81882" lon="6.39558">
        <ele>1233.5</ele>
        <time>2016-10-26T11:03:20Z</time>
      </trkpt>
      <trkpt lat="43.8188" lon="6.39546">
        <ele>1233.2</ele>
        <time>2016-10-26T11:03:28Z</time>
      </trkpt>
      <trkpt lat="43.81878" lon="6.39532">
        <ele>1232.6</ele>
        <time>2016-10-26T11:03:34Z</time>
      </trkpt>
      <trkpt lat="43.81872" lon="6.39517">
        <ele>1232.2</ele>
        <time>2016-10-26T11:03:38Z</time>
      </trkpt>
      <trkpt lat="43.81867" lon="6.395">
        <ele>1231.5</ele>
        <time>2016-10-26T11:03:41Z</time>
      </trkpt>
      <trkpt lat="43.81864" lon="6.39488">
        <ele>1230.6</ele>
        <time>2016-10-26T11:03:44Z</time>
      </trkpt>
      <trkpt lat="43.81858" lon="6.39478">
        <ele>1229.1</ele>
        <time>2016-10-26T11:03:51Z</time>
      </trkpt>
      <trkpt lat="43.81851" lon="6.39471">
        <ele>1228.4</ele>
        <time>2016-10-26T11:03:54Z</time>
      </trkpt>
      <trkpt lat="43.8184" lon="6.39461">
        <ele>1227.5</ele>
        <time>2016-10-26T11:03:57Z</time>
      </trkpt>
      <trkpt lat="43.81831" lon="6.39457">
        <ele>1226.9</ele>
        <time>2016-10-26T11:03:59Z</time>
      </trkpt>
      <trkpt lat="43.81819" lon="6.39458">
        <ele>1226</ele>
        <time>2016-10-26T11:04:02Z</time>
      </trkpt>
      <trkpt lat="43.81805" lon="6.39457">
        <ele>1225</ele>
        <time>2016-10-26T11:04:05Z</time>
      </trkpt>
      <trkpt lat="43.81797" lon="6.39448">
        <ele>1223.9</ele>
        <time>2016-10-26T11:04:07Z</time>
      </trkpt>
      <trkpt lat="43.81791" lon="6.39437">
        <ele>1223</ele>
        <time>2016-10-26T11:04:09Z</time>
      </trkpt>
      <trkpt lat="43.8179" lon="6.39423">
        <ele>1222</ele>
        <time>2016-10-26T11:04:11Z</time>
      </trkpt>
      <trkpt lat="43.8179" lon="6.3941">
        <ele>1221.2</ele>
        <time>2016-10-26T11:04:13Z</time>
      </trkpt>
      <trkpt lat="43.81788" lon="6.39395">
        <ele>1219.9</ele>
        <time>2016-10-26T11:04:16Z</time>
      </trkpt>
      <trkpt lat="43.81781" lon="6.39382">
        <ele>1218.7</ele>
        <time>2016-10-26T11:04:19Z</time>
      </trkpt>
      <trkpt lat="43.81772" lon="6.39375">
        <ele>1217.4</ele>
        <time>2016-10-26T11:04:21Z</time>
      </trkpt>
      <trkpt lat="43.81761" lon="6.39372">
        <ele>1216.3</ele>
        <time>2016-10-26T11:04:23Z</time>
      </trkpt>
      <trkpt lat="43.8175" lon="6.39374">
        <ele>1215.3</ele>
        <time>2016-10-26T11:04:25Z</time>
      </trkpt>
      <trkpt lat="43.8174" lon="6.39374">
        <ele>1213.8</ele>
        <time>2016-10-26T11:04:28Z</time>
      </trkpt>
      <trkpt lat="43.81732" lon="6.39369">
        <ele>1211.2</ele>
        <time>2016-10-26T11:04:34Z</time>
      </trkpt>
      <trkpt lat="43.81722" lon="6.39361">
        <ele>1209.6</ele>
        <time>2016-10-26T11:04:39Z</time>
      </trkpt>
      <trkpt lat="43.81712" lon="6.39356">
        <ele>1208.4</ele>
        <time>2016-10-26T11:04:43Z</time>
      </trkpt>
      <trkpt lat="43.81702" lon="6.3935">
        <ele>1207.8</ele>
        <time>2016-10-26T11:04:46Z</time>
      </trkpt>
      <trkpt lat="43.81691" lon="6.39343">
        <ele>1207.2</ele>
        <time>2016-10-26T11:04:49Z</time>
      </trkpt>
      <trkpt lat="43.8168" lon="6.39335">
        <ele>1206.6</ele>
        <time>2016-10-26T11:04:52Z</time>
      </trkpt>
      <trkpt lat="43.8167" lon="6.39328">
        <ele>1206</ele>
        <time>2016-10-26T11:04:55Z</time>
      </trkpt>
      <trkpt lat="43.8166" lon="6.39321">
        <ele>1205.3</ele>
        <time>2016-10-26T11:04:58Z</time>
      </trkpt>
      <trkpt lat="43.8165" lon="6.39315">
        <ele>1204.5</ele>
        <time>2016-10-26T11:05:01Z</time>
      </trkpt>
      <trkpt lat="43.81641" lon="6.3931">
        <ele>1204.1</ele>
        <time>2016-10-26T11:05:04Z</time>
      </trkpt>
      <trkpt lat="43.81631" lon="6.39305">
        <ele>1203.8</ele>
        <time>2016-10-26T11:05:07Z</time>
      </trkpt>
      <trkpt lat="43.81621" lon="6.39299">
        <ele>1203.5</ele>
        <time>2016-10-26T11:05:10Z</time>
      </trkpt>
      <trkpt lat="43.81612" lon="6.39292">
        <ele>1203.2</ele>
        <time>2016-10-26T11:05:13Z</time>
      </trkpt>
      <trkpt lat="43.81599" lon="6.39285">
        <ele>1202.9</ele>
        <time>2016-10-26T11:05:16Z</time>
      </trkpt>
      <trkpt lat="43.81591" lon="6.39279">
        <ele>1202.7</ele>
        <time>2016-10-26T11:05:18Z</time>
      </trkpt>
      <trkpt lat="43.81582" lon="6.39275">
        <ele>1202.5</ele>
        <time>2016-10-26T11:05:20Z</time>
      </trkpt>
      <trkpt lat="43.81573" lon="6.39269">
        <ele>1202.2</ele>
        <time>2016-10-26T11:05:22Z</time>
      </trkpt>
      <trkpt lat="43.81563" lon="6.39266">
        <ele>1202</ele>
        <time>2016-10-26T11:05:24Z</time>
      </trkpt>
      <trkpt lat="43.81554" lon="6.3926">
        <ele>1202</ele>
        <time>2016-10-26T11:05:26Z</time>
      </trkpt>
      <trkpt lat="43.81546" lon="6.39255">
        <ele>1201.9</ele>
        <time>2016-10-26T11:05:28Z</time>
      </trkpt>
      <trkpt lat="43.81537" lon="6.39249">
        <ele>1201.8</ele>
        <time>2016-10-26T11:05:30Z</time>
      </trkpt>
      <trkpt lat="43.81528" lon="6.39244">
        <ele>1201.6</ele>
        <time>2016-10-26T11:05:32Z</time>
      </trkpt>
      <trkpt lat="43.8152" lon="6.39239">
        <ele>1201.5</ele>
        <time>2016-10-26T11:05:34Z</time>
      </trkpt>
      <trkpt lat="43.81511" lon="6.39233">
        <ele>1201.6</ele>
        <time>2016-10-26T11:05:36Z</time>
      </trkpt>
      <trkpt lat="43.81503" lon="6.39228">
        <ele>1201.4</ele>
        <time>2016-10-26T11:05:38Z</time>
      </trkpt>
      <trkpt lat="43.81494" lon="6.39222">
        <ele>1200.9</ele>
        <time>2016-10-26T11:05:40Z</time>
      </trkpt>
      <trkpt lat="43.81485" lon="6.39216">
        <ele>1200.6</ele>
        <time>2016-10-26T11:05:42Z</time>
      </trkpt>
      <trkpt lat="43.81477" lon="6.3921">
        <ele>1200.2</ele>
        <time>2016-10-26T11:05:44Z</time>
      </trkpt>
      <trkpt lat="43.81468" lon="6.39205">
        <ele>1200</ele>
        <time>2016-10-26T11:05:46Z</time>
      </trkpt>
      <trkpt lat="43.81459" lon="6.392">
        <ele>1199.7</ele>
        <time>2016-10-26T11:05:48Z</time>
      </trkpt>
      <trkpt lat="43.8145" lon="6.39195">
        <ele>1199.5</ele>
        <time>2016-10-26T11:05:50Z</time>
      </trkpt>
      <trkpt lat="43.81441" lon="6.3919">
        <ele>1199.4</ele>
        <time>2016-10-26T11:05:52Z</time>
      </trkpt>
      <trkpt lat="43.81433" lon="6.39185">
        <ele>1199.2</ele>
        <time>2016-10-26T11:05:54Z</time>
      </trkpt>
      <trkpt lat="43.81424" lon="6.39181">
        <ele>1199.1</ele>
        <time>2016-10-26T11:05:56Z</time>
      </trkpt>
      <trkpt lat="43.81415" lon="6.39176">
        <ele>1199</ele>
        <time>2016-10-26T11:05:58Z</time>
      </trkpt>
      <trkpt lat="43.81406" lon="6.39172">
        <ele>1198.9</ele>
        <time>2016-10-26T11:06:00Z</time>
      </trkpt>
      <trkpt lat="43.81397" lon="6.39167">
        <ele>1198.9</ele>
        <time>2016-10-26T11:06:02Z</time>
      </trkpt>
      <trkpt lat="43.81387" lon="6.39162">
        <ele>1198.9</ele>
        <time>2016-10-26T11:06:04Z</time>
      </trkpt>
      <trkpt lat="43.81378" lon="6.39157">
        <ele>1198.8</ele>
        <time>2016-10-26T11:06:06Z</time>
      </trkpt>
      <trkpt lat="43.81369" lon="6.39151">
        <ele>1198.8</ele>
        <time>2016-10-26T11:06:08Z</time>
      </trkpt>
      <trkpt lat="43.81359" lon="6.39145">
        <ele>1198.5</ele>
        <time>2016-10-26T11:06:10Z</time>
      </trkpt>
      <trkpt lat="43.8135" lon="6.3914">
        <ele>1198.4</ele>
        <time>2016-10-26T11:06:12Z</time>
      </trkpt>
      <trkpt lat="43.81338" lon="6.39136">
        <ele>1198.3</ele>
        <time>2016-10-26T11:06:15Z</time>
      </trkpt>
      <trkpt lat="43.81325" lon="6.39135">
        <ele>1198.2</ele>
        <time>2016-10-26T11:06:18Z</time>
      </trkpt>
      <trkpt lat="43.81313" lon="6.39133">
        <ele>1198</ele>
        <time>2016-10-26T11:06:21Z</time>
      </trkpt>
      <trkpt lat="43.81301" lon="6.39128">
        <ele>1197.6</ele>
        <time>2016-10-26T11:06:24Z</time>
      </trkpt>
      <trkpt lat="43.8129" lon="6.39126">
        <ele>1197.4</ele>
        <time>2016-10-26T11:06:26Z</time>
      </trkpt>
      <trkpt lat="43.8128" lon="6.39122">
        <ele>1197</ele>
        <time>2016-10-26T11:06:28Z</time>
      </trkpt>
      <trkpt lat="43.81271" lon="6.39119">
        <ele>1196.9</ele>
        <time>2016-10-26T11:06:30Z</time>
      </trkpt>
      <trkpt lat="43.81258" lon="6.39116">
        <ele>1196.8</ele>
        <time>2016-10-26T11:06:33Z</time>
      </trkpt>
      <trkpt lat="43.81248" lon="6.39116">
        <ele>1196.6</ele>
        <time>2016-10-26T11:06:35Z</time>
      </trkpt>
      <trkpt lat="43.81238" lon="6.39113">
        <ele>1196.4</ele>
        <time>2016-10-26T11:06:37Z</time>
      </trkpt>
      <trkpt lat="43.81228" lon="6.39108">
        <ele>1196.1</ele>
        <time>2016-10-26T11:06:39Z</time>
      </trkpt>
      <trkpt lat="43.81218" lon="6.39102">
        <ele>1196</ele>
        <time>2016-10-26T11:06:41Z</time>
      </trkpt>
      <trkpt lat="43.81207" lon="6.39096">
        <ele>1195.9</ele>
        <time>2016-10-26T11:06:43Z</time>
      </trkpt>
      <trkpt lat="43.81198" lon="6.3909">
        <ele>1195.7</ele>
        <time>2016-10-26T11:06:45Z</time>
      </trkpt>
      <trkpt lat="43.81185" lon="6.39087">
        <ele>1195.6</ele>
        <time>2016-10-26T11:06:48Z</time>
      </trkpt>
      <trkpt lat="43.81174" lon="6.39086">
        <ele>1195.8</ele>
        <time>2016-10-26T11:06:51Z</time>
      </trkpt>
      <trkpt lat="43.81163" lon="6.39083">
        <ele>1196.1</ele>
        <time>2016-10-26T11:06:54Z</time>
      </trkpt>
      <trkpt lat="43.81154" lon="6.3908">
        <ele>1196.2</ele>
        <time>2016-10-26T11:06:56Z</time>
      </trkpt>
      <trkpt lat="43.81144" lon="6.39078">
        <ele>1196.3</ele>
        <time>2016-10-26T11:06:58Z</time>
      </trkpt>
      <trkpt lat="43.81135" lon="6.39075">
        <ele>1196.3</ele>
        <time>2016-10-26T11:07:00Z</time>
      </trkpt>
      <trkpt lat="43.81123" lon="6.39069">
        <ele>1196.4</ele>
        <time>2016-10-26T11:07:03Z</time>
      </trkpt>
      <trkpt lat="43.8111" lon="6.39067">
        <ele>1196.5</ele>
        <time>2016-10-26T11:07:06Z</time>
      </trkpt>
      <trkpt lat="43.81098" lon="6.39068">
        <ele>1196.8</ele>
        <time>2016-10-26T11:07:09Z</time>
      </trkpt>
      <trkpt lat="43.81085" lon="6.39068">
        <ele>1197.1</ele>
        <time>2016-10-26T11:07:12Z</time>
      </trkpt>
      <trkpt lat="43.81076" lon="6.39066">
        <ele>1197.3</ele>
        <time>2016-10-26T11:07:14Z</time>
      </trkpt>
      <trkpt lat="43.81065" lon="6.39069">
        <ele>1197.6</ele>
        <time>2016-10-26T11:07:17Z</time>
      </trkpt>
      <trkpt lat="43.81055" lon="6.39075">
        <ele>1198.1</ele>
        <time>2016-10-26T11:07:20Z</time>
      </trkpt>
      <trkpt lat="43.81046" lon="6.39078">
        <ele>1198.4</ele>
        <time>2016-10-26T11:07:23Z</time>
      </trkpt>
      <trkpt lat="43.81037" lon="6.39083">
        <ele>1198.9</ele>
        <time>2016-10-26T11:07:26Z</time>
      </trkpt>
      <trkpt lat="43.81027" lon="6.39086">
        <ele>1199.3</ele>
        <time>2016-10-26T11:07:29Z</time>
      </trkpt>
      <trkpt lat="43.81015" lon="6.39078">
        <ele>1199.8</ele>
        <time>2016-10-26T11:07:32Z</time>
      </trkpt>
      <trkpt lat="43.81006" lon="6.39073">
        <ele>1200.2</ele>
        <time>2016-10-26T11:07:35Z</time>
      </trkpt>
      <trkpt lat="43.80997" lon="6.39072">
        <ele>1200.6</ele>
        <time>2016-10-26T11:07:38Z</time>
      </trkpt>
      <trkpt lat="43.80988" lon="6.3907">
        <ele>1201.1</ele>
        <time>2016-10-26T11:07:41Z</time>
      </trkpt>
      <trkpt lat="43.80978" lon="6.39067">
        <ele>1201.5</ele>
        <time>2016-10-26T11:07:44Z</time>
      </trkpt>
      <trkpt lat="43.80969" lon="6.3906">
        <ele>1201.8</ele>
        <time>2016-10-26T11:07:47Z</time>
      </trkpt>
      <trkpt lat="43.80961" lon="6.39053">
        <ele>1202.1</ele>
        <time>2016-10-26T11:07:50Z</time>
      </trkpt>
      <trkpt lat="43.80954" lon="6.39043">
        <ele>1202.2</ele>
        <time>2016-10-26T11:07:53Z</time>
      </trkpt>
      <trkpt lat="43.80947" lon="6.39032">
        <ele>1202.3</ele>
        <time>2016-10-26T11:07:56Z</time>
      </trkpt>
      <trkpt lat="43.8094" lon="6.39021">
        <ele>1202.3</ele>
        <time>2016-10-26T11:07:59Z</time>
      </trkpt>
      <trkpt lat="43.80935" lon="6.39008">
        <ele>1202.3</ele>
        <time>2016-10-26T11:08:02Z</time>
      </trkpt>
      <trkpt lat="43.80932" lon="6.38993">
        <ele>1202.4</ele>
        <time>2016-10-26T11:08:06Z</time>
      </trkpt>
      <trkpt lat="43.80925" lon="6.38982">
        <ele>1202.6</ele>
        <time>2016-10-26T11:08:09Z</time>
      </trkpt>
      <trkpt lat="43.80916" lon="6.38971">
        <ele>1202.6</ele>
        <time>2016-10-26T11:08:12Z</time>
      </trkpt>
      <trkpt lat="43.80907" lon="6.38966">
        <ele>1202.4</ele>
        <time>2016-10-26T11:08:14Z</time>
      </trkpt>
      <trkpt lat="43.80894" lon="6.38967">
        <ele>1202</ele>
        <time>2016-10-26T11:08:17Z</time>
      </trkpt>
      <trkpt lat="43.80881" lon="6.38971">
        <ele>1201.8</ele>
        <time>2016-10-26T11:08:20Z</time>
      </trkpt>
      <trkpt lat="43.80871" lon="6.38974">
        <ele>1201.6</ele>
        <time>2016-10-26T11:08:22Z</time>
      </trkpt>
      <trkpt lat="43.80861" lon="6.38977">
        <ele>1201.5</ele>
        <time>2016-10-26T11:08:24Z</time>
      </trkpt>
      <trkpt lat="43.80851" lon="6.3898">
        <ele>1201.4</ele>
        <time>2016-10-26T11:08:26Z</time>
      </trkpt>
      <trkpt lat="43.80841" lon="6.38983">
        <ele>1201.2</ele>
        <time>2016-10-26T11:08:28Z</time>
      </trkpt>
      <trkpt lat="43.80831" lon="6.38986">
        <ele>1201</ele>
        <time>2016-10-26T11:08:30Z</time>
      </trkpt>
      <trkpt lat="43.8082" lon="6.3899">
        <ele>1200.7</ele>
        <time>2016-10-26T11:08:33Z</time>
      </trkpt>
      <trkpt lat="43.80809" lon="6.38995">
        <ele>1200.7</ele>
        <time>2016-10-26T11:08:37Z</time>
      </trkpt>
      <trkpt lat="43.80801" lon="6.39004">
        <ele>1200.8</ele>
        <time>2016-10-26T11:08:40Z</time>
      </trkpt>
      <trkpt lat="43.8079" lon="6.39011">
        <ele>1201.2</ele>
        <time>2016-10-26T11:08:43Z</time>
      </trkpt>
      <trkpt lat="43.80781" lon="6.39015">
        <ele>1201.6</ele>
        <time>2016-10-26T11:08:46Z</time>
      </trkpt>
      <trkpt lat="43.80772" lon="6.39024">
        <ele>1202.1</ele>
        <time>2016-10-26T11:08:49Z</time>
      </trkpt>
      <trkpt lat="43.80762" lon="6.39033">
        <ele>1202.5</ele>
        <time>2016-10-26T11:08:52Z</time>
      </trkpt>
      <trkpt lat="43.80754" lon="6.39041">
        <ele>1203.1</ele>
        <time>2016-10-26T11:08:55Z</time>
      </trkpt>
      <trkpt lat="43.80743" lon="6.39046">
        <ele>1203.7</ele>
        <time>2016-10-26T11:08:58Z</time>
      </trkpt>
      <trkpt lat="43.80731" lon="6.39048">
        <ele>1203.3</ele>
        <time>2016-10-26T11:09:01Z</time>
      </trkpt>
      <trkpt lat="43.80718" lon="6.39048">
        <ele>1203</ele>
        <time>2016-10-26T11:09:04Z</time>
      </trkpt>
      <trkpt lat="43.80709" lon="6.39048">
        <ele>1202.8</ele>
        <time>2016-10-26T11:09:07Z</time>
      </trkpt>
      <trkpt lat="43.80698" lon="6.39049">
        <ele>1202.6</ele>
        <time>2016-10-26T11:09:11Z</time>
      </trkpt>
      <trkpt lat="43.80688" lon="6.39052">
        <ele>1202.4</ele>
        <time>2016-10-26T11:09:16Z</time>
      </trkpt>
      <trkpt lat="43.80678" lon="6.39056">
        <ele>1202.4</ele>
        <time>2016-10-26T11:09:20Z</time>
      </trkpt>
      <trkpt lat="43.80669" lon="6.39062">
        <ele>1202.7</ele>
        <time>2016-10-26T11:09:25Z</time>
      </trkpt>
      <trkpt lat="43.8066" lon="6.39067">
        <ele>1203.9</ele>
        <time>2016-10-26T11:09:38Z</time>
      </trkpt>
      <trkpt lat="43.80652" lon="6.39074">
        <ele>1201.2</ele>
        <time>2016-10-26T11:12:12Z</time>
      </trkpt>
      <trkpt lat="43.80643" lon="6.39083">
        <ele>1201.1</ele>
        <time>2016-10-26T11:12:16Z</time>
      </trkpt>
      <trkpt lat="43.80634" lon="6.39092">
        <ele>1200.9</ele>
        <time>2016-10-26T11:12:20Z</time>
      </trkpt>
      <trkpt lat="43.80625" lon="6.39101">
        <ele>1200.9</ele>
        <time>2016-10-26T11:12:24Z</time>
      </trkpt>
      <trkpt lat="43.80617" lon="6.3911">
        <ele>1200.9</ele>
        <time>2016-10-26T11:12:28Z</time>
      </trkpt>
      <trkpt lat="43.80607" lon="6.39117">
        <ele>1200.9</ele>
        <time>2016-10-26T11:12:32Z</time>
      </trkpt>
      <trkpt lat="43.80598" lon="6.39126">
        <ele>1201</ele>
        <time>2016-10-26T11:12:35Z</time>
      </trkpt>
      <trkpt lat="43.80588" lon="6.39138">
        <ele>1201</ele>
        <time>2016-10-26T11:12:38Z</time>
      </trkpt>
      <trkpt lat="43.80581" lon="6.39149">
        <ele>1200.9</ele>
        <time>2016-10-26T11:12:40Z</time>
      </trkpt>
      <trkpt lat="43.80573" lon="6.3916">
        <ele>1200.4</ele>
        <time>2016-10-26T11:12:42Z</time>
      </trkpt>
      <trkpt lat="43.80566" lon="6.39172">
        <ele>1200</ele>
        <time>2016-10-26T11:12:44Z</time>
      </trkpt>
      <trkpt lat="43.80558" lon="6.39185">
        <ele>1199.3</ele>
        <time>2016-10-26T11:12:46Z</time>
      </trkpt>
      <trkpt lat="43.80551" lon="6.39199">
        <ele>1198.6</ele>
        <time>2016-10-26T11:12:48Z</time>
      </trkpt>
      <trkpt lat="43.80543" lon="6.39211">
        <ele>1198.1</ele>
        <time>2016-10-26T11:12:50Z</time>
      </trkpt>
      <trkpt lat="43.80535" lon="6.39225">
        <ele>1197.6</ele>
        <time>2016-10-26T11:12:52Z</time>
      </trkpt>
      <trkpt lat="43.80529" lon="6.39238">
        <ele>1197.1</ele>
        <time>2016-10-26T11:12:54Z</time>
      </trkpt>
      <trkpt lat="43.80523" lon="6.39249">
        <ele>1196.1</ele>
        <time>2016-10-26T11:12:58Z</time>
      </trkpt>
      <trkpt lat="43.80517" lon="6.3926">
        <ele>1190.9</ele>
        <time>2016-10-26T11:13:50Z</time>
      </trkpt>
      <trkpt lat="43.8051" lon="6.39272">
        <ele>1190.7</ele>
        <time>2016-10-26T11:13:54Z</time>
      </trkpt>
      <trkpt lat="43.80504" lon="6.39282">
        <ele>1190.6</ele>
        <time>2016-10-26T11:13:57Z</time>
      </trkpt>
      <trkpt lat="43.80498" lon="6.39293">
        <ele>1190.3</ele>
        <time>2016-10-26T11:14:00Z</time>
      </trkpt>
      <trkpt lat="43.8049" lon="6.39306">
        <ele>1189.9</ele>
        <time>2016-10-26T11:14:03Z</time>
      </trkpt>
      <trkpt lat="43.80485" lon="6.39317">
        <ele>1189.6</ele>
        <time>2016-10-26T11:14:05Z</time>
      </trkpt>
      <trkpt lat="43.80479" lon="6.39329">
        <ele>1189.3</ele>
        <time>2016-10-26T11:14:07Z</time>
      </trkpt>
      <trkpt lat="43.80474" lon="6.39341">
        <ele>1189.1</ele>
        <time>2016-10-26T11:14:09Z</time>
      </trkpt>
      <trkpt lat="43.80468" lon="6.39354">
        <ele>1188.6</ele>
        <time>2016-10-26T11:14:11Z</time>
      </trkpt>
      <trkpt lat="43.80462" lon="6.39365">
        <ele>1188.1</ele>
        <time>2016-10-26T11:14:13Z</time>
      </trkpt>
      <trkpt lat="43.80455" lon="6.39379">
        <ele>1187.3</ele>
        <time>2016-10-26T11:14:17Z</time>
      </trkpt>
      <trkpt lat="43.80451" lon="6.39392">
        <ele>1186.8</ele>
        <time>2016-10-26T11:14:19Z</time>
      </trkpt>
      <trkpt lat="43.80447" lon="6.39407">
        <ele>1186.2</ele>
        <time>2016-10-26T11:14:21Z</time>
      </trkpt>
      <trkpt lat="43.80445" lon="6.39421">
        <ele>1185.4</ele>
        <time>2016-10-26T11:14:23Z</time>
      </trkpt>
      <trkpt lat="43.80444" lon="6.39437">
        <ele>1184.4</ele>
        <time>2016-10-26T11:14:26Z</time>
      </trkpt>
      <trkpt lat="43.80443" lon="6.39451">
        <ele>1183.4</ele>
        <time>2016-10-26T11:14:29Z</time>
      </trkpt>
      <trkpt lat="43.80438" lon="6.39464">
        <ele>1182.2</ele>
        <time>2016-10-26T11:14:32Z</time>
      </trkpt>
      <trkpt lat="43.80435" lon="6.39479">
        <ele>1181</ele>
        <time>2016-10-26T11:14:36Z</time>
      </trkpt>
      <trkpt lat="43.80434" lon="6.39493">
        <ele>1179.4</ele>
        <time>2016-10-26T11:14:40Z</time>
      </trkpt>
      <trkpt lat="43.8044" lon="6.39506">
        <ele>1178</ele>
        <time>2016-10-26T11:14:44Z</time>
      </trkpt>
      <trkpt lat="43.80451" lon="6.39513">
        <ele>1176.7</ele>
        <time>2016-10-26T11:14:47Z</time>
      </trkpt>
      <trkpt lat="43.80459" lon="6.39519">
        <ele>1175.7</ele>
        <time>2016-10-26T11:14:49Z</time>
      </trkpt>
      <trkpt lat="43.80468" lon="6.39523">
        <ele>1174.6</ele>
        <time>2016-10-26T11:14:51Z</time>
      </trkpt>
      <trkpt lat="43.80478" lon="6.39536">
        <ele>1173.1</ele>
        <time>2016-10-26T11:14:54Z</time>
      </trkpt>
      <trkpt lat="43.80485" lon="6.39543">
        <ele>1172.1</ele>
        <time>2016-10-26T11:14:56Z</time>
      </trkpt>
      <trkpt lat="43.80494" lon="6.39546">
        <ele>1171.2</ele>
        <time>2016-10-26T11:14:58Z</time>
      </trkpt>
      <trkpt lat="43.80502" lon="6.39555">
        <ele>1170.1</ele>
        <time>2016-10-26T11:15:00Z</time>
      </trkpt>
      <trkpt lat="43.80507" lon="6.39567">
        <ele>1169</ele>
        <time>2016-10-26T11:15:02Z</time>
      </trkpt>
      <trkpt lat="43.80514" lon="6.39581">
        <ele>1167.3</ele>
        <time>2016-10-26T11:15:05Z</time>
      </trkpt>
      <trkpt lat="43.80519" lon="6.39593">
        <ele>1165.2</ele>
        <time>2016-10-26T11:15:09Z</time>
      </trkpt>
      <trkpt lat="43.80508" lon="6.39586">
        <ele>1160.8</ele>
        <time>2016-10-26T11:15:20Z</time>
      </trkpt>
      <trkpt lat="43.80502" lon="6.39598">
        <ele>1159</ele>
        <time>2016-10-26T11:15:25Z</time>
      </trkpt>
      <trkpt lat="43.80507" lon="6.39612">
        <ele>1157.9</ele>
        <time>2016-10-26T11:15:28Z</time>
      </trkpt>
      <trkpt lat="43.80514" lon="6.39622">
        <ele>1156.9</ele>
        <time>2016-10-26T11:15:30Z</time>
      </trkpt>
      <trkpt lat="43.80521" lon="6.39636">
        <ele>1156</ele>
        <time>2016-10-26T11:15:32Z</time>
      </trkpt>
      <trkpt lat="43.80527" lon="6.39649">
        <ele>1154.8</ele>
        <time>2016-10-26T11:15:34Z</time>
      </trkpt>
      <trkpt lat="43.80532" lon="6.39663">
        <ele>1153.6</ele>
        <time>2016-10-26T11:15:36Z</time>
      </trkpt>
      <trkpt lat="43.80536" lon="6.39678">
        <ele>1152.2</ele>
        <time>2016-10-26T11:15:38Z</time>
      </trkpt>
      <trkpt lat="43.8054" lon="6.39694">
        <ele>1150.8</ele>
        <time>2016-10-26T11:15:40Z</time>
      </trkpt>
      <trkpt lat="43.80544" lon="6.39712">
        <ele>1149.3</ele>
        <time>2016-10-26T11:15:42Z</time>
      </trkpt>
      <trkpt lat="43.80547" lon="6.39728">
        <ele>1147.9</ele>
        <time>2016-10-26T11:15:44Z</time>
      </trkpt>
      <trkpt lat="43.8055" lon="6.39744">
        <ele>1146.6</ele>
        <time>2016-10-26T11:15:46Z</time>
      </trkpt>
      <trkpt lat="43.80551" lon="6.3976">
        <ele>1145.2</ele>
        <time>2016-10-26T11:15:48Z</time>
      </trkpt>
      <trkpt lat="43.80551" lon="6.39777">
        <ele>1143.5</ele>
        <time>2016-10-26T11:15:50Z</time>
      </trkpt>
      <trkpt lat="43.8055" lon="6.39794">
        <ele>1142</ele>
        <time>2016-10-26T11:15:52Z</time>
      </trkpt>
      <trkpt lat="43.80549" lon="6.39812">
        <ele>1140.5</ele>
        <time>2016-10-26T11:15:54Z</time>
      </trkpt>
      <trkpt lat="43.80546" lon="6.39827">
        <ele>1138.9</ele>
        <time>2016-10-26T11:15:56Z</time>
      </trkpt>
      <trkpt lat="43.80542" lon="6.39843">
        <ele>1137.3</ele>
        <time>2016-10-26T11:15:58Z</time>
      </trkpt>
      <trkpt lat="43.80538" lon="6.3986">
        <ele>1135.6</ele>
        <time>2016-10-26T11:16:00Z</time>
      </trkpt>
      <trkpt lat="43.80535" lon="6.39876">
        <ele>1133.7</ele>
        <time>2016-10-26T11:16:02Z</time>
      </trkpt>
      <trkpt lat="43.80533" lon="6.39889">
        <ele>1131.8</ele>
        <time>2016-10-26T11:16:04Z</time>
      </trkpt>
      <trkpt lat="43.80529" lon="6.39903">
        <ele>1129</ele>
        <time>2016-10-26T11:16:07Z</time>
      </trkpt>
      <trkpt lat="43.80522" lon="6.39916">
        <ele>1125.6</ele>
        <time>2016-10-26T11:16:11Z</time>
      </trkpt>
      <trkpt lat="43.80517" lon="6.39926">
        <ele>1123.3</ele>
        <time>2016-10-26T11:16:14Z</time>
      </trkpt>
      <trkpt lat="43.80511" lon="6.39936">
        <ele>1120.7</ele>
        <time>2016-10-26T11:16:17Z</time>
      </trkpt>
      <trkpt lat="43.80504" lon="6.39948">
        <ele>1117</ele>
        <time>2016-10-26T11:16:21Z</time>
      </trkpt>
      <trkpt lat="43.80495" lon="6.39957">
        <ele>1114.2</ele>
        <time>2016-10-26T11:16:24Z</time>
      </trkpt>
      <trkpt lat="43.80486" lon="6.39967">
        <ele>1110.4</ele>
        <time>2016-10-26T11:16:28Z</time>
      </trkpt>
      <trkpt lat="43.80478" lon="6.39974">
        <ele>1107.8</ele>
        <time>2016-10-26T11:16:31Z</time>
      </trkpt>
      <trkpt lat="43.80469" lon="6.3998">
        <ele>1104.5</ele>
        <time>2016-10-26T11:16:35Z</time>
      </trkpt>
      <trkpt lat="43.8046" lon="6.39985">
        <ele>1096.3</ele>
        <time>2016-10-26T11:16:46Z</time>
      </trkpt>
      <trkpt lat="43.80452" lon="6.39991">
        <ele>1093.8</ele>
        <time>2016-10-26T11:16:50Z</time>
      </trkpt>
      <trkpt lat="43.80443" lon="6.4">
        <ele>1091</ele>
        <time>2016-10-26T11:16:54Z</time>
      </trkpt>
      <trkpt lat="43.80433" lon="6.40006">
        <ele>1086.7</ele>
        <time>2016-10-26T11:17:01Z</time>
      </trkpt>
      <trkpt lat="43.80426" lon="6.40014">
        <ele>1084.2</ele>
        <time>2016-10-26T11:17:05Z</time>
      </trkpt>
      <trkpt lat="43.80417" lon="6.40019">
        <ele>1081.6</ele>
        <time>2016-10-26T11:17:09Z</time>
      </trkpt>
      <trkpt lat="43.80408" lon="6.40025">
        <ele>1078.9</ele>
        <time>2016-10-26T11:17:13Z</time>
      </trkpt>
      <trkpt lat="43.80398" lon="6.40032">
        <ele>1076.2</ele>
        <time>2016-10-26T11:17:17Z</time>
      </trkpt>
      <trkpt lat="43.8039" lon="6.40039">
        <ele>1073.9</ele>
        <time>2016-10-26T11:17:21Z</time>
      </trkpt>
      <trkpt lat="43.80379" lon="6.40044">
        <ele>1071.8</ele>
        <time>2016-10-26T11:17:25Z</time>
      </trkpt>
      <trkpt lat="43.8037" lon="6.40048">
        <ele>1069.7</ele>
        <time>2016-10-26T11:17:29Z</time>
      </trkpt>
      <trkpt lat="43.80361" lon="6.40039">
        <ele>1066.9</ele>
        <time>2016-10-26T11:17:35Z</time>
      </trkpt>
      <trkpt lat="43.80352" lon="6.40026">
        <ele>1065.5</ele>
        <time>2016-10-26T11:17:38Z</time>
      </trkpt>
      <trkpt lat="43.80343" lon="6.40026">
        <ele>1064.1</ele>
        <time>2016-10-26T11:17:41Z</time>
      </trkpt>
      <trkpt lat="43.80335" lon="6.40041">
        <ele>1062.5</ele>
        <time>2016-10-26T11:17:44Z</time>
      </trkpt>
      <trkpt lat="43.8033" lon="6.40053">
        <ele>1061.4</ele>
        <time>2016-10-26T11:17:46Z</time>
      </trkpt>
      <trkpt lat="43.80322" lon="6.40067">
        <ele>1060.2</ele>
        <time>2016-10-26T11:17:48Z</time>
      </trkpt>
      <trkpt lat="43.80317" lon="6.40079">
        <ele>1059</ele>
        <time>2016-10-26T11:17:50Z</time>
      </trkpt>
      <trkpt lat="43.80313" lon="6.40091">
        <ele>1057.2</ele>
        <time>2016-10-26T11:17:53Z</time>
      </trkpt>
      <trkpt lat="43.80312" lon="6.40104">
        <ele>1055.3</ele>
        <time>2016-10-26T11:17:56Z</time>
      </trkpt>
      <trkpt lat="43.80309" lon="6.4012">
        <ele>1053.5</ele>
        <time>2016-10-26T11:17:59Z</time>
      </trkpt>
      <trkpt lat="43.80299" lon="6.40129">
        <ele>1051.7</ele>
        <time>2016-10-26T11:18:02Z</time>
      </trkpt>
      <trkpt lat="43.80289" lon="6.40136">
        <ele>1049.8</ele>
        <time>2016-10-26T11:18:05Z</time>
      </trkpt>
      <trkpt lat="43.80281" lon="6.40125">
        <ele>1047.8</ele>
        <time>2016-10-26T11:18:08Z</time>
      </trkpt>
      <trkpt lat="43.80276" lon="6.4011">
        <ele>1045.8</ele>
        <time>2016-10-26T11:18:11Z</time>
      </trkpt>
      <trkpt lat="43.80271" lon="6.40096">
        <ele>1043.4</ele>
        <time>2016-10-26T11:18:14Z</time>
      </trkpt>
      <trkpt lat="43.80267" lon="6.40082">
        <ele>1041.3</ele>
        <time>2016-10-26T11:18:17Z</time>
      </trkpt>
      <trkpt lat="43.80263" lon="6.40067">
        <ele>1039.3</ele>
        <time>2016-10-26T11:18:20Z</time>
      </trkpt>
      <trkpt lat="43.80259" lon="6.40053">
        <ele>1037.4</ele>
        <time>2016-10-26T11:18:23Z</time>
      </trkpt>
      <trkpt lat="43.80249" lon="6.40052">
        <ele>1035.1</ele>
        <time>2016-10-26T11:18:27Z</time>
      </trkpt>
      <trkpt lat="43.80238" lon="6.40059">
        <ele>1033.3</ele>
        <time>2016-10-26T11:18:30Z</time>
      </trkpt>
      <trkpt lat="43.8023" lon="6.40066">
        <ele>1032.1</ele>
        <time>2016-10-26T11:18:32Z</time>
      </trkpt>
      <trkpt lat="43.80221" lon="6.40073">
        <ele>1030.8</ele>
        <time>2016-10-26T11:18:34Z</time>
      </trkpt>
      <trkpt lat="43.80211" lon="6.40081">
        <ele>1029.1</ele>
        <time>2016-10-26T11:18:37Z</time>
      </trkpt>
      <trkpt lat="43.80201" lon="6.40088">
        <ele>1027.4</ele>
        <time>2016-10-26T11:18:40Z</time>
      </trkpt>
      <trkpt lat="43.80192" lon="6.40093">
        <ele>1025.5</ele>
        <time>2016-10-26T11:18:43Z</time>
      </trkpt>
      <trkpt lat="43.80182" lon="6.40098">
        <ele>1023.2</ele>
        <time>2016-10-26T11:18:47Z</time>
      </trkpt>
      <trkpt lat="43.80172" lon="6.401">
        <ele>1021.3</ele>
        <time>2016-10-26T11:18:50Z</time>
      </trkpt>
      <trkpt lat="43.80162" lon="6.40104">
        <ele>1019.7</ele>
        <time>2016-10-26T11:18:53Z</time>
      </trkpt>
      <trkpt lat="43.80151" lon="6.4011">
        <ele>1017.4</ele>
        <time>2016-10-26T11:18:56Z</time>
      </trkpt>
      <trkpt lat="43.80138" lon="6.40113">
        <ele>1015.6</ele>
        <time>2016-10-26T11:18:59Z</time>
      </trkpt>
      <trkpt lat="43.80129" lon="6.40113">
        <ele>1013.7</ele>
        <time>2016-10-26T11:19:02Z</time>
      </trkpt>
      <trkpt lat="43.8012" lon="6.40108">
        <ele>1011.4</ele>
        <time>2016-10-26T11:19:06Z</time>
      </trkpt>
      <trkpt lat="43.80111" lon="6.40115">
        <ele>1009.2</ele>
        <time>2016-10-26T11:19:10Z</time>
      </trkpt>
      <trkpt lat="43.80102" lon="6.40121">
        <ele>1007.6</ele>
        <time>2016-10-26T11:19:14Z</time>
      </trkpt>
      <trkpt lat="43.80092" lon="6.40123">
        <ele>1005.3</ele>
        <time>2016-10-26T11:19:18Z</time>
      </trkpt>
      <trkpt lat="43.8008" lon="6.40121">
        <ele>1003.6</ele>
        <time>2016-10-26T11:19:21Z</time>
      </trkpt>
      <trkpt lat="43.8007" lon="6.40119">
        <ele>1002.3</ele>
        <time>2016-10-26T11:19:23Z</time>
      </trkpt>
      <trkpt lat="43.8006" lon="6.40117">
        <ele>1001.1</ele>
        <time>2016-10-26T11:19:25Z</time>
      </trkpt>
      <trkpt lat="43.80047" lon="6.40115">
        <ele>998.5</ele>
        <time>2016-10-26T11:19:28Z</time>
      </trkpt>
      <trkpt lat="43.80037" lon="6.40115">
        <ele>997.2</ele>
        <time>2016-10-26T11:19:30Z</time>
      </trkpt>
      <trkpt lat="43.80025" lon="6.40115">
        <ele>995.6</ele>
        <time>2016-10-26T11:19:32Z</time>
      </trkpt>
      <trkpt lat="43.80014" lon="6.40114">
        <ele>993.6</ele>
        <time>2016-10-26T11:19:34Z</time>
      </trkpt>
      <trkpt lat="43.80004" lon="6.40117">
        <ele>991.7</ele>
        <time>2016-10-26T11:19:36Z</time>
      </trkpt>
      <trkpt lat="43.79995" lon="6.40124">
        <ele>989.8</ele>
        <time>2016-10-26T11:19:38Z</time>
      </trkpt>
      <trkpt lat="43.79987" lon="6.40135">
        <ele>988.1</ele>
        <time>2016-10-26T11:19:40Z</time>
      </trkpt>
      <trkpt lat="43.79982" lon="6.40147">
        <ele>986.2</ele>
        <time>2016-10-26T11:19:42Z</time>
      </trkpt>
      <trkpt lat="43.79975" lon="6.40158">
        <ele>984.4</ele>
        <time>2016-10-26T11:19:44Z</time>
      </trkpt>
      <trkpt lat="43.79966" lon="6.40166">
        <ele>982.6</ele>
        <time>2016-10-26T11:19:46Z</time>
      </trkpt>
      <trkpt lat="43.79953" lon="6.4017">
        <ele>979.9</ele>
        <time>2016-10-26T11:19:49Z</time>
      </trkpt>
      <trkpt lat="43.79944" lon="6.40169">
        <ele>977</ele>
        <time>2016-10-26T11:19:52Z</time>
      </trkpt>
      <trkpt lat="43.79935" lon="6.40174">
        <ele>974.3</ele>
        <time>2016-10-26T11:19:55Z</time>
      </trkpt>
      <trkpt lat="43.79926" lon="6.40175">
        <ele>969.5</ele>
        <time>2016-10-26T11:20:01Z</time>
      </trkpt>
      <trkpt lat="43.7992" lon="6.40164">
        <ele>965</ele>
        <time>2016-10-26T11:20:10Z</time>
      </trkpt>
      <trkpt lat="43.79923" lon="6.4015">
        <ele>963.3</ele>
        <time>2016-10-26T11:20:15Z</time>
      </trkpt>
      <trkpt lat="43.79923" lon="6.40136">
        <ele>958.2</ele>
        <time>2016-10-26T11:20:37Z</time>
      </trkpt>
      <trkpt lat="43.79924" lon="6.40123">
        <ele>957.7</ele>
        <time>2016-10-26T11:20:39Z</time>
      </trkpt>
      <trkpt lat="43.79924" lon="6.40111">
        <ele>955.7</ele>
        <time>2016-10-26T11:20:46Z</time>
      </trkpt>
      <trkpt lat="43.79927" lon="6.40097">
        <ele>950.7</ele>
        <time>2016-10-26T11:22:12Z</time>
      </trkpt>
      <trkpt lat="43.79923" lon="6.4011">
        <ele>949.5</ele>
        <time>2016-10-26T11:22:32Z</time>
      </trkpt>
      <trkpt lat="43.79921" lon="6.40126">
        <ele>949.6</ele>
        <time>2016-10-26T11:22:37Z</time>
      </trkpt>
      <trkpt lat="43.7992" lon="6.40138">
        <ele>950</ele>
        <time>2016-10-26T11:22:42Z</time>
      </trkpt>
      <trkpt lat="43.79918" lon="6.40152">
        <ele>950.6</ele>
        <time>2016-10-26T11:22:48Z</time>
      </trkpt>
      <trkpt lat="43.79913" lon="6.40164">
        <ele>951.7</ele>
        <time>2016-10-26T11:22:53Z</time>
      </trkpt>
      <trkpt lat="43.79909" lon="6.40175">
        <ele>952.3</ele>
        <time>2016-10-26T11:22:57Z</time>
      </trkpt>
      <trkpt lat="43.79905" lon="6.4019">
        <ele>952.8</ele>
        <time>2016-10-26T11:23:01Z</time>
      </trkpt>
      <trkpt lat="43.79906" lon="6.40204">
        <ele>953.1</ele>
        <time>2016-10-26T11:23:05Z</time>
      </trkpt>
      <trkpt lat="43.79902" lon="6.40219">
        <ele>953.4</ele>
        <time>2016-10-26T11:23:09Z</time>
      </trkpt>
      <trkpt lat="43.79899" lon="6.40232">
        <ele>953.6</ele>
        <time>2016-10-26T11:23:13Z</time>
      </trkpt>
      <trkpt lat="43.79908" lon="6.40241">
        <ele>955.5</ele>
        <time>2016-10-26T11:23:28Z</time>
      </trkpt>
      <trkpt lat="43.79916" lon="6.40251">
        <ele>955.7</ele>
        <time>2016-10-26T11:23:31Z</time>
      </trkpt>
      <trkpt lat="43.79923" lon="6.40261">
        <ele>955.7</ele>
        <time>2016-10-26T11:23:34Z</time>
      </trkpt>
      <trkpt lat="43.79932" lon="6.40267">
        <ele>955.7</ele>
        <time>2016-10-26T11:23:37Z</time>
      </trkpt>
      <trkpt lat="43.79942" lon="6.40268">
        <ele>955.8</ele>
        <time>2016-10-26T11:23:40Z</time>
      </trkpt>
      <trkpt lat="43.79951" lon="6.40268">
        <ele>956.1</ele>
        <time>2016-10-26T11:23:43Z</time>
      </trkpt>
      <trkpt lat="43.79961" lon="6.40273">
        <ele>956.6</ele>
        <time>2016-10-26T11:23:46Z</time>
      </trkpt>
      <trkpt lat="43.79972" lon="6.40279">
        <ele>957.1</ele>
        <time>2016-10-26T11:23:49Z</time>
      </trkpt>
      <trkpt lat="43.79979" lon="6.40288">
        <ele>957.5</ele>
        <time>2016-10-26T11:23:52Z</time>
      </trkpt>
      <trkpt lat="43.79987" lon="6.40298">
        <ele>957.9</ele>
        <time>2016-10-26T11:23:56Z</time>
      </trkpt>
      <trkpt lat="43.79993" lon="6.40309">
        <ele>958.3</ele>
        <time>2016-10-26T11:24:01Z</time>
      </trkpt>
      <trkpt lat="43.8" lon="6.40317">
        <ele>958.8</ele>
        <time>2016-10-26T11:24:06Z</time>
      </trkpt>
      <trkpt lat="43.80009" lon="6.40322">
        <ele>959.2</ele>
        <time>2016-10-26T11:24:11Z</time>
      </trkpt>
      <trkpt lat="43.8002" lon="6.40325">
        <ele>960.2</ele>
        <time>2016-10-26T11:24:17Z</time>
      </trkpt>
      <trkpt lat="43.80031" lon="6.40322">
        <ele>960.9</ele>
        <time>2016-10-26T11:24:21Z</time>
      </trkpt>
      <trkpt lat="43.80041" lon="6.40316">
        <ele>961.3</ele>
        <time>2016-10-26T11:24:25Z</time>
      </trkpt>
      <trkpt lat="43.80051" lon="6.40307">
        <ele>961.5</ele>
        <time>2016-10-26T11:24:29Z</time>
      </trkpt>
      <trkpt lat="43.80063" lon="6.40302">
        <ele>961.3</ele>
        <time>2016-10-26T11:24:32Z</time>
      </trkpt>
      <trkpt lat="43.80073" lon="6.40303">
        <ele>961.1</ele>
        <time>2016-10-26T11:24:34Z</time>
      </trkpt>
      <trkpt lat="43.80081" lon="6.40309">
        <ele>961</ele>
        <time>2016-10-26T11:24:36Z</time>
      </trkpt>
      <trkpt lat="43.80089" lon="6.40316">
        <ele>960.8</ele>
        <time>2016-10-26T11:24:38Z</time>
      </trkpt>
      <trkpt lat="43.80098" lon="6.40326">
        <ele>960.5</ele>
        <time>2016-10-26T11:24:41Z</time>
      </trkpt>
      <trkpt lat="43.80106" lon="6.40335">
        <ele>960.3</ele>
        <time>2016-10-26T11:24:44Z</time>
      </trkpt>
      <trkpt lat="43.80114" lon="6.40343">
        <ele>960.1</ele>
        <time>2016-10-26T11:24:47Z</time>
      </trkpt>
      <trkpt lat="43.80122" lon="6.40352">
        <ele>960</ele>
        <time>2016-10-26T11:24:50Z</time>
      </trkpt>
      <trkpt lat="43.8013" lon="6.40362">
        <ele>959.9</ele>
        <time>2016-10-26T11:24:53Z</time>
      </trkpt>
      <trkpt lat="43.80134" lon="6.40377">
        <ele>959.7</ele>
        <time>2016-10-26T11:24:56Z</time>
      </trkpt>
      <trkpt lat="43.80135" lon="6.40393">
        <ele>959.6</ele>
        <time>2016-10-26T11:24:59Z</time>
      </trkpt>
      <trkpt lat="43.80135" lon="6.40407">
        <ele>959.5</ele>
        <time>2016-10-26T11:25:02Z</time>
      </trkpt>
      <trkpt lat="43.80132" lon="6.40421">
        <ele>959.6</ele>
        <time>2016-10-26T11:25:05Z</time>
      </trkpt>
      <trkpt lat="43.80129" lon="6.40439">
        <ele>959.7</ele>
        <time>2016-10-26T11:25:08Z</time>
      </trkpt>
      <trkpt lat="43.80127" lon="6.40452">
        <ele>959.7</ele>
        <time>2016-10-26T11:25:10Z</time>
      </trkpt>
      <trkpt lat="43.80124" lon="6.40469">
        <ele>959.8</ele>
        <time>2016-10-26T11:25:13Z</time>
      </trkpt>
      <trkpt lat="43.80122" lon="6.40486">
        <ele>959.7</ele>
        <time>2016-10-26T11:25:16Z</time>
      </trkpt>
      <trkpt lat="43.8012" lon="6.40499">
        <ele>959.6</ele>
        <time>2016-10-26T11:25:19Z</time>
      </trkpt>
      <trkpt lat="43.80118" lon="6.40515">
        <ele>959.5</ele>
        <time>2016-10-26T11:25:23Z</time>
      </trkpt>
      <trkpt lat="43.80114" lon="6.40528">
        <ele>959.5</ele>
        <time>2016-10-26T11:25:27Z</time>
      </trkpt>
      <trkpt lat="43.80111" lon="6.4054">
        <ele>959.7</ele>
        <time>2016-10-26T11:25:31Z</time>
      </trkpt>
      <trkpt lat="43.80109" lon="6.40553">
        <ele>960.8</ele>
        <time>2016-10-26T11:25:36Z</time>
      </trkpt>
      <trkpt lat="43.80104" lon="6.40568">
        <ele>961.8</ele>
        <time>2016-10-26T11:25:41Z</time>
      </trkpt>
      <trkpt lat="43.80104" lon="6.40581">
        <ele>962.3</ele>
        <time>2016-10-26T11:25:44Z</time>
      </trkpt>
      <trkpt lat="43.80109" lon="6.40593">
        <ele>962.8</ele>
        <time>2016-10-26T11:25:47Z</time>
      </trkpt>
      <trkpt lat="43.80116" lon="6.40601">
        <ele>963.3</ele>
        <time>2016-10-26T11:25:50Z</time>
      </trkpt>
      <trkpt lat="43.80125" lon="6.40607">
        <ele>963.6</ele>
        <time>2016-10-26T11:25:53Z</time>
      </trkpt>
      <trkpt lat="43.80133" lon="6.40611">
        <ele>963.9</ele>
        <time>2016-10-26T11:25:56Z</time>
      </trkpt>
      <trkpt lat="43.80143" lon="6.40614">
        <ele>964.2</ele>
        <time>2016-10-26T11:26:00Z</time>
      </trkpt>
      <trkpt lat="43.80153" lon="6.40615">
        <ele>964.5</ele>
        <time>2016-10-26T11:26:04Z</time>
      </trkpt>
      <trkpt lat="43.80164" lon="6.40619">
        <ele>964.7</ele>
        <time>2016-10-26T11:26:08Z</time>
      </trkpt>
      <trkpt lat="43.80173" lon="6.40628">
        <ele>964.9</ele>
        <time>2016-10-26T11:26:12Z</time>
      </trkpt>
      <trkpt lat="43.80176" lon="6.40641">
        <ele>965</ele>
        <time>2016-10-26T11:26:15Z</time>
      </trkpt>
      <trkpt lat="43.80173" lon="6.40653">
        <ele>965</ele>
        <time>2016-10-26T11:26:18Z</time>
      </trkpt>
      <trkpt lat="43.80169" lon="6.4067">
        <ele>964.8</ele>
        <time>2016-10-26T11:26:21Z</time>
      </trkpt>
      <trkpt lat="43.80169" lon="6.40683">
        <ele>964.6</ele>
        <time>2016-10-26T11:26:23Z</time>
      </trkpt>
      <trkpt lat="43.8017" lon="6.40696">
        <ele>964.4</ele>
        <time>2016-10-26T11:26:25Z</time>
      </trkpt>
      <trkpt lat="43.80171" lon="6.40709">
        <ele>964.1</ele>
        <time>2016-10-26T11:26:27Z</time>
      </trkpt>
      <trkpt lat="43.80172" lon="6.40723">
        <ele>964</ele>
        <time>2016-10-26T11:26:29Z</time>
      </trkpt>
      <trkpt lat="43.80173" lon="6.40737">
        <ele>963.8</ele>
        <time>2016-10-26T11:26:31Z</time>
      </trkpt>
      <trkpt lat="43.80175" lon="6.40749">
        <ele>963.7</ele>
        <time>2016-10-26T11:26:33Z</time>
      </trkpt>
      <trkpt lat="43.80176" lon="6.40762">
        <ele>963.6</ele>
        <time>2016-10-26T11:26:35Z</time>
      </trkpt>
      <trkpt lat="43.80178" lon="6.40775">
        <ele>963.4</ele>
        <time>2016-10-26T11:26:37Z</time>
      </trkpt>
      <trkpt lat="43.8018" lon="6.40789">
        <ele>963.2</ele>
        <time>2016-10-26T11:26:39Z</time>
      </trkpt>
      <trkpt lat="43.8018" lon="6.40803">
        <ele>963</ele>
        <time>2016-10-26T11:26:41Z</time>
      </trkpt>
      <trkpt lat="43.8018" lon="6.40816">
        <ele>962.9</ele>
        <time>2016-10-26T11:26:43Z</time>
      </trkpt>
      <trkpt lat="43.8018" lon="6.40832">
        <ele>962.6</ele>
        <time>2016-10-26T11:26:46Z</time>
      </trkpt>
      <trkpt lat="43.8018" lon="6.40846">
        <ele>962.4</ele>
        <time>2016-10-26T11:26:49Z</time>
      </trkpt>
      <trkpt lat="43.80183" lon="6.40865">
        <ele>961.9</ele>
        <time>2016-10-26T11:26:52Z</time>
      </trkpt>
      <trkpt lat="43.80185" lon="6.4088">
        <ele>961.4</ele>
        <time>2016-10-26T11:26:54Z</time>
      </trkpt>
      <trkpt lat="43.80188" lon="6.40896">
        <ele>960.6</ele>
        <time>2016-10-26T11:26:56Z</time>
      </trkpt>
      <trkpt lat="43.80191" lon="6.40911">
        <ele>960.1</ele>
        <time>2016-10-26T11:26:58Z</time>
      </trkpt>
      <trkpt lat="43.80195" lon="6.40925">
        <ele>959.6</ele>
        <time>2016-10-26T11:27:00Z</time>
      </trkpt>
      <trkpt lat="43.80199" lon="6.40939">
        <ele>959.1</ele>
        <time>2016-10-26T11:27:02Z</time>
      </trkpt>
      <trkpt lat="43.80204" lon="6.40953">
        <ele>958.7</ele>
        <time>2016-10-26T11:27:04Z</time>
      </trkpt>
      <trkpt lat="43.8021" lon="6.40967">
        <ele>958.3</ele>
        <time>2016-10-26T11:27:06Z</time>
      </trkpt>
      <trkpt lat="43.80216" lon="6.40977">
        <ele>957.9</ele>
        <time>2016-10-26T11:27:08Z</time>
      </trkpt>
      <trkpt lat="43.80226" lon="6.40988">
        <ele>957.5</ele>
        <time>2016-10-26T11:27:11Z</time>
      </trkpt>
      <trkpt lat="43.80232" lon="6.41">
        <ele>957.3</ele>
        <time>2016-10-26T11:27:14Z</time>
      </trkpt>
      <trkpt lat="43.8023" lon="6.41017">
        <ele>957.2</ele>
        <time>2016-10-26T11:27:17Z</time>
      </trkpt>
      <trkpt lat="43.80231" lon="6.41031">
        <ele>957.1</ele>
        <time>2016-10-26T11:27:19Z</time>
      </trkpt>
      <trkpt lat="43.80234" lon="6.41043">
        <ele>957</ele>
        <time>2016-10-26T11:27:21Z</time>
      </trkpt>
      <trkpt lat="43.80238" lon="6.41055">
        <ele>956.8</ele>
        <time>2016-10-26T11:27:23Z</time>
      </trkpt>
      <trkpt lat="43.80244" lon="6.41065">
        <ele>956.6</ele>
        <time>2016-10-26T11:27:25Z</time>
      </trkpt>
      <trkpt lat="43.8025" lon="6.41078">
        <ele>956.3</ele>
        <time>2016-10-26T11:27:28Z</time>
      </trkpt>
      <trkpt lat="43.80247" lon="6.41093">
        <ele>955.9</ele>
        <time>2016-10-26T11:27:32Z</time>
      </trkpt>
      <trkpt lat="43.80239" lon="6.41103">
        <ele>955.8</ele>
        <time>2016-10-26T11:27:36Z</time>
      </trkpt>
      <trkpt lat="43.80231" lon="6.41113">
        <ele>955.9</ele>
        <time>2016-10-26T11:27:40Z</time>
      </trkpt>
      <trkpt lat="43.80227" lon="6.41125">
        <ele>956</ele>
        <time>2016-10-26T11:27:44Z</time>
      </trkpt>
      <trkpt lat="43.80227" lon="6.41139">
        <ele>956.1</ele>
        <time>2016-10-26T11:27:50Z</time>
      </trkpt>
      <trkpt lat="43.80229" lon="6.41151">
        <ele>956.9</ele>
        <time>2016-10-26T11:27:56Z</time>
      </trkpt>
      <trkpt lat="43.80231" lon="6.41165">
        <ele>958.5</ele>
        <time>2016-10-26T11:28:03Z</time>
      </trkpt>
      <trkpt lat="43.80231" lon="6.41178">
        <ele>959.6</ele>
        <time>2016-10-26T11:28:09Z</time>
      </trkpt>
      <trkpt lat="43.80228" lon="6.4119">
        <ele>960.4</ele>
        <time>2016-10-26T11:28:15Z</time>
      </trkpt>
      <trkpt lat="43.80223" lon="6.41201">
        <ele>961.2</ele>
        <time>2016-10-26T11:28:21Z</time>
      </trkpt>
      <trkpt lat="43.8022" lon="6.41215">
        <ele>961.9</ele>
        <time>2016-10-26T11:28:28Z</time>
      </trkpt>
      <trkpt lat="43.80219" lon="6.41227">
        <ele>962.4</ele>
        <time>2016-10-26T11:28:34Z</time>
      </trkpt>
      <trkpt lat="43.80217" lon="6.41241">
        <ele>962.8</ele>
        <time>2016-10-26T11:28:40Z</time>
      </trkpt>
      <trkpt lat="43.80215" lon="6.41254">
        <ele>963.4</ele>
        <time>2016-10-26T11:28:46Z</time>
      </trkpt>
      <trkpt lat="43.80213" lon="6.41266">
        <ele>964.3</ele>
        <time>2016-10-26T11:28:52Z</time>
      </trkpt>
      <trkpt lat="43.80211" lon="6.4128">
        <ele>965.2</ele>
        <time>2016-10-26T11:28:58Z</time>
      </trkpt>
      <trkpt lat="43.80209" lon="6.41292">
        <ele>966.3</ele>
        <time>2016-10-26T11:29:04Z</time>
      </trkpt>
      <trkpt lat="43.80206" lon="6.41306">
        <ele>967.9</ele>
        <time>2016-10-26T11:29:11Z</time>
      </trkpt>
      <trkpt lat="43.80203" lon="6.41318">
        <ele>968.9</ele>
        <time>2016-10-26T11:29:17Z</time>
      </trkpt>
      <trkpt lat="43.802" lon="6.41332">
        <ele>970.1</ele>
        <time>2016-10-26T11:29:24Z</time>
      </trkpt>
      <trkpt lat="43.80198" lon="6.41345">
        <ele>971.2</ele>
        <time>2016-10-26T11:29:30Z</time>
      </trkpt>
      <trkpt lat="43.80197" lon="6.41359">
        <ele>972.7</ele>
        <time>2016-10-26T11:29:37Z</time>
      </trkpt>
      <trkpt lat="43.80195" lon="6.41373">
        <ele>974.3</ele>
        <time>2016-10-26T11:29:45Z</time>
      </trkpt>
      <trkpt lat="43.8019" lon="6.41385">
        <ele>975.4</ele>
        <time>2016-10-26T11:29:52Z</time>
      </trkpt>
      <trkpt lat="43.80181" lon="6.41388">
        <ele>976.2</ele>
        <time>2016-10-26T11:29:59Z</time>
      </trkpt>
      <trkpt lat="43.80172" lon="6.41391">
        <ele>976.7</ele>
        <time>2016-10-26T11:30:05Z</time>
      </trkpt>
      <trkpt lat="43.80163" lon="6.41393">
        <ele>977.4</ele>
        <time>2016-10-26T11:30:11Z</time>
      </trkpt>
      <trkpt lat="43.80155" lon="6.41401">
        <ele>978.5</ele>
        <time>2016-10-26T11:30:18Z</time>
      </trkpt>
      <trkpt lat="43.80148" lon="6.41412">
        <ele>980.2</ele>
        <time>2016-10-26T11:30:25Z</time>
      </trkpt>
      <trkpt lat="43.80141" lon="6.41421">
        <ele>981.6</ele>
        <time>2016-10-26T11:30:31Z</time>
      </trkpt>
      <trkpt lat="43.80137" lon="6.41432">
        <ele>982.7</ele>
        <time>2016-10-26T11:30:37Z</time>
      </trkpt>
      <trkpt lat="43.80134" lon="6.41445">
        <ele>984.4</ele>
        <time>2016-10-26T11:30:44Z</time>
      </trkpt>
      <trkpt lat="43.80132" lon="6.41459">
        <ele>985.7</ele>
        <time>2016-10-26T11:30:51Z</time>
      </trkpt>
      <trkpt lat="43.8013" lon="6.41471">
        <ele>986.9</ele>
        <time>2016-10-26T11:30:58Z</time>
      </trkpt>
      <trkpt lat="43.80129" lon="6.41484">
        <ele>988.4</ele>
        <time>2016-10-26T11:31:05Z</time>
      </trkpt>
      <trkpt lat="43.80127" lon="6.41498">
        <ele>989.6</ele>
        <time>2016-10-26T11:31:12Z</time>
      </trkpt>
      <trkpt lat="43.80124" lon="6.4151">
        <ele>990.8</ele>
        <time>2016-10-26T11:31:18Z</time>
      </trkpt>
      <trkpt lat="43.80118" lon="6.41521">
        <ele>991.7</ele>
        <time>2016-10-26T11:31:24Z</time>
      </trkpt>
      <trkpt lat="43.8011" lon="6.41531">
        <ele>992.4</ele>
        <time>2016-10-26T11:31:30Z</time>
      </trkpt>
      <trkpt lat="43.80103" lon="6.41541">
        <ele>993</ele>
        <time>2016-10-26T11:31:35Z</time>
      </trkpt>
      <trkpt lat="43.80095" lon="6.41553">
        <ele>993.8</ele>
        <time>2016-10-26T11:31:40Z</time>
      </trkpt>
      <trkpt lat="43.80088" lon="6.41564">
        <ele>994.6</ele>
        <time>2016-10-26T11:31:44Z</time>
      </trkpt>
      <trkpt lat="43.80077" lon="6.41573">
        <ele>995.4</ele>
        <time>2016-10-26T11:31:48Z</time>
      </trkpt>
      <trkpt lat="43.80068" lon="6.41577">
        <ele>996.2</ele>
        <time>2016-10-26T11:31:51Z</time>
      </trkpt>
      <trkpt lat="43.80058" lon="6.4158">
        <ele>996.8</ele>
        <time>2016-10-26T11:31:54Z</time>
      </trkpt>
      <trkpt lat="43.80047" lon="6.41584">
        <ele>997.3</ele>
        <time>2016-10-26T11:31:58Z</time>
      </trkpt>
      <trkpt lat="43.80039" lon="6.41588">
        <ele>997.6</ele>
        <time>2016-10-26T11:32:01Z</time>
      </trkpt>
      <trkpt lat="43.8003" lon="6.41592">
        <ele>997.8</ele>
        <time>2016-10-26T11:32:04Z</time>
      </trkpt>
      <trkpt lat="43.80021" lon="6.41597">
        <ele>998.2</ele>
        <time>2016-10-26T11:32:07Z</time>
      </trkpt>
      <trkpt lat="43.80012" lon="6.41604">
        <ele>998.6</ele>
        <time>2016-10-26T11:32:10Z</time>
      </trkpt>
      <trkpt lat="43.80003" lon="6.41611">
        <ele>999.1</ele>
        <time>2016-10-26T11:32:13Z</time>
      </trkpt>
      <trkpt lat="43.79994" lon="6.41618">
        <ele>999.5</ele>
        <time>2016-10-26T11:32:16Z</time>
      </trkpt>
      <trkpt lat="43.79985" lon="6.41624">
        <ele>999.9</ele>
        <time>2016-10-26T11:32:19Z</time>
      </trkpt>
      <trkpt lat="43.79977" lon="6.41631">
        <ele>1000.8</ele>
        <time>2016-10-26T11:32:24Z</time>
      </trkpt>
      <trkpt lat="43.79969" lon="6.41637">
        <ele>1003.3</ele>
        <time>2016-10-26T11:32:53Z</time>
      </trkpt>
      <trkpt lat="43.79961" lon="6.41645">
        <ele>1002.9</ele>
        <time>2016-10-26T11:32:59Z</time>
      </trkpt>
      <trkpt lat="43.79952" lon="6.41653">
        <ele>1002.1</ele>
        <time>2016-10-26T11:33:04Z</time>
      </trkpt>
      <trkpt lat="43.79944" lon="6.41662">
        <ele>1000.8</ele>
        <time>2016-10-26T11:33:09Z</time>
      </trkpt>
      <trkpt lat="43.79937" lon="6.41672">
        <ele>999.9</ele>
        <time>2016-10-26T11:33:12Z</time>
      </trkpt>
      <trkpt lat="43.79928" lon="6.41684">
        <ele>999</ele>
        <time>2016-10-26T11:33:15Z</time>
      </trkpt>
      <trkpt lat="43.79921" lon="6.41697">
        <ele>997.6</ele>
        <time>2016-10-26T11:33:18Z</time>
      </trkpt>
      <trkpt lat="43.79912" lon="6.4171">
        <ele>996.1</ele>
        <time>2016-10-26T11:33:21Z</time>
      </trkpt>
      <trkpt lat="43.79903" lon="6.41724">
        <ele>994.1</ele>
        <time>2016-10-26T11:33:24Z</time>
      </trkpt>
      <trkpt lat="43.79895" lon="6.41735">
        <ele>992.1</ele>
        <time>2016-10-26T11:33:27Z</time>
      </trkpt>
      <trkpt lat="43.79886" lon="6.41742">
        <ele>989.7</ele>
        <time>2016-10-26T11:33:30Z</time>
      </trkpt>
      <trkpt lat="43.79877" lon="6.41747">
        <ele>985.2</ele>
        <time>2016-10-26T11:33:38Z</time>
      </trkpt>
      <trkpt lat="43.79865" lon="6.41755">
        <ele>983.7</ele>
        <time>2016-10-26T11:33:41Z</time>
      </trkpt>
      <trkpt lat="43.79856" lon="6.41762">
        <ele>982.8</ele>
        <time>2016-10-26T11:33:43Z</time>
      </trkpt>
      <trkpt lat="43.79846" lon="6.41766">
        <ele>981.9</ele>
        <time>2016-10-26T11:33:45Z</time>
      </trkpt>
      <trkpt lat="43.79836" lon="6.41774">
        <ele>980.7</ele>
        <time>2016-10-26T11:33:47Z</time>
      </trkpt>
      <trkpt lat="43.79824" lon="6.41779">
        <ele>979.1</ele>
        <time>2016-10-26T11:33:49Z</time>
      </trkpt>
      <trkpt lat="43.79815" lon="6.41783">
        <ele>977.7</ele>
        <time>2016-10-26T11:33:51Z</time>
      </trkpt>
      <trkpt lat="43.79805" lon="6.41791">
        <ele>975.5</ele>
        <time>2016-10-26T11:33:54Z</time>
      </trkpt>
      <trkpt lat="43.79795" lon="6.41799">
        <ele>973.3</ele>
        <time>2016-10-26T11:33:57Z</time>
      </trkpt>
      <trkpt lat="43.79788" lon="6.41808">
        <ele>971.3</ele>
        <time>2016-10-26T11:34:00Z</time>
      </trkpt>
      <trkpt lat="43.79781" lon="6.41816">
        <ele>969</ele>
        <time>2016-10-26T11:34:03Z</time>
      </trkpt>
      <trkpt lat="43.79786" lon="6.41827">
        <ele>966.1</ele>
        <time>2016-10-26T11:34:08Z</time>
      </trkpt>
      <trkpt lat="43.7978" lon="6.41838">
        <ele>963.7</ele>
        <time>2016-10-26T11:34:12Z</time>
      </trkpt>
      <trkpt lat="43.79771" lon="6.4185">
        <ele>961.5</ele>
        <time>2016-10-26T11:34:15Z</time>
      </trkpt>
      <trkpt lat="43.79764" lon="6.41858">
        <ele>960</ele>
        <time>2016-10-26T11:34:17Z</time>
      </trkpt>
      <trkpt lat="43.79756" lon="6.41868">
        <ele>958.6</ele>
        <time>2016-10-26T11:34:19Z</time>
      </trkpt>
      <trkpt lat="43.79749" lon="6.41878">
        <ele>957.1</ele>
        <time>2016-10-26T11:34:21Z</time>
      </trkpt>
      <trkpt lat="43.79741" lon="6.41892">
        <ele>954.6</ele>
        <time>2016-10-26T11:34:24Z</time>
      </trkpt>
      <trkpt lat="43.79733" lon="6.41906">
        <ele>951.7</ele>
        <time>2016-10-26T11:34:27Z</time>
      </trkpt>
      <trkpt lat="43.79723" lon="6.41917">
        <ele>948.7</ele>
        <time>2016-10-26T11:34:30Z</time>
      </trkpt>
      <trkpt lat="43.79714" lon="6.41923">
        <ele>946.4</ele>
        <time>2016-10-26T11:34:32Z</time>
      </trkpt>
      <trkpt lat="43.79706" lon="6.4193">
        <ele>944.3</ele>
        <time>2016-10-26T11:34:34Z</time>
      </trkpt>
      <trkpt lat="43.79712" lon="6.41941">
        <ele>939.1</ele>
        <time>2016-10-26T11:34:40Z</time>
      </trkpt>
      <trkpt lat="43.79722" lon="6.41945">
        <ele>937.5</ele>
        <time>2016-10-26T11:34:43Z</time>
      </trkpt>
      <trkpt lat="43.79734" lon="6.4195">
        <ele>936</ele>
        <time>2016-10-26T11:34:46Z</time>
      </trkpt>
      <trkpt lat="43.79745" lon="6.41953">
        <ele>934.8</ele>
        <time>2016-10-26T11:34:49Z</time>
      </trkpt>
      <trkpt lat="43.79758" lon="6.41957">
        <ele>933.5</ele>
        <time>2016-10-26T11:34:52Z</time>
      </trkpt>
      <trkpt lat="43.79771" lon="6.41962">
        <ele>932.3</ele>
        <time>2016-10-26T11:34:55Z</time>
      </trkpt>
      <trkpt lat="43.7978" lon="6.41965">
        <ele>931.6</ele>
        <time>2016-10-26T11:34:57Z</time>
      </trkpt>
      <trkpt lat="43.79791" lon="6.41969">
        <ele>930.5</ele>
        <time>2016-10-26T11:34:59Z</time>
      </trkpt>
      <trkpt lat="43.798" lon="6.41972">
        <ele>929.6</ele>
        <time>2016-10-26T11:35:01Z</time>
      </trkpt>
      <trkpt lat="43.79805" lon="6.41984">
        <ele>928.6</ele>
        <time>2016-10-26T11:35:04Z</time>
      </trkpt>
      <trkpt lat="43.79801" lon="6.41998">
        <ele>927</ele>
        <time>2016-10-26T11:35:07Z</time>
      </trkpt>
      <trkpt lat="43.79794" lon="6.42007">
        <ele>925.7</ele>
        <time>2016-10-26T11:35:09Z</time>
      </trkpt>
      <trkpt lat="43.79785" lon="6.42016">
        <ele>924</ele>
        <time>2016-10-26T11:35:11Z</time>
      </trkpt>
      <trkpt lat="43.79777" lon="6.42024">
        <ele>922.3</ele>
        <time>2016-10-26T11:35:13Z</time>
      </trkpt>
      <trkpt lat="43.79768" lon="6.42031">
        <ele>920.7</ele>
        <time>2016-10-26T11:35:15Z</time>
      </trkpt>
      <trkpt lat="43.7976" lon="6.42038">
        <ele>919</ele>
        <time>2016-10-26T11:35:17Z</time>
      </trkpt>
      <trkpt lat="43.7975" lon="6.42045">
        <ele>917.4</ele>
        <time>2016-10-26T11:35:19Z</time>
      </trkpt>
      <trkpt lat="43.7974" lon="6.42054">
        <ele>916.2</ele>
        <time>2016-10-26T11:35:21Z</time>
      </trkpt>
      <trkpt lat="43.7973" lon="6.42063">
        <ele>914.6</ele>
        <time>2016-10-26T11:35:23Z</time>
      </trkpt>
      <trkpt lat="43.79722" lon="6.4207">
        <ele>913</ele>
        <time>2016-10-26T11:35:25Z</time>
      </trkpt>
      <trkpt lat="43.79711" lon="6.4208">
        <ele>910.9</ele>
        <time>2016-10-26T11:35:28Z</time>
      </trkpt>
      <trkpt lat="43.79698" lon="6.42088">
        <ele>908.7</ele>
        <time>2016-10-26T11:35:31Z</time>
      </trkpt>
      <trkpt lat="43.7969" lon="6.42097">
        <ele>907.2</ele>
        <time>2016-10-26T11:35:33Z</time>
      </trkpt>
      <trkpt lat="43.79683" lon="6.42103">
        <ele>905.9</ele>
        <time>2016-10-26T11:35:35Z</time>
      </trkpt>
      <trkpt lat="43.79673" lon="6.42112">
        <ele>903.6</ele>
        <time>2016-10-26T11:35:38Z</time>
      </trkpt>
      <trkpt lat="43.79664" lon="6.4212">
        <ele>901.8</ele>
        <time>2016-10-26T11:35:41Z</time>
      </trkpt>
      <trkpt lat="43.79656" lon="6.42127">
        <ele>899.5</ele>
        <time>2016-10-26T11:35:45Z</time>
      </trkpt>
      <trkpt lat="43.79648" lon="6.42135">
        <ele>897.4</ele>
        <time>2016-10-26T11:35:49Z</time>
      </trkpt>
      <trkpt lat="43.7964" lon="6.42142">
        <ele>895.7</ele>
        <time>2016-10-26T11:35:53Z</time>
      </trkpt>
      <trkpt lat="43.79632" lon="6.42152">
        <ele>894.4</ele>
        <time>2016-10-26T11:35:57Z</time>
      </trkpt>
      <trkpt lat="43.79621" lon="6.42159">
        <ele>893</ele>
        <time>2016-10-26T11:36:00Z</time>
      </trkpt>
      <trkpt lat="43.79614" lon="6.42168">
        <ele>891.6</ele>
        <time>2016-10-26T11:36:03Z</time>
      </trkpt>
      <trkpt lat="43.79606" lon="6.42175">
        <ele>890.2</ele>
        <time>2016-10-26T11:36:06Z</time>
      </trkpt>
      <trkpt lat="43.79596" lon="6.42182">
        <ele>889</ele>
        <time>2016-10-26T11:36:09Z</time>
      </trkpt>
      <trkpt lat="43.79588" lon="6.4219">
        <ele>887.6</ele>
        <time>2016-10-26T11:36:12Z</time>
      </trkpt>
      <trkpt lat="43.79579" lon="6.42198">
        <ele>886.2</ele>
        <time>2016-10-26T11:36:15Z</time>
      </trkpt>
      <trkpt lat="43.79571" lon="6.42205">
        <ele>884.6</ele>
        <time>2016-10-26T11:36:18Z</time>
      </trkpt>
      <trkpt lat="43.79562" lon="6.4221">
        <ele>883.1</ele>
        <time>2016-10-26T11:36:21Z</time>
      </trkpt>
      <trkpt lat="43.79554" lon="6.4222">
        <ele>881.7</ele>
        <time>2016-10-26T11:36:24Z</time>
      </trkpt>
      <trkpt lat="43.79543" lon="6.42227">
        <ele>880</ele>
        <time>2016-10-26T11:36:28Z</time>
      </trkpt>
      <trkpt lat="43.79535" lon="6.42234">
        <ele>879.4</ele>
        <time>2016-10-26T11:36:30Z</time>
      </trkpt>
      <trkpt lat="43.79527" lon="6.42242">
        <ele>878.6</ele>
        <time>2016-10-26T11:36:32Z</time>
      </trkpt>
      <trkpt lat="43.79516" lon="6.4225">
        <ele>877.5</ele>
        <time>2016-10-26T11:36:35Z</time>
      </trkpt>
      <trkpt lat="43.79505" lon="6.42259">
        <ele>876.3</ele>
        <time>2016-10-26T11:36:38Z</time>
      </trkpt>
      <trkpt lat="43.79497" lon="6.42266">
        <ele>875.2</ele>
        <time>2016-10-26T11:36:40Z</time>
      </trkpt>
      <trkpt lat="43.795" lon="6.42278">
        <ele>870.9</ele>
        <time>2016-10-26T11:36:50Z</time>
      </trkpt>
      <trkpt lat="43.79511" lon="6.42282">
        <ele>869.3</ele>
        <time>2016-10-26T11:36:53Z</time>
      </trkpt>
      <trkpt lat="43.79521" lon="6.42285">
        <ele>868.3</ele>
        <time>2016-10-26T11:36:55Z</time>
      </trkpt>
      <trkpt lat="43.7953" lon="6.42287">
        <ele>867.1</ele>
        <time>2016-10-26T11:36:57Z</time>
      </trkpt>
      <trkpt lat="43.79539" lon="6.42291">
        <ele>866</ele>
        <time>2016-10-26T11:36:59Z</time>
      </trkpt>
      <trkpt lat="43.79551" lon="6.42295">
        <ele>864.4</ele>
        <time>2016-10-26T11:37:02Z</time>
      </trkpt>
      <trkpt lat="43.79565" lon="6.42298">
        <ele>862.8</ele>
        <time>2016-10-26T11:37:05Z</time>
      </trkpt>
      <trkpt lat="43.79576" lon="6.423">
        <ele>861.4</ele>
        <time>2016-10-26T11:37:08Z</time>
      </trkpt>
      <trkpt lat="43.79586" lon="6.42301">
        <ele>859.8</ele>
        <time>2016-10-26T11:37:12Z</time>
      </trkpt>
      <trkpt lat="43.79579" lon="6.42313">
        <ele>856</ele>
        <time>2016-10-26T11:37:23Z</time>
      </trkpt>
      <trkpt lat="43.79567" lon="6.42319">
        <ele>854.9</ele>
        <time>2016-10-26T11:37:26Z</time>
      </trkpt>
      <trkpt lat="43.79554" lon="6.42325">
        <ele>853.6</ele>
        <time>2016-10-26T11:37:29Z</time>
      </trkpt>
      <trkpt lat="43.79543" lon="6.42332">
        <ele>852.7</ele>
        <time>2016-10-26T11:37:32Z</time>
      </trkpt>
      <trkpt lat="43.79533" lon="6.42339">
        <ele>851.4</ele>
        <time>2016-10-26T11:37:36Z</time>
      </trkpt>
      <trkpt lat="43.79524" lon="6.42343">
        <ele>850.4</ele>
        <time>2016-10-26T11:37:39Z</time>
      </trkpt>
      <trkpt lat="43.79515" lon="6.42349">
        <ele>849.5</ele>
        <time>2016-10-26T11:37:42Z</time>
      </trkpt>
      <trkpt lat="43.79506" lon="6.42352">
        <ele>848.7</ele>
        <time>2016-10-26T11:37:45Z</time>
      </trkpt>
      <trkpt lat="43.79494" lon="6.42357">
        <ele>847.6</ele>
        <time>2016-10-26T11:37:48Z</time>
      </trkpt>
      <trkpt lat="43.79483" lon="6.42362">
        <ele>846.9</ele>
        <time>2016-10-26T11:37:51Z</time>
      </trkpt>
      <trkpt lat="43.79475" lon="6.42369">
        <ele>846.4</ele>
        <time>2016-10-26T11:37:53Z</time>
      </trkpt>
      <trkpt lat="43.79466" lon="6.42373">
        <ele>845.7</ele>
        <time>2016-10-26T11:37:55Z</time>
      </trkpt>
      <trkpt lat="43.79457" lon="6.42375">
        <ele>845</ele>
        <time>2016-10-26T11:37:57Z</time>
      </trkpt>
      <trkpt lat="43.79448" lon="6.4238">
        <ele>844.5</ele>
        <time>2016-10-26T11:37:59Z</time>
      </trkpt>
      <trkpt lat="43.79439" lon="6.42384">
        <ele>843.8</ele>
        <time>2016-10-26T11:38:01Z</time>
      </trkpt>
      <trkpt lat="43.79429" lon="6.42387">
        <ele>842.9</ele>
        <time>2016-10-26T11:38:04Z</time>
      </trkpt>
      <trkpt lat="43.79419" lon="6.42391">
        <ele>842.1</ele>
        <time>2016-10-26T11:38:07Z</time>
      </trkpt>
      <trkpt lat="43.79408" lon="6.42395">
        <ele>841.3</ele>
        <time>2016-10-26T11:38:10Z</time>
      </trkpt>
      <trkpt lat="43.79399" lon="6.42399">
        <ele>840.3</ele>
        <time>2016-10-26T11:38:13Z</time>
      </trkpt>
      <trkpt lat="43.7939" lon="6.42404">
        <ele>839.4</ele>
        <time>2016-10-26T11:38:16Z</time>
      </trkpt>
      <trkpt lat="43.79393" lon="6.42417">
        <ele>836.4</ele>
        <time>2016-10-26T11:38:26Z</time>
      </trkpt>
      <trkpt lat="43.79405" lon="6.42422">
        <ele>835.3</ele>
        <time>2016-10-26T11:38:30Z</time>
      </trkpt>
      <trkpt lat="43.79416" lon="6.42425">
        <ele>834.1</ele>
        <time>2016-10-26T11:38:33Z</time>
      </trkpt>
      <trkpt lat="43.79426" lon="6.42427">
        <ele>831.4</ele>
        <time>2016-10-26T11:38:47Z</time>
      </trkpt>
      <trkpt lat="43.79435" lon="6.42431">
        <ele>830.3</ele>
        <time>2016-10-26T11:39:00Z</time>
      </trkpt>
      <trkpt lat="43.79445" lon="6.42435">
        <ele>829.8</ele>
        <time>2016-10-26T11:39:04Z</time>
      </trkpt>
      <trkpt lat="43.79454" lon="6.42438">
        <ele>829.3</ele>
        <time>2016-10-26T11:39:07Z</time>
      </trkpt>
      <trkpt lat="43.79465" lon="6.42443">
        <ele>828.4</ele>
        <time>2016-10-26T11:39:11Z</time>
      </trkpt>
      <trkpt lat="43.79476" lon="6.42446">
        <ele>827.2</ele>
        <time>2016-10-26T11:39:14Z</time>
      </trkpt>
      <trkpt lat="43.79485" lon="6.42447">
        <ele>826.6</ele>
        <time>2016-10-26T11:39:16Z</time>
      </trkpt>
      <trkpt lat="43.79497" lon="6.42449">
        <ele>825.6</ele>
        <time>2016-10-26T11:39:19Z</time>
      </trkpt>
      <trkpt lat="43.79505" lon="6.42456">
        <ele>824.2</ele>
        <time>2016-10-26T11:39:23Z</time>
      </trkpt>
      <trkpt lat="43.79497" lon="6.42464">
        <ele>822.5</ele>
        <time>2016-10-26T11:39:28Z</time>
      </trkpt>
      <trkpt lat="43.79486" lon="6.42472">
        <ele>820.8</ele>
        <time>2016-10-26T11:39:32Z</time>
      </trkpt>
      <trkpt lat="43.79477" lon="6.42482">
        <ele>819.2</ele>
        <time>2016-10-26T11:39:36Z</time>
      </trkpt>
      <trkpt lat="43.79468" lon="6.4249">
        <ele>817.6</ele>
        <time>2016-10-26T11:39:40Z</time>
      </trkpt>
      <trkpt lat="43.79458" lon="6.425">
        <ele>816.2</ele>
        <time>2016-10-26T11:39:43Z</time>
      </trkpt>
      <trkpt lat="43.79448" lon="6.42507">
        <ele>815.1</ele>
        <time>2016-10-26T11:39:46Z</time>
      </trkpt>
      <trkpt lat="43.79437" lon="6.42514">
        <ele>813.8</ele>
        <time>2016-10-26T11:39:49Z</time>
      </trkpt>
      <trkpt lat="43.79429" lon="6.42522">
        <ele>812.9</ele>
        <time>2016-10-26T11:39:51Z</time>
      </trkpt>
      <trkpt lat="43.79419" lon="6.42531">
        <ele>811.5</ele>
        <time>2016-10-26T11:39:54Z</time>
      </trkpt>
      <trkpt lat="43.7941" lon="6.42538">
        <ele>810.2</ele>
        <time>2016-10-26T11:39:57Z</time>
      </trkpt>
      <trkpt lat="43.79418" lon="6.42548">
        <ele>806.7</ele>
        <time>2016-10-26T11:40:05Z</time>
      </trkpt>
      <trkpt lat="43.7943" lon="6.42552">
        <ele>805.3</ele>
        <time>2016-10-26T11:40:09Z</time>
      </trkpt>
      <trkpt lat="43.79441" lon="6.42554">
        <ele>803.9</ele>
        <time>2016-10-26T11:40:13Z</time>
      </trkpt>
      <trkpt lat="43.79451" lon="6.42555">
        <ele>803</ele>
        <time>2016-10-26T11:40:16Z</time>
      </trkpt>
      <trkpt lat="43.7946" lon="6.42557">
        <ele>802</ele>
        <time>2016-10-26T11:40:19Z</time>
      </trkpt>
      <trkpt lat="43.79472" lon="6.42559">
        <ele>801.2</ele>
        <time>2016-10-26T11:40:22Z</time>
      </trkpt>
      <trkpt lat="43.79481" lon="6.42561">
        <ele>800.2</ele>
        <time>2016-10-26T11:40:25Z</time>
      </trkpt>
      <trkpt lat="43.79478" lon="6.42575">
        <ele>797.4</ele>
        <time>2016-10-26T11:40:34Z</time>
      </trkpt>
      <trkpt lat="43.7947" lon="6.42582">
        <ele>796.1</ele>
        <time>2016-10-26T11:40:38Z</time>
      </trkpt>
      <trkpt lat="43.79462" lon="6.4259">
        <ele>794.6</ele>
        <time>2016-10-26T11:40:42Z</time>
      </trkpt>
      <trkpt lat="43.79452" lon="6.426">
        <ele>793.4</ele>
        <time>2016-10-26T11:40:45Z</time>
      </trkpt>
      <trkpt lat="43.79442" lon="6.42609">
        <ele>792.1</ele>
        <time>2016-10-26T11:40:48Z</time>
      </trkpt>
      <trkpt lat="43.79432" lon="6.42617">
        <ele>790.7</ele>
        <time>2016-10-26T11:40:51Z</time>
      </trkpt>
      <trkpt lat="43.79423" lon="6.42624">
        <ele>789.2</ele>
        <time>2016-10-26T11:40:54Z</time>
      </trkpt>
      <trkpt lat="43.79414" lon="6.42633">
        <ele>787.9</ele>
        <time>2016-10-26T11:40:57Z</time>
      </trkpt>
      <trkpt lat="43.79403" lon="6.42643">
        <ele>786.7</ele>
        <time>2016-10-26T11:41:00Z</time>
      </trkpt>
      <trkpt lat="43.79395" lon="6.42651">
        <ele>785.7</ele>
        <time>2016-10-26T11:41:02Z</time>
      </trkpt>
      <trkpt lat="43.79386" lon="6.42658">
        <ele>784.1</ele>
        <time>2016-10-26T11:41:05Z</time>
      </trkpt>
      <trkpt lat="43.79395" lon="6.42665">
        <ele>781.4</ele>
        <time>2016-10-26T11:41:12Z</time>
      </trkpt>
      <trkpt lat="43.79405" lon="6.42665">
        <ele>779.8</ele>
        <time>2016-10-26T11:41:16Z</time>
      </trkpt>
      <trkpt lat="43.79415" lon="6.42668">
        <ele>778.4</ele>
        <time>2016-10-26T11:41:19Z</time>
      </trkpt>
      <trkpt lat="43.79425" lon="6.42671">
        <ele>776.5</ele>
        <time>2016-10-26T11:41:23Z</time>
      </trkpt>
      <trkpt lat="43.79436" lon="6.42673">
        <ele>774.9</ele>
        <time>2016-10-26T11:41:27Z</time>
      </trkpt>
      <trkpt lat="43.79434" lon="6.42687">
        <ele>772.5</ele>
        <time>2016-10-26T11:41:33Z</time>
      </trkpt>
      <trkpt lat="43.79427" lon="6.42696">
        <ele>771.4</ele>
        <time>2016-10-26T11:41:36Z</time>
      </trkpt>
      <trkpt lat="43.79417" lon="6.42707">
        <ele>770.1</ele>
        <time>2016-10-26T11:41:39Z</time>
      </trkpt>
      <trkpt lat="43.7941" lon="6.42715">
        <ele>769.4</ele>
        <time>2016-10-26T11:41:41Z</time>
      </trkpt>
      <trkpt lat="43.79402" lon="6.42725">
        <ele>768.5</ele>
        <time>2016-10-26T11:41:43Z</time>
      </trkpt>
      <trkpt lat="43.79393" lon="6.42734">
        <ele>767.8</ele>
        <time>2016-10-26T11:41:45Z</time>
      </trkpt>
      <trkpt lat="43.79385" lon="6.42742">
        <ele>767</ele>
        <time>2016-10-26T11:41:47Z</time>
      </trkpt>
      <trkpt lat="43.79374" lon="6.42751">
        <ele>765.6</ele>
        <time>2016-10-26T11:41:50Z</time>
      </trkpt>
      <trkpt lat="43.79365" lon="6.42758">
        <ele>764.7</ele>
        <time>2016-10-26T11:41:52Z</time>
      </trkpt>
      <trkpt lat="43.79357" lon="6.42765">
        <ele>763.6</ele>
        <time>2016-10-26T11:41:54Z</time>
      </trkpt>
      <trkpt lat="43.79349" lon="6.42772">
        <ele>762.3</ele>
        <time>2016-10-26T11:41:56Z</time>
      </trkpt>
      <trkpt lat="43.79339" lon="6.42781">
        <ele>760.7</ele>
        <time>2016-10-26T11:41:59Z</time>
      </trkpt>
      <trkpt lat="43.7933" lon="6.42789">
        <ele>759</ele>
        <time>2016-10-26T11:42:02Z</time>
      </trkpt>
      <trkpt lat="43.7932" lon="6.42797">
        <ele>757.2</ele>
        <time>2016-10-26T11:42:05Z</time>
      </trkpt>
      <trkpt lat="43.7931" lon="6.42804">
        <ele>755.5</ele>
        <time>2016-10-26T11:42:08Z</time>
      </trkpt>
      <trkpt lat="43.79301" lon="6.42813">
        <ele>753.9</ele>
        <time>2016-10-26T11:42:11Z</time>
      </trkpt>
      <trkpt lat="43.79307" lon="6.42823">
        <ele>750.7</ele>
        <time>2016-10-26T11:42:18Z</time>
      </trkpt>
      <trkpt lat="43.79318" lon="6.42824">
        <ele>748.9</ele>
        <time>2016-10-26T11:42:22Z</time>
      </trkpt>
      <trkpt lat="43.79327" lon="6.4283">
        <ele>747.4</ele>
        <time>2016-10-26T11:42:26Z</time>
      </trkpt>
      <trkpt lat="43.79336" lon="6.42833">
        <ele>745.6</ele>
        <time>2016-10-26T11:42:30Z</time>
      </trkpt>
      <trkpt lat="43.79347" lon="6.42835">
        <ele>744.2</ele>
        <time>2016-10-26T11:42:33Z</time>
      </trkpt>
      <trkpt lat="43.79357" lon="6.42839">
        <ele>742.6</ele>
        <time>2016-10-26T11:42:37Z</time>
      </trkpt>
      <trkpt lat="43.79353" lon="6.42854">
        <ele>739.7</ele>
        <time>2016-10-26T11:42:44Z</time>
      </trkpt>
      <trkpt lat="43.79345" lon="6.42863">
        <ele>738.8</ele>
        <time>2016-10-26T11:42:47Z</time>
      </trkpt>
      <trkpt lat="43.79337" lon="6.42869">
        <ele>737.7</ele>
        <time>2016-10-26T11:42:50Z</time>
      </trkpt>
      <trkpt lat="43.79329" lon="6.42882">
        <ele>736.3</ele>
        <time>2016-10-26T11:42:54Z</time>
      </trkpt>
      <trkpt lat="43.79334" lon="6.42894">
        <ele>734.1</ele>
        <time>2016-10-26T11:43:00Z</time>
      </trkpt>
      <trkpt lat="43.79346" lon="6.42897">
        <ele>732.4</ele>
        <time>2016-10-26T11:43:05Z</time>
      </trkpt>
      <trkpt lat="43.79357" lon="6.42898">
        <ele>731</ele>
        <time>2016-10-26T11:43:09Z</time>
      </trkpt>
      <trkpt lat="43.79368" lon="6.42899">
        <ele>729.9</ele>
        <time>2016-10-26T11:43:12Z</time>
      </trkpt>
      <trkpt lat="43.7938" lon="6.42904">
        <ele>728.4</ele>
        <time>2016-10-26T11:43:16Z</time>
      </trkpt>
      <trkpt lat="43.7939" lon="6.42905">
        <ele>727.3</ele>
        <time>2016-10-26T11:43:19Z</time>
      </trkpt>
      <trkpt lat="43.794" lon="6.42905">
        <ele>726.4</ele>
        <time>2016-10-26T11:43:21Z</time>
      </trkpt>
      <trkpt lat="43.79411" lon="6.42907">
        <ele>725.7</ele>
        <time>2016-10-26T11:43:23Z</time>
      </trkpt>
      <trkpt lat="43.79422" lon="6.42908">
        <ele>724.6</ele>
        <time>2016-10-26T11:43:26Z</time>
      </trkpt>
      <trkpt lat="43.79423" lon="6.42921">
        <ele>720.5</ele>
        <time>2016-10-26T11:43:35Z</time>
      </trkpt>
      <trkpt lat="43.79415" lon="6.42931">
        <ele>719.5</ele>
        <time>2016-10-26T11:43:38Z</time>
      </trkpt>
      <trkpt lat="43.79407" lon="6.42941">
        <ele>718.5</ele>
        <time>2016-10-26T11:43:41Z</time>
      </trkpt>
      <trkpt lat="43.79397" lon="6.42953">
        <ele>717</ele>
        <time>2016-10-26T11:43:44Z</time>
      </trkpt>
      <trkpt lat="43.7939" lon="6.42962">
        <ele>715.8</ele>
        <time>2016-10-26T11:43:46Z</time>
      </trkpt>
      <trkpt lat="43.79381" lon="6.4297">
        <ele>714.6</ele>
        <time>2016-10-26T11:43:48Z</time>
      </trkpt>
      <trkpt lat="43.79374" lon="6.42979">
        <ele>713.5</ele>
        <time>2016-10-26T11:43:50Z</time>
      </trkpt>
      <trkpt lat="43.79365" lon="6.4299">
        <ele>711.8</ele>
        <time>2016-10-26T11:43:53Z</time>
      </trkpt>
      <trkpt lat="43.79355" lon="6.43001">
        <ele>709.8</ele>
        <time>2016-10-26T11:43:57Z</time>
      </trkpt>
      <trkpt lat="43.79347" lon="6.43008">
        <ele>708.7</ele>
        <time>2016-10-26T11:43:59Z</time>
      </trkpt>
      <trkpt lat="43.7934" lon="6.43016">
        <ele>706.9</ele>
        <time>2016-10-26T11:44:01Z</time>
      </trkpt>
      <trkpt lat="43.79332" lon="6.43024">
        <ele>705.5</ele>
        <time>2016-10-26T11:44:03Z</time>
      </trkpt>
      <trkpt lat="43.79323" lon="6.43035">
        <ele>703.5</ele>
        <time>2016-10-26T11:44:06Z</time>
      </trkpt>
      <trkpt lat="43.79331" lon="6.43044">
        <ele>698.7</ele>
        <time>2016-10-26T11:44:15Z</time>
      </trkpt>
      <trkpt lat="43.79342" lon="6.43044">
        <ele>696.9</ele>
        <time>2016-10-26T11:44:19Z</time>
      </trkpt>
      <trkpt lat="43.79354" lon="6.43045">
        <ele>695.4</ele>
        <time>2016-10-26T11:44:23Z</time>
      </trkpt>
      <trkpt lat="43.79364" lon="6.43045">
        <ele>694.2</ele>
        <time>2016-10-26T11:44:26Z</time>
      </trkpt>
      <trkpt lat="43.79376" lon="6.43046">
        <ele>693.1</ele>
        <time>2016-10-26T11:44:29Z</time>
      </trkpt>
      <trkpt lat="43.79388" lon="6.43049">
        <ele>691.9</ele>
        <time>2016-10-26T11:44:32Z</time>
      </trkpt>
      <trkpt lat="43.79401" lon="6.43049">
        <ele>690.9</ele>
        <time>2016-10-26T11:44:35Z</time>
      </trkpt>
      <trkpt lat="43.79414" lon="6.43052">
        <ele>689.8</ele>
        <time>2016-10-26T11:44:38Z</time>
      </trkpt>
      <trkpt lat="43.79423" lon="6.43053">
        <ele>688.6</ele>
        <time>2016-10-26T11:44:41Z</time>
      </trkpt>
      <trkpt lat="43.79418" lon="6.43065">
        <ele>685</ele>
        <time>2016-10-26T11:44:49Z</time>
      </trkpt>
      <trkpt lat="43.79411" lon="6.43074">
        <ele>684.1</ele>
        <time>2016-10-26T11:44:51Z</time>
      </trkpt>
      <trkpt lat="43.79403" lon="6.43081">
        <ele>683.3</ele>
        <time>2016-10-26T11:44:53Z</time>
      </trkpt>
      <trkpt lat="43.79394" lon="6.43093">
        <ele>682.1</ele>
        <time>2016-10-26T11:44:56Z</time>
      </trkpt>
      <trkpt lat="43.79385" lon="6.43102">
        <ele>680.7</ele>
        <time>2016-10-26T11:44:59Z</time>
      </trkpt>
      <trkpt lat="43.79377" lon="6.43109">
        <ele>679.8</ele>
        <time>2016-10-26T11:45:01Z</time>
      </trkpt>
      <trkpt lat="43.79369" lon="6.43117">
        <ele>678.6</ele>
        <time>2016-10-26T11:45:03Z</time>
      </trkpt>
      <trkpt lat="43.79359" lon="6.43126">
        <ele>677.5</ele>
        <time>2016-10-26T11:45:05Z</time>
      </trkpt>
      <trkpt lat="43.79349" lon="6.43134">
        <ele>676.4</ele>
        <time>2016-10-26T11:45:07Z</time>
      </trkpt>
      <trkpt lat="43.7934" lon="6.43145">
        <ele>675.2</ele>
        <time>2016-10-26T11:45:09Z</time>
      </trkpt>
      <trkpt lat="43.7933" lon="6.43155">
        <ele>674</ele>
        <time>2016-10-26T11:45:11Z</time>
      </trkpt>
      <trkpt lat="43.79321" lon="6.43164">
        <ele>672.7</ele>
        <time>2016-10-26T11:45:13Z</time>
      </trkpt>
      <trkpt lat="43.79313" lon="6.43174">
        <ele>671.2</ele>
        <time>2016-10-26T11:45:15Z</time>
      </trkpt>
      <trkpt lat="43.79303" lon="6.43187">
        <ele>669.9</ele>
        <time>2016-10-26T11:45:17Z</time>
      </trkpt>
      <trkpt lat="43.79295" lon="6.43195">
        <ele>668.7</ele>
        <time>2016-10-26T11:45:19Z</time>
      </trkpt>
      <trkpt lat="43.79287" lon="6.43207">
        <ele>666.6</ele>
        <time>2016-10-26T11:45:22Z</time>
      </trkpt>
      <trkpt lat="43.79279" lon="6.43214">
        <ele>665.1</ele>
        <time>2016-10-26T11:45:24Z</time>
      </trkpt>
      <trkpt lat="43.7927" lon="6.43222">
        <ele>663.8</ele>
        <time>2016-10-26T11:45:26Z</time>
      </trkpt>
      <trkpt lat="43.79261" lon="6.43229">
        <ele>662.3</ele>
        <time>2016-10-26T11:45:28Z</time>
      </trkpt>
      <trkpt lat="43.79255" lon="6.43242">
        <ele>660.2</ele>
        <time>2016-10-26T11:45:31Z</time>
      </trkpt>
      <trkpt lat="43.79248" lon="6.43255">
        <ele>658.1</ele>
        <time>2016-10-26T11:45:34Z</time>
      </trkpt>
      <trkpt lat="43.79241" lon="6.43263">
        <ele>655.8</ele>
        <time>2016-10-26T11:45:37Z</time>
      </trkpt>
      <trkpt lat="43.79232" lon="6.43267">
        <ele>653.2</ele>
        <time>2016-10-26T11:45:41Z</time>
      </trkpt>
      <trkpt lat="43.79223" lon="6.43267">
        <ele>651.2</ele>
        <time>2016-10-26T11:45:45Z</time>
      </trkpt>
      <trkpt lat="43.79214" lon="6.43261">
        <ele>649.5</ele>
        <time>2016-10-26T11:45:49Z</time>
      </trkpt>
      <trkpt lat="43.79225" lon="6.43265">
        <ele>644.9</ele>
        <time>2016-10-26T11:46:21Z</time>
      </trkpt>
      <trkpt lat="43.79233" lon="6.43269">
        <ele>644.8</ele>
        <time>2016-10-26T11:46:24Z</time>
      </trkpt>
      <trkpt lat="43.79241" lon="6.43279">
        <ele>644.6</ele>
        <time>2016-10-26T11:46:27Z</time>
      </trkpt>
      <trkpt lat="43.79247" lon="6.43292">
        <ele>644.5</ele>
        <time>2016-10-26T11:46:30Z</time>
      </trkpt>
      <trkpt lat="43.7925" lon="6.43308">
        <ele>644.4</ele>
        <time>2016-10-26T11:46:33Z</time>
      </trkpt>
      <trkpt lat="43.79256" lon="6.43323">
        <ele>644.4</ele>
        <time>2016-10-26T11:46:36Z</time>
      </trkpt>
      <trkpt lat="43.79267" lon="6.43332">
        <ele>644.3</ele>
        <time>2016-10-26T11:46:39Z</time>
      </trkpt>
      <trkpt lat="43.79279" lon="6.43341">
        <ele>644.4</ele>
        <time>2016-10-26T11:46:42Z</time>
      </trkpt>
      <trkpt lat="43.7929" lon="6.4335">
        <ele>644.2</ele>
        <time>2016-10-26T11:46:45Z</time>
      </trkpt>
      <trkpt lat="43.79301" lon="6.43359">
        <ele>643.6</ele>
        <time>2016-10-26T11:46:48Z</time>
      </trkpt>
      <trkpt lat="43.7931" lon="6.43367">
        <ele>644</ele>
        <time>2016-10-26T11:46:51Z</time>
      </trkpt>
      <trkpt lat="43.7932" lon="6.43368">
        <ele>644.3</ele>
        <time>2016-10-26T11:46:53Z</time>
      </trkpt>
      <trkpt lat="43.7933" lon="6.43365">
        <ele>644.5</ele>
        <time>2016-10-26T11:46:55Z</time>
      </trkpt>
      <trkpt lat="43.79339" lon="6.43364">
        <ele>644.7</ele>
        <time>2016-10-26T11:46:57Z</time>
      </trkpt>
      <trkpt lat="43.79348" lon="6.43363">
        <ele>644.9</ele>
        <time>2016-10-26T11:46:59Z</time>
      </trkpt>
      <trkpt lat="43.79357" lon="6.43362">
        <ele>645.1</ele>
        <time>2016-10-26T11:47:01Z</time>
      </trkpt>
      <trkpt lat="43.7937" lon="6.43364">
        <ele>645.3</ele>
        <time>2016-10-26T11:47:04Z</time>
      </trkpt>
      <trkpt lat="43.79381" lon="6.43375">
        <ele>645.5</ele>
        <time>2016-10-26T11:47:07Z</time>
      </trkpt>
      <trkpt lat="43.79385" lon="6.43386">
        <ele>645.6</ele>
        <time>2016-10-26T11:47:09Z</time>
      </trkpt>
      <trkpt lat="43.79388" lon="6.43404">
        <ele>645.8</ele>
        <time>2016-10-26T11:47:12Z</time>
      </trkpt>
      <trkpt lat="43.79392" lon="6.43421">
        <ele>645.9</ele>
        <time>2016-10-26T11:47:15Z</time>
      </trkpt>
      <trkpt lat="43.79398" lon="6.43437">
        <ele>646.1</ele>
        <time>2016-10-26T11:47:18Z</time>
      </trkpt>
      <trkpt lat="43.79402" lon="6.43449">
        <ele>646.3</ele>
        <time>2016-10-26T11:47:20Z</time>
      </trkpt>
      <trkpt lat="43.7941" lon="6.43464">
        <ele>646.5</ele>
        <time>2016-10-26T11:47:23Z</time>
      </trkpt>
      <trkpt lat="43.79416" lon="6.43474">
        <ele>646.7</ele>
        <time>2016-10-26T11:47:25Z</time>
      </trkpt>
      <trkpt lat="43.79424" lon="6.43489">
        <ele>646.9</ele>
        <time>2016-10-26T11:47:28Z</time>
      </trkpt>
      <trkpt lat="43.79433" lon="6.43503">
        <ele>647.2</ele>
        <time>2016-10-26T11:47:31Z</time>
      </trkpt>
      <trkpt lat="43.7944" lon="6.43512">
        <ele>647.3</ele>
        <time>2016-10-26T11:47:33Z</time>
      </trkpt>
      <trkpt lat="43.79447" lon="6.43521">
        <ele>647.5</ele>
        <time>2016-10-26T11:47:35Z</time>
      </trkpt>
      <trkpt lat="43.79455" lon="6.4353">
        <ele>647.7</ele>
        <time>2016-10-26T11:47:37Z</time>
      </trkpt>
      <trkpt lat="43.79463" lon="6.43538">
        <ele>647.9</ele>
        <time>2016-10-26T11:47:39Z</time>
      </trkpt>
      <trkpt lat="43.79471" lon="6.43548">
        <ele>648.1</ele>
        <time>2016-10-26T11:47:41Z</time>
      </trkpt>
      <trkpt lat="43.7948" lon="6.43557">
        <ele>648.3</ele>
        <time>2016-10-26T11:47:43Z</time>
      </trkpt>
      <trkpt lat="43.79488" lon="6.43566">
        <ele>648.4</ele>
        <time>2016-10-26T11:47:45Z</time>
      </trkpt>
      <trkpt lat="43.79498" lon="6.43575">
        <ele>648.7</ele>
        <time>2016-10-26T11:47:47Z</time>
      </trkpt>
      <trkpt lat="43.79507" lon="6.43584">
        <ele>648.8</ele>
        <time>2016-10-26T11:47:49Z</time>
      </trkpt>
      <trkpt lat="43.79516" lon="6.43592">
        <ele>649</ele>
        <time>2016-10-26T11:47:51Z</time>
      </trkpt>
      <trkpt lat="43.79524" lon="6.43601">
        <ele>649.2</ele>
        <time>2016-10-26T11:47:53Z</time>
      </trkpt>
      <trkpt lat="43.79534" lon="6.43609">
        <ele>649.4</ele>
        <time>2016-10-26T11:47:55Z</time>
      </trkpt>
      <trkpt lat="43.79542" lon="6.43617">
        <ele>649.5</ele>
        <time>2016-10-26T11:47:57Z</time>
      </trkpt>
      <trkpt lat="43.7955" lon="6.43625">
        <ele>649.7</ele>
        <time>2016-10-26T11:47:59Z</time>
      </trkpt>
      <trkpt lat="43.79558" lon="6.43633">
        <ele>649.8</ele>
        <time>2016-10-26T11:48:01Z</time>
      </trkpt>
      <trkpt lat="43.79565" lon="6.43642">
        <ele>649.9</ele>
        <time>2016-10-26T11:48:03Z</time>
      </trkpt>
      <trkpt lat="43.79571" lon="6.43652">
        <ele>650</ele>
        <time>2016-10-26T11:48:05Z</time>
      </trkpt>
      <trkpt lat="43.79577" lon="6.43663">
        <ele>650.1</ele>
        <time>2016-10-26T11:48:07Z</time>
      </trkpt>
      <trkpt lat="43.79581" lon="6.43675">
        <ele>650.2</ele>
        <time>2016-10-26T11:48:09Z</time>
      </trkpt>
      <trkpt lat="43.79585" lon="6.43686">
        <ele>650.4</ele>
        <time>2016-10-26T11:48:11Z</time>
      </trkpt>
      <trkpt lat="43.79588" lon="6.43699">
        <ele>650.5</ele>
        <time>2016-10-26T11:48:13Z</time>
      </trkpt>
      <trkpt lat="43.7959" lon="6.43711">
        <ele>650.7</ele>
        <time>2016-10-26T11:48:15Z</time>
      </trkpt>
      <trkpt lat="43.79594" lon="6.43724">
        <ele>650.8</ele>
        <time>2016-10-26T11:48:17Z</time>
      </trkpt>
      <trkpt lat="43.79597" lon="6.43737">
        <ele>650.9</ele>
        <time>2016-10-26T11:48:19Z</time>
      </trkpt>
      <trkpt lat="43.79601" lon="6.4375">
        <ele>651.2</ele>
        <time>2016-10-26T11:48:21Z</time>
      </trkpt>
      <trkpt lat="43.79604" lon="6.43762">
        <ele>651.5</ele>
        <time>2016-10-26T11:48:23Z</time>
      </trkpt>
      <trkpt lat="43.79608" lon="6.43774">
        <ele>651.7</ele>
        <time>2016-10-26T11:48:25Z</time>
      </trkpt>
      <trkpt lat="43.79614" lon="6.43785">
        <ele>652</ele>
        <time>2016-10-26T11:48:27Z</time>
      </trkpt>
      <trkpt lat="43.7962" lon="6.43796">
        <ele>652.2</ele>
        <time>2016-10-26T11:48:29Z</time>
      </trkpt>
      <trkpt lat="43.79627" lon="6.43806">
        <ele>652.5</ele>
        <time>2016-10-26T11:48:31Z</time>
      </trkpt>
      <trkpt lat="43.79636" lon="6.43814">
        <ele>652.7</ele>
        <time>2016-10-26T11:48:33Z</time>
      </trkpt>
      <trkpt lat="43.79644" lon="6.43822">
        <ele>653</ele>
        <time>2016-10-26T11:48:35Z</time>
      </trkpt>
      <trkpt lat="43.79653" lon="6.43829">
        <ele>653.2</ele>
        <time>2016-10-26T11:48:37Z</time>
      </trkpt>
      <trkpt lat="43.79661" lon="6.43836">
        <ele>653.3</ele>
        <time>2016-10-26T11:48:39Z</time>
      </trkpt>
      <trkpt lat="43.7967" lon="6.43843">
        <ele>653.5</ele>
        <time>2016-10-26T11:48:41Z</time>
      </trkpt>
      <trkpt lat="43.79679" lon="6.43848">
        <ele>653.6</ele>
        <time>2016-10-26T11:48:43Z</time>
      </trkpt>
      <trkpt lat="43.79689" lon="6.43851">
        <ele>653.8</ele>
        <time>2016-10-26T11:48:45Z</time>
      </trkpt>
      <trkpt lat="43.79699" lon="6.43851">
        <ele>653.9</ele>
        <time>2016-10-26T11:48:47Z</time>
      </trkpt>
      <trkpt lat="43.7971" lon="6.4385">
        <ele>654.1</ele>
        <time>2016-10-26T11:48:49Z</time>
      </trkpt>
      <trkpt lat="43.79719" lon="6.43849">
        <ele>654.2</ele>
        <time>2016-10-26T11:48:51Z</time>
      </trkpt>
      <trkpt lat="43.79729" lon="6.43848">
        <ele>654.3</ele>
        <time>2016-10-26T11:48:53Z</time>
      </trkpt>
      <trkpt lat="43.79739" lon="6.43847">
        <ele>654.4</ele>
        <time>2016-10-26T11:48:55Z</time>
      </trkpt>
      <trkpt lat="43.79749" lon="6.43846">
        <ele>654.5</ele>
        <time>2016-10-26T11:48:57Z</time>
      </trkpt>
      <trkpt lat="43.7976" lon="6.43844">
        <ele>654.6</ele>
        <time>2016-10-26T11:48:59Z</time>
      </trkpt>
      <trkpt lat="43.79771" lon="6.43841">
        <ele>654.7</ele>
        <time>2016-10-26T11:49:01Z</time>
      </trkpt>
      <trkpt lat="43.79782" lon="6.43839">
        <ele>654.8</ele>
        <time>2016-10-26T11:49:03Z</time>
      </trkpt>
      <trkpt lat="43.79794" lon="6.43837">
        <ele>654.9</ele>
        <time>2016-10-26T11:49:05Z</time>
      </trkpt>
      <trkpt lat="43.79805" lon="6.43834">
        <ele>655</ele>
        <time>2016-10-26T11:49:07Z</time>
      </trkpt>
      <trkpt lat="43.79816" lon="6.4383">
        <ele>655.1</ele>
        <time>2016-10-26T11:49:09Z</time>
      </trkpt>
      <trkpt lat="43.79828" lon="6.43828">
        <ele>655.2</ele>
        <time>2016-10-26T11:49:11Z</time>
      </trkpt>
      <trkpt lat="43.79839" lon="6.43825">
        <ele>655.3</ele>
        <time>2016-10-26T11:49:13Z</time>
      </trkpt>
      <trkpt lat="43.79849" lon="6.43822">
        <ele>655.4</ele>
        <time>2016-10-26T11:49:15Z</time>
      </trkpt>
      <trkpt lat="43.7986" lon="6.43819">
        <ele>655.5</ele>
        <time>2016-10-26T11:49:17Z</time>
      </trkpt>
      <trkpt lat="43.79871" lon="6.43816">
        <ele>655.5</ele>
        <time>2016-10-26T11:49:19Z</time>
      </trkpt>
      <trkpt lat="43.79882" lon="6.43812">
        <ele>655.6</ele>
        <time>2016-10-26T11:49:21Z</time>
      </trkpt>
      <trkpt lat="43.79892" lon="6.43808">
        <ele>655.7</ele>
        <time>2016-10-26T11:49:23Z</time>
      </trkpt>
      <trkpt lat="43.79903" lon="6.43803">
        <ele>655.7</ele>
        <time>2016-10-26T11:49:25Z</time>
      </trkpt>
      <trkpt lat="43.79913" lon="6.43799">
        <ele>655.8</ele>
        <time>2016-10-26T11:49:27Z</time>
      </trkpt>
      <trkpt lat="43.79924" lon="6.43795">
        <ele>655.8</ele>
        <time>2016-10-26T11:49:29Z</time>
      </trkpt>
      <trkpt lat="43.79935" lon="6.43795">
        <ele>655.9</ele>
        <time>2016-10-26T11:49:31Z</time>
      </trkpt>
      <trkpt lat="43.79946" lon="6.43797">
        <ele>655.9</ele>
        <time>2016-10-26T11:49:33Z</time>
      </trkpt>
      <trkpt lat="43.79956" lon="6.43803">
        <ele>655.9</ele>
        <time>2016-10-26T11:49:35Z</time>
      </trkpt>
      <trkpt lat="43.79966" lon="6.43811">
        <ele>655.9</ele>
        <time>2016-10-26T11:49:37Z</time>
      </trkpt>
      <trkpt lat="43.79974" lon="6.43822">
        <ele>655.8</ele>
        <time>2016-10-26T11:49:39Z</time>
      </trkpt>
      <trkpt lat="43.79981" lon="6.43831">
        <ele>655.8</ele>
        <time>2016-10-26T11:49:41Z</time>
      </trkpt>
      <trkpt lat="43.7999" lon="6.43838">
        <ele>655.8</ele>
        <time>2016-10-26T11:49:43Z</time>
      </trkpt>
      <trkpt lat="43.8" lon="6.43845">
        <ele>655.8</ele>
        <time>2016-10-26T11:49:45Z</time>
      </trkpt>
      <trkpt lat="43.8001" lon="6.43848">
        <ele>655.7</ele>
        <time>2016-10-26T11:49:47Z</time>
      </trkpt>
      <trkpt lat="43.8002" lon="6.43848">
        <ele>655.8</ele>
        <time>2016-10-26T11:49:49Z</time>
      </trkpt>
      <trkpt lat="43.8003" lon="6.43844">
        <ele>655.8</ele>
        <time>2016-10-26T11:49:51Z</time>
      </trkpt>
      <trkpt lat="43.80041" lon="6.43838">
        <ele>655.8</ele>
        <time>2016-10-26T11:49:53Z</time>
      </trkpt>
      <trkpt lat="43.80051" lon="6.43832">
        <ele>655.9</ele>
        <time>2016-10-26T11:49:55Z</time>
      </trkpt>
      <trkpt lat="43.80062" lon="6.43826">
        <ele>655.9</ele>
        <time>2016-10-26T11:49:57Z</time>
      </trkpt>
      <trkpt lat="43.80073" lon="6.4382">
        <ele>655.9</ele>
        <time>2016-10-26T11:49:59Z</time>
      </trkpt>
      <trkpt lat="43.80083" lon="6.43815">
        <ele>656</ele>
        <time>2016-10-26T11:50:01Z</time>
      </trkpt>
      <trkpt lat="43.80093" lon="6.43809">
        <ele>656</ele>
        <time>2016-10-26T11:50:03Z</time>
      </trkpt>
      <trkpt lat="43.80104" lon="6.43805">
        <ele>656</ele>
        <time>2016-10-26T11:50:05Z</time>
      </trkpt>
      <trkpt lat="43.80115" lon="6.43801">
        <ele>656</ele>
        <time>2016-10-26T11:50:07Z</time>
      </trkpt>
      <trkpt lat="43.80126" lon="6.43798">
        <ele>656.1</ele>
        <time>2016-10-26T11:50:09Z</time>
      </trkpt>
      <trkpt lat="43.80137" lon="6.43795">
        <ele>656.1</ele>
        <time>2016-10-26T11:50:11Z</time>
      </trkpt>
      <trkpt lat="43.80148" lon="6.43793">
        <ele>656.1</ele>
        <time>2016-10-26T11:50:13Z</time>
      </trkpt>
      <trkpt lat="43.80159" lon="6.43793">
        <ele>656.1</ele>
        <time>2016-10-26T11:50:15Z</time>
      </trkpt>
      <trkpt lat="43.80171" lon="6.43793">
        <ele>656.1</ele>
        <time>2016-10-26T11:50:17Z</time>
      </trkpt>
      <trkpt lat="43.80183" lon="6.43793">
        <ele>656.2</ele>
        <time>2016-10-26T11:50:19Z</time>
      </trkpt>
      <trkpt lat="43.80194" lon="6.4379">
        <ele>656.2</ele>
        <time>2016-10-26T11:50:21Z</time>
      </trkpt>
      <trkpt lat="43.80205" lon="6.43789">
        <ele>656.2</ele>
        <time>2016-10-26T11:50:23Z</time>
      </trkpt>
      <trkpt lat="43.80216" lon="6.43786">
        <ele>656.2</ele>
        <time>2016-10-26T11:50:25Z</time>
      </trkpt>
      <trkpt lat="43.80227" lon="6.43784">
        <ele>656.3</ele>
        <time>2016-10-26T11:50:27Z</time>
      </trkpt>
      <trkpt lat="43.80239" lon="6.43781">
        <ele>656.5</ele>
        <time>2016-10-26T11:50:29Z</time>
      </trkpt>
      <trkpt lat="43.80249" lon="6.43779">
        <ele>656.6</ele>
        <time>2016-10-26T11:50:31Z</time>
      </trkpt>
      <trkpt lat="43.8026" lon="6.4378">
        <ele>656.9</ele>
        <time>2016-10-26T11:50:33Z</time>
      </trkpt>
      <trkpt lat="43.80271" lon="6.43781">
        <ele>657.2</ele>
        <time>2016-10-26T11:50:35Z</time>
      </trkpt>
      <trkpt lat="43.80282" lon="6.43784">
        <ele>657.4</ele>
        <time>2016-10-26T11:50:37Z</time>
      </trkpt>
      <trkpt lat="43.80293" lon="6.43786">
        <ele>657.5</ele>
        <time>2016-10-26T11:50:39Z</time>
      </trkpt>
      <trkpt lat="43.80304" lon="6.43788">
        <ele>657.6</ele>
        <time>2016-10-26T11:50:41Z</time>
      </trkpt>
      <trkpt lat="43.80314" lon="6.43792">
        <ele>657.5</ele>
        <time>2016-10-26T11:50:43Z</time>
      </trkpt>
      <trkpt lat="43.80326" lon="6.43797">
        <ele>657.5</ele>
        <time>2016-10-26T11:50:45Z</time>
      </trkpt>
      <trkpt lat="43.80337" lon="6.43803">
        <ele>657.4</ele>
        <time>2016-10-26T11:50:47Z</time>
      </trkpt>
      <trkpt lat="43.80348" lon="6.43811">
        <ele>657.4</ele>
        <time>2016-10-26T11:50:49Z</time>
      </trkpt>
      <trkpt lat="43.80359" lon="6.43819">
        <ele>657.4</ele>
        <time>2016-10-26T11:50:51Z</time>
      </trkpt>
      <trkpt lat="43.8037" lon="6.43828">
        <ele>657.4</ele>
        <time>2016-10-26T11:50:53Z</time>
      </trkpt>
      <trkpt lat="43.8038" lon="6.43835">
        <ele>657.4</ele>
        <time>2016-10-26T11:50:55Z</time>
      </trkpt>
      <trkpt lat="43.80391" lon="6.43841">
        <ele>657.3</ele>
        <time>2016-10-26T11:50:57Z</time>
      </trkpt>
      <trkpt lat="43.80403" lon="6.43848">
        <ele>657.3</ele>
        <time>2016-10-26T11:50:59Z</time>
      </trkpt>
      <trkpt lat="43.80413" lon="6.43857">
        <ele>657.3</ele>
        <time>2016-10-26T11:51:01Z</time>
      </trkpt>
      <trkpt lat="43.8042" lon="6.4387">
        <ele>657.2</ele>
        <time>2016-10-26T11:51:03Z</time>
      </trkpt>
      <trkpt lat="43.80424" lon="6.43886">
        <ele>657.2</ele>
        <time>2016-10-26T11:51:05Z</time>
      </trkpt>
      <trkpt lat="43.80426" lon="6.43902">
        <ele>657.2</ele>
        <time>2016-10-26T11:51:07Z</time>
      </trkpt>
      <trkpt lat="43.80427" lon="6.43918">
        <ele>657.2</ele>
        <time>2016-10-26T11:51:09Z</time>
      </trkpt>
      <trkpt lat="43.80429" lon="6.43934">
        <ele>657.2</ele>
        <time>2016-10-26T11:51:11Z</time>
      </trkpt>
      <trkpt lat="43.80431" lon="6.43949">
        <ele>657.2</ele>
        <time>2016-10-26T11:51:13Z</time>
      </trkpt>
      <trkpt lat="43.80431" lon="6.43965">
        <ele>657.2</ele>
        <time>2016-10-26T11:51:15Z</time>
      </trkpt>
      <trkpt lat="43.80431" lon="6.4398">
        <ele>657.2</ele>
        <time>2016-10-26T11:51:17Z</time>
      </trkpt>
      <trkpt lat="43.8043" lon="6.43995">
        <ele>657.2</ele>
        <time>2016-10-26T11:51:19Z</time>
      </trkpt>
      <trkpt lat="43.80428" lon="6.4401">
        <ele>657.2</ele>
        <time>2016-10-26T11:51:21Z</time>
      </trkpt>
      <trkpt lat="43.80427" lon="6.44026">
        <ele>657.2</ele>
        <time>2016-10-26T11:51:23Z</time>
      </trkpt>
      <trkpt lat="43.80425" lon="6.44041">
        <ele>657.2</ele>
        <time>2016-10-26T11:51:25Z</time>
      </trkpt>
      <trkpt lat="43.80425" lon="6.44056">
        <ele>657.2</ele>
        <time>2016-10-26T11:51:27Z</time>
      </trkpt>
      <trkpt lat="43.80426" lon="6.4407">
        <ele>657.1</ele>
        <time>2016-10-26T11:51:29Z</time>
      </trkpt>
      <trkpt lat="43.80428" lon="6.44085">
        <ele>657</ele>
        <time>2016-10-26T11:51:31Z</time>
      </trkpt>
      <trkpt lat="43.80435" lon="6.44098">
        <ele>656.9</ele>
        <time>2016-10-26T11:51:33Z</time>
      </trkpt>
      <trkpt lat="43.80445" lon="6.44106">
        <ele>656.8</ele>
        <time>2016-10-26T11:51:35Z</time>
      </trkpt>
      <trkpt lat="43.80455" lon="6.44108">
        <ele>656.7</ele>
        <time>2016-10-26T11:51:37Z</time>
      </trkpt>
      <trkpt lat="43.80467" lon="6.44105">
        <ele>656.7</ele>
        <time>2016-10-26T11:51:39Z</time>
      </trkpt>
      <trkpt lat="43.80478" lon="6.44098">
        <ele>656.6</ele>
        <time>2016-10-26T11:51:41Z</time>
      </trkpt>
      <trkpt lat="43.80488" lon="6.4409">
        <ele>656.6</ele>
        <time>2016-10-26T11:51:43Z</time>
      </trkpt>
      <trkpt lat="43.80498" lon="6.44081">
        <ele>656.6</ele>
        <time>2016-10-26T11:51:45Z</time>
      </trkpt>
      <trkpt lat="43.80508" lon="6.44068">
        <ele>656.6</ele>
        <time>2016-10-26T11:51:47Z</time>
      </trkpt>
      <trkpt lat="43.80514" lon="6.44054">
        <ele>656.6</ele>
        <time>2016-10-26T11:51:49Z</time>
      </trkpt>
      <trkpt lat="43.80521" lon="6.44039">
        <ele>656.6</ele>
        <time>2016-10-26T11:51:51Z</time>
      </trkpt>
      <trkpt lat="43.80529" lon="6.44026">
        <ele>656.5</ele>
        <time>2016-10-26T11:51:53Z</time>
      </trkpt>
      <trkpt lat="43.80538" lon="6.44017">
        <ele>656.5</ele>
        <time>2016-10-26T11:51:55Z</time>
      </trkpt>
      <trkpt lat="43.80548" lon="6.44011">
        <ele>656.5</ele>
        <time>2016-10-26T11:51:57Z</time>
      </trkpt>
      <trkpt lat="43.80558" lon="6.44007">
        <ele>656.6</ele>
        <time>2016-10-26T11:51:59Z</time>
      </trkpt>
      <trkpt lat="43.80566" lon="6.44002">
        <ele>656.6</ele>
        <time>2016-10-26T11:52:01Z</time>
      </trkpt>
      <trkpt lat="43.80576" lon="6.4399">
        <ele>656.7</ele>
        <time>2016-10-26T11:52:04Z</time>
      </trkpt>
      <trkpt lat="43.80581" lon="6.43978">
        <ele>656.7</ele>
        <time>2016-10-26T11:52:06Z</time>
      </trkpt>
      <trkpt lat="43.80584" lon="6.43965">
        <ele>656.8</ele>
        <time>2016-10-26T11:52:08Z</time>
      </trkpt>
      <trkpt lat="43.80587" lon="6.43954">
        <ele>656.9</ele>
        <time>2016-10-26T11:52:10Z</time>
      </trkpt>
      <trkpt lat="43.80592" lon="6.43941">
        <ele>657</ele>
        <time>2016-10-26T11:52:12Z</time>
      </trkpt>
      <trkpt lat="43.80595" lon="6.43929">
        <ele>657.1</ele>
        <time>2016-10-26T11:52:14Z</time>
      </trkpt>
      <trkpt lat="43.80599" lon="6.43917">
        <ele>657.2</ele>
        <time>2016-10-26T11:52:16Z</time>
      </trkpt>
      <trkpt lat="43.80603" lon="6.43904">
        <ele>657.3</ele>
        <time>2016-10-26T11:52:18Z</time>
      </trkpt>
      <trkpt lat="43.80608" lon="6.43891">
        <ele>657.4</ele>
        <time>2016-10-26T11:52:20Z</time>
      </trkpt>
      <trkpt lat="43.80614" lon="6.43877">
        <ele>657.5</ele>
        <time>2016-10-26T11:52:22Z</time>
      </trkpt>
      <trkpt lat="43.8062" lon="6.43864">
        <ele>657.5</ele>
        <time>2016-10-26T11:52:24Z</time>
      </trkpt>
      <trkpt lat="43.80629" lon="6.43853">
        <ele>657.6</ele>
        <time>2016-10-26T11:52:26Z</time>
      </trkpt>
      <trkpt lat="43.80639" lon="6.43844">
        <ele>657.6</ele>
        <time>2016-10-26T11:52:28Z</time>
      </trkpt>
      <trkpt lat="43.8065" lon="6.43836">
        <ele>657.6</ele>
        <time>2016-10-26T11:52:30Z</time>
      </trkpt>
      <trkpt lat="43.8066" lon="6.43829">
        <ele>657.7</ele>
        <time>2016-10-26T11:52:32Z</time>
      </trkpt>
      <trkpt lat="43.8067" lon="6.43822">
        <ele>657.7</ele>
        <time>2016-10-26T11:52:34Z</time>
      </trkpt>
      <trkpt lat="43.80681" lon="6.43816">
        <ele>657.7</ele>
        <time>2016-10-26T11:52:36Z</time>
      </trkpt>
      <trkpt lat="43.80691" lon="6.43809">
        <ele>657.7</ele>
        <time>2016-10-26T11:52:38Z</time>
      </trkpt>
      <trkpt lat="43.80702" lon="6.43805">
        <ele>657.7</ele>
        <time>2016-10-26T11:52:40Z</time>
      </trkpt>
      <trkpt lat="43.80713" lon="6.43802">
        <ele>657.7</ele>
        <time>2016-10-26T11:52:42Z</time>
      </trkpt>
      <trkpt lat="43.80724" lon="6.43799">
        <ele>657.7</ele>
        <time>2016-10-26T11:52:44Z</time>
      </trkpt>
      <trkpt lat="43.80735" lon="6.43798">
        <ele>657.7</ele>
        <time>2016-10-26T11:52:46Z</time>
      </trkpt>
      <trkpt lat="43.80747" lon="6.43798">
        <ele>657.8</ele>
        <time>2016-10-26T11:52:48Z</time>
      </trkpt>
      <trkpt lat="43.80758" lon="6.438">
        <ele>657.9</ele>
        <time>2016-10-26T11:52:50Z</time>
      </trkpt>
      <trkpt lat="43.8077" lon="6.43801">
        <ele>658</ele>
        <time>2016-10-26T11:52:52Z</time>
      </trkpt>
      <trkpt lat="43.80782" lon="6.43802">
        <ele>658.1</ele>
        <time>2016-10-26T11:52:54Z</time>
      </trkpt>
      <trkpt lat="43.80794" lon="6.43804">
        <ele>658.4</ele>
        <time>2016-10-26T11:52:56Z</time>
      </trkpt>
      <trkpt lat="43.80805" lon="6.43807">
        <ele>658.6</ele>
        <time>2016-10-26T11:52:58Z</time>
      </trkpt>
      <trkpt lat="43.80818" lon="6.43811">
        <ele>658.7</ele>
        <time>2016-10-26T11:53:00Z</time>
      </trkpt>
      <trkpt lat="43.8083" lon="6.43814">
        <ele>658.8</ele>
        <time>2016-10-26T11:53:02Z</time>
      </trkpt>
      <trkpt lat="43.80843" lon="6.43816">
        <ele>658.9</ele>
        <time>2016-10-26T11:53:04Z</time>
      </trkpt>
      <trkpt lat="43.80855" lon="6.43818">
        <ele>659</ele>
        <time>2016-10-26T11:53:06Z</time>
      </trkpt>
      <trkpt lat="43.80866" lon="6.4382">
        <ele>659.1</ele>
        <time>2016-10-26T11:53:08Z</time>
      </trkpt>
      <trkpt lat="43.80877" lon="6.43821">
        <ele>659.2</ele>
        <time>2016-10-26T11:53:10Z</time>
      </trkpt>
      <trkpt lat="43.80887" lon="6.43819">
        <ele>659.3</ele>
        <time>2016-10-26T11:53:12Z</time>
      </trkpt>
      <trkpt lat="43.80896" lon="6.43815">
        <ele>659.4</ele>
        <time>2016-10-26T11:53:14Z</time>
      </trkpt>
      <trkpt lat="43.80904" lon="6.43809">
        <ele>659.6</ele>
        <time>2016-10-26T11:53:16Z</time>
      </trkpt>
      <trkpt lat="43.80913" lon="6.43802">
        <ele>659.8</ele>
        <time>2016-10-26T11:53:18Z</time>
      </trkpt>
      <trkpt lat="43.80921" lon="6.43796">
        <ele>659.9</ele>
        <time>2016-10-26T11:53:20Z</time>
      </trkpt>
      <trkpt lat="43.8093" lon="6.4379">
        <ele>660</ele>
        <time>2016-10-26T11:53:22Z</time>
      </trkpt>
      <trkpt lat="43.80939" lon="6.43785">
        <ele>660.2</ele>
        <time>2016-10-26T11:53:24Z</time>
      </trkpt>
      <trkpt lat="43.80952" lon="6.43778">
        <ele>660.3</ele>
        <time>2016-10-26T11:53:27Z</time>
      </trkpt>
      <trkpt lat="43.80964" lon="6.43772">
        <ele>660.4</ele>
        <time>2016-10-26T11:53:30Z</time>
      </trkpt>
      <trkpt lat="43.80975" lon="6.43765">
        <ele>660.8</ele>
        <time>2016-10-26T11:53:33Z</time>
      </trkpt>
      <trkpt lat="43.80986" lon="6.43757">
        <ele>660.9</ele>
        <time>2016-10-26T11:53:36Z</time>
      </trkpt>
      <trkpt lat="43.80996" lon="6.43748">
        <ele>660.8</ele>
        <time>2016-10-26T11:53:39Z</time>
      </trkpt>
      <trkpt lat="43.81006" lon="6.4374">
        <ele>660.8</ele>
        <time>2016-10-26T11:53:42Z</time>
      </trkpt>
      <trkpt lat="43.81015" lon="6.4373">
        <ele>660.6</ele>
        <time>2016-10-26T11:53:45Z</time>
      </trkpt>
      <trkpt lat="43.81025" lon="6.4372">
        <ele>660.4</ele>
        <time>2016-10-26T11:53:48Z</time>
      </trkpt>
      <trkpt lat="43.81036" lon="6.43712">
        <ele>660.2</ele>
        <time>2016-10-26T11:53:51Z</time>
      </trkpt>
      <trkpt lat="43.81046" lon="6.43706">
        <ele>660.1</ele>
        <time>2016-10-26T11:53:53Z</time>
      </trkpt>
      <trkpt lat="43.81055" lon="6.43702">
        <ele>660</ele>
        <time>2016-10-26T11:53:55Z</time>
      </trkpt>
      <trkpt lat="43.81064" lon="6.43699">
        <ele>660.1</ele>
        <time>2016-10-26T11:53:57Z</time>
      </trkpt>
      <trkpt lat="43.81073" lon="6.43697">
        <ele>660.2</ele>
        <time>2016-10-26T11:53:59Z</time>
      </trkpt>
      <trkpt lat="43.81083" lon="6.43692">
        <ele>660.3</ele>
        <time>2016-10-26T11:54:02Z</time>
      </trkpt>
      <trkpt lat="43.81096" lon="6.43685">
        <ele>660.4</ele>
        <time>2016-10-26T11:54:05Z</time>
      </trkpt>
      <trkpt lat="43.81104" lon="6.43681">
        <ele>660.3</ele>
        <time>2016-10-26T11:54:07Z</time>
      </trkpt>
      <trkpt lat="43.81113" lon="6.43677">
        <ele>660.2</ele>
        <time>2016-10-26T11:54:09Z</time>
      </trkpt>
      <trkpt lat="43.81124" lon="6.43667">
        <ele>660.1</ele>
        <time>2016-10-26T11:54:12Z</time>
      </trkpt>
      <trkpt lat="43.81136" lon="6.43658">
        <ele>659.9</ele>
        <time>2016-10-26T11:54:15Z</time>
      </trkpt>
      <trkpt lat="43.81145" lon="6.43652">
        <ele>659.8</ele>
        <time>2016-10-26T11:54:17Z</time>
      </trkpt>
      <trkpt lat="43.81155" lon="6.43649">
        <ele>659.7</ele>
        <time>2016-10-26T11:54:19Z</time>
      </trkpt>
      <trkpt lat="43.81165" lon="6.43649">
        <ele>659.7</ele>
        <time>2016-10-26T11:54:21Z</time>
      </trkpt>
      <trkpt lat="43.81175" lon="6.43652">
        <ele>659.6</ele>
        <time>2016-10-26T11:54:23Z</time>
      </trkpt>
      <trkpt lat="43.81184" lon="6.43655">
        <ele>659.7</ele>
        <time>2016-10-26T11:54:25Z</time>
      </trkpt>
      <trkpt lat="43.81193" lon="6.43658">
        <ele>659.8</ele>
        <time>2016-10-26T11:54:27Z</time>
      </trkpt>
      <trkpt lat="43.81205" lon="6.43663">
        <ele>660.1</ele>
        <time>2016-10-26T11:54:30Z</time>
      </trkpt>
      <trkpt lat="43.81218" lon="6.43669">
        <ele>660.4</ele>
        <time>2016-10-26T11:54:33Z</time>
      </trkpt>
      <trkpt lat="43.81227" lon="6.43673">
        <ele>660.6</ele>
        <time>2016-10-26T11:54:35Z</time>
      </trkpt>
      <trkpt lat="43.81236" lon="6.43677">
        <ele>660.8</ele>
        <time>2016-10-26T11:54:37Z</time>
      </trkpt>
      <trkpt lat="43.81244" lon="6.43683">
        <ele>661</ele>
        <time>2016-10-26T11:54:39Z</time>
      </trkpt>
      <trkpt lat="43.81253" lon="6.43689">
        <ele>661.2</ele>
        <time>2016-10-26T11:54:41Z</time>
      </trkpt>
      <trkpt lat="43.81261" lon="6.43694">
        <ele>661.4</ele>
        <time>2016-10-26T11:54:43Z</time>
      </trkpt>
      <trkpt lat="43.81269" lon="6.43701">
        <ele>661.5</ele>
        <time>2016-10-26T11:54:45Z</time>
      </trkpt>
      <trkpt lat="43.8128" lon="6.43712">
        <ele>661.8</ele>
        <time>2016-10-26T11:54:48Z</time>
      </trkpt>
      <trkpt lat="43.81288" lon="6.4372">
        <ele>662</ele>
        <time>2016-10-26T11:54:50Z</time>
      </trkpt>
      <trkpt lat="43.81295" lon="6.43728">
        <ele>662.1</ele>
        <time>2016-10-26T11:54:52Z</time>
      </trkpt>
      <trkpt lat="43.81302" lon="6.43737">
        <ele>662.2</ele>
        <time>2016-10-26T11:54:54Z</time>
      </trkpt>
      <trkpt lat="43.81312" lon="6.43747">
        <ele>662.4</ele>
        <time>2016-10-26T11:54:57Z</time>
      </trkpt>
      <trkpt lat="43.81319" lon="6.43755">
        <ele>662.6</ele>
        <time>2016-10-26T11:54:59Z</time>
      </trkpt>
      <trkpt lat="43.81327" lon="6.43763">
        <ele>662.7</ele>
        <time>2016-10-26T11:55:01Z</time>
      </trkpt>
      <trkpt lat="43.81335" lon="6.43772">
        <ele>662.9</ele>
        <time>2016-10-26T11:55:03Z</time>
      </trkpt>
      <trkpt lat="43.81343" lon="6.4378">
        <ele>663</ele>
        <time>2016-10-26T11:55:05Z</time>
      </trkpt>
      <trkpt lat="43.81351" lon="6.43789">
        <ele>663.1</ele>
        <time>2016-10-26T11:55:07Z</time>
      </trkpt>
      <trkpt lat="43.81358" lon="6.43798">
        <ele>663.1</ele>
        <time>2016-10-26T11:55:09Z</time>
      </trkpt>
      <trkpt lat="43.81366" lon="6.43806">
        <ele>663.2</ele>
        <time>2016-10-26T11:55:11Z</time>
      </trkpt>
      <trkpt lat="43.81375" lon="6.43814">
        <ele>663.3</ele>
        <time>2016-10-26T11:55:13Z</time>
      </trkpt>
      <trkpt lat="43.81386" lon="6.43819">
        <ele>663.4</ele>
        <time>2016-10-26T11:55:15Z</time>
      </trkpt>
      <trkpt lat="43.81396" lon="6.43822">
        <ele>663.5</ele>
        <time>2016-10-26T11:55:17Z</time>
      </trkpt>
      <trkpt lat="43.81407" lon="6.43824">
        <ele>663.5</ele>
        <time>2016-10-26T11:55:19Z</time>
      </trkpt>
      <trkpt lat="43.81416" lon="6.43826">
        <ele>663.7</ele>
        <time>2016-10-26T11:55:21Z</time>
      </trkpt>
      <trkpt lat="43.8143" lon="6.43825">
        <ele>664</ele>
        <time>2016-10-26T11:55:24Z</time>
      </trkpt>
      <trkpt lat="43.81444" lon="6.43837">
        <ele>664.3</ele>
        <time>2016-10-26T11:55:26Z</time>
      </trkpt>
      <trkpt lat="43.81454" lon="6.43837">
        <ele>664.6</ele>
        <time>2016-10-26T11:55:28Z</time>
      </trkpt>
      <trkpt lat="43.81464" lon="6.43837">
        <ele>664.9</ele>
        <time>2016-10-26T11:55:30Z</time>
      </trkpt>
      <trkpt lat="43.81474" lon="6.43834">
        <ele>665.1</ele>
        <time>2016-10-26T11:55:32Z</time>
      </trkpt>
      <trkpt lat="43.81484" lon="6.43829">
        <ele>665.3</ele>
        <time>2016-10-26T11:55:34Z</time>
      </trkpt>
      <trkpt lat="43.81493" lon="6.43824">
        <ele>665.4</ele>
        <time>2016-10-26T11:55:36Z</time>
      </trkpt>
      <trkpt lat="43.81503" lon="6.43822">
        <ele>665.5</ele>
        <time>2016-10-26T11:55:38Z</time>
      </trkpt>
      <trkpt lat="43.81513" lon="6.43822">
        <ele>665.6</ele>
        <time>2016-10-26T11:55:40Z</time>
      </trkpt>
      <trkpt lat="43.81523" lon="6.43821">
        <ele>665.7</ele>
        <time>2016-10-26T11:55:42Z</time>
      </trkpt>
      <trkpt lat="43.81533" lon="6.43818">
        <ele>665.8</ele>
        <time>2016-10-26T11:55:44Z</time>
      </trkpt>
      <trkpt lat="43.81542" lon="6.43812">
        <ele>665.8</ele>
        <time>2016-10-26T11:55:46Z</time>
      </trkpt>
      <trkpt lat="43.8155" lon="6.43804">
        <ele>665.9</ele>
        <time>2016-10-26T11:55:48Z</time>
      </trkpt>
      <trkpt lat="43.81556" lon="6.43795">
        <ele>666</ele>
        <time>2016-10-26T11:55:50Z</time>
      </trkpt>
      <trkpt lat="43.81562" lon="6.43785">
        <ele>666</ele>
        <time>2016-10-26T11:55:52Z</time>
      </trkpt>
      <trkpt lat="43.81568" lon="6.43768">
        <ele>666.1</ele>
        <time>2016-10-26T11:55:55Z</time>
      </trkpt>
      <trkpt lat="43.81571" lon="6.43756">
        <ele>666.1</ele>
        <time>2016-10-26T11:55:57Z</time>
      </trkpt>
      <trkpt lat="43.81572" lon="6.43743">
        <ele>666.2</ele>
        <time>2016-10-26T11:55:59Z</time>
      </trkpt>
      <trkpt lat="43.81575" lon="6.43731">
        <ele>666.2</ele>
        <time>2016-10-26T11:56:01Z</time>
      </trkpt>
      <trkpt lat="43.81578" lon="6.43717">
        <ele>666.3</ele>
        <time>2016-10-26T11:56:03Z</time>
      </trkpt>
      <trkpt lat="43.81584" lon="6.43704">
        <ele>666.3</ele>
        <time>2016-10-26T11:56:05Z</time>
      </trkpt>
      <trkpt lat="43.81591" lon="6.43694">
        <ele>666.3</ele>
        <time>2016-10-26T11:56:07Z</time>
      </trkpt>
      <trkpt lat="43.81601" lon="6.43685">
        <ele>666.2</ele>
        <time>2016-10-26T11:56:10Z</time>
      </trkpt>
      <trkpt lat="43.81611" lon="6.43673">
        <ele>666.1</ele>
        <time>2016-10-26T11:56:13Z</time>
      </trkpt>
      <trkpt lat="43.81623" lon="6.43675">
        <ele>666</ele>
        <time>2016-10-26T11:56:16Z</time>
      </trkpt>
      <trkpt lat="43.81635" lon="6.43676">
        <ele>665.8</ele>
        <time>2016-10-26T11:56:19Z</time>
      </trkpt>
      <trkpt lat="43.81648" lon="6.43679">
        <ele>665.6</ele>
        <time>2016-10-26T11:56:22Z</time>
      </trkpt>
      <trkpt lat="43.8166" lon="6.4368">
        <ele>665.5</ele>
        <time>2016-10-26T11:56:25Z</time>
      </trkpt>
      <trkpt lat="43.8167" lon="6.43684">
        <ele>665.4</ele>
        <time>2016-10-26T11:56:27Z</time>
      </trkpt>
      <trkpt lat="43.81682" lon="6.43684">
        <ele>665.3</ele>
        <time>2016-10-26T11:56:30Z</time>
      </trkpt>
      <trkpt lat="43.81694" lon="6.4368">
        <ele>665.3</ele>
        <time>2016-10-26T11:56:33Z</time>
      </trkpt>
      <trkpt lat="43.81704" lon="6.43679">
        <ele>665.2</ele>
        <time>2016-10-26T11:56:35Z</time>
      </trkpt>
      <trkpt lat="43.81715" lon="6.43678">
        <ele>665.2</ele>
        <time>2016-10-26T11:56:37Z</time>
      </trkpt>
      <trkpt lat="43.81725" lon="6.43676">
        <ele>665.2</ele>
        <time>2016-10-26T11:56:39Z</time>
      </trkpt>
      <trkpt lat="43.81737" lon="6.43674">
        <ele>665.1</ele>
        <time>2016-10-26T11:56:41Z</time>
      </trkpt>
      <trkpt lat="43.81747" lon="6.43672">
        <ele>665</ele>
        <time>2016-10-26T11:56:43Z</time>
      </trkpt>
      <trkpt lat="43.81757" lon="6.43668">
        <ele>664.8</ele>
        <time>2016-10-26T11:56:45Z</time>
      </trkpt>
      <trkpt lat="43.81767" lon="6.43665">
        <ele>664.7</ele>
        <time>2016-10-26T11:56:47Z</time>
      </trkpt>
      <trkpt lat="43.81777" lon="6.43661">
        <ele>664.6</ele>
        <time>2016-10-26T11:56:49Z</time>
      </trkpt>
      <trkpt lat="43.81787" lon="6.43656">
        <ele>664.5</ele>
        <time>2016-10-26T11:56:51Z</time>
      </trkpt>
      <trkpt lat="43.81797" lon="6.43652">
        <ele>664.4</ele>
        <time>2016-10-26T11:56:53Z</time>
      </trkpt>
      <trkpt lat="43.81807" lon="6.43646">
        <ele>664.4</ele>
        <time>2016-10-26T11:56:55Z</time>
      </trkpt>
      <trkpt lat="43.81816" lon="6.43641">
        <ele>664.4</ele>
        <time>2016-10-26T11:56:57Z</time>
      </trkpt>
      <trkpt lat="43.81825" lon="6.43633">
        <ele>664.4</ele>
        <time>2016-10-26T11:56:59Z</time>
      </trkpt>
      <trkpt lat="43.81833" lon="6.43626">
        <ele>664.4</ele>
        <time>2016-10-26T11:57:01Z</time>
      </trkpt>
      <trkpt lat="43.81842" lon="6.43618">
        <ele>664.3</ele>
        <time>2016-10-26T11:57:03Z</time>
      </trkpt>
      <trkpt lat="43.8185" lon="6.43609">
        <ele>664.3</ele>
        <time>2016-10-26T11:57:05Z</time>
      </trkpt>
      <trkpt lat="43.81858" lon="6.43601">
        <ele>664.4</ele>
        <time>2016-10-26T11:57:07Z</time>
      </trkpt>
      <trkpt lat="43.81866" lon="6.43591">
        <ele>664.4</ele>
        <time>2016-10-26T11:57:09Z</time>
      </trkpt>
      <trkpt lat="43.81874" lon="6.4358">
        <ele>664.5</ele>
        <time>2016-10-26T11:57:11Z</time>
      </trkpt>
      <trkpt lat="43.8188" lon="6.43568">
        <ele>664.6</ele>
        <time>2016-10-26T11:57:13Z</time>
      </trkpt>
      <trkpt lat="43.81886" lon="6.43556">
        <ele>664.6</ele>
        <time>2016-10-26T11:57:15Z</time>
      </trkpt>
      <trkpt lat="43.81892" lon="6.43544">
        <ele>664.7</ele>
        <time>2016-10-26T11:57:17Z</time>
      </trkpt>
      <trkpt lat="43.81897" lon="6.43532">
        <ele>664.8</ele>
        <time>2016-10-26T11:57:19Z</time>
      </trkpt>
      <trkpt lat="43.81903" lon="6.4352">
        <ele>664.8</ele>
        <time>2016-10-26T11:57:21Z</time>
      </trkpt>
      <trkpt lat="43.81908" lon="6.43509">
        <ele>664.9</ele>
        <time>2016-10-26T11:57:23Z</time>
      </trkpt>
      <trkpt lat="43.81913" lon="6.43496">
        <ele>664.9</ele>
        <time>2016-10-26T11:57:25Z</time>
      </trkpt>
      <trkpt lat="43.81919" lon="6.43484">
        <ele>665</ele>
        <time>2016-10-26T11:57:27Z</time>
      </trkpt>
      <trkpt lat="43.81924" lon="6.4347">
        <ele>665.1</ele>
        <time>2016-10-26T11:57:29Z</time>
      </trkpt>
      <trkpt lat="43.81929" lon="6.43456">
        <ele>665.1</ele>
        <time>2016-10-26T11:57:31Z</time>
      </trkpt>
      <trkpt lat="43.81935" lon="6.43442">
        <ele>665.2</ele>
        <time>2016-10-26T11:57:33Z</time>
      </trkpt>
      <trkpt lat="43.81941" lon="6.43428">
        <ele>665.2</ele>
        <time>2016-10-26T11:57:35Z</time>
      </trkpt>
      <trkpt lat="43.81947" lon="6.43414">
        <ele>665.3</ele>
        <time>2016-10-26T11:57:37Z</time>
      </trkpt>
      <trkpt lat="43.81953" lon="6.434">
        <ele>665.3</ele>
        <time>2016-10-26T11:57:39Z</time>
      </trkpt>
      <trkpt lat="43.81961" lon="6.43389">
        <ele>665.3</ele>
        <time>2016-10-26T11:57:41Z</time>
      </trkpt>
      <trkpt lat="43.81969" lon="6.43378">
        <ele>665.4</ele>
        <time>2016-10-26T11:57:43Z</time>
      </trkpt>
      <trkpt lat="43.81978" lon="6.43369">
        <ele>665.4</ele>
        <time>2016-10-26T11:57:45Z</time>
      </trkpt>
      <trkpt lat="43.81988" lon="6.43361">
        <ele>665.4</ele>
        <time>2016-10-26T11:57:47Z</time>
      </trkpt>
      <trkpt lat="43.81997" lon="6.43353">
        <ele>665.5</ele>
        <time>2016-10-26T11:57:49Z</time>
      </trkpt>
      <trkpt lat="43.82005" lon="6.43343">
        <ele>665.5</ele>
        <time>2016-10-26T11:57:51Z</time>
      </trkpt>
      <trkpt lat="43.82012" lon="6.43332">
        <ele>665.5</ele>
        <time>2016-10-26T11:57:53Z</time>
      </trkpt>
      <trkpt lat="43.82019" lon="6.4332">
        <ele>665.6</ele>
        <time>2016-10-26T11:57:55Z</time>
      </trkpt>
      <trkpt lat="43.82023" lon="6.43306">
        <ele>665.7</ele>
        <time>2016-10-26T11:57:57Z</time>
      </trkpt>
      <trkpt lat="43.82027" lon="6.4329">
        <ele>665.8</ele>
        <time>2016-10-26T11:57:59Z</time>
      </trkpt>
      <trkpt lat="43.82031" lon="6.43275">
        <ele>665.9</ele>
        <time>2016-10-26T11:58:01Z</time>
      </trkpt>
      <trkpt lat="43.82036" lon="6.4326">
        <ele>666.1</ele>
        <time>2016-10-26T11:58:03Z</time>
      </trkpt>
      <trkpt lat="43.82042" lon="6.43246">
        <ele>666.2</ele>
        <time>2016-10-26T11:58:05Z</time>
      </trkpt>
      <trkpt lat="43.82048" lon="6.43233">
        <ele>666.3</ele>
        <time>2016-10-26T11:58:07Z</time>
      </trkpt>
      <trkpt lat="43.82055" lon="6.4322">
        <ele>666.3</ele>
        <time>2016-10-26T11:58:09Z</time>
      </trkpt>
      <trkpt lat="43.82063" lon="6.43209">
        <ele>666.5</ele>
        <time>2016-10-26T11:58:11Z</time>
      </trkpt>
      <trkpt lat="43.82072" lon="6.43199">
        <ele>666.6</ele>
        <time>2016-10-26T11:58:13Z</time>
      </trkpt>
      <trkpt lat="43.82081" lon="6.43188">
        <ele>666.7</ele>
        <time>2016-10-26T11:58:15Z</time>
      </trkpt>
      <trkpt lat="43.82089" lon="6.43176">
        <ele>666.8</ele>
        <time>2016-10-26T11:58:17Z</time>
      </trkpt>
      <trkpt lat="43.82096" lon="6.43163">
        <ele>666.9</ele>
        <time>2016-10-26T11:58:19Z</time>
      </trkpt>
      <trkpt lat="43.82103" lon="6.4315">
        <ele>667</ele>
        <time>2016-10-26T11:58:21Z</time>
      </trkpt>
      <trkpt lat="43.82112" lon="6.4314">
        <ele>667.1</ele>
        <time>2016-10-26T11:58:23Z</time>
      </trkpt>
      <trkpt lat="43.82122" lon="6.43133">
        <ele>667.2</ele>
        <time>2016-10-26T11:58:25Z</time>
      </trkpt>
      <trkpt lat="43.82134" lon="6.43131">
        <ele>667.3</ele>
        <time>2016-10-26T11:58:27Z</time>
      </trkpt>
      <trkpt lat="43.82146" lon="6.43133">
        <ele>667.3</ele>
        <time>2016-10-26T11:58:29Z</time>
      </trkpt>
      <trkpt lat="43.82157" lon="6.43136">
        <ele>667.4</ele>
        <time>2016-10-26T11:58:31Z</time>
      </trkpt>
      <trkpt lat="43.82169" lon="6.43137">
        <ele>667.5</ele>
        <time>2016-10-26T11:58:33Z</time>
      </trkpt>
      <trkpt lat="43.8218" lon="6.43134">
        <ele>667.6</ele>
        <time>2016-10-26T11:58:35Z</time>
      </trkpt>
      <trkpt lat="43.82192" lon="6.43128">
        <ele>667.7</ele>
        <time>2016-10-26T11:58:37Z</time>
      </trkpt>
      <trkpt lat="43.82202" lon="6.4312">
        <ele>667.8</ele>
        <time>2016-10-26T11:58:39Z</time>
      </trkpt>
      <trkpt lat="43.82212" lon="6.43114">
        <ele>667.9</ele>
        <time>2016-10-26T11:58:41Z</time>
      </trkpt>
      <trkpt lat="43.82223" lon="6.4311">
        <ele>668</ele>
        <time>2016-10-26T11:58:43Z</time>
      </trkpt>
      <trkpt lat="43.82233" lon="6.43112">
        <ele>668.1</ele>
        <time>2016-10-26T11:58:45Z</time>
      </trkpt>
      <trkpt lat="43.82244" lon="6.43116">
        <ele>668.3</ele>
        <time>2016-10-26T11:58:47Z</time>
      </trkpt>
      <trkpt lat="43.82254" lon="6.43121">
        <ele>668.4</ele>
        <time>2016-10-26T11:58:49Z</time>
      </trkpt>
      <trkpt lat="43.82264" lon="6.43125">
        <ele>668.5</ele>
        <time>2016-10-26T11:58:51Z</time>
      </trkpt>
      <trkpt lat="43.82275" lon="6.4313">
        <ele>668.6</ele>
        <time>2016-10-26T11:58:53Z</time>
      </trkpt>
      <trkpt lat="43.82285" lon="6.43133">
        <ele>668.7</ele>
        <time>2016-10-26T11:58:55Z</time>
      </trkpt>
      <trkpt lat="43.82295" lon="6.43137">
        <ele>668.8</ele>
        <time>2016-10-26T11:58:57Z</time>
      </trkpt>
      <trkpt lat="43.82306" lon="6.4314">
        <ele>668.9</ele>
        <time>2016-10-26T11:58:59Z</time>
      </trkpt>
      <trkpt lat="43.82317" lon="6.43142">
        <ele>668.9</ele>
        <time>2016-10-26T11:59:01Z</time>
      </trkpt>
      <trkpt lat="43.82328" lon="6.4314">
        <ele>669</ele>
        <time>2016-10-26T11:59:03Z</time>
      </trkpt>
      <trkpt lat="43.82338" lon="6.43133">
        <ele>669</ele>
        <time>2016-10-26T11:59:05Z</time>
      </trkpt>
      <trkpt lat="43.82348" lon="6.43123">
        <ele>669.1</ele>
        <time>2016-10-26T11:59:07Z</time>
      </trkpt>
      <trkpt lat="43.82357" lon="6.43113">
        <ele>669.2</ele>
        <time>2016-10-26T11:59:09Z</time>
      </trkpt>
      <trkpt lat="43.82366" lon="6.43104">
        <ele>669.3</ele>
        <time>2016-10-26T11:59:11Z</time>
      </trkpt>
      <trkpt lat="43.82376" lon="6.43095">
        <ele>669.3</ele>
        <time>2016-10-26T11:59:13Z</time>
      </trkpt>
      <trkpt lat="43.82386" lon="6.43086">
        <ele>669.4</ele>
        <time>2016-10-26T11:59:15Z</time>
      </trkpt>
      <trkpt lat="43.82395" lon="6.43078">
        <ele>669.5</ele>
        <time>2016-10-26T11:59:17Z</time>
      </trkpt>
      <trkpt lat="43.82405" lon="6.4307">
        <ele>669.6</ele>
        <time>2016-10-26T11:59:19Z</time>
      </trkpt>
      <trkpt lat="43.82416" lon="6.43064">
        <ele>669.7</ele>
        <time>2016-10-26T11:59:21Z</time>
      </trkpt>
      <trkpt lat="43.82427" lon="6.4306">
        <ele>669.8</ele>
        <time>2016-10-26T11:59:23Z</time>
      </trkpt>
      <trkpt lat="43.82439" lon="6.43057">
        <ele>669.9</ele>
        <time>2016-10-26T11:59:25Z</time>
      </trkpt>
      <trkpt lat="43.82451" lon="6.43054">
        <ele>670.1</ele>
        <time>2016-10-26T11:59:27Z</time>
      </trkpt>
      <trkpt lat="43.82463" lon="6.43053">
        <ele>670.2</ele>
        <time>2016-10-26T11:59:29Z</time>
      </trkpt>
      <trkpt lat="43.82474" lon="6.43052">
        <ele>670.3</ele>
        <time>2016-10-26T11:59:31Z</time>
      </trkpt>
      <trkpt lat="43.82487" lon="6.43052">
        <ele>670.4</ele>
        <time>2016-10-26T11:59:33Z</time>
      </trkpt>
      <trkpt lat="43.82498" lon="6.43051">
        <ele>670.5</ele>
        <time>2016-10-26T11:59:35Z</time>
      </trkpt>
      <trkpt lat="43.8251" lon="6.43051">
        <ele>670.6</ele>
        <time>2016-10-26T11:59:37Z</time>
      </trkpt>
      <trkpt lat="43.82522" lon="6.4305">
        <ele>670.7</ele>
        <time>2016-10-26T11:59:39Z</time>
      </trkpt>
      <trkpt lat="43.82533" lon="6.4305">
        <ele>670.8</ele>
        <time>2016-10-26T11:59:41Z</time>
      </trkpt>
      <trkpt lat="43.82544" lon="6.43049">
        <ele>670.9</ele>
        <time>2016-10-26T11:59:43Z</time>
      </trkpt>
      <trkpt lat="43.82556" lon="6.4305">
        <ele>670.9</ele>
        <time>2016-10-26T11:59:45Z</time>
      </trkpt>
      <trkpt lat="43.82566" lon="6.43053">
        <ele>671</ele>
        <time>2016-10-26T11:59:47Z</time>
      </trkpt>
      <trkpt lat="43.82576" lon="6.43053">
        <ele>671</ele>
        <time>2016-10-26T11:59:49Z</time>
      </trkpt>
      <trkpt lat="43.82586" lon="6.43051">
        <ele>671.1</ele>
        <time>2016-10-26T11:59:51Z</time>
      </trkpt>
      <trkpt lat="43.82595" lon="6.43043">
        <ele>671.1</ele>
        <time>2016-10-26T11:59:53Z</time>
      </trkpt>
      <trkpt lat="43.82604" lon="6.43034">
        <ele>671.2</ele>
        <time>2016-10-26T11:59:55Z</time>
      </trkpt>
      <trkpt lat="43.82611" lon="6.43023">
        <ele>671.2</ele>
        <time>2016-10-26T11:59:57Z</time>
      </trkpt>
      <trkpt lat="43.82618" lon="6.43011">
        <ele>671.2</ele>
        <time>2016-10-26T11:59:59Z</time>
      </trkpt>
      <trkpt lat="43.82623" lon="6.42997">
        <ele>671.3</ele>
        <time>2016-10-26T12:00:01Z</time>
      </trkpt>
      <trkpt lat="43.82627" lon="6.42982">
        <ele>671.3</ele>
        <time>2016-10-26T12:00:03Z</time>
      </trkpt>
      <trkpt lat="43.82631" lon="6.42967">
        <ele>671.3</ele>
        <time>2016-10-26T12:00:05Z</time>
      </trkpt>
      <trkpt lat="43.82635" lon="6.42952">
        <ele>671.4</ele>
        <time>2016-10-26T12:00:07Z</time>
      </trkpt>
      <trkpt lat="43.82638" lon="6.42938">
        <ele>671.4</ele>
        <time>2016-10-26T12:00:09Z</time>
      </trkpt>
      <trkpt lat="43.82641" lon="6.42924">
        <ele>671.5</ele>
        <time>2016-10-26T12:00:11Z</time>
      </trkpt>
      <trkpt lat="43.82643" lon="6.4291">
        <ele>671.5</ele>
        <time>2016-10-26T12:00:13Z</time>
      </trkpt>
      <trkpt lat="43.82645" lon="6.42895">
        <ele>671.6</ele>
        <time>2016-10-26T12:00:15Z</time>
      </trkpt>
      <trkpt lat="43.82646" lon="6.4288">
        <ele>671.6</ele>
        <time>2016-10-26T12:00:17Z</time>
      </trkpt>
      <trkpt lat="43.82647" lon="6.42866">
        <ele>671.7</ele>
        <time>2016-10-26T12:00:19Z</time>
      </trkpt>
      <trkpt lat="43.82647" lon="6.42851">
        <ele>671.8</ele>
        <time>2016-10-26T12:00:21Z</time>
      </trkpt>
      <trkpt lat="43.82647" lon="6.42836">
        <ele>671.9</ele>
        <time>2016-10-26T12:00:23Z</time>
      </trkpt>
      <trkpt lat="43.82648" lon="6.42822">
        <ele>671.9</ele>
        <time>2016-10-26T12:00:25Z</time>
      </trkpt>
      <trkpt lat="43.82649" lon="6.42808">
        <ele>672</ele>
        <time>2016-10-26T12:00:27Z</time>
      </trkpt>
      <trkpt lat="43.82651" lon="6.42793">
        <ele>672.1</ele>
        <time>2016-10-26T12:00:29Z</time>
      </trkpt>
      <trkpt lat="43.82654" lon="6.42779">
        <ele>672.1</ele>
        <time>2016-10-26T12:00:31Z</time>
      </trkpt>
      <trkpt lat="43.82657" lon="6.42764">
        <ele>672.2</ele>
        <time>2016-10-26T12:00:33Z</time>
      </trkpt>
      <trkpt lat="43.8266" lon="6.4275">
        <ele>672.3</ele>
        <time>2016-10-26T12:00:35Z</time>
      </trkpt>
      <trkpt lat="43.82665" lon="6.42737">
        <ele>672.4</ele>
        <time>2016-10-26T12:00:37Z</time>
      </trkpt>
      <trkpt lat="43.82671" lon="6.42724">
        <ele>672.5</ele>
        <time>2016-10-26T12:00:39Z</time>
      </trkpt>
      <trkpt lat="43.82676" lon="6.4271">
        <ele>672.6</ele>
        <time>2016-10-26T12:00:41Z</time>
      </trkpt>
      <trkpt lat="43.82682" lon="6.42698">
        <ele>672.7</ele>
        <time>2016-10-26T12:00:43Z</time>
      </trkpt>
      <trkpt lat="43.8269" lon="6.42685">
        <ele>672.8</ele>
        <time>2016-10-26T12:00:45Z</time>
      </trkpt>
      <trkpt lat="43.82697" lon="6.42673">
        <ele>672.9</ele>
        <time>2016-10-26T12:00:47Z</time>
      </trkpt>
      <trkpt lat="43.82704" lon="6.42661">
        <ele>673</ele>
        <time>2016-10-26T12:00:49Z</time>
      </trkpt>
      <trkpt lat="43.82712" lon="6.42649">
        <ele>673</ele>
        <time>2016-10-26T12:00:51Z</time>
      </trkpt>
      <trkpt lat="43.82721" lon="6.42639">
        <ele>673.1</ele>
        <time>2016-10-26T12:00:53Z</time>
      </trkpt>
      <trkpt lat="43.82729" lon="6.42628">
        <ele>673.2</ele>
        <time>2016-10-26T12:00:55Z</time>
      </trkpt>
      <trkpt lat="43.82739" lon="6.4262">
        <ele>673.2</ele>
        <time>2016-10-26T12:00:57Z</time>
      </trkpt>
      <trkpt lat="43.82749" lon="6.42611">
        <ele>673.3</ele>
        <time>2016-10-26T12:00:59Z</time>
      </trkpt>
      <trkpt lat="43.82759" lon="6.42603">
        <ele>673.3</ele>
        <time>2016-10-26T12:01:01Z</time>
      </trkpt>
      <trkpt lat="43.82769" lon="6.42598">
        <ele>673.4</ele>
        <time>2016-10-26T12:01:03Z</time>
      </trkpt>
      <trkpt lat="43.82781" lon="6.42595">
        <ele>673.4</ele>
        <time>2016-10-26T12:01:05Z</time>
      </trkpt>
      <trkpt lat="43.82793" lon="6.42595">
        <ele>673.5</ele>
        <time>2016-10-26T12:01:07Z</time>
      </trkpt>
      <trkpt lat="43.82805" lon="6.42597">
        <ele>673.6</ele>
        <time>2016-10-26T12:01:09Z</time>
      </trkpt>
      <trkpt lat="43.82816" lon="6.42602">
        <ele>673.6</ele>
        <time>2016-10-26T12:01:11Z</time>
      </trkpt>
      <trkpt lat="43.82827" lon="6.42606">
        <ele>673.7</ele>
        <time>2016-10-26T12:01:13Z</time>
      </trkpt>
      <trkpt lat="43.82839" lon="6.42611">
        <ele>673.7</ele>
        <time>2016-10-26T12:01:15Z</time>
      </trkpt>
      <trkpt lat="43.82851" lon="6.42616">
        <ele>673.8</ele>
        <time>2016-10-26T12:01:17Z</time>
      </trkpt>
      <trkpt lat="43.82862" lon="6.42623">
        <ele>673.8</ele>
        <time>2016-10-26T12:01:19Z</time>
      </trkpt>
      <trkpt lat="43.82873" lon="6.42631">
        <ele>673.9</ele>
        <time>2016-10-26T12:01:21Z</time>
      </trkpt>
      <trkpt lat="43.82884" lon="6.42639">
        <ele>674</ele>
        <time>2016-10-26T12:01:23Z</time>
      </trkpt>
      <trkpt lat="43.82896" lon="6.42647">
        <ele>674.1</ele>
        <time>2016-10-26T12:01:25Z</time>
      </trkpt>
      <trkpt lat="43.82908" lon="6.42653">
        <ele>674.1</ele>
        <time>2016-10-26T12:01:27Z</time>
      </trkpt>
      <trkpt lat="43.8292" lon="6.42658">
        <ele>674.2</ele>
        <time>2016-10-26T12:01:29Z</time>
      </trkpt>
      <trkpt lat="43.82932" lon="6.42666">
        <ele>674.3</ele>
        <time>2016-10-26T12:01:31Z</time>
      </trkpt>
      <trkpt lat="43.82941" lon="6.42678">
        <ele>674.4</ele>
        <time>2016-10-26T12:01:33Z</time>
      </trkpt>
      <trkpt lat="43.82949" lon="6.42692">
        <ele>674.5</ele>
        <time>2016-10-26T12:01:35Z</time>
      </trkpt>
      <trkpt lat="43.82955" lon="6.42707">
        <ele>674.7</ele>
        <time>2016-10-26T12:01:37Z</time>
      </trkpt>
      <trkpt lat="43.8296" lon="6.42722">
        <ele>674.8</ele>
        <time>2016-10-26T12:01:39Z</time>
      </trkpt>
      <trkpt lat="43.82966" lon="6.42736">
        <ele>674.9</ele>
        <time>2016-10-26T12:01:41Z</time>
      </trkpt>
      <trkpt lat="43.82975" lon="6.42748">
        <ele>675</ele>
        <time>2016-10-26T12:01:43Z</time>
      </trkpt>
      <trkpt lat="43.82984" lon="6.42757">
        <ele>675.2</ele>
        <time>2016-10-26T12:01:45Z</time>
      </trkpt>
      <trkpt lat="43.82994" lon="6.42767">
        <ele>675.3</ele>
        <time>2016-10-26T12:01:47Z</time>
      </trkpt>
      <trkpt lat="43.83003" lon="6.42777">
        <ele>675.4</ele>
        <time>2016-10-26T12:01:49Z</time>
      </trkpt>
      <trkpt lat="43.83011" lon="6.42788">
        <ele>675.5</ele>
        <time>2016-10-26T12:01:51Z</time>
      </trkpt>
      <trkpt lat="43.83019" lon="6.428">
        <ele>675.6</ele>
        <time>2016-10-26T12:01:53Z</time>
      </trkpt>
      <trkpt lat="43.83025" lon="6.42813">
        <ele>675.7</ele>
        <time>2016-10-26T12:01:55Z</time>
      </trkpt>
      <trkpt lat="43.83031" lon="6.42826">
        <ele>675.7</ele>
        <time>2016-10-26T12:01:57Z</time>
      </trkpt>
      <trkpt lat="43.83037" lon="6.42839">
        <ele>675.8</ele>
        <time>2016-10-26T12:01:59Z</time>
      </trkpt>
      <trkpt lat="43.83042" lon="6.42853">
        <ele>675.9</ele>
        <time>2016-10-26T12:02:01Z</time>
      </trkpt>
      <trkpt lat="43.83044" lon="6.42868">
        <ele>676.1</ele>
        <time>2016-10-26T12:02:03Z</time>
      </trkpt>
      <trkpt lat="43.83045" lon="6.42884">
        <ele>676.2</ele>
        <time>2016-10-26T12:02:05Z</time>
      </trkpt>
      <trkpt lat="43.83044" lon="6.42899">
        <ele>676.4</ele>
        <time>2016-10-26T12:02:07Z</time>
      </trkpt>
      <trkpt lat="43.83044" lon="6.42915">
        <ele>676.5</ele>
        <time>2016-10-26T12:02:09Z</time>
      </trkpt>
      <trkpt lat="43.83043" lon="6.42931">
        <ele>676.6</ele>
        <time>2016-10-26T12:02:11Z</time>
      </trkpt>
      <trkpt lat="43.83043" lon="6.42947">
        <ele>676.7</ele>
        <time>2016-10-26T12:02:13Z</time>
      </trkpt>
      <trkpt lat="43.83045" lon="6.42963">
        <ele>676.8</ele>
        <time>2016-10-26T12:02:15Z</time>
      </trkpt>
      <trkpt lat="43.83047" lon="6.42978">
        <ele>676.9</ele>
        <time>2016-10-26T12:02:17Z</time>
      </trkpt>
      <trkpt lat="43.83048" lon="6.42994">
        <ele>677</ele>
        <time>2016-10-26T12:02:19Z</time>
      </trkpt>
      <trkpt lat="43.83051" lon="6.4301">
        <ele>677.1</ele>
        <time>2016-10-26T12:02:21Z</time>
      </trkpt>
      <trkpt lat="43.83054" lon="6.43026">
        <ele>677.3</ele>
        <time>2016-10-26T12:02:23Z</time>
      </trkpt>
      <trkpt lat="43.83059" lon="6.4304">
        <ele>677.4</ele>
        <time>2016-10-26T12:02:25Z</time>
      </trkpt>
      <trkpt lat="43.83065" lon="6.43054">
        <ele>677.5</ele>
        <time>2016-10-26T12:02:27Z</time>
      </trkpt>
      <trkpt lat="43.83069" lon="6.43068">
        <ele>677.7</ele>
        <time>2016-10-26T12:02:29Z</time>
      </trkpt>
      <trkpt lat="43.83075" lon="6.43083">
        <ele>677.8</ele>
        <time>2016-10-26T12:02:31Z</time>
      </trkpt>
      <trkpt lat="43.8308" lon="6.43097">
        <ele>677.9</ele>
        <time>2016-10-26T12:02:33Z</time>
      </trkpt>
      <trkpt lat="43.83086" lon="6.4311">
        <ele>678</ele>
        <time>2016-10-26T12:02:35Z</time>
      </trkpt>
      <trkpt lat="43.83092" lon="6.43123">
        <ele>678.1</ele>
        <time>2016-10-26T12:02:37Z</time>
      </trkpt>
      <trkpt lat="43.83098" lon="6.43136">
        <ele>678.2</ele>
        <time>2016-10-26T12:02:39Z</time>
      </trkpt>
      <trkpt lat="43.83102" lon="6.43151">
        <ele>678.3</ele>
        <time>2016-10-26T12:02:41Z</time>
      </trkpt>
      <trkpt lat="43.83108" lon="6.43164">
        <ele>678.4</ele>
        <time>2016-10-26T12:02:43Z</time>
      </trkpt>
      <trkpt lat="43.83114" lon="6.43178">
        <ele>678.5</ele>
        <time>2016-10-26T12:02:45Z</time>
      </trkpt>
      <trkpt lat="43.83119" lon="6.43192">
        <ele>678.6</ele>
        <time>2016-10-26T12:02:47Z</time>
      </trkpt>
      <trkpt lat="43.83122" lon="6.43207">
        <ele>678.8</ele>
        <time>2016-10-26T12:02:49Z</time>
      </trkpt>
      <trkpt lat="43.83124" lon="6.43223">
        <ele>678.9</ele>
        <time>2016-10-26T12:02:51Z</time>
      </trkpt>
      <trkpt lat="43.83125" lon="6.43238">
        <ele>679</ele>
        <time>2016-10-26T12:02:53Z</time>
      </trkpt>
      <trkpt lat="43.83125" lon="6.43253">
        <ele>679.1</ele>
        <time>2016-10-26T12:02:55Z</time>
      </trkpt>
      <trkpt lat="43.83125" lon="6.43269">
        <ele>679.2</ele>
        <time>2016-10-26T12:02:57Z</time>
      </trkpt>
      <trkpt lat="43.83125" lon="6.43285">
        <ele>679.3</ele>
        <time>2016-10-26T12:02:59Z</time>
      </trkpt>
      <trkpt lat="43.83126" lon="6.43301">
        <ele>679.4</ele>
        <time>2016-10-26T12:03:01Z</time>
      </trkpt>
      <trkpt lat="43.83126" lon="6.43318">
        <ele>679.5</ele>
        <time>2016-10-26T12:03:03Z</time>
      </trkpt>
      <trkpt lat="43.83129" lon="6.43334">
        <ele>679.5</ele>
        <time>2016-10-26T12:03:05Z</time>
      </trkpt>
      <trkpt lat="43.83134" lon="6.43349">
        <ele>679.7</ele>
        <time>2016-10-26T12:03:07Z</time>
      </trkpt>
      <trkpt lat="43.83142" lon="6.43362">
        <ele>679.8</ele>
        <time>2016-10-26T12:03:09Z</time>
      </trkpt>
      <trkpt lat="43.8315" lon="6.43375">
        <ele>679.9</ele>
        <time>2016-10-26T12:03:11Z</time>
      </trkpt>
      <trkpt lat="43.83159" lon="6.43386">
        <ele>680</ele>
        <time>2016-10-26T12:03:13Z</time>
      </trkpt>
      <trkpt lat="43.83168" lon="6.43398">
        <ele>680.1</ele>
        <time>2016-10-26T12:03:15Z</time>
      </trkpt>
      <trkpt lat="43.83176" lon="6.4341">
        <ele>680.2</ele>
        <time>2016-10-26T12:03:17Z</time>
      </trkpt>
      <trkpt lat="43.83184" lon="6.43423">
        <ele>680.3</ele>
        <time>2016-10-26T12:03:19Z</time>
      </trkpt>
      <trkpt lat="43.83193" lon="6.43435">
        <ele>680.4</ele>
        <time>2016-10-26T12:03:21Z</time>
      </trkpt>
      <trkpt lat="43.83202" lon="6.43445">
        <ele>680.5</ele>
        <time>2016-10-26T12:03:23Z</time>
      </trkpt>
      <trkpt lat="43.83212" lon="6.43455">
        <ele>680.6</ele>
        <time>2016-10-26T12:03:25Z</time>
      </trkpt>
      <trkpt lat="43.83221" lon="6.43466">
        <ele>680.7</ele>
        <time>2016-10-26T12:03:27Z</time>
      </trkpt>
      <trkpt lat="43.83231" lon="6.43476">
        <ele>680.8</ele>
        <time>2016-10-26T12:03:29Z</time>
      </trkpt>
      <trkpt lat="43.83241" lon="6.43486">
        <ele>680.9</ele>
        <time>2016-10-26T12:03:31Z</time>
      </trkpt>
      <trkpt lat="43.83251" lon="6.43495">
        <ele>681</ele>
        <time>2016-10-26T12:03:33Z</time>
      </trkpt>
      <trkpt lat="43.8326" lon="6.43505">
        <ele>681.1</ele>
        <time>2016-10-26T12:03:35Z</time>
      </trkpt>
      <trkpt lat="43.8327" lon="6.43515">
        <ele>681.3</ele>
        <time>2016-10-26T12:03:37Z</time>
      </trkpt>
      <trkpt lat="43.83279" lon="6.43525">
        <ele>681.5</ele>
        <time>2016-10-26T12:03:39Z</time>
      </trkpt>
      <trkpt lat="43.83288" lon="6.43537">
        <ele>681.6</ele>
        <time>2016-10-26T12:03:41Z</time>
      </trkpt>
      <trkpt lat="43.83294" lon="6.43551">
        <ele>681.7</ele>
        <time>2016-10-26T12:03:43Z</time>
      </trkpt>
      <trkpt lat="43.83298" lon="6.43566">
        <ele>681.8</ele>
        <time>2016-10-26T12:03:45Z</time>
      </trkpt>
      <trkpt lat="43.833" lon="6.43581">
        <ele>681.9</ele>
        <time>2016-10-26T12:03:47Z</time>
      </trkpt>
      <trkpt lat="43.83302" lon="6.43597">
        <ele>682</ele>
        <time>2016-10-26T12:03:49Z</time>
      </trkpt>
      <trkpt lat="43.83304" lon="6.43612">
        <ele>682.1</ele>
        <time>2016-10-26T12:03:51Z</time>
      </trkpt>
      <trkpt lat="43.83306" lon="6.43629">
        <ele>682.2</ele>
        <time>2016-10-26T12:03:53Z</time>
      </trkpt>
      <trkpt lat="43.83309" lon="6.43645">
        <ele>682.3</ele>
        <time>2016-10-26T12:03:55Z</time>
      </trkpt>
      <trkpt lat="43.83311" lon="6.43661">
        <ele>682.4</ele>
        <time>2016-10-26T12:03:57Z</time>
      </trkpt>
      <trkpt lat="43.83314" lon="6.43677">
        <ele>682.5</ele>
        <time>2016-10-26T12:03:59Z</time>
      </trkpt>
      <trkpt lat="43.83316" lon="6.43693">
        <ele>682.5</ele>
        <time>2016-10-26T12:04:01Z</time>
      </trkpt>
      <trkpt lat="43.83318" lon="6.43709">
        <ele>682.6</ele>
        <time>2016-10-26T12:04:03Z</time>
      </trkpt>
      <trkpt lat="43.8332" lon="6.43725">
        <ele>682.6</ele>
        <time>2016-10-26T12:04:05Z</time>
      </trkpt>
      <trkpt lat="43.83322" lon="6.4374">
        <ele>682.7</ele>
        <time>2016-10-26T12:04:07Z</time>
      </trkpt>
      <trkpt lat="43.83325" lon="6.43756">
        <ele>682.7</ele>
        <time>2016-10-26T12:04:09Z</time>
      </trkpt>
      <trkpt lat="43.83327" lon="6.43771">
        <ele>682.8</ele>
        <time>2016-10-26T12:04:11Z</time>
      </trkpt>
      <trkpt lat="43.83331" lon="6.43786">
        <ele>682.8</ele>
        <time>2016-10-26T12:04:13Z</time>
      </trkpt>
      <trkpt lat="43.83334" lon="6.43801">
        <ele>682.8</ele>
        <time>2016-10-26T12:04:15Z</time>
      </trkpt>
      <trkpt lat="43.83338" lon="6.43816">
        <ele>682.9</ele>
        <time>2016-10-26T12:04:17Z</time>
      </trkpt>
      <trkpt lat="43.83341" lon="6.43832">
        <ele>683</ele>
        <time>2016-10-26T12:04:19Z</time>
      </trkpt>
      <trkpt lat="43.83343" lon="6.43848">
        <ele>683.1</ele>
        <time>2016-10-26T12:04:21Z</time>
      </trkpt>
      <trkpt lat="43.83345" lon="6.43864">
        <ele>683.1</ele>
        <time>2016-10-26T12:04:23Z</time>
      </trkpt>
      <trkpt lat="43.83346" lon="6.4388">
        <ele>683.2</ele>
        <time>2016-10-26T12:04:25Z</time>
      </trkpt>
      <trkpt lat="43.83346" lon="6.43896">
        <ele>683.3</ele>
        <time>2016-10-26T12:04:27Z</time>
      </trkpt>
      <trkpt lat="43.83346" lon="6.43912">
        <ele>683.3</ele>
        <time>2016-10-26T12:04:29Z</time>
      </trkpt>
      <trkpt lat="43.83347" lon="6.43928">
        <ele>683.4</ele>
        <time>2016-10-26T12:04:31Z</time>
      </trkpt>
      <trkpt lat="43.83346" lon="6.43944">
        <ele>683.4</ele>
        <time>2016-10-26T12:04:33Z</time>
      </trkpt>
      <trkpt lat="43.83345" lon="6.4396">
        <ele>683.5</ele>
        <time>2016-10-26T12:04:35Z</time>
      </trkpt>
      <trkpt lat="43.83343" lon="6.43976">
        <ele>683.5</ele>
        <time>2016-10-26T12:04:37Z</time>
      </trkpt>
      <trkpt lat="43.83339" lon="6.43991">
        <ele>683.6</ele>
        <time>2016-10-26T12:04:39Z</time>
      </trkpt>
      <trkpt lat="43.83334" lon="6.44005">
        <ele>683.7</ele>
        <time>2016-10-26T12:04:41Z</time>
      </trkpt>
      <trkpt lat="43.8333" lon="6.44019">
        <ele>683.8</ele>
        <time>2016-10-26T12:04:43Z</time>
      </trkpt>
      <trkpt lat="43.83325" lon="6.44033">
        <ele>683.9</ele>
        <time>2016-10-26T12:04:45Z</time>
      </trkpt>
      <trkpt lat="43.8332" lon="6.44048">
        <ele>684</ele>
        <time>2016-10-26T12:04:47Z</time>
      </trkpt>
      <trkpt lat="43.83316" lon="6.44062">
        <ele>684.1</ele>
        <time>2016-10-26T12:04:49Z</time>
      </trkpt>
      <trkpt lat="43.83311" lon="6.44075">
        <ele>684.2</ele>
        <time>2016-10-26T12:04:51Z</time>
      </trkpt>
      <trkpt lat="43.83305" lon="6.44088">
        <ele>684.3</ele>
        <time>2016-10-26T12:04:53Z</time>
      </trkpt>
      <trkpt lat="43.83299" lon="6.44101">
        <ele>684.4</ele>
        <time>2016-10-26T12:04:55Z</time>
      </trkpt>
      <trkpt lat="43.83294" lon="6.44113">
        <ele>684.4</ele>
        <time>2016-10-26T12:04:57Z</time>
      </trkpt>
      <trkpt lat="43.83289" lon="6.44126">
        <ele>684.5</ele>
        <time>2016-10-26T12:04:59Z</time>
      </trkpt>
      <trkpt lat="43.83284" lon="6.44139">
        <ele>684.6</ele>
        <time>2016-10-26T12:05:01Z</time>
      </trkpt>
      <trkpt lat="43.83279" lon="6.44152">
        <ele>684.7</ele>
        <time>2016-10-26T12:05:03Z</time>
      </trkpt>
      <trkpt lat="43.83274" lon="6.44164">
        <ele>684.8</ele>
        <time>2016-10-26T12:05:05Z</time>
      </trkpt>
      <trkpt lat="43.83267" lon="6.44176">
        <ele>684.9</ele>
        <time>2016-10-26T12:05:07Z</time>
      </trkpt>
      <trkpt lat="43.83261" lon="6.44187">
        <ele>685</ele>
        <time>2016-10-26T12:05:09Z</time>
      </trkpt>
      <trkpt lat="43.83254" lon="6.44199">
        <ele>685</ele>
        <time>2016-10-26T12:05:11Z</time>
      </trkpt>
      <trkpt lat="43.83246" lon="6.4421">
        <ele>685.1</ele>
        <time>2016-10-26T12:05:13Z</time>
      </trkpt>
      <trkpt lat="43.83238" lon="6.4422">
        <ele>685.1</ele>
        <time>2016-10-26T12:05:15Z</time>
      </trkpt>
      <trkpt lat="43.8323" lon="6.44231">
        <ele>685.2</ele>
        <time>2016-10-26T12:05:17Z</time>
      </trkpt>
      <trkpt lat="43.8322" lon="6.4424">
        <ele>685.2</ele>
        <time>2016-10-26T12:05:19Z</time>
      </trkpt>
      <trkpt lat="43.83209" lon="6.44248">
        <ele>685.3</ele>
        <time>2016-10-26T12:05:21Z</time>
      </trkpt>
      <trkpt lat="43.83198" lon="6.44255">
        <ele>685.3</ele>
        <time>2016-10-26T12:05:23Z</time>
      </trkpt>
      <trkpt lat="43.83187" lon="6.44262">
        <ele>685.4</ele>
        <time>2016-10-26T12:05:25Z</time>
      </trkpt>
      <trkpt lat="43.83176" lon="6.44268">
        <ele>685.4</ele>
        <time>2016-10-26T12:05:27Z</time>
      </trkpt>
      <trkpt lat="43.83164" lon="6.44274">
        <ele>685.5</ele>
        <time>2016-10-26T12:05:29Z</time>
      </trkpt>
      <trkpt lat="43.83154" lon="6.44279">
        <ele>685.6</ele>
        <time>2016-10-26T12:05:31Z</time>
      </trkpt>
      <trkpt lat="43.83144" lon="6.44284">
        <ele>685.6</ele>
        <time>2016-10-26T12:05:33Z</time>
      </trkpt>
      <trkpt lat="43.83134" lon="6.44289">
        <ele>685.7</ele>
        <time>2016-10-26T12:05:35Z</time>
      </trkpt>
      <trkpt lat="43.83124" lon="6.44296">
        <ele>685.7</ele>
        <time>2016-10-26T12:05:37Z</time>
      </trkpt>
      <trkpt lat="43.83114" lon="6.44303">
        <ele>685.7</ele>
        <time>2016-10-26T12:05:39Z</time>
      </trkpt>
      <trkpt lat="43.83105" lon="6.44312">
        <ele>685.8</ele>
        <time>2016-10-26T12:05:41Z</time>
      </trkpt>
      <trkpt lat="43.83097" lon="6.44322">
        <ele>685.8</ele>
        <time>2016-10-26T12:05:43Z</time>
      </trkpt>
      <trkpt lat="43.83089" lon="6.44333">
        <ele>685.8</ele>
        <time>2016-10-26T12:05:45Z</time>
      </trkpt>
      <trkpt lat="43.83082" lon="6.44345">
        <ele>685.8</ele>
        <time>2016-10-26T12:05:47Z</time>
      </trkpt>
      <trkpt lat="43.83076" lon="6.44358">
        <ele>685.8</ele>
        <time>2016-10-26T12:05:49Z</time>
      </trkpt>
      <trkpt lat="43.83072" lon="6.44372">
        <ele>685.9</ele>
        <time>2016-10-26T12:05:51Z</time>
      </trkpt>
      <trkpt lat="43.83069" lon="6.44387">
        <ele>685.9</ele>
        <time>2016-10-26T12:05:53Z</time>
      </trkpt>
      <trkpt lat="43.83069" lon="6.44404">
        <ele>685.9</ele>
        <time>2016-10-26T12:05:55Z</time>
      </trkpt>
      <trkpt lat="43.83073" lon="6.44424">
        <ele>685.9</ele>
        <time>2016-10-26T12:05:57Z</time>
      </trkpt>
      <trkpt lat="43.83079" lon="6.44442">
        <ele>685.9</ele>
        <time>2016-10-26T12:05:59Z</time>
      </trkpt>
      <trkpt lat="43.83093" lon="6.44454">
        <ele>686</ele>
        <time>2016-10-26T12:06:01Z</time>
      </trkpt>
      <trkpt lat="43.83106" lon="6.44464">
        <ele>686</ele>
        <time>2016-10-26T12:06:03Z</time>
      </trkpt>
      <trkpt lat="43.83114" lon="6.44477">
        <ele>686.1</ele>
        <time>2016-10-26T12:06:05Z</time>
      </trkpt>
      <trkpt lat="43.83122" lon="6.44489">
        <ele>686.1</ele>
        <time>2016-10-26T12:06:07Z</time>
      </trkpt>
      <trkpt lat="43.83128" lon="6.44501">
        <ele>686.2</ele>
        <time>2016-10-26T12:06:09Z</time>
      </trkpt>
      <trkpt lat="43.83136" lon="6.44511">
        <ele>686.3</ele>
        <time>2016-10-26T12:06:11Z</time>
      </trkpt>
      <trkpt lat="43.83144" lon="6.44523">
        <ele>686.4</ele>
        <time>2016-10-26T12:06:13Z</time>
      </trkpt>
      <trkpt lat="43.83152" lon="6.44536">
        <ele>686.5</ele>
        <time>2016-10-26T12:06:15Z</time>
      </trkpt>
      <trkpt lat="43.83157" lon="6.44551">
        <ele>686.6</ele>
        <time>2016-10-26T12:06:17Z</time>
      </trkpt>
      <trkpt lat="43.83161" lon="6.44566">
        <ele>686.8</ele>
        <time>2016-10-26T12:06:19Z</time>
      </trkpt>
      <trkpt lat="43.83165" lon="6.44583">
        <ele>687.1</ele>
        <time>2016-10-26T12:06:21Z</time>
      </trkpt>
      <trkpt lat="43.8317" lon="6.44599">
        <ele>687.3</ele>
        <time>2016-10-26T12:06:23Z</time>
      </trkpt>
      <trkpt lat="43.83175" lon="6.44615">
        <ele>687.5</ele>
        <time>2016-10-26T12:06:25Z</time>
      </trkpt>
      <trkpt lat="43.83178" lon="6.44632">
        <ele>687.7</ele>
        <time>2016-10-26T12:06:27Z</time>
      </trkpt>
      <trkpt lat="43.83182" lon="6.44649">
        <ele>688</ele>
        <time>2016-10-26T12:06:29Z</time>
      </trkpt>
      <trkpt lat="43.83186" lon="6.44666">
        <ele>688.2</ele>
        <time>2016-10-26T12:06:31Z</time>
      </trkpt>
      <trkpt lat="43.8319" lon="6.44684">
        <ele>688.4</ele>
        <time>2016-10-26T12:06:33Z</time>
      </trkpt>
      <trkpt lat="43.83191" lon="6.44702">
        <ele>688.5</ele>
        <time>2016-10-26T12:06:35Z</time>
      </trkpt>
      <trkpt lat="43.83192" lon="6.4472">
        <ele>688.7</ele>
        <time>2016-10-26T12:06:37Z</time>
      </trkpt>
      <trkpt lat="43.83193" lon="6.44738">
        <ele>688.8</ele>
        <time>2016-10-26T12:06:39Z</time>
      </trkpt>
      <trkpt lat="43.83194" lon="6.44757">
        <ele>688.9</ele>
        <time>2016-10-26T12:06:41Z</time>
      </trkpt>
      <trkpt lat="43.83195" lon="6.44775">
        <ele>689</ele>
        <time>2016-10-26T12:06:43Z</time>
      </trkpt>
      <trkpt lat="43.83197" lon="6.44792">
        <ele>689.1</ele>
        <time>2016-10-26T12:06:45Z</time>
      </trkpt>
      <trkpt lat="43.832" lon="6.44809">
        <ele>689.2</ele>
        <time>2016-10-26T12:06:47Z</time>
      </trkpt>
      <trkpt lat="43.83198" lon="6.44826">
        <ele>689.3</ele>
        <time>2016-10-26T12:06:49Z</time>
      </trkpt>
      <trkpt lat="43.83197" lon="6.44843">
        <ele>689.3</ele>
        <time>2016-10-26T12:06:51Z</time>
      </trkpt>
      <trkpt lat="43.83195" lon="6.44859">
        <ele>689.4</ele>
        <time>2016-10-26T12:06:53Z</time>
      </trkpt>
      <trkpt lat="43.83192" lon="6.44875">
        <ele>689.5</ele>
        <time>2016-10-26T12:06:55Z</time>
      </trkpt>
      <trkpt lat="43.83189" lon="6.4489">
        <ele>689.6</ele>
        <time>2016-10-26T12:06:57Z</time>
      </trkpt>
      <trkpt lat="43.83185" lon="6.44904">
        <ele>689.8</ele>
        <time>2016-10-26T12:06:59Z</time>
      </trkpt>
      <trkpt lat="43.83179" lon="6.44917">
        <ele>689.9</ele>
        <time>2016-10-26T12:07:01Z</time>
      </trkpt>
      <trkpt lat="43.83173" lon="6.4493">
        <ele>690</ele>
        <time>2016-10-26T12:07:03Z</time>
      </trkpt>
      <trkpt lat="43.83167" lon="6.44942">
        <ele>690.1</ele>
        <time>2016-10-26T12:07:05Z</time>
      </trkpt>
      <trkpt lat="43.83161" lon="6.44955">
        <ele>690.2</ele>
        <time>2016-10-26T12:07:07Z</time>
      </trkpt>
      <trkpt lat="43.83158" lon="6.44969">
        <ele>690.4</ele>
        <time>2016-10-26T12:07:09Z</time>
      </trkpt>
      <trkpt lat="43.83156" lon="6.44984">
        <ele>690.5</ele>
        <time>2016-10-26T12:07:11Z</time>
      </trkpt>
      <trkpt lat="43.83156" lon="6.44999">
        <ele>690.7</ele>
        <time>2016-10-26T12:07:13Z</time>
      </trkpt>
      <trkpt lat="43.83158" lon="6.45013">
        <ele>690.8</ele>
        <time>2016-10-26T12:07:15Z</time>
      </trkpt>
      <trkpt lat="43.83162" lon="6.45028">
        <ele>690.9</ele>
        <time>2016-10-26T12:07:17Z</time>
      </trkpt>
      <trkpt lat="43.83166" lon="6.45042">
        <ele>691</ele>
        <time>2016-10-26T12:07:19Z</time>
      </trkpt>
      <trkpt lat="43.8317" lon="6.45056">
        <ele>691.1</ele>
        <time>2016-10-26T12:07:21Z</time>
      </trkpt>
      <trkpt lat="43.83172" lon="6.4507">
        <ele>691.3</ele>
        <time>2016-10-26T12:07:23Z</time>
      </trkpt>
      <trkpt lat="43.83172" lon="6.45084">
        <ele>691.5</ele>
        <time>2016-10-26T12:07:25Z</time>
      </trkpt>
      <trkpt lat="43.83171" lon="6.45097">
        <ele>691.7</ele>
        <time>2016-10-26T12:07:27Z</time>
      </trkpt>
      <trkpt lat="43.8317" lon="6.4511">
        <ele>691.9</ele>
        <time>2016-10-26T12:07:29Z</time>
      </trkpt>
      <trkpt lat="43.83168" lon="6.45123">
        <ele>692.1</ele>
        <time>2016-10-26T12:07:31Z</time>
      </trkpt>
      <trkpt lat="43.83167" lon="6.45136">
        <ele>692.3</ele>
        <time>2016-10-26T12:07:33Z</time>
      </trkpt>
      <trkpt lat="43.83165" lon="6.45149">
        <ele>692.6</ele>
        <time>2016-10-26T12:07:35Z</time>
      </trkpt>
      <trkpt lat="43.83162" lon="6.45161">
        <ele>692.8</ele>
        <time>2016-10-26T12:07:37Z</time>
      </trkpt>
      <trkpt lat="43.83159" lon="6.45174">
        <ele>693</ele>
        <time>2016-10-26T12:07:39Z</time>
      </trkpt>
      <trkpt lat="43.83155" lon="6.45185">
        <ele>693.2</ele>
        <time>2016-10-26T12:07:41Z</time>
      </trkpt>
      <trkpt lat="43.8315" lon="6.45196">
        <ele>693.4</ele>
        <time>2016-10-26T12:07:43Z</time>
      </trkpt>
      <trkpt lat="43.83145" lon="6.45207">
        <ele>693.6</ele>
        <time>2016-10-26T12:07:45Z</time>
      </trkpt>
      <trkpt lat="43.83138" lon="6.45221">
        <ele>693.9</ele>
        <time>2016-10-26T12:07:48Z</time>
      </trkpt>
      <trkpt lat="43.83128" lon="6.45232">
        <ele>694.3</ele>
        <time>2016-10-26T12:07:51Z</time>
      </trkpt>
      <trkpt lat="43.8312" lon="6.45239">
        <ele>694.6</ele>
        <time>2016-10-26T12:07:53Z</time>
      </trkpt>
      <trkpt lat="43.83109" lon="6.4525">
        <ele>695</ele>
        <time>2016-10-26T12:07:56Z</time>
      </trkpt>
      <trkpt lat="43.83099" lon="6.45263">
        <ele>695.3</ele>
        <time>2016-10-26T12:07:59Z</time>
      </trkpt>
      <trkpt lat="43.83092" lon="6.45272">
        <ele>695.6</ele>
        <time>2016-10-26T12:08:01Z</time>
      </trkpt>
      <trkpt lat="43.83086" lon="6.45282">
        <ele>695.9</ele>
        <time>2016-10-26T12:08:03Z</time>
      </trkpt>
      <trkpt lat="43.8308" lon="6.45291">
        <ele>696.2</ele>
        <time>2016-10-26T12:08:05Z</time>
      </trkpt>
      <trkpt lat="43.83075" lon="6.45302">
        <ele>696.4</ele>
        <time>2016-10-26T12:08:07Z</time>
      </trkpt>
      <trkpt lat="43.8307" lon="6.45314">
        <ele>696.7</ele>
        <time>2016-10-26T12:08:09Z</time>
      </trkpt>
      <trkpt lat="43.83066" lon="6.45325">
        <ele>697</ele>
        <time>2016-10-26T12:08:11Z</time>
      </trkpt>
      <trkpt lat="43.83062" lon="6.45337">
        <ele>697.3</ele>
        <time>2016-10-26T12:08:13Z</time>
      </trkpt>
      <trkpt lat="43.83057" lon="6.45354">
        <ele>697.8</ele>
        <time>2016-10-26T12:08:16Z</time>
      </trkpt>
      <trkpt lat="43.83055" lon="6.45367">
        <ele>698.1</ele>
        <time>2016-10-26T12:08:18Z</time>
      </trkpt>
      <trkpt lat="43.83054" lon="6.4538">
        <ele>698.5</ele>
        <time>2016-10-26T12:08:20Z</time>
      </trkpt>
      <trkpt lat="43.83052" lon="6.45393">
        <ele>698.8</ele>
        <time>2016-10-26T12:08:22Z</time>
      </trkpt>
      <trkpt lat="43.8305" lon="6.45406">
        <ele>699</ele>
        <time>2016-10-26T12:08:24Z</time>
      </trkpt>
      <trkpt lat="43.83048" lon="6.4542">
        <ele>699.3</ele>
        <time>2016-10-26T12:08:26Z</time>
      </trkpt>
      <trkpt lat="43.83047" lon="6.45434">
        <ele>699.5</ele>
        <time>2016-10-26T12:08:28Z</time>
      </trkpt>
      <trkpt lat="43.83046" lon="6.45447">
        <ele>699.8</ele>
        <time>2016-10-26T12:08:30Z</time>
      </trkpt>
      <trkpt lat="43.83045" lon="6.45461">
        <ele>700.1</ele>
        <time>2016-10-26T12:08:32Z</time>
      </trkpt>
      <trkpt lat="43.83046" lon="6.45474">
        <ele>700.4</ele>
        <time>2016-10-26T12:08:34Z</time>
      </trkpt>
      <trkpt lat="43.83047" lon="6.45487">
        <ele>700.8</ele>
        <time>2016-10-26T12:08:36Z</time>
      </trkpt>
      <trkpt lat="43.83048" lon="6.45501">
        <ele>701</ele>
        <time>2016-10-26T12:08:38Z</time>
      </trkpt>
      <trkpt lat="43.83049" lon="6.45514">
        <ele>701.3</ele>
        <time>2016-10-26T12:08:40Z</time>
      </trkpt>
      <trkpt lat="43.8305" lon="6.45528">
        <ele>701.6</ele>
        <time>2016-10-26T12:08:42Z</time>
      </trkpt>
      <trkpt lat="43.83052" lon="6.45541">
        <ele>701.8</ele>
        <time>2016-10-26T12:08:44Z</time>
      </trkpt>
      <trkpt lat="43.83052" lon="6.45555">
        <ele>702</ele>
        <time>2016-10-26T12:08:46Z</time>
      </trkpt>
      <trkpt lat="43.83052" lon="6.4557">
        <ele>702.3</ele>
        <time>2016-10-26T12:08:48Z</time>
      </trkpt>
      <trkpt lat="43.83052" lon="6.45584">
        <ele>702.5</ele>
        <time>2016-10-26T12:08:50Z</time>
      </trkpt>
      <trkpt lat="43.83051" lon="6.45598">
        <ele>702.6</ele>
        <time>2016-10-26T12:08:52Z</time>
      </trkpt>
      <trkpt lat="43.83049" lon="6.45611">
        <ele>702.8</ele>
        <time>2016-10-26T12:08:54Z</time>
      </trkpt>
      <trkpt lat="43.83045" lon="6.45624">
        <ele>703</ele>
        <time>2016-10-26T12:08:56Z</time>
      </trkpt>
      <trkpt lat="43.83039" lon="6.45635">
        <ele>703.2</ele>
        <time>2016-10-26T12:08:58Z</time>
      </trkpt>
      <trkpt lat="43.83033" lon="6.45645">
        <ele>703.3</ele>
        <time>2016-10-26T12:09:00Z</time>
      </trkpt>
      <trkpt lat="43.83027" lon="6.45655">
        <ele>703.5</ele>
        <time>2016-10-26T12:09:02Z</time>
      </trkpt>
      <trkpt lat="43.8302" lon="6.45664">
        <ele>703.7</ele>
        <time>2016-10-26T12:09:04Z</time>
      </trkpt>
      <trkpt lat="43.83013" lon="6.45675">
        <ele>703.8</ele>
        <time>2016-10-26T12:09:06Z</time>
      </trkpt>
      <trkpt lat="43.83007" lon="6.45685">
        <ele>704</ele>
        <time>2016-10-26T12:09:08Z</time>
      </trkpt>
      <trkpt lat="43.82999" lon="6.45695">
        <ele>704.1</ele>
        <time>2016-10-26T12:09:10Z</time>
      </trkpt>
      <trkpt lat="43.82993" lon="6.45705">
        <ele>704.2</ele>
        <time>2016-10-26T12:09:12Z</time>
      </trkpt>
      <trkpt lat="43.82985" lon="6.45715">
        <ele>704.3</ele>
        <time>2016-10-26T12:09:14Z</time>
      </trkpt>
      <trkpt lat="43.82978" lon="6.45725">
        <ele>704.4</ele>
        <time>2016-10-26T12:09:16Z</time>
      </trkpt>
      <trkpt lat="43.82972" lon="6.45735">
        <ele>704.5</ele>
        <time>2016-10-26T12:09:18Z</time>
      </trkpt>
      <trkpt lat="43.82966" lon="6.45747">
        <ele>704.6</ele>
        <time>2016-10-26T12:09:20Z</time>
      </trkpt>
      <trkpt lat="43.82961" lon="6.45759">
        <ele>704.7</ele>
        <time>2016-10-26T12:09:22Z</time>
      </trkpt>
      <trkpt lat="43.82955" lon="6.45771">
        <ele>704.8</ele>
        <time>2016-10-26T12:09:24Z</time>
      </trkpt>
      <trkpt lat="43.82949" lon="6.45783">
        <ele>704.8</ele>
        <time>2016-10-26T12:09:26Z</time>
      </trkpt>
      <trkpt lat="43.82943" lon="6.45794">
        <ele>705</ele>
        <time>2016-10-26T12:09:28Z</time>
      </trkpt>
      <trkpt lat="43.82938" lon="6.45806">
        <ele>705.1</ele>
        <time>2016-10-26T12:09:30Z</time>
      </trkpt>
      <trkpt lat="43.82932" lon="6.45819">
        <ele>705.3</ele>
        <time>2016-10-26T12:09:32Z</time>
      </trkpt>
      <trkpt lat="43.82925" lon="6.45833">
        <ele>705.4</ele>
        <time>2016-10-26T12:09:34Z</time>
      </trkpt>
      <trkpt lat="43.82918" lon="6.45845">
        <ele>705.5</ele>
        <time>2016-10-26T12:09:36Z</time>
      </trkpt>
      <trkpt lat="43.82908" lon="6.45855">
        <ele>705.6</ele>
        <time>2016-10-26T12:09:38Z</time>
      </trkpt>
      <trkpt lat="43.82898" lon="6.45864">
        <ele>705.7</ele>
        <time>2016-10-26T12:09:40Z</time>
      </trkpt>
      <trkpt lat="43.8289" lon="6.45875">
        <ele>705.9</ele>
        <time>2016-10-26T12:09:42Z</time>
      </trkpt>
      <trkpt lat="43.82882" lon="6.45887">
        <ele>706</ele>
        <time>2016-10-26T12:09:44Z</time>
      </trkpt>
      <trkpt lat="43.82875" lon="6.45899">
        <ele>706.2</ele>
        <time>2016-10-26T12:09:46Z</time>
      </trkpt>
      <trkpt lat="43.82869" lon="6.45912">
        <ele>706.3</ele>
        <time>2016-10-26T12:09:48Z</time>
      </trkpt>
      <trkpt lat="43.82863" lon="6.45925">
        <ele>706.4</ele>
        <time>2016-10-26T12:09:50Z</time>
      </trkpt>
      <trkpt lat="43.82861" lon="6.4594">
        <ele>706.6</ele>
        <time>2016-10-26T12:09:52Z</time>
      </trkpt>
      <trkpt lat="43.82859" lon="6.45955">
        <ele>706.8</ele>
        <time>2016-10-26T12:09:54Z</time>
      </trkpt>
      <trkpt lat="43.82857" lon="6.45969">
        <ele>707</ele>
        <time>2016-10-26T12:09:56Z</time>
      </trkpt>
      <trkpt lat="43.82855" lon="6.45984">
        <ele>707.1</ele>
        <time>2016-10-26T12:09:58Z</time>
      </trkpt>
      <trkpt lat="43.8285" lon="6.45997">
        <ele>707.2</ele>
        <time>2016-10-26T12:10:00Z</time>
      </trkpt>
      <trkpt lat="43.82844" lon="6.46008">
        <ele>707.3</ele>
        <time>2016-10-26T12:10:02Z</time>
      </trkpt>
      <trkpt lat="43.82836" lon="6.46019">
        <ele>707.5</ele>
        <time>2016-10-26T12:10:04Z</time>
      </trkpt>
      <trkpt lat="43.82829" lon="6.4603">
        <ele>707.6</ele>
        <time>2016-10-26T12:10:06Z</time>
      </trkpt>
      <trkpt lat="43.82823" lon="6.46043">
        <ele>707.7</ele>
        <time>2016-10-26T12:10:08Z</time>
      </trkpt>
      <trkpt lat="43.82818" lon="6.46055">
        <ele>707.9</ele>
        <time>2016-10-26T12:10:10Z</time>
      </trkpt>
      <trkpt lat="43.82812" lon="6.46068">
        <ele>708.1</ele>
        <time>2016-10-26T12:10:12Z</time>
      </trkpt>
      <trkpt lat="43.82807" lon="6.4608">
        <ele>708.3</ele>
        <time>2016-10-26T12:10:14Z</time>
      </trkpt>
      <trkpt lat="43.828" lon="6.46091">
        <ele>708.4</ele>
        <time>2016-10-26T12:10:16Z</time>
      </trkpt>
      <trkpt lat="43.82792" lon="6.46101">
        <ele>708.6</ele>
        <time>2016-10-26T12:10:18Z</time>
      </trkpt>
      <trkpt lat="43.82786" lon="6.46111">
        <ele>708.7</ele>
        <time>2016-10-26T12:10:20Z</time>
      </trkpt>
      <trkpt lat="43.8278" lon="6.46123">
        <ele>709</ele>
        <time>2016-10-26T12:10:22Z</time>
      </trkpt>
      <trkpt lat="43.82776" lon="6.46136">
        <ele>709.2</ele>
        <time>2016-10-26T12:10:24Z</time>
      </trkpt>
      <trkpt lat="43.82772" lon="6.4615">
        <ele>709.4</ele>
        <time>2016-10-26T12:10:26Z</time>
      </trkpt>
      <trkpt lat="43.8277" lon="6.46165">
        <ele>709.5</ele>
        <time>2016-10-26T12:10:28Z</time>
      </trkpt>
      <trkpt lat="43.8277" lon="6.4618">
        <ele>709.7</ele>
        <time>2016-10-26T12:10:30Z</time>
      </trkpt>
      <trkpt lat="43.82772" lon="6.46195">
        <ele>709.9</ele>
        <time>2016-10-26T12:10:32Z</time>
      </trkpt>
      <trkpt lat="43.82775" lon="6.4621">
        <ele>710.1</ele>
        <time>2016-10-26T12:10:34Z</time>
      </trkpt>
      <trkpt lat="43.82779" lon="6.46225">
        <ele>710.3</ele>
        <time>2016-10-26T12:10:36Z</time>
      </trkpt>
      <trkpt lat="43.82784" lon="6.46239">
        <ele>710.5</ele>
        <time>2016-10-26T12:10:38Z</time>
      </trkpt>
      <trkpt lat="43.82789" lon="6.46254">
        <ele>710.6</ele>
        <time>2016-10-26T12:10:40Z</time>
      </trkpt>
      <trkpt lat="43.82793" lon="6.46269">
        <ele>710.7</ele>
        <time>2016-10-26T12:10:42Z</time>
      </trkpt>
      <trkpt lat="43.82798" lon="6.46283">
        <ele>710.9</ele>
        <time>2016-10-26T12:10:44Z</time>
      </trkpt>
      <trkpt lat="43.82803" lon="6.46298">
        <ele>711</ele>
        <time>2016-10-26T12:10:46Z</time>
      </trkpt>
      <trkpt lat="43.82809" lon="6.46311">
        <ele>711.1</ele>
        <time>2016-10-26T12:10:48Z</time>
      </trkpt>
      <trkpt lat="43.82816" lon="6.46324">
        <ele>711.2</ele>
        <time>2016-10-26T12:10:50Z</time>
      </trkpt>
      <trkpt lat="43.82822" lon="6.46337">
        <ele>711.4</ele>
        <time>2016-10-26T12:10:52Z</time>
      </trkpt>
      <trkpt lat="43.82828" lon="6.46351">
        <ele>711.5</ele>
        <time>2016-10-26T12:10:54Z</time>
      </trkpt>
      <trkpt lat="43.82835" lon="6.46363">
        <ele>711.8</ele>
        <time>2016-10-26T12:10:56Z</time>
      </trkpt>
      <trkpt lat="43.82844" lon="6.46373">
        <ele>712</ele>
        <time>2016-10-26T12:10:58Z</time>
      </trkpt>
      <trkpt lat="43.82852" lon="6.46383">
        <ele>712.2</ele>
        <time>2016-10-26T12:11:00Z</time>
      </trkpt>
      <trkpt lat="43.8286" lon="6.46395">
        <ele>712.3</ele>
        <time>2016-10-26T12:11:02Z</time>
      </trkpt>
      <trkpt lat="43.82867" lon="6.46408">
        <ele>712.5</ele>
        <time>2016-10-26T12:11:04Z</time>
      </trkpt>
      <trkpt lat="43.82869" lon="6.46423">
        <ele>712.6</ele>
        <time>2016-10-26T12:11:06Z</time>
      </trkpt>
      <trkpt lat="43.82868" lon="6.46438">
        <ele>712.8</ele>
        <time>2016-10-26T12:11:08Z</time>
      </trkpt>
      <trkpt lat="43.82867" lon="6.46453">
        <ele>713</ele>
        <time>2016-10-26T12:11:10Z</time>
      </trkpt>
      <trkpt lat="43.82867" lon="6.46467">
        <ele>713.3</ele>
        <time>2016-10-26T12:11:12Z</time>
      </trkpt>
      <trkpt lat="43.82866" lon="6.46482">
        <ele>713.5</ele>
        <time>2016-10-26T12:11:14Z</time>
      </trkpt>
      <trkpt lat="43.82865" lon="6.46497">
        <ele>713.7</ele>
        <time>2016-10-26T12:11:16Z</time>
      </trkpt>
      <trkpt lat="43.82864" lon="6.46512">
        <ele>713.8</ele>
        <time>2016-10-26T12:11:18Z</time>
      </trkpt>
      <trkpt lat="43.82863" lon="6.46527">
        <ele>714</ele>
        <time>2016-10-26T12:11:20Z</time>
      </trkpt>
      <trkpt lat="43.82864" lon="6.46542">
        <ele>714.1</ele>
        <time>2016-10-26T12:11:22Z</time>
      </trkpt>
      <trkpt lat="43.82867" lon="6.46556">
        <ele>714.2</ele>
        <time>2016-10-26T12:11:24Z</time>
      </trkpt>
      <trkpt lat="43.82871" lon="6.46569">
        <ele>714.3</ele>
        <time>2016-10-26T12:11:26Z</time>
      </trkpt>
      <trkpt lat="43.82876" lon="6.46582">
        <ele>714.5</ele>
        <time>2016-10-26T12:11:28Z</time>
      </trkpt>
      <trkpt lat="43.8288" lon="6.46595">
        <ele>714.6</ele>
        <time>2016-10-26T12:11:30Z</time>
      </trkpt>
      <trkpt lat="43.82886" lon="6.46608">
        <ele>714.8</ele>
        <time>2016-10-26T12:11:32Z</time>
      </trkpt>
      <trkpt lat="43.82892" lon="6.46622">
        <ele>714.9</ele>
        <time>2016-10-26T12:11:34Z</time>
      </trkpt>
      <trkpt lat="43.82898" lon="6.46635">
        <ele>715.1</ele>
        <time>2016-10-26T12:11:36Z</time>
      </trkpt>
      <trkpt lat="43.82904" lon="6.46649">
        <ele>715.2</ele>
        <time>2016-10-26T12:11:38Z</time>
      </trkpt>
      <trkpt lat="43.82907" lon="6.46663">
        <ele>715.3</ele>
        <time>2016-10-26T12:11:40Z</time>
      </trkpt>
      <trkpt lat="43.82907" lon="6.46677">
        <ele>715.6</ele>
        <time>2016-10-26T12:11:42Z</time>
      </trkpt>
      <trkpt lat="43.82904" lon="6.46691">
        <ele>715.8</ele>
        <time>2016-10-26T12:11:44Z</time>
      </trkpt>
      <trkpt lat="43.82901" lon="6.46705">
        <ele>716</ele>
        <time>2016-10-26T12:11:46Z</time>
      </trkpt>
      <trkpt lat="43.82897" lon="6.46718">
        <ele>716.3</ele>
        <time>2016-10-26T12:11:48Z</time>
      </trkpt>
      <trkpt lat="43.82894" lon="6.4673">
        <ele>716.4</ele>
        <time>2016-10-26T12:11:50Z</time>
      </trkpt>
      <trkpt lat="43.82892" lon="6.46743">
        <ele>716.6</ele>
        <time>2016-10-26T12:11:52Z</time>
      </trkpt>
      <trkpt lat="43.82891" lon="6.46756">
        <ele>716.8</ele>
        <time>2016-10-26T12:11:54Z</time>
      </trkpt>
      <trkpt lat="43.82889" lon="6.46775">
        <ele>717.1</ele>
        <time>2016-10-26T12:11:57Z</time>
      </trkpt>
      <trkpt lat="43.82889" lon="6.46788">
        <ele>717.3</ele>
        <time>2016-10-26T12:11:59Z</time>
      </trkpt>
      <trkpt lat="43.82892" lon="6.46801">
        <ele>717.4</ele>
        <time>2016-10-26T12:12:01Z</time>
      </trkpt>
      <trkpt lat="43.82895" lon="6.46813">
        <ele>717.6</ele>
        <time>2016-10-26T12:12:03Z</time>
      </trkpt>
      <trkpt lat="43.82899" lon="6.46826">
        <ele>717.8</ele>
        <time>2016-10-26T12:12:05Z</time>
      </trkpt>
      <trkpt lat="43.82904" lon="6.46838">
        <ele>718</ele>
        <time>2016-10-26T12:12:07Z</time>
      </trkpt>
      <trkpt lat="43.82908" lon="6.4685">
        <ele>718.2</ele>
        <time>2016-10-26T12:12:09Z</time>
      </trkpt>
      <trkpt lat="43.82912" lon="6.46863">
        <ele>718.3</ele>
        <time>2016-10-26T12:12:11Z</time>
      </trkpt>
      <trkpt lat="43.82913" lon="6.46877">
        <ele>718.5</ele>
        <time>2016-10-26T12:12:13Z</time>
      </trkpt>
      <trkpt lat="43.82913" lon="6.46891">
        <ele>718.6</ele>
        <time>2016-10-26T12:12:15Z</time>
      </trkpt>
      <trkpt lat="43.82911" lon="6.46905">
        <ele>718.8</ele>
        <time>2016-10-26T12:12:17Z</time>
      </trkpt>
      <trkpt lat="43.82909" lon="6.46918">
        <ele>718.9</ele>
        <time>2016-10-26T12:12:19Z</time>
      </trkpt>
      <trkpt lat="43.82906" lon="6.46932">
        <ele>719</ele>
        <time>2016-10-26T12:12:21Z</time>
      </trkpt>
      <trkpt lat="43.82904" lon="6.46945">
        <ele>719.2</ele>
        <time>2016-10-26T12:12:23Z</time>
      </trkpt>
      <trkpt lat="43.82903" lon="6.46959">
        <ele>719.4</ele>
        <time>2016-10-26T12:12:25Z</time>
      </trkpt>
      <trkpt lat="43.82904" lon="6.46973">
        <ele>719.5</ele>
        <time>2016-10-26T12:12:27Z</time>
      </trkpt>
      <trkpt lat="43.82905" lon="6.46987">
        <ele>719.7</ele>
        <time>2016-10-26T12:12:29Z</time>
      </trkpt>
      <trkpt lat="43.82908" lon="6.47001">
        <ele>719.8</ele>
        <time>2016-10-26T12:12:31Z</time>
      </trkpt>
      <trkpt lat="43.82911" lon="6.47015">
        <ele>719.9</ele>
        <time>2016-10-26T12:12:33Z</time>
      </trkpt>
      <trkpt lat="43.82915" lon="6.47028">
        <ele>720.1</ele>
        <time>2016-10-26T12:12:35Z</time>
      </trkpt>
      <trkpt lat="43.82919" lon="6.47041">
        <ele>720.2</ele>
        <time>2016-10-26T12:12:37Z</time>
      </trkpt>
      <trkpt lat="43.82924" lon="6.47055">
        <ele>720.3</ele>
        <time>2016-10-26T12:12:39Z</time>
      </trkpt>
      <trkpt lat="43.82928" lon="6.47068">
        <ele>720.5</ele>
        <time>2016-10-26T12:12:41Z</time>
      </trkpt>
      <trkpt lat="43.82932" lon="6.47081">
        <ele>720.6</ele>
        <time>2016-10-26T12:12:43Z</time>
      </trkpt>
      <trkpt lat="43.82937" lon="6.47094">
        <ele>720.8</ele>
        <time>2016-10-26T12:12:45Z</time>
      </trkpt>
      <trkpt lat="43.82941" lon="6.47106">
        <ele>721</ele>
        <time>2016-10-26T12:12:47Z</time>
      </trkpt>
      <trkpt lat="43.82946" lon="6.47119">
        <ele>721.1</ele>
        <time>2016-10-26T12:12:49Z</time>
      </trkpt>
      <trkpt lat="43.82951" lon="6.4713">
        <ele>721.3</ele>
        <time>2016-10-26T12:12:51Z</time>
      </trkpt>
      <trkpt lat="43.82957" lon="6.47142">
        <ele>721.5</ele>
        <time>2016-10-26T12:12:53Z</time>
      </trkpt>
      <trkpt lat="43.82963" lon="6.47153">
        <ele>721.7</ele>
        <time>2016-10-26T12:12:55Z</time>
      </trkpt>
      <trkpt lat="43.8297" lon="6.47163">
        <ele>721.9</ele>
        <time>2016-10-26T12:12:57Z</time>
      </trkpt>
      <trkpt lat="43.82978" lon="6.47172">
        <ele>722</ele>
        <time>2016-10-26T12:12:59Z</time>
      </trkpt>
      <trkpt lat="43.82988" lon="6.47179">
        <ele>722.1</ele>
        <time>2016-10-26T12:13:01Z</time>
      </trkpt>
      <trkpt lat="43.82997" lon="6.47188">
        <ele>722.2</ele>
        <time>2016-10-26T12:13:03Z</time>
      </trkpt>
      <trkpt lat="43.83005" lon="6.47197">
        <ele>722.3</ele>
        <time>2016-10-26T12:13:05Z</time>
      </trkpt>
      <trkpt lat="43.83012" lon="6.47209">
        <ele>722.5</ele>
        <time>2016-10-26T12:13:07Z</time>
      </trkpt>
      <trkpt lat="43.83015" lon="6.47224">
        <ele>722.6</ele>
        <time>2016-10-26T12:13:09Z</time>
      </trkpt>
      <trkpt lat="43.83018" lon="6.47238">
        <ele>722.7</ele>
        <time>2016-10-26T12:13:11Z</time>
      </trkpt>
      <trkpt lat="43.83022" lon="6.4725">
        <ele>722.9</ele>
        <time>2016-10-26T12:13:13Z</time>
      </trkpt>
      <trkpt lat="43.83027" lon="6.47263">
        <ele>723</ele>
        <time>2016-10-26T12:13:15Z</time>
      </trkpt>
      <trkpt lat="43.83032" lon="6.47276">
        <ele>723.2</ele>
        <time>2016-10-26T12:13:17Z</time>
      </trkpt>
      <trkpt lat="43.83037" lon="6.47289">
        <ele>723.3</ele>
        <time>2016-10-26T12:13:19Z</time>
      </trkpt>
      <trkpt lat="43.8304" lon="6.47303">
        <ele>723.5</ele>
        <time>2016-10-26T12:13:21Z</time>
      </trkpt>
      <trkpt lat="43.83044" lon="6.47317">
        <ele>723.6</ele>
        <time>2016-10-26T12:13:23Z</time>
      </trkpt>
      <trkpt lat="43.8305" lon="6.47329">
        <ele>723.8</ele>
        <time>2016-10-26T12:13:25Z</time>
      </trkpt>
      <trkpt lat="43.83058" lon="6.4734">
        <ele>724</ele>
        <time>2016-10-26T12:13:27Z</time>
      </trkpt>
      <trkpt lat="43.83067" lon="6.47349">
        <ele>724.2</ele>
        <time>2016-10-26T12:13:29Z</time>
      </trkpt>
      <trkpt lat="43.83076" lon="6.47358">
        <ele>724.4</ele>
        <time>2016-10-26T12:13:31Z</time>
      </trkpt>
      <trkpt lat="43.83086" lon="6.47366">
        <ele>724.6</ele>
        <time>2016-10-26T12:13:33Z</time>
      </trkpt>
      <trkpt lat="43.83095" lon="6.47375">
        <ele>724.8</ele>
        <time>2016-10-26T12:13:35Z</time>
      </trkpt>
      <trkpt lat="43.83103" lon="6.47387">
        <ele>724.9</ele>
        <time>2016-10-26T12:13:37Z</time>
      </trkpt>
      <trkpt lat="43.8311" lon="6.474">
        <ele>725.1</ele>
        <time>2016-10-26T12:13:39Z</time>
      </trkpt>
      <trkpt lat="43.83114" lon="6.47413">
        <ele>725.3</ele>
        <time>2016-10-26T12:13:41Z</time>
      </trkpt>
      <trkpt lat="43.83116" lon="6.47427">
        <ele>725.5</ele>
        <time>2016-10-26T12:13:43Z</time>
      </trkpt>
      <trkpt lat="43.83118" lon="6.4744">
        <ele>725.7</ele>
        <time>2016-10-26T12:13:45Z</time>
      </trkpt>
      <trkpt lat="43.8312" lon="6.47453">
        <ele>725.9</ele>
        <time>2016-10-26T12:13:47Z</time>
      </trkpt>
      <trkpt lat="43.8312" lon="6.47467">
        <ele>726.1</ele>
        <time>2016-10-26T12:13:49Z</time>
      </trkpt>
      <trkpt lat="43.83121" lon="6.47482">
        <ele>726.3</ele>
        <time>2016-10-26T12:13:51Z</time>
      </trkpt>
      <trkpt lat="43.83122" lon="6.47496">
        <ele>726.5</ele>
        <time>2016-10-26T12:13:53Z</time>
      </trkpt>
      <trkpt lat="43.83124" lon="6.4751">
        <ele>726.7</ele>
        <time>2016-10-26T12:13:55Z</time>
      </trkpt>
      <trkpt lat="43.83126" lon="6.47524">
        <ele>726.8</ele>
        <time>2016-10-26T12:13:57Z</time>
      </trkpt>
      <trkpt lat="43.83127" lon="6.47538">
        <ele>726.9</ele>
        <time>2016-10-26T12:13:59Z</time>
      </trkpt>
      <trkpt lat="43.8313" lon="6.47552">
        <ele>727.1</ele>
        <time>2016-10-26T12:14:01Z</time>
      </trkpt>
      <trkpt lat="43.83134" lon="6.47565">
        <ele>727.2</ele>
        <time>2016-10-26T12:14:03Z</time>
      </trkpt>
      <trkpt lat="43.83138" lon="6.47578">
        <ele>727.3</ele>
        <time>2016-10-26T12:14:05Z</time>
      </trkpt>
      <trkpt lat="43.83142" lon="6.4759">
        <ele>727.5</ele>
        <time>2016-10-26T12:14:07Z</time>
      </trkpt>
      <trkpt lat="43.83147" lon="6.47603">
        <ele>727.7</ele>
        <time>2016-10-26T12:14:09Z</time>
      </trkpt>
      <trkpt lat="43.83151" lon="6.47615">
        <ele>727.9</ele>
        <time>2016-10-26T12:14:11Z</time>
      </trkpt>
      <trkpt lat="43.83153" lon="6.47629">
        <ele>728.1</ele>
        <time>2016-10-26T12:14:13Z</time>
      </trkpt>
      <trkpt lat="43.83153" lon="6.47643">
        <ele>728.3</ele>
        <time>2016-10-26T12:14:15Z</time>
      </trkpt>
      <trkpt lat="43.83152" lon="6.47656">
        <ele>728.6</ele>
        <time>2016-10-26T12:14:17Z</time>
      </trkpt>
      <trkpt lat="43.83154" lon="6.4767">
        <ele>728.8</ele>
        <time>2016-10-26T12:14:19Z</time>
      </trkpt>
      <trkpt lat="43.83156" lon="6.47684">
        <ele>729</ele>
        <time>2016-10-26T12:14:21Z</time>
      </trkpt>
      <trkpt lat="43.83159" lon="6.47698">
        <ele>729.1</ele>
        <time>2016-10-26T12:14:23Z</time>
      </trkpt>
      <trkpt lat="43.83163" lon="6.47711">
        <ele>729.2</ele>
        <time>2016-10-26T12:14:25Z</time>
      </trkpt>
      <trkpt lat="43.83166" lon="6.47724">
        <ele>729.4</ele>
        <time>2016-10-26T12:14:27Z</time>
      </trkpt>
      <trkpt lat="43.8317" lon="6.47737">
        <ele>729.7</ele>
        <time>2016-10-26T12:14:29Z</time>
      </trkpt>
      <trkpt lat="43.83175" lon="6.47749">
        <ele>729.9</ele>
        <time>2016-10-26T12:14:31Z</time>
      </trkpt>
      <trkpt lat="43.83179" lon="6.47762">
        <ele>730.1</ele>
        <time>2016-10-26T12:14:33Z</time>
      </trkpt>
      <trkpt lat="43.83181" lon="6.47776">
        <ele>730.2</ele>
        <time>2016-10-26T12:14:35Z</time>
      </trkpt>
      <trkpt lat="43.83183" lon="6.4779">
        <ele>730.4</ele>
        <time>2016-10-26T12:14:37Z</time>
      </trkpt>
      <trkpt lat="43.83186" lon="6.47804">
        <ele>730.5</ele>
        <time>2016-10-26T12:14:39Z</time>
      </trkpt>
      <trkpt lat="43.83188" lon="6.47817">
        <ele>730.7</ele>
        <time>2016-10-26T12:14:41Z</time>
      </trkpt>
      <trkpt lat="43.83192" lon="6.4783">
        <ele>730.8</ele>
        <time>2016-10-26T12:14:43Z</time>
      </trkpt>
      <trkpt lat="43.83197" lon="6.47843">
        <ele>731</ele>
        <time>2016-10-26T12:14:45Z</time>
      </trkpt>
      <trkpt lat="43.83201" lon="6.47856">
        <ele>731.1</ele>
        <time>2016-10-26T12:14:47Z</time>
      </trkpt>
      <trkpt lat="43.83201" lon="6.47871">
        <ele>731.3</ele>
        <time>2016-10-26T12:14:49Z</time>
      </trkpt>
      <trkpt lat="43.832" lon="6.47884">
        <ele>731.4</ele>
        <time>2016-10-26T12:14:51Z</time>
      </trkpt>
      <trkpt lat="43.832" lon="6.47897">
        <ele>731.6</ele>
        <time>2016-10-26T12:14:53Z</time>
      </trkpt>
      <trkpt lat="43.83201" lon="6.4791">
        <ele>731.8</ele>
        <time>2016-10-26T12:14:55Z</time>
      </trkpt>
      <trkpt lat="43.83204" lon="6.47923">
        <ele>732</ele>
        <time>2016-10-26T12:14:57Z</time>
      </trkpt>
      <trkpt lat="43.83207" lon="6.47935">
        <ele>732.2</ele>
        <time>2016-10-26T12:14:59Z</time>
      </trkpt>
      <trkpt lat="43.83212" lon="6.47947">
        <ele>732.4</ele>
        <time>2016-10-26T12:15:01Z</time>
      </trkpt>
      <trkpt lat="43.83216" lon="6.4796">
        <ele>732.6</ele>
        <time>2016-10-26T12:15:03Z</time>
      </trkpt>
      <trkpt lat="43.83222" lon="6.47972">
        <ele>732.8</ele>
        <time>2016-10-26T12:15:05Z</time>
      </trkpt>
      <trkpt lat="43.83228" lon="6.47983">
        <ele>733</ele>
        <time>2016-10-26T12:15:07Z</time>
      </trkpt>
      <trkpt lat="43.83235" lon="6.47994">
        <ele>733.2</ele>
        <time>2016-10-26T12:15:09Z</time>
      </trkpt>
      <trkpt lat="43.83241" lon="6.48004">
        <ele>733.4</ele>
        <time>2016-10-26T12:15:11Z</time>
      </trkpt>
      <trkpt lat="43.83248" lon="6.48014">
        <ele>733.6</ele>
        <time>2016-10-26T12:15:13Z</time>
      </trkpt>
      <trkpt lat="43.83253" lon="6.48025">
        <ele>733.8</ele>
        <time>2016-10-26T12:15:15Z</time>
      </trkpt>
      <trkpt lat="43.83259" lon="6.48036">
        <ele>734</ele>
        <time>2016-10-26T12:15:17Z</time>
      </trkpt>
      <trkpt lat="43.83264" lon="6.48048">
        <ele>734.2</ele>
        <time>2016-10-26T12:15:19Z</time>
      </trkpt>
      <trkpt lat="43.83269" lon="6.48059">
        <ele>734.3</ele>
        <time>2016-10-26T12:15:21Z</time>
      </trkpt>
      <trkpt lat="43.83274" lon="6.48071">
        <ele>734.5</ele>
        <time>2016-10-26T12:15:23Z</time>
      </trkpt>
      <trkpt lat="43.83279" lon="6.48084">
        <ele>734.6</ele>
        <time>2016-10-26T12:15:25Z</time>
      </trkpt>
      <trkpt lat="43.83282" lon="6.48098">
        <ele>734.7</ele>
        <time>2016-10-26T12:15:27Z</time>
      </trkpt>
      <trkpt lat="43.83284" lon="6.48112">
        <ele>734.8</ele>
        <time>2016-10-26T12:15:29Z</time>
      </trkpt>
      <trkpt lat="43.83285" lon="6.48126">
        <ele>735</ele>
        <time>2016-10-26T12:15:31Z</time>
      </trkpt>
      <trkpt lat="43.83288" lon="6.48138">
        <ele>735.1</ele>
        <time>2016-10-26T12:15:33Z</time>
      </trkpt>
      <trkpt lat="43.83291" lon="6.48152">
        <ele>735.2</ele>
        <time>2016-10-26T12:15:35Z</time>
      </trkpt>
      <trkpt lat="43.83294" lon="6.48167">
        <ele>735.4</ele>
        <time>2016-10-26T12:15:37Z</time>
      </trkpt>
      <trkpt lat="43.83297" lon="6.48181">
        <ele>735.5</ele>
        <time>2016-10-26T12:15:39Z</time>
      </trkpt>
      <trkpt lat="43.83301" lon="6.48195">
        <ele>735.8</ele>
        <time>2016-10-26T12:15:41Z</time>
      </trkpt>
      <trkpt lat="43.83306" lon="6.48208">
        <ele>736</ele>
        <time>2016-10-26T12:15:43Z</time>
      </trkpt>
      <trkpt lat="43.83312" lon="6.48219">
        <ele>736.1</ele>
        <time>2016-10-26T12:15:45Z</time>
      </trkpt>
      <trkpt lat="43.8332" lon="6.4823">
        <ele>736.3</ele>
        <time>2016-10-26T12:15:47Z</time>
      </trkpt>
      <trkpt lat="43.83327" lon="6.4824">
        <ele>736.4</ele>
        <time>2016-10-26T12:15:49Z</time>
      </trkpt>
      <trkpt lat="43.83336" lon="6.4825">
        <ele>736.5</ele>
        <time>2016-10-26T12:15:51Z</time>
      </trkpt>
      <trkpt lat="43.83345" lon="6.48259">
        <ele>736.6</ele>
        <time>2016-10-26T12:15:53Z</time>
      </trkpt>
      <trkpt lat="43.83355" lon="6.48267">
        <ele>736.7</ele>
        <time>2016-10-26T12:15:55Z</time>
      </trkpt>
      <trkpt lat="43.83366" lon="6.48273">
        <ele>736.8</ele>
        <time>2016-10-26T12:15:57Z</time>
      </trkpt>
      <trkpt lat="43.83378" lon="6.48279">
        <ele>736.9</ele>
        <time>2016-10-26T12:15:59Z</time>
      </trkpt>
      <trkpt lat="43.83389" lon="6.48285">
        <ele>737</ele>
        <time>2016-10-26T12:16:01Z</time>
      </trkpt>
      <trkpt lat="43.83401" lon="6.4829">
        <ele>737.1</ele>
        <time>2016-10-26T12:16:03Z</time>
      </trkpt>
      <trkpt lat="43.83414" lon="6.48295">
        <ele>737.2</ele>
        <time>2016-10-26T12:16:05Z</time>
      </trkpt>
      <trkpt lat="43.83425" lon="6.48302">
        <ele>737.2</ele>
        <time>2016-10-26T12:16:07Z</time>
      </trkpt>
      <trkpt lat="43.83435" lon="6.48312">
        <ele>737.3</ele>
        <time>2016-10-26T12:16:09Z</time>
      </trkpt>
      <trkpt lat="43.83445" lon="6.48323">
        <ele>737.3</ele>
        <time>2016-10-26T12:16:11Z</time>
      </trkpt>
      <trkpt lat="43.83453" lon="6.48337">
        <ele>737.4</ele>
        <time>2016-10-26T12:16:13Z</time>
      </trkpt>
      <trkpt lat="43.83461" lon="6.48351">
        <ele>737.4</ele>
        <time>2016-10-26T12:16:15Z</time>
      </trkpt>
      <trkpt lat="43.83471" lon="6.48364">
        <ele>737.5</ele>
        <time>2016-10-26T12:16:17Z</time>
      </trkpt>
      <trkpt lat="43.83482" lon="6.48375">
        <ele>737.5</ele>
        <time>2016-10-26T12:16:19Z</time>
      </trkpt>
      <trkpt lat="43.83493" lon="6.48385">
        <ele>737.5</ele>
        <time>2016-10-26T12:16:21Z</time>
      </trkpt>
      <trkpt lat="43.83504" lon="6.48395">
        <ele>737.5</ele>
        <time>2016-10-26T12:16:23Z</time>
      </trkpt>
      <trkpt lat="43.83514" lon="6.48407">
        <ele>737.4</ele>
        <time>2016-10-26T12:16:25Z</time>
      </trkpt>
      <trkpt lat="43.83522" lon="6.48421">
        <ele>737.4</ele>
        <time>2016-10-26T12:16:27Z</time>
      </trkpt>
      <trkpt lat="43.83528" lon="6.48437">
        <ele>737.4</ele>
        <time>2016-10-26T12:16:29Z</time>
      </trkpt>
      <trkpt lat="43.83533" lon="6.48455">
        <ele>737.4</ele>
        <time>2016-10-26T12:16:31Z</time>
      </trkpt>
      <trkpt lat="43.83537" lon="6.48472">
        <ele>737.4</ele>
        <time>2016-10-26T12:16:33Z</time>
      </trkpt>
      <trkpt lat="43.83541" lon="6.48491">
        <ele>737.4</ele>
        <time>2016-10-26T12:16:35Z</time>
      </trkpt>
      <trkpt lat="43.83545" lon="6.48509">
        <ele>737.3</ele>
        <time>2016-10-26T12:16:37Z</time>
      </trkpt>
      <trkpt lat="43.83549" lon="6.48528">
        <ele>737.3</ele>
        <time>2016-10-26T12:16:39Z</time>
      </trkpt>
      <trkpt lat="43.83554" lon="6.48547">
        <ele>737.2</ele>
        <time>2016-10-26T12:16:41Z</time>
      </trkpt>
      <trkpt lat="43.83556" lon="6.48567">
        <ele>737.1</ele>
        <time>2016-10-26T12:16:43Z</time>
      </trkpt>
      <trkpt lat="43.83551" lon="6.48585">
        <ele>737</ele>
        <time>2016-10-26T12:16:45Z</time>
      </trkpt>
      <trkpt lat="43.83541" lon="6.48597">
        <ele>736.9</ele>
        <time>2016-10-26T12:16:47Z</time>
      </trkpt>
      <trkpt lat="43.83531" lon="6.48609">
        <ele>736.8</ele>
        <time>2016-10-26T12:16:49Z</time>
      </trkpt>
      <trkpt lat="43.83524" lon="6.48625">
        <ele>736.7</ele>
        <time>2016-10-26T12:16:51Z</time>
      </trkpt>
      <trkpt lat="43.83518" lon="6.48641">
        <ele>736.6</ele>
        <time>2016-10-26T12:16:53Z</time>
      </trkpt>
      <trkpt lat="43.83513" lon="6.48658">
        <ele>736.5</ele>
        <time>2016-10-26T12:16:55Z</time>
      </trkpt>
      <trkpt lat="43.83509" lon="6.48676">
        <ele>736.4</ele>
        <time>2016-10-26T12:16:57Z</time>
      </trkpt>
      <trkpt lat="43.83506" lon="6.48693">
        <ele>736.4</ele>
        <time>2016-10-26T12:16:59Z</time>
      </trkpt>
      <trkpt lat="43.83504" lon="6.48711">
        <ele>736.3</ele>
        <time>2016-10-26T12:17:01Z</time>
      </trkpt>
      <trkpt lat="43.83503" lon="6.48728">
        <ele>736.3</ele>
        <time>2016-10-26T12:17:03Z</time>
      </trkpt>
      <trkpt lat="43.83506" lon="6.48746">
        <ele>736.2</ele>
        <time>2016-10-26T12:17:05Z</time>
      </trkpt>
      <trkpt lat="43.8351" lon="6.48764">
        <ele>736.2</ele>
        <time>2016-10-26T12:17:07Z</time>
      </trkpt>
      <trkpt lat="43.83515" lon="6.48782">
        <ele>736.2</ele>
        <time>2016-10-26T12:17:09Z</time>
      </trkpt>
      <trkpt lat="43.8352" lon="6.48799">
        <ele>736.1</ele>
        <time>2016-10-26T12:17:11Z</time>
      </trkpt>
      <trkpt lat="43.83523" lon="6.48817">
        <ele>736.1</ele>
        <time>2016-10-26T12:17:13Z</time>
      </trkpt>
      <trkpt lat="43.83525" lon="6.48835">
        <ele>736</ele>
        <time>2016-10-26T12:17:15Z</time>
      </trkpt>
      <trkpt lat="43.83528" lon="6.48854">
        <ele>736</ele>
        <time>2016-10-26T12:17:17Z</time>
      </trkpt>
      <trkpt lat="43.83531" lon="6.48871">
        <ele>736</ele>
        <time>2016-10-26T12:17:19Z</time>
      </trkpt>
      <trkpt lat="43.83536" lon="6.48889">
        <ele>736</ele>
        <time>2016-10-26T12:17:21Z</time>
      </trkpt>
      <trkpt lat="43.83541" lon="6.48906">
        <ele>735.9</ele>
        <time>2016-10-26T12:17:23Z</time>
      </trkpt>
      <trkpt lat="43.83544" lon="6.48923">
        <ele>735.9</ele>
        <time>2016-10-26T12:17:25Z</time>
      </trkpt>
      <trkpt lat="43.83543" lon="6.48941">
        <ele>735.8</ele>
        <time>2016-10-26T12:17:27Z</time>
      </trkpt>
      <trkpt lat="43.83537" lon="6.48956">
        <ele>735.8</ele>
        <time>2016-10-26T12:17:29Z</time>
      </trkpt>
      <trkpt lat="43.83527" lon="6.48968">
        <ele>735.8</ele>
        <time>2016-10-26T12:17:31Z</time>
      </trkpt>
      <trkpt lat="43.83517" lon="6.48978">
        <ele>735.7</ele>
        <time>2016-10-26T12:17:33Z</time>
      </trkpt>
      <trkpt lat="43.83508" lon="6.48989">
        <ele>735.7</ele>
        <time>2016-10-26T12:17:35Z</time>
      </trkpt>
      <trkpt lat="43.835" lon="6.49001">
        <ele>735.6</ele>
        <time>2016-10-26T12:17:37Z</time>
      </trkpt>
      <trkpt lat="43.83495" lon="6.49016">
        <ele>735.6</ele>
        <time>2016-10-26T12:17:39Z</time>
      </trkpt>
      <trkpt lat="43.83495" lon="6.49033">
        <ele>735.5</ele>
        <time>2016-10-26T12:17:41Z</time>
      </trkpt>
      <trkpt lat="43.83497" lon="6.49051">
        <ele>735.5</ele>
        <time>2016-10-26T12:17:43Z</time>
      </trkpt>
      <trkpt lat="43.835" lon="6.49069">
        <ele>735.4</ele>
        <time>2016-10-26T12:17:45Z</time>
      </trkpt>
      <trkpt lat="43.83504" lon="6.49086">
        <ele>735.4</ele>
        <time>2016-10-26T12:17:47Z</time>
      </trkpt>
      <trkpt lat="43.83509" lon="6.49103">
        <ele>735.4</ele>
        <time>2016-10-26T12:17:49Z</time>
      </trkpt>
      <trkpt lat="43.83514" lon="6.4912">
        <ele>735.4</ele>
        <time>2016-10-26T12:17:51Z</time>
      </trkpt>
      <trkpt lat="43.83516" lon="6.49138">
        <ele>735.3</ele>
        <time>2016-10-26T12:17:53Z</time>
      </trkpt>
      <trkpt lat="43.83518" lon="6.49156">
        <ele>735.3</ele>
        <time>2016-10-26T12:17:55Z</time>
      </trkpt>
      <trkpt lat="43.83517" lon="6.49174">
        <ele>735.3</ele>
        <time>2016-10-26T12:17:57Z</time>
      </trkpt>
      <trkpt lat="43.83512" lon="6.4919">
        <ele>735.3</ele>
        <time>2016-10-26T12:17:59Z</time>
      </trkpt>
      <trkpt lat="43.83506" lon="6.49204">
        <ele>735.3</ele>
        <time>2016-10-26T12:18:01Z</time>
      </trkpt>
      <trkpt lat="43.835" lon="6.49219">
        <ele>735.3</ele>
        <time>2016-10-26T12:18:03Z</time>
      </trkpt>
      <trkpt lat="43.83493" lon="6.49234">
        <ele>735.3</ele>
        <time>2016-10-26T12:18:05Z</time>
      </trkpt>
      <trkpt lat="43.83489" lon="6.4925">
        <ele>735.3</ele>
        <time>2016-10-26T12:18:07Z</time>
      </trkpt>
      <trkpt lat="43.83485" lon="6.49266">
        <ele>735.3</ele>
        <time>2016-10-26T12:18:09Z</time>
      </trkpt>
      <trkpt lat="43.83481" lon="6.49282">
        <ele>735.3</ele>
        <time>2016-10-26T12:18:11Z</time>
      </trkpt>
      <trkpt lat="43.83477" lon="6.49299">
        <ele>735.2</ele>
        <time>2016-10-26T12:18:13Z</time>
      </trkpt>
      <trkpt lat="43.83478" lon="6.49316">
        <ele>735.2</ele>
        <time>2016-10-26T12:18:15Z</time>
      </trkpt>
      <trkpt lat="43.83487" lon="6.49329">
        <ele>735.2</ele>
        <time>2016-10-26T12:18:17Z</time>
      </trkpt>
      <trkpt lat="43.83499" lon="6.49337">
        <ele>735.2</ele>
        <time>2016-10-26T12:18:19Z</time>
      </trkpt>
      <trkpt lat="43.83513" lon="6.49343">
        <ele>735.2</ele>
        <time>2016-10-26T12:18:21Z</time>
      </trkpt>
      <trkpt lat="43.83528" lon="6.49348">
        <ele>735.2</ele>
        <time>2016-10-26T12:18:23Z</time>
      </trkpt>
      <trkpt lat="43.83542" lon="6.49349">
        <ele>735.2</ele>
        <time>2016-10-26T12:18:25Z</time>
      </trkpt>
      <trkpt lat="43.83557" lon="6.49344">
        <ele>735.1</ele>
        <time>2016-10-26T12:18:27Z</time>
      </trkpt>
      <trkpt lat="43.83571" lon="6.49337">
        <ele>735.1</ele>
        <time>2016-10-26T12:18:29Z</time>
      </trkpt>
      <trkpt lat="43.83585" lon="6.49329">
        <ele>735</ele>
        <time>2016-10-26T12:18:31Z</time>
      </trkpt>
      <trkpt lat="43.83599" lon="6.49318">
        <ele>735</ele>
        <time>2016-10-26T12:18:33Z</time>
      </trkpt>
      <trkpt lat="43.83611" lon="6.49306">
        <ele>734.9</ele>
        <time>2016-10-26T12:18:35Z</time>
      </trkpt>
      <trkpt lat="43.83626" lon="6.49299">
        <ele>734.7</ele>
        <time>2016-10-26T12:18:37Z</time>
      </trkpt>
      <trkpt lat="43.83642" lon="6.49297">
        <ele>734.6</ele>
        <time>2016-10-26T12:18:39Z</time>
      </trkpt>
      <trkpt lat="43.83657" lon="6.49298">
        <ele>734.4</ele>
        <time>2016-10-26T12:18:41Z</time>
      </trkpt>
      <trkpt lat="43.83672" lon="6.49302">
        <ele>734.2</ele>
        <time>2016-10-26T12:18:43Z</time>
      </trkpt>
      <trkpt lat="43.83687" lon="6.49307">
        <ele>734</ele>
        <time>2016-10-26T12:18:45Z</time>
      </trkpt>
      <trkpt lat="43.83702" lon="6.49312">
        <ele>733.8</ele>
        <time>2016-10-26T12:18:47Z</time>
      </trkpt>
      <trkpt lat="43.83717" lon="6.49319">
        <ele>733.6</ele>
        <time>2016-10-26T12:18:49Z</time>
      </trkpt>
      <trkpt lat="43.83731" lon="6.49329">
        <ele>733.4</ele>
        <time>2016-10-26T12:18:51Z</time>
      </trkpt>
      <trkpt lat="43.83744" lon="6.49339">
        <ele>733.2</ele>
        <time>2016-10-26T12:18:53Z</time>
      </trkpt>
      <trkpt lat="43.83757" lon="6.49352">
        <ele>733</ele>
        <time>2016-10-26T12:18:55Z</time>
      </trkpt>
      <trkpt lat="43.83769" lon="6.49366">
        <ele>732.7</ele>
        <time>2016-10-26T12:18:57Z</time>
      </trkpt>
      <trkpt lat="43.8378" lon="6.49382">
        <ele>732.5</ele>
        <time>2016-10-26T12:18:59Z</time>
      </trkpt>
      <trkpt lat="43.83791" lon="6.49397">
        <ele>732.2</ele>
        <time>2016-10-26T12:19:01Z</time>
      </trkpt>
      <trkpt lat="43.83802" lon="6.4941">
        <ele>731.9</ele>
        <time>2016-10-26T12:19:03Z</time>
      </trkpt>
      <trkpt lat="43.83815" lon="6.49412">
        <ele>731.6</ele>
        <time>2016-10-26T12:19:05Z</time>
      </trkpt>
      <trkpt lat="43.83826" lon="6.49403">
        <ele>731.4</ele>
        <time>2016-10-26T12:19:07Z</time>
      </trkpt>
      <trkpt lat="43.83835" lon="6.49387">
        <ele>731.1</ele>
        <time>2016-10-26T12:19:09Z</time>
      </trkpt>
      <trkpt lat="43.83845" lon="6.49372">
        <ele>730.8</ele>
        <time>2016-10-26T12:19:11Z</time>
      </trkpt>
      <trkpt lat="43.83857" lon="6.49362">
        <ele>730.5</ele>
        <time>2016-10-26T12:19:13Z</time>
      </trkpt>
      <trkpt lat="43.83872" lon="6.49354">
        <ele>730.2</ele>
        <time>2016-10-26T12:19:15Z</time>
      </trkpt>
      <trkpt lat="43.83887" lon="6.49352">
        <ele>729.8</ele>
        <time>2016-10-26T12:19:17Z</time>
      </trkpt>
      <trkpt lat="43.83901" lon="6.49357">
        <ele>729.4</ele>
        <time>2016-10-26T12:19:19Z</time>
      </trkpt>
      <trkpt lat="43.83915" lon="6.49366">
        <ele>729.1</ele>
        <time>2016-10-26T12:19:21Z</time>
      </trkpt>
      <trkpt lat="43.83929" lon="6.49375">
        <ele>728.8</ele>
        <time>2016-10-26T12:19:23Z</time>
      </trkpt>
      <trkpt lat="43.83943" lon="6.49383">
        <ele>728.4</ele>
        <time>2016-10-26T12:19:25Z</time>
      </trkpt>
      <trkpt lat="43.83956" lon="6.49392">
        <ele>728.1</ele>
        <time>2016-10-26T12:19:27Z</time>
      </trkpt>
      <trkpt lat="43.83967" lon="6.49404">
        <ele>727.9</ele>
        <time>2016-10-26T12:19:29Z</time>
      </trkpt>
      <trkpt lat="43.83978" lon="6.49418">
        <ele>727.6</ele>
        <time>2016-10-26T12:19:31Z</time>
      </trkpt>
      <trkpt lat="43.83989" lon="6.49431">
        <ele>727.2</ele>
        <time>2016-10-26T12:19:33Z</time>
      </trkpt>
      <trkpt lat="43.84" lon="6.49441">
        <ele>726.9</ele>
        <time>2016-10-26T12:19:35Z</time>
      </trkpt>
      <trkpt lat="43.84013" lon="6.49451">
        <ele>726.6</ele>
        <time>2016-10-26T12:19:37Z</time>
      </trkpt>
      <trkpt lat="43.84024" lon="6.49463">
        <ele>726.4</ele>
        <time>2016-10-26T12:19:39Z</time>
      </trkpt>
      <trkpt lat="43.84036" lon="6.49476">
        <ele>726.2</ele>
        <time>2016-10-26T12:19:41Z</time>
      </trkpt>
      <trkpt lat="43.84048" lon="6.49488">
        <ele>725.9</ele>
        <time>2016-10-26T12:19:43Z</time>
      </trkpt>
      <trkpt lat="43.84059" lon="6.49501">
        <ele>725.7</ele>
        <time>2016-10-26T12:19:45Z</time>
      </trkpt>
      <trkpt lat="43.84071" lon="6.49514">
        <ele>725.4</ele>
        <time>2016-10-26T12:19:47Z</time>
      </trkpt>
      <trkpt lat="43.84083" lon="6.49527">
        <ele>725.1</ele>
        <time>2016-10-26T12:19:49Z</time>
      </trkpt>
      <trkpt lat="43.84095" lon="6.4954">
        <ele>724.8</ele>
        <time>2016-10-26T12:19:51Z</time>
      </trkpt>
      <trkpt lat="43.84107" lon="6.49551">
        <ele>724.5</ele>
        <time>2016-10-26T12:19:53Z</time>
      </trkpt>
      <trkpt lat="43.84119" lon="6.49562">
        <ele>724.3</ele>
        <time>2016-10-26T12:19:55Z</time>
      </trkpt>
      <trkpt lat="43.8413" lon="6.49573">
        <ele>724.1</ele>
        <time>2016-10-26T12:19:57Z</time>
      </trkpt>
      <trkpt lat="43.84141" lon="6.49585">
        <ele>723.9</ele>
        <time>2016-10-26T12:19:59Z</time>
      </trkpt>
      <trkpt lat="43.8415" lon="6.49597">
        <ele>723.7</ele>
        <time>2016-10-26T12:20:01Z</time>
      </trkpt>
      <trkpt lat="43.84159" lon="6.49608">
        <ele>723.6</ele>
        <time>2016-10-26T12:20:03Z</time>
      </trkpt>
      <trkpt lat="43.84168" lon="6.49618">
        <ele>723.5</ele>
        <time>2016-10-26T12:20:05Z</time>
      </trkpt>
      <trkpt lat="43.84175" lon="6.49628">
        <ele>723.4</ele>
        <time>2016-10-26T12:20:07Z</time>
      </trkpt>
      <trkpt lat="43.84182" lon="6.49637">
        <ele>723.4</ele>
        <time>2016-10-26T12:20:09Z</time>
      </trkpt>
      <trkpt lat="43.84189" lon="6.49648">
        <ele>723.4</ele>
        <time>2016-10-26T12:20:11Z</time>
      </trkpt>
      <trkpt lat="43.84194" lon="6.49661">
        <ele>723.4</ele>
        <time>2016-10-26T12:20:13Z</time>
      </trkpt>
      <trkpt lat="43.84199" lon="6.49675">
        <ele>723.5</ele>
        <time>2016-10-26T12:20:15Z</time>
      </trkpt>
      <trkpt lat="43.84204" lon="6.49687">
        <ele>723.5</ele>
        <time>2016-10-26T12:20:17Z</time>
      </trkpt>
      <trkpt lat="43.84209" lon="6.49701">
        <ele>723.5</ele>
        <time>2016-10-26T12:20:19Z</time>
      </trkpt>
      <trkpt lat="43.84214" lon="6.49714">
        <ele>723.7</ele>
        <time>2016-10-26T12:20:21Z</time>
      </trkpt>
      <trkpt lat="43.8422" lon="6.49726">
        <ele>723.9</ele>
        <time>2016-10-26T12:20:23Z</time>
      </trkpt>
      <trkpt lat="43.84226" lon="6.49738">
        <ele>724</ele>
        <time>2016-10-26T12:20:25Z</time>
      </trkpt>
      <trkpt lat="43.84231" lon="6.49751">
        <ele>724.2</ele>
        <time>2016-10-26T12:20:27Z</time>
      </trkpt>
      <trkpt lat="43.84237" lon="6.49764">
        <ele>724.4</ele>
        <time>2016-10-26T12:20:29Z</time>
      </trkpt>
      <trkpt lat="43.84243" lon="6.49777">
        <ele>724.5</ele>
        <time>2016-10-26T12:20:31Z</time>
      </trkpt>
      <trkpt lat="43.84248" lon="6.49789">
        <ele>724.8</ele>
        <time>2016-10-26T12:20:33Z</time>
      </trkpt>
      <trkpt lat="43.84254" lon="6.49802">
        <ele>725</ele>
        <time>2016-10-26T12:20:35Z</time>
      </trkpt>
      <trkpt lat="43.84261" lon="6.49814">
        <ele>725.1</ele>
        <time>2016-10-26T12:20:37Z</time>
      </trkpt>
      <trkpt lat="43.84267" lon="6.49826">
        <ele>725.3</ele>
        <time>2016-10-26T12:20:39Z</time>
      </trkpt>
      <trkpt lat="43.84273" lon="6.49838">
        <ele>725.5</ele>
        <time>2016-10-26T12:20:41Z</time>
      </trkpt>
      <trkpt lat="43.84279" lon="6.4985">
        <ele>725.7</ele>
        <time>2016-10-26T12:20:43Z</time>
      </trkpt>
      <trkpt lat="43.84286" lon="6.49862">
        <ele>725.9</ele>
        <time>2016-10-26T12:20:45Z</time>
      </trkpt>
      <trkpt lat="43.84292" lon="6.49875">
        <ele>726</ele>
        <time>2016-10-26T12:20:47Z</time>
      </trkpt>
      <trkpt lat="43.84296" lon="6.4989">
        <ele>726.2</ele>
        <time>2016-10-26T12:20:49Z</time>
      </trkpt>
      <trkpt lat="43.84298" lon="6.49907">
        <ele>726.3</ele>
        <time>2016-10-26T12:20:51Z</time>
      </trkpt>
      <trkpt lat="43.843" lon="6.49925">
        <ele>726.4</ele>
        <time>2016-10-26T12:20:53Z</time>
      </trkpt>
      <trkpt lat="43.84301" lon="6.49942">
        <ele>726.5</ele>
        <time>2016-10-26T12:20:55Z</time>
      </trkpt>
      <trkpt lat="43.84303" lon="6.4996">
        <ele>726.5</ele>
        <time>2016-10-26T12:20:57Z</time>
      </trkpt>
      <trkpt lat="43.84305" lon="6.49977">
        <ele>726.6</ele>
        <time>2016-10-26T12:20:59Z</time>
      </trkpt>
      <trkpt lat="43.84307" lon="6.49994">
        <ele>726.6</ele>
        <time>2016-10-26T12:21:01Z</time>
      </trkpt>
      <trkpt lat="43.84309" lon="6.50011">
        <ele>726.7</ele>
        <time>2016-10-26T12:21:03Z</time>
      </trkpt>
      <trkpt lat="43.84312" lon="6.50029">
        <ele>726.6</ele>
        <time>2016-10-26T12:21:05Z</time>
      </trkpt>
      <trkpt lat="43.84317" lon="6.50047">
        <ele>726.6</ele>
        <time>2016-10-26T12:21:07Z</time>
      </trkpt>
      <trkpt lat="43.84323" lon="6.50063">
        <ele>726.6</ele>
        <time>2016-10-26T12:21:09Z</time>
      </trkpt>
      <trkpt lat="43.84331" lon="6.5008">
        <ele>726.5</ele>
        <time>2016-10-26T12:21:11Z</time>
      </trkpt>
      <trkpt lat="43.84339" lon="6.50096">
        <ele>726.5</ele>
        <time>2016-10-26T12:21:13Z</time>
      </trkpt>
      <trkpt lat="43.84347" lon="6.50111">
        <ele>726.5</ele>
        <time>2016-10-26T12:21:15Z</time>
      </trkpt>
      <trkpt lat="43.84355" lon="6.50126">
        <ele>726.4</ele>
        <time>2016-10-26T12:21:17Z</time>
      </trkpt>
      <trkpt lat="43.84362" lon="6.50141">
        <ele>726.3</ele>
        <time>2016-10-26T12:21:19Z</time>
      </trkpt>
      <trkpt lat="43.8437" lon="6.50155">
        <ele>726.3</ele>
        <time>2016-10-26T12:21:21Z</time>
      </trkpt>
      <trkpt lat="43.84378" lon="6.5017">
        <ele>726.2</ele>
        <time>2016-10-26T12:21:23Z</time>
      </trkpt>
      <trkpt lat="43.84384" lon="6.50183">
        <ele>726.2</ele>
        <time>2016-10-26T12:21:25Z</time>
      </trkpt>
      <trkpt lat="43.8439" lon="6.50196">
        <ele>726.2</ele>
        <time>2016-10-26T12:21:27Z</time>
      </trkpt>
      <trkpt lat="43.84397" lon="6.50209">
        <ele>726.1</ele>
        <time>2016-10-26T12:21:29Z</time>
      </trkpt>
      <trkpt lat="43.84403" lon="6.50221">
        <ele>726.1</ele>
        <time>2016-10-26T12:21:31Z</time>
      </trkpt>
      <trkpt lat="43.8441" lon="6.50233">
        <ele>726.2</ele>
        <time>2016-10-26T12:21:33Z</time>
      </trkpt>
      <trkpt lat="43.84416" lon="6.50245">
        <ele>726.2</ele>
        <time>2016-10-26T12:21:35Z</time>
      </trkpt>
      <trkpt lat="43.84422" lon="6.50256">
        <ele>726.3</ele>
        <time>2016-10-26T12:21:37Z</time>
      </trkpt>
      <trkpt lat="43.84429" lon="6.50268">
        <ele>726.3</ele>
        <time>2016-10-26T12:21:39Z</time>
      </trkpt>
      <trkpt lat="43.84435" lon="6.50279">
        <ele>726.5</ele>
        <time>2016-10-26T12:21:41Z</time>
      </trkpt>
      <trkpt lat="43.84441" lon="6.50291">
        <ele>726.7</ele>
        <time>2016-10-26T12:21:43Z</time>
      </trkpt>
      <trkpt lat="43.84447" lon="6.50303">
        <ele>726.8</ele>
        <time>2016-10-26T12:21:45Z</time>
      </trkpt>
      <trkpt lat="43.84453" lon="6.50315">
        <ele>727.1</ele>
        <time>2016-10-26T12:21:47Z</time>
      </trkpt>
      <trkpt lat="43.84459" lon="6.50327">
        <ele>727.3</ele>
        <time>2016-10-26T12:21:49Z</time>
      </trkpt>
      <trkpt lat="43.84464" lon="6.5034">
        <ele>727.6</ele>
        <time>2016-10-26T12:21:51Z</time>
      </trkpt>
      <trkpt lat="43.84468" lon="6.50352">
        <ele>727.9</ele>
        <time>2016-10-26T12:21:53Z</time>
      </trkpt>
      <trkpt lat="43.84473" lon="6.50364">
        <ele>728.1</ele>
        <time>2016-10-26T12:21:55Z</time>
      </trkpt>
      <trkpt lat="43.84478" lon="6.50376">
        <ele>728.4</ele>
        <time>2016-10-26T12:21:57Z</time>
      </trkpt>
      <trkpt lat="43.84482" lon="6.50388">
        <ele>728.6</ele>
        <time>2016-10-26T12:21:59Z</time>
      </trkpt>
      <trkpt lat="43.84487" lon="6.504">
        <ele>728.8</ele>
        <time>2016-10-26T12:22:01Z</time>
      </trkpt>
      <trkpt lat="43.84492" lon="6.50413">
        <ele>729</ele>
        <time>2016-10-26T12:22:03Z</time>
      </trkpt>
      <trkpt lat="43.84497" lon="6.50427">
        <ele>729.1</ele>
        <time>2016-10-26T12:22:05Z</time>
      </trkpt>
      <trkpt lat="43.84502" lon="6.5044">
        <ele>729.3</ele>
        <time>2016-10-26T12:22:07Z</time>
      </trkpt>
      <trkpt lat="43.84507" lon="6.50454">
        <ele>729.4</ele>
        <time>2016-10-26T12:22:09Z</time>
      </trkpt>
      <trkpt lat="43.84513" lon="6.50468">
        <ele>729.5</ele>
        <time>2016-10-26T12:22:11Z</time>
      </trkpt>
      <trkpt lat="43.84519" lon="6.50482">
        <ele>729.6</ele>
        <time>2016-10-26T12:22:13Z</time>
      </trkpt>
      <trkpt lat="43.84525" lon="6.50497">
        <ele>729.7</ele>
        <time>2016-10-26T12:22:15Z</time>
      </trkpt>
      <trkpt lat="43.8453" lon="6.50512">
        <ele>729.7</ele>
        <time>2016-10-26T12:22:17Z</time>
      </trkpt>
      <trkpt lat="43.84536" lon="6.50527">
        <ele>729.7</ele>
        <time>2016-10-26T12:22:19Z</time>
      </trkpt>
      <trkpt lat="43.84542" lon="6.50543">
        <ele>729.8</ele>
        <time>2016-10-26T12:22:21Z</time>
      </trkpt>
      <trkpt lat="43.84547" lon="6.50559">
        <ele>729.8</ele>
        <time>2016-10-26T12:22:23Z</time>
      </trkpt>
      <trkpt lat="43.84551" lon="6.50575">
        <ele>729.8</ele>
        <time>2016-10-26T12:22:25Z</time>
      </trkpt>
      <trkpt lat="43.84556" lon="6.50591">
        <ele>729.8</ele>
        <time>2016-10-26T12:22:27Z</time>
      </trkpt>
      <trkpt lat="43.8456" lon="6.50607">
        <ele>729.8</ele>
        <time>2016-10-26T12:22:29Z</time>
      </trkpt>
      <trkpt lat="43.84564" lon="6.50624">
        <ele>729.8</ele>
        <time>2016-10-26T12:22:31Z</time>
      </trkpt>
      <trkpt lat="43.84568" lon="6.5064">
        <ele>729.8</ele>
        <time>2016-10-26T12:22:33Z</time>
      </trkpt>
      <trkpt lat="43.84571" lon="6.50657">
        <ele>729.8</ele>
        <time>2016-10-26T12:22:35Z</time>
      </trkpt>
      <trkpt lat="43.84575" lon="6.50673">
        <ele>729.7</ele>
        <time>2016-10-26T12:22:37Z</time>
      </trkpt>
      <trkpt lat="43.84579" lon="6.5069">
        <ele>729.7</ele>
        <time>2016-10-26T12:22:39Z</time>
      </trkpt>
      <trkpt lat="43.84584" lon="6.50707">
        <ele>729.6</ele>
        <time>2016-10-26T12:22:41Z</time>
      </trkpt>
      <trkpt lat="43.84588" lon="6.50723">
        <ele>729.6</ele>
        <time>2016-10-26T12:22:43Z</time>
      </trkpt>
      <trkpt lat="43.84592" lon="6.50739">
        <ele>729.5</ele>
        <time>2016-10-26T12:22:45Z</time>
      </trkpt>
      <trkpt lat="43.84596" lon="6.50756">
        <ele>729.5</ele>
        <time>2016-10-26T12:22:47Z</time>
      </trkpt>
      <trkpt lat="43.846" lon="6.50773">
        <ele>729.5</ele>
        <time>2016-10-26T12:22:49Z</time>
      </trkpt>
      <trkpt lat="43.84604" lon="6.50789">
        <ele>729.4</ele>
        <time>2016-10-26T12:22:51Z</time>
      </trkpt>
      <trkpt lat="43.84607" lon="6.50805">
        <ele>729.4</ele>
        <time>2016-10-26T12:22:53Z</time>
      </trkpt>
      <trkpt lat="43.8461" lon="6.50822">
        <ele>729.4</ele>
        <time>2016-10-26T12:22:55Z</time>
      </trkpt>
      <trkpt lat="43.84614" lon="6.50838">
        <ele>729.4</ele>
        <time>2016-10-26T12:22:57Z</time>
      </trkpt>
      <trkpt lat="43.84617" lon="6.50854">
        <ele>729.3</ele>
        <time>2016-10-26T12:22:59Z</time>
      </trkpt>
      <trkpt lat="43.84619" lon="6.5087">
        <ele>729.2</ele>
        <time>2016-10-26T12:23:01Z</time>
      </trkpt>
      <trkpt lat="43.8462" lon="6.50888">
        <ele>729.1</ele>
        <time>2016-10-26T12:23:03Z</time>
      </trkpt>
      <trkpt lat="43.84619" lon="6.50905">
        <ele>729</ele>
        <time>2016-10-26T12:23:05Z</time>
      </trkpt>
      <trkpt lat="43.84619" lon="6.50923">
        <ele>728.9</ele>
        <time>2016-10-26T12:23:07Z</time>
      </trkpt>
      <trkpt lat="43.84618" lon="6.5094">
        <ele>728.8</ele>
        <time>2016-10-26T12:23:09Z</time>
      </trkpt>
      <trkpt lat="43.84616" lon="6.50957">
        <ele>728.8</ele>
        <time>2016-10-26T12:23:11Z</time>
      </trkpt>
      <trkpt lat="43.84616" lon="6.50973">
        <ele>728.7</ele>
        <time>2016-10-26T12:23:13Z</time>
      </trkpt>
      <trkpt lat="43.84616" lon="6.50988">
        <ele>728.7</ele>
        <time>2016-10-26T12:23:15Z</time>
      </trkpt>
      <trkpt lat="43.84615" lon="6.51004">
        <ele>728.6</ele>
        <time>2016-10-26T12:23:17Z</time>
      </trkpt>
      <trkpt lat="43.84614" lon="6.5102">
        <ele>728.6</ele>
        <time>2016-10-26T12:23:19Z</time>
      </trkpt>
      <trkpt lat="43.84614" lon="6.51037">
        <ele>728.5</ele>
        <time>2016-10-26T12:23:21Z</time>
      </trkpt>
      <trkpt lat="43.84613" lon="6.51052">
        <ele>728.5</ele>
        <time>2016-10-26T12:23:23Z</time>
      </trkpt>
      <trkpt lat="43.84613" lon="6.51068">
        <ele>728.5</ele>
        <time>2016-10-26T12:23:25Z</time>
      </trkpt>
      <trkpt lat="43.84612" lon="6.51084">
        <ele>728.5</ele>
        <time>2016-10-26T12:23:27Z</time>
      </trkpt>
      <trkpt lat="43.84611" lon="6.51099">
        <ele>728.5</ele>
        <time>2016-10-26T12:23:29Z</time>
      </trkpt>
      <trkpt lat="43.8461" lon="6.51114">
        <ele>728.4</ele>
        <time>2016-10-26T12:23:31Z</time>
      </trkpt>
      <trkpt lat="43.8461" lon="6.51129">
        <ele>728.5</ele>
        <time>2016-10-26T12:23:33Z</time>
      </trkpt>
      <trkpt lat="43.8461" lon="6.51144">
        <ele>728.6</ele>
        <time>2016-10-26T12:23:35Z</time>
      </trkpt>
      <trkpt lat="43.84609" lon="6.51159">
        <ele>728.7</ele>
        <time>2016-10-26T12:23:37Z</time>
      </trkpt>
      <trkpt lat="43.84609" lon="6.51174">
        <ele>728.9</ele>
        <time>2016-10-26T12:23:39Z</time>
      </trkpt>
      <trkpt lat="43.84609" lon="6.51188">
        <ele>729</ele>
        <time>2016-10-26T12:23:41Z</time>
      </trkpt>
      <trkpt lat="43.84608" lon="6.51203">
        <ele>729.1</ele>
        <time>2016-10-26T12:23:43Z</time>
      </trkpt>
      <trkpt lat="43.84606" lon="6.51217">
        <ele>729.1</ele>
        <time>2016-10-26T12:23:45Z</time>
      </trkpt>
      <trkpt lat="43.84605" lon="6.51231">
        <ele>729.2</ele>
        <time>2016-10-26T12:23:47Z</time>
      </trkpt>
      <trkpt lat="43.84602" lon="6.51249">
        <ele>729.3</ele>
        <time>2016-10-26T12:23:50Z</time>
      </trkpt>
      <trkpt lat="43.84599" lon="6.51263">
        <ele>729.4</ele>
        <time>2016-10-26T12:23:52Z</time>
      </trkpt>
      <trkpt lat="43.84596" lon="6.51276">
        <ele>729.4</ele>
        <time>2016-10-26T12:23:54Z</time>
      </trkpt>
      <trkpt lat="43.84593" lon="6.5129">
        <ele>729.4</ele>
        <time>2016-10-26T12:23:56Z</time>
      </trkpt>
      <trkpt lat="43.84591" lon="6.51303">
        <ele>729.5</ele>
        <time>2016-10-26T12:23:58Z</time>
      </trkpt>
      <trkpt lat="43.84588" lon="6.51317">
        <ele>729.5</ele>
        <time>2016-10-26T12:24:00Z</time>
      </trkpt>
      <trkpt lat="43.84585" lon="6.5133">
        <ele>729.5</ele>
        <time>2016-10-26T12:24:02Z</time>
      </trkpt>
      <trkpt lat="43.84583" lon="6.51343">
        <ele>729.6</ele>
        <time>2016-10-26T12:24:04Z</time>
      </trkpt>
      <trkpt lat="43.8458" lon="6.51356">
        <ele>729.6</ele>
        <time>2016-10-26T12:24:06Z</time>
      </trkpt>
      <trkpt lat="43.8458" lon="6.51369">
        <ele>729.6</ele>
        <time>2016-10-26T12:24:08Z</time>
      </trkpt>
      <trkpt lat="43.84578" lon="6.51382">
        <ele>729.6</ele>
        <time>2016-10-26T12:24:10Z</time>
      </trkpt>
      <trkpt lat="43.84575" lon="6.51394">
        <ele>729.7</ele>
        <time>2016-10-26T12:24:12Z</time>
      </trkpt>
      <trkpt lat="43.84571" lon="6.51405">
        <ele>729.8</ele>
        <time>2016-10-26T12:24:14Z</time>
      </trkpt>
      <trkpt lat="43.84562" lon="6.51418">
        <ele>730</ele>
        <time>2016-10-26T12:24:17Z</time>
      </trkpt>
      <trkpt lat="43.84552" lon="6.51429">
        <ele>730.3</ele>
        <time>2016-10-26T12:24:20Z</time>
      </trkpt>
      <trkpt lat="43.84544" lon="6.5144">
        <ele>730.6</ele>
        <time>2016-10-26T12:24:23Z</time>
      </trkpt>
      <trkpt lat="43.84537" lon="6.51447">
        <ele>730.9</ele>
        <time>2016-10-26T12:24:26Z</time>
      </trkpt>
      <trkpt lat="43.84526" lon="6.51441">
        <ele>731.3</ele>
        <time>2016-10-26T12:24:31Z</time>
      </trkpt>
      <trkpt lat="43.84523" lon="6.51435">
        <ele>746.6</ele>
        <time>2016-10-26T13:34:54Z</time>
      </trkpt>
    </trkseg>
  </trk>
</gpx>